# Wetter Temperatur Luftdruck Luftfeuchtigkeit Sichtweite Windgeschwindigkeit Windrichtung Zeit
1 Clear 29 1010 14 0 2.81 211 05:36 11.07.2020
2 Clear 32 1010 13 0 2.68 209 04:56 11.07.2020
3 Clear 33 1010 13 0 3.13 200 04:33 11.07.2020
4 Clear 34 1010 12 0 1.34 233 03:32 11.07.2020
5 Clear 34 1010 10 0 2.68 171 02:47 11.07.2020
6 Clear 35 1010 8 0 3.13 193 01:51 11.07.2020
7 Clear 36 1011 5 0 2.68 210 01:19 11.07.2020
8 Clear 36 1011 2 0 3.13 160 00:41 11.07.2020
9 Clear 37 1011 2 0 2.68 227 00:22 11.07.2020
10 Clear 38 1011 6 0 1.79 110 23:58 10.07.2020
11 Clear 38 1011 6 0 2.68 64 23:40 10.07.2020
12 Clouds 45 1013 5 0 3.54 171 23:20 10.07.2020
13 Clouds 37 1011 6 0 1.79 45 22:47 10.07.2020
14 Clouds 36 1011 7 0 2.24 54 22:23 10.07.2020
15 Clouds 36 1012 8 0 2.24 50 21:59 10.07.2020
16 Clouds 35 1012 7 0 2.68 8 21:38 10.07.2020
17 Clear 41 1014 7 0 2.49 164 21:19 10.07.2020
18 Clear 41 1014 7 0 2.49 164 20:43 10.07.2020
19 Clouds 40 1015 8 0 1.72 156 20:24 10.07.2020
20 Clouds 40 1015 8 0 1.72 156 19:59 10.07.2020
21 Clouds 40 1015 8 0 1.72 156 19:41 10.07.2020
22 Clouds 32 1012 9 0 1.34 45 19:21 10.07.2020
23 Clouds 32 1011 10 0 1.79 100 18:54 10.07.2020
24 Clouds 31 1011 12 0 0.89 81 18:36 10.07.2020
25 Clouds 37 1015 11 0 0.93 152 18:18 10.07.2020
26 Clouds 24 1011 19 0 0.45 119 17:41 10.07.2020
27 Clear 24 1011 21 0 0.45 119 17:22 10.07.2020
28 Clear 21 1011 24 0 0.96 175 16:57 10.07.2020
29 Clear 35 1015 11 0 0.96 175 16:38 10.07.2020
30 Clear 18 1011 28 0 0.57 186 16:18 10.07.2020
31 Clear 33 1014 13 0 0.57 186 15:43 10.07.2020
32 Clear 28 1014 17 0 0.95 147 15:20 10.07.2020
33 Clear 28 1014 17 0 0.95 147 14:43 10.07.2020
34 Clear 28 1013 15 0 1.16 143 14:23 10.07.2020
35 Clear 28 1013 15 0 1.16 143 13:58 10.07.2020
36 Clear 28 1013 15 0 1.16 143 13:40 10.07.2020
37 Clear 30 1012 14 0 2.04 148 13:22 10.07.2020
38 Clear 30 1012 14 0 2.04 148 12:59 10.07.2020
39 Clear 30 1012 14 0 2.04 148 12:41 10.07.2020
40 Clear 31 1012 13 0 2.39 161 12:22 10.07.2020
41 Clear 31 1012 13 0 2.39 161 11:57 10.07.2020
42 Clear 31 1012 13 0 2.39 161 11:38 10.07.2020
43 Clear 32 1012 12 0 2.52 167 11:18 10.07.2020
44 Clear 21 1008 16 0 2.52 167 10:41 10.07.2020
45 Clear 21 1008 15 0 2.33 167 10:21 10.07.2020
46 Clear 19 1008 15 0 0.45 90 09:56 10.07.2020
47 Clear 19 1008 16 0 2.92 169 09:36 10.07.2020
48 Clear 34 1011 11 0 2.78 171 09:18 10.07.2020
49 Clear 34 1011 11 0 2.78 171 08:55 10.07.2020
50 Clear 34 1011 11 0 2.78 171 08:36 10.07.2020
51 Clear 34 1010 11 0 2.63 170 08:18 10.07.2020
52 Clear 23 1007 14 0 2.63 170 07:41 10.07.2020
53 Clear 23 1007 14 0 2.97 169 07:20 10.07.2020
54 Clear 25 1007 14 0 2.97 169 06:48 10.07.2020
55 Clear 28 1006 12 0 3.79 176 05:55 10.07.2020
56 Clear 32 1005 7 0 2.24 191 04:32 10.07.2020
57 Clear 34 1005 7 0 1.79 200 03:31 10.07.2020
58 Clear 34 1005 7 0 2.24 107 02:51 10.07.2020
59 Clear 34 1005 7 0 2.24 206 01:48 10.07.2020
60 Clear 43 1006 6 0 2.67 159 00:47 10.07.2020
61 Clear 43 1007 6 0 2.91 157 00:19 10.07.2020
62 Clear 43 1007 6 0 2.91 157 23:46 09.07.2020
63 Clear 42 1007 7 0 2.58 162 23:21 09.07.2020
64 Clear 42 1007 7 0 2.58 162 22:58 09.07.2020
65 Clear 42 1007 7 0 2.58 162 22:40 09.07.2020
66 Clear 40 1009 8 0 2.46 165 22:21 09.07.2020
67 Clear 34 1006 11 0 2.68 60 21:56 09.07.2020
68 Clear 34 1006 11 0 2.24 67 21:38 09.07.2020
69 Clear 34 1006 11 0 2.24 67 21:38 09.07.2020
70 Clear 39 1010 8 0 1.73 152 21:19 09.07.2020
71 Clear 39 1010 8 0 1.73 152 20:45 09.07.2020
72 Clear 37 1010 10 0 1.52 142 20:25 09.07.2020
73 Clear 37 1010 10 0 1.52 142 19:58 09.07.2020
74 Clear 37 1010 10 0 1.52 142 19:40 09.07.2020
75 Clear 35 1010 12 0 1.48 147 19:21 09.07.2020
76 Clear 35 1010 12 0 1.48 147 18:43 09.07.2020
77 Clear 34 1010 13 0 1.36 155 18:22 09.07.2020
78 Clear 34 1010 13 0 1.36 155 17:56 09.07.2020
79 Clear 26 1006 17 0 1.34 109 17:38 09.07.2020
80 Clear 24 1005 19 0 0.98 178 17:19 09.07.2020
81 Clear 21 1005 24 0 0.45 125 16:55 09.07.2020
82 Clear 19 1005 27 0 0.98 178 16:37 09.07.2020
83 Clear 17 1005 31 0 0.75 182 16:19 09.07.2020
84 Clear 31 1010 15 0 0.75 182 15:55 09.07.2020
85 Clear 31 1010 15 0 0.75 182 15:36 09.07.2020
86 Clear 26 1009 20 0 0.7 189 15:18 09.07.2020
87 Clear 26 1009 20 0 0.7 189 14:57 09.07.2020
88 Clear 26 1009 20 0 0.7 189 14:38 09.07.2020
89 Clear 26 1009 18 0 0.77 199 14:19 09.07.2020
90 Clear 26 1009 18 0 0.77 199 13:41 09.07.2020
91 Clear 27 1009 17 0 1.01 160 13:21 09.07.2020
92 Clear 27 1009 17 0 1.01 160 12:59 09.07.2020
93 Clear 27 1009 17 0 1.01 160 12:39 09.07.2020
94 Clear 28 1009 15 0 1.47 151 12:20 09.07.2020
95 Clear 28 1009 15 0 1.47 151 11:55 09.07.2020
96 Clear 28 1009 15 0 1.47 151 11:37 09.07.2020
97 Clear 29 1009 14 0 2.14 148 11:18 09.07.2020
98 Clear 29 1009 14 0 2.14 148 10:42 09.07.2020
99 Clear 18 1004 24 0 2.41 154 10:24 09.07.2020
100 Clear 19 1005 21 0 2.41 154 09:59 09.07.2020
101 Clear 21 1004 20 0 2.41 154 09:41 09.07.2020
102 Clear 32 1008 12 0 2.47 161 09:21 09.07.2020
103 Clear 23 1004 17 0 2.47 161 08:45 09.07.2020
104 Clear 24 1004 16 0 0.45 160 08:25 09.07.2020
105 Clear 23 1004 16 0 0.89 187 07:47 09.07.2020
106 Clear 24 1004 16 0 0.45 75 07:25 09.07.2020
107 Clear 26 1004 16 0 0.89 171 06:55 09.07.2020
108 Clear 35 1006 9 0 4.05 176 06:20 09.07.2020
109 Clear 28 1003 15 0 0.45 158 05:37 09.07.2020
110 Clear 31 1003 10 0 2.24 250 04:28 09.07.2020
111 Clear 33 1003 8 0 2.68 182 02:33 09.07.2020
112 Clear 33 1003 6 0 3.13 218 01:39 09.07.2020
113 Clear 34 1004 4 0 2.24 229 00:56 09.07.2020
114 Clear 42 1006 6 0 3.47 163 00:25 09.07.2020
115 Clear 42 1006 6 0 3.47 163 23:58 08.07.2020
116 Clear 42 1006 6 0 3.47 163 23:39 08.07.2020
117 Clear 41 1007 7 0 3.31 162 23:21 08.07.2020
118 Clear 41 1007 7 0 3.31 162 22:54 08.07.2020
119 Clear 41 1007 7 0 3.31 162 22:36 08.07.2020
120 Clear 41 1007 7 0 3.31 162 22:36 08.07.2020
121 Clear 40 1008 7 0 2.85 162 22:18 08.07.2020
122 Clear 40 1008 7 0 2.85 162 21:39 08.07.2020
123 Clear 39 1009 8 0 1.91 152 21:21 08.07.2020
124 Clear 39 1009 8 0 1.91 152 20:58 08.07.2020
125 Clear 39 1009 8 0 1.91 152 20:58 08.07.2020
126 Clear 39 1009 8 0 1.91 152 20:40 08.07.2020
127 Clear 37 1010 9 0 1.79 149 20:22 08.07.2020
128 Clear 37 1010 9 0 1.79 149 19:43 08.07.2020
129 Clear 36 1010 9 0 1.78 150 19:25 08.07.2020
130 Clear 30 1006 7 0 1.79 71 18:59 08.07.2020
131 Clear 29 1006 8 0 1.34 27 18:40 08.07.2020
132 Clear 34 1010 10 0 1.57 156 18:21 08.07.2020
133 Clear 34 1010 10 0 1.57 156 17:57 08.07.2020
134 Clear 34 1010 10 0 1.57 156 17:38 08.07.2020
135 Clear 25 1005 12 0 0.45 59 17:20 08.07.2020
136 Clear 25 1005 12 0 0.45 59 17:20 08.07.2020
137 Clear 22 1005 16 0 1.31 174 16:56 08.07.2020
138 Clear 19 1005 19 0 1.31 174 16:37 08.07.2020
139 Clear 17 1005 22 0 0.45 35 16:18 08.07.2020
140 Clear 31 1009 13 0 0.95 173 15:56 08.07.2020
141 Clear 31 1009 13 0 0.95 173 15:38 08.07.2020
142 Clear 26 1009 17 0 0.86 161 15:18 08.07.2020
143 Clear 26 1010 17 0 0.68 149 14:42 08.07.2020
144 Clear 26 1009 16 0 0.87 166 14:21 08.07.2020
145 Clear 26 1009 16 0 0.87 166 13:46 08.07.2020
146 Clear 26 1009 16 0 0.76 172 13:28 08.07.2020
147 Clear 26 1009 16 0 0.76 172 12:58 08.07.2020
148 Clear 26 1009 16 0 0.76 172 12:40 08.07.2020
149 Clear 27 1008 15 0 0.93 157 12:19 08.07.2020
150 Clear 27 1008 15 0 0.93 157 11:39 08.07.2020
151 Clear 28 1008 14 0 1.27 143 11:21 08.07.2020
152 Clear 28 1008 14 0 1.27 143 10:59 08.07.2020
153 Clear 28 1008 14 0 1.27 143 10:41 08.07.2020
154 Clear 29 1008 12 0 1.34 136 10:23 08.07.2020
155 Clear 18 1004 17 0 1.34 136 09:45 08.07.2020
156 Clear 31 1008 12 0 1.65 143 09:25 08.07.2020
157 Clear 22 1004 13 0 0.89 342 08:44 08.07.2020
158 Clear 22 1004 13 0 1.34 336 08:25 08.07.2020
159 Clear 23 1004 12 0 1.79 35 07:57 08.07.2020
160 Clear 22 1004 12 0 0.89 25 07:38 08.07.2020
161 Clear 22 1004 12 0 0.89 25 07:19 08.07.2020
162 Clear 24 1003 11 0 3.37 176 06:43 08.07.2020
163 Clear 35 1007 9 0 3.46 173 06:24 08.07.2020
164 Clear 35 1007 9 0 3.46 173 05:44 08.07.2020
165 Clear 35 1007 9 0 3.46 173 05:44 08.07.2020
166 Clear 31 1002 6 0 2.24 243 04:44 08.07.2020
167 Clear 34 1002 4 0 1.34 190 03:33 08.07.2020
168 Clear 35 1002 3 0 1.34 146 02:19 08.07.2020
169 Clear 37 1003 2 0 1.79 219 01:38 08.07.2020
170 Clear 37 1003 5 0 1.79 40 00:50 08.07.2020
171 Clear 43 1006 5 0 1.84 208 00:19 08.07.2020
172 Clear 43 1006 5 0 1.84 208 23:43 07.07.2020
173 Clear 42 1007 6 0 1.81 192 23:22 07.07.2020
174 Clear 42 1007 6 0 1.81 192 22:56 07.07.2020
175 Clear 34 1005 7 0 2.24 40 22:38 07.07.2020
176 Clear 41 1008 6 0 2.53 172 22:19 07.07.2020
177 Clear 33 1005 8 0 2.24 54 21:56 07.07.2020
178 Clear 33 1005 9 0 2.24 33 21:38 07.07.2020
179 Clear 39 1009 7 0 2.64 163 21:18 07.07.2020
180 Clear 39 1009 7 0 2.64 163 20:42 07.07.2020
181 Clear 38 1010 8 0 2.2 162 20:23 07.07.2020
182 Clear 38 1010 8 0 2.2 162 19:58 07.07.2020
183 Clear 30 1005 12 0 1.79 66 19:39 07.07.2020
184 Clear 30 1005 12 0 1.79 66 19:39 07.07.2020
185 Clear 29 1005 13 0 1.79 25 19:20 07.07.2020
186 Clear 28 1005 14 0 1.79 58 18:55 07.07.2020
187 Clear 27 1005 15 0 1.79 60 18:37 07.07.2020
188 Clear 35 1010 10 0 2.38 160 18:19 07.07.2020
189 Clear 26 1005 17 0 1.79 50 17:55 07.07.2020
190 Clear 24 1005 18 0 1.34 33 17:36 07.07.2020
191 Clear 23 1005 20 0 1.34 64 17:18 07.07.2020
192 Clear 19 1004 24 0 0.45 95 16:42 07.07.2020
193 Clear 18 1004 27 0 1.95 155 16:22 07.07.2020
194 Clear 32 1010 12 0 1.95 155 15:55 07.07.2020
195 Clear 32 1010 12 0 1.95 155 15:37 07.07.2020
196 Clear 27 1009 15 0 1.58 146 15:18 07.07.2020
197 Clear 27 1009 15 0 1.58 146 14:43 07.07.2020
198 Clear 28 1008 15 0 1.8 148 14:24 07.07.2020
199 Clear 28 1009 15 0 1.98 150 13:44 07.07.2020
200 Clear 29 1009 13 0 2.38 155 13:21 07.07.2020
201 Clear 29 1009 13 0 2.38 155 12:57 07.07.2020
202 Clear 29 1009 13 0 2.38 155 12:38 07.07.2020
203 Clear 30 1009 13 0 2.5 161 12:20 07.07.2020
204 Clear 30 1009 13 0 2.5 161 11:44 07.07.2020
205 Clear 31 1009 12 0 2.74 176 11:22 07.07.2020
206 Clear 21 1003 16 0 2.74 176 10:58 07.07.2020
207 Clear 21 1003 15 0 0.89 56 10:40 07.07.2020
208 Clear 21 1003 15 0 0.89 40 10:21 07.07.2020
209 Clear 19 1003 16 0 0.45 50 09:55 07.07.2020
210 Clear 19 1004 16 0 0.45 77 09:37 07.07.2020
211 Clear 34 1008 10 0 4.19 177 09:18 07.07.2020
212 Clear 34 1008 10 0 4.19 177 08:40 07.07.2020
213 Clear 35 1008 10 0 4.14 177 08:20 07.07.2020
214 Clear 24 1003 15 0 4.14 177 07:39 07.07.2020
215 Clear 24 1003 16 0 0.45 144 07:20 07.07.2020
216 Clear 26 1003 15 0 1.34 154 06:48 07.07.2020
217 Clear 37 1006 9 0 4.35 175 06:27 07.07.2020
218 Clear 37 1006 9 0 4.35 175 05:47 07.07.2020
219 Clear 29 1002 11 0 1.79 160 05:20 07.07.2020
220 Clear 32 1002 12 0 3.13 199 04:36 07.07.2020
221 Clear 34 1002 12 0 3.13 196 03:35 07.07.2020
222 Clear 34 1003 10 0 2.68 166 02:18 07.07.2020
223 Clear 35 1004 8 0 3.13 235 01:22 07.07.2020
224 Clear 35 1004 8 0 3.13 230 00:42 07.07.2020
225 Clear 35 1004 8 0 3.58 191 00:23 07.07.2020
226 Clear 36 1004 8 0 3.58 256 23:45 06.07.2020
227 Clear 36 1004 5 0 1.79 206 23:26 06.07.2020
228 Clear 37 1005 6 0 2.68 85 22:59 06.07.2020
229 Clear 37 1005 6 0 2.68 89 22:40 06.07.2020
230 Clear 44 1009 6 0 4.96 163 22:19 06.07.2020
231 Clear 44 1009 6 0 4.96 163 21:57 06.07.2020
232 Clear 37 1005 9 0 3.58 348 21:38 06.07.2020
233 Clear 42 1009 6 0 3.27 165 21:19 06.07.2020
234 Clear 42 1009 6 0 3.27 165 20:57 06.07.2020
235 Clear 42 1009 6 0 3.27 165 20:37 06.07.2020
236 Clear 40 1010 7 0 2.41 163 20:19 06.07.2020
237 Clear 40 1010 7 0 2.41 163 19:56 06.07.2020
238 Clear 40 1010 7 0 2.41 163 19:37 06.07.2020
239 Clear 39 1010 8 0 2.07 159 19:19 06.07.2020
240 Clear 33 1006 12 0 1.34 74 18:41 06.07.2020
241 Clear 38 1011 9 0 1.82 161 18:23 06.07.2020
242 Clear 38 1011 9 0 1.82 161 17:59 06.07.2020
243 Clear 29 1006 17 0 0.89 54 17:41 06.07.2020
244 Clear 28 1006 18 0 1.53 170 17:21 06.07.2020
245 Clear 23 1005 25 0 1.53 170 16:55 06.07.2020
246 Clear 36 1011 9 0 1.53 170 16:37 06.07.2020
247 Clear 19 1005 32 0 1.27 174 16:18 06.07.2020
248 Clear 35 1011 10 0 1.27 174 15:42 06.07.2020
249 Clear 30 1010 14 0 1.15 177 15:24 06.07.2020
250 Clear 30 1010 14 0 1.15 177 14:57 06.07.2020
251 Clear 30 1010 14 0 1.15 177 14:37 06.07.2020
252 Clear 30 1009 14 0 1.17 178 14:19 06.07.2020
253 Clear 30 1010 14 0 0.96 181 13:51 06.07.2020
254 Clear 31 1009 13 0 1.09 165 13:28 06.07.2020
255 Clear 31 1009 13 0 1.09 165 12:59 06.07.2020
256 Clear 31 1009 13 0 1.09 165 12:41 06.07.2020
257 Clear 32 1009 12 0 1.74 157 12:18 06.07.2020
258 Clear 32 1009 12 0 1.74 157 11:57 06.07.2020
259 Clear 32 1009 12 0 1.74 157 11:38 06.07.2020
260 Clear 33 1010 12 0 1.94 164 11:19 06.07.2020
261 Clear 33 1010 12 0 1.94 164 10:43 06.07.2020
262 Clear 34 1010 11 0 1.98 174 10:22 06.07.2020
263 Clear 34 1010 11 0 1.98 174 09:59 06.07.2020
264 Clear 34 1010 11 0 1.98 174 09:41 06.07.2020
265 Clear 35 1009 10 0 1.97 181 09:21 06.07.2020
266 Clear 35 1009 10 0 1.97 181 08:55 06.07.2020
267 Clear 35 1009 10 0 1.97 181 08:37 06.07.2020
268 Clear 35 1009 10 0 1.69 184 08:19 06.07.2020
269 Clear 35 1009 10 0 1.69 184 07:43 06.07.2020
270 Clear 24 1005 19 0 2.43 175 07:23 06.07.2020
271 Clear 26 1005 15 0 2.43 175 06:42 06.07.2020
272 Clear 37 1008 8 0 2.26 183 06:23 06.07.2020
273 Clear 37 1008 8 0 2.26 183 05:41 06.07.2020
274 Clear 32 1005 9 0 2.24 234 04:55 06.07.2020
275 Clear 34 1005 7 0 0.89 183 03:42 06.07.2020
276 Clear 35 1005 7 0 1.79 199 02:23 06.07.2020
277 Clear 36 1006 6 0 0.89 174 01:39 06.07.2020
278 Clear 44 1008 6 0 2.52 156 00:39 06.07.2020
279 Clear 44 1009 6 0 2.7 157 00:20 06.07.2020
280 Clear 44 1009 6 0 2.7 157 23:44 05.07.2020
281 Clear 43 1010 6 0 2.41 157 23:25 05.07.2020
282 Clear 43 1010 6 0 2.41 157 22:59 05.07.2020
283 Clear 43 1010 6 0 2.41 157 22:40 05.07.2020
284 Clear 42 1011 6 0 1.82 152 22:20 05.07.2020
285 Clear 42 1011 6 0 1.82 152 22:20 05.07.2020
286 Clear 42 1011 6 0 1.82 152 21:57 05.07.2020
287 Clear 42 1011 6 0 1.82 152 21:39 05.07.2020
288 Clear 41 1012 7 0 1.25 144 21:18 05.07.2020
289 Clear 41 1012 7 0 1.25 144 20:58 05.07.2020
290 Clear 41 1012 7 0 1.25 144 20:39 05.07.2020
291 Clear 40 1013 7 0 1.12 136 20:20 05.07.2020
292 Clear 40 1013 7 0 1.12 136 19:43 05.07.2020
293 Clear 39 1013 8 0 1.18 144 19:21 05.07.2020
294 Clear 33 1009 9 0 0.89 25 18:58 05.07.2020
295 Clear 31 1009 10 0 0.45 94 18:40 05.07.2020
296 Clear 37 1013 9 0 1.42 152 18:21 05.07.2020
297 Clear 37 1013 9 0 1.42 152 17:55 05.07.2020
298 Clear 29 1010 13 0 0.89 321 17:37 05.07.2020
299 Clear 28 1010 13 0 1.79 340 17:18 05.07.2020
300 Clear 24 1010 16 0 0.89 290 16:42 05.07.2020
301 Clear 23 1010 17 0 1.34 327 16:24 05.07.2020
302 Clear 22 1010 19 0 0.89 324 15:55 05.07.2020
303 Clear 20 1010 20 0 0.89 320 15:37 05.07.2020
304 Clear 19 1010 21 0 0.89 307 15:18 05.07.2020
305 Clear 29 1013 14 0 0.78 205 14:41 05.07.2020
306 Clear 29 1013 14 0 0.52 196 14:21 05.07.2020
307 Clear 29 1013 14 0 0.52 196 13:42 05.07.2020
308 Clear 30 1012 13 0 0.95 185 13:24 05.07.2020
309 Clear 30 1012 13 0 0.95 185 12:56 05.07.2020
310 Clear 30 1012 13 0 0.95 185 12:38 05.07.2020
311 Clear 31 1012 12 0 1.33 163 12:20 05.07.2020
312 Clear 31 1012 12 0 1.33 163 11:54 05.07.2020
313 Clear 31 1012 12 0 1.33 163 11:36 05.07.2020
314 Clear 32 1012 12 0 1.47 158 11:18 05.07.2020
315 Clear 32 1012 12 0 1.47 158 10:42 05.07.2020
316 Clear 32 1012 11 0 1.6 173 10:19 05.07.2020
317 Clear 32 1012 11 0 1.6 173 09:58 05.07.2020
318 Clear 32 1012 11 0 1.6 173 09:40 05.07.2020
319 Clear 34 1012 10 0 1.78 184 09:20 05.07.2020
320 Clear 34 1012 10 0 1.99 179 08:47 05.07.2020
321 Clear 35 1012 10 0 1.74 182 08:29 05.07.2020
322 Clear 23 1009 16 0 0.45 223 07:48 05.07.2020
323 Clear 23 1009 17 0 1.97 175 07:29 05.07.2020
324 Clear 24 1009 15 0 1.97 175 06:52 05.07.2020
325 Clear 27 1008 10 0 2.99 173 05:42 05.07.2020
326 Clear 33 1007 8 0 2.24 133 03:35 05.07.2020
327 Clear 33 1008 8 0 3.13 227 02:43 05.07.2020
328 Clear 33 1008 7 0 3.13 110 02:25 05.07.2020
329 Clear 34 1008 7 0 3.58 181 01:41 05.07.2020
330 Clear 34 1008 5 0 2.24 228 01:20 05.07.2020
331 Clear 34 1009 5 0 3.13 228 00:41 05.07.2020
332 Clear 36 1009 4 0 1.34 198 00:23 05.07.2020
333 Clear 36 1010 8 0 2.24 25 23:48 04.07.2020
334 Clear 43 1010 6 0 3.02 171 23:30 04.07.2020
335 Clear 42 1012 6 0 2.38 163 22:58 04.07.2020
336 Clear 35 1011 11 0 3.58 26 22:40 04.07.2020
337 Clear 41 1013 7 0 2.2 155 22:21 04.07.2020
338 Clear 34 1011 12 0 2.68 40 21:55 04.07.2020
339 Clear 34 1011 12 0 2.24 50 21:36 04.07.2020
340 Clear 40 1014 8 0 1.81 157 21:18 04.07.2020
341 Clear 40 1014 8 0 1.73 156 20:41 04.07.2020
342 Clear 38 1015 8 0 1.25 155 20:20 04.07.2020
343 Clear 38 1015 8 0 1.25 155 19:55 04.07.2020
344 Clear 31 1011 14 0 1.79 57 19:36 04.07.2020
345 Clear 31 1012 15 0 1.34 69 19:18 04.07.2020
346 Clear 29 1012 16 0 0.89 50 18:42 04.07.2020
347 Clear 35 1015 10 0 0.97 164 18:22 04.07.2020
348 Clear 24 1012 22 0 0.45 123 17:44 04.07.2020
349 Clear 23 1012 24 0 0.45 123 17:26 04.07.2020
350 Clear 20 1012 28 0 0.76 183 16:58 04.07.2020
351 Clear 34 1015 11 0 0.76 183 16:39 04.07.2020
352 Clear 17 1011 35 0 0.59 156 16:21 04.07.2020
353 Clear 32 1015 12 0 0.59 156 15:56 04.07.2020
354 Clear 32 1015 12 0 0.59 156 15:37 04.07.2020
355 Clear 28 1015 15 0 1.47 153 15:19 04.07.2020
356 Clear 28 1015 15 0 1.47 153 14:55 04.07.2020
357 Clear 28 1015 15 0 1.34 151 14:36 04.07.2020
358 Clear 28 1014 15 0 2.1 156 14:18 04.07.2020
359 Clear 28 1014 15 0 2.1 156 14:18 04.07.2020
360 Clear 28 1014 15 0 2.1 156 13:41 04.07.2020
361 Clear 29 1014 14 0 2.39 164 13:19 04.07.2020
362 Clear 29 1014 14 0 2.39 164 12:43 04.07.2020
363 Clear 30 1013 13 0 2.38 168 12:24 04.07.2020
364 Clear 30 1013 13 0 2.38 168 11:59 04.07.2020
365 Clear 30 1013 13 0 2.38 168 11:40 04.07.2020
366 Clear 31 1014 13 0 2.37 172 11:22 04.07.2020
367 Clear 31 1014 13 0 2.37 172 10:55 04.07.2020
368 Clear 18 1010 27 0 2.37 172 10:36 04.07.2020
369 Clear 19 1010 26 0 2.19 176 10:18 04.07.2020
370 Clear 21 1010 25 0 2.19 176 09:40 04.07.2020
371 Clear 22 1010 24 0 0.45 91 09:21 04.07.2020
372 Clear 22 1010 24 0 0.89 137 08:57 04.07.2020
373 Clear 22 1010 24 0 0.89 322 08:39 04.07.2020
374 Clear 22 1010 24 0 0.45 198 08:19 04.07.2020
375 Clear 22 1010 24 0 2.41 178 07:39 04.07.2020
376 Clear 23 1010 21 0 0.89 193 06:59 04.07.2020
377 Clear 24 1010 20 0 0.45 200 06:38 04.07.2020
378 Clear 34 1012 10 0 3.39 191 06:18 04.07.2020
379 Clear 26 1009 13 0 1.79 208 05:28 04.07.2020
380 Clear 31 1009 8 0 4.02 158 03:56 04.07.2020
381 Clear 32 1008 8 0 3.13 216 02:41 04.07.2020
382 Clear 32 1009 6 0 2.24 151 01:40 04.07.2020
383 Clear 32 1009 7 0 1.79 176 00:54 04.07.2020
384 Clear 32 1009 7 0 2.68 212 00:36 04.07.2020
385 Clear 32 1010 7 0 3.13 119 00:18 04.07.2020
386 Clear 32 1010 8 0 2.68 209 23:39 03.07.2020
387 Clear 33 1010 7 0 2.24 156 23:18 03.07.2020
388 Clear 34 1010 10 0 2.24 36 22:42 03.07.2020
389 Clear 33 1010 12 0 3.13 6 22:24 03.07.2020
390 Clear 32 1010 14 0 1.79 50 21:59 03.07.2020
391 Clear 32 1010 15 0 1.79 350 21:38 03.07.2020
392 Clear 31 1010 16 0 3.13 17 21:19 03.07.2020
393 Clear 30 1010 17 0 3.13 35 20:43 03.07.2020
394 Clear 29 1010 17 0 3.13 11 20:25 03.07.2020
395 Clear 29 1010 18 0 2.68 3 19:57 03.07.2020
396 Clear 28 1010 18 0 2.68 26 19:39 03.07.2020
397 Clear 28 1010 19 0 1.34 33 19:18 03.07.2020
398 Clear 28 1010 19 0 1.34 33 19:18 03.07.2020
399 Clear 26 1010 21 0 1.79 27 18:45 03.07.2020
400 Clear 26 1010 22 0 1.79 55 18:23 03.07.2020
401 Clear 24 1011 24 0 2.24 58 17:56 03.07.2020
402 Clear 23 1011 25 0 1.34 83 17:38 03.07.2020
403 Clear 22 1011 27 0 0.89 64 17:19 03.07.2020
404 Clear 33 1013 13 0 2.75 171 16:40 03.07.2020
405 Clear 17 1011 36 0 0.45 187 16:21 03.07.2020
406 Clear 31 1013 14 0 2.07 166 15:45 03.07.2020
407 Clear 15 1010 35 0 2.05 154 15:24 03.07.2020
408 Clear 16 1009 33 0 2.05 154 14:57 03.07.2020
409 Clear 17 1009 32 0 2.05 154 14:39 03.07.2020
410 Clear 17 1009 32 0 1.34 78 14:19 03.07.2020
411 Clear 17 1008 31 0 1.34 102 13:47 03.07.2020
412 Clear 15 1008 34 0 0.89 128 13:28 03.07.2020
413 Clear 16 1008 33 0 2.9 156 12:54 03.07.2020
414 Clear 16 1008 31 0 2.9 156 12:36 03.07.2020
415 Clear 30 1011 14 0 3.05 162 12:18 03.07.2020
416 Clear 18 1008 29 0 0.45 245 11:42 03.07.2020
417 Clear 18 1008 29 0 0.45 258 11:23 03.07.2020
418 Clear 19 1008 29 0 0.45 258 10:56 03.07.2020
419 Clear 18 1008 31 0 0.45 263 10:37 03.07.2020
420 Clear 18 1008 31 0 3.23 171 10:19 03.07.2020
421 Clear 18 1008 31 0 0.45 264 09:54 03.07.2020
422 Clear 19 1008 29 0 3.23 171 09:36 03.07.2020
423 Clear 32 1011 13 0 3.36 179 09:18 03.07.2020
424 Clear 32 1011 13 0 3.85 174 08:39 03.07.2020
425 Clear 33 1010 12 0 3.65 178 08:19 03.07.2020
426 Clear 21 1008 23 0 3.65 178 07:48 03.07.2020
427 Clear 22 1008 20 0 0.89 261 07:26 03.07.2020
428 Clear 22 1008 17 0 0.45 222 06:54 03.07.2020
429 Clear 34 1008 10 0 3.43 186 06:19 03.07.2020
430 Clear 27 1006 13 0 3.13 211 04:55 03.07.2020
431 Clear 29 1006 11 0 3.13 121 03:45 03.07.2020
432 Clear 30 1006 10 0 3.13 143 02:49 03.07.2020
433 Clear 30 1006 8 0 4.02 193 02:29 03.07.2020
434 Clear 31 1006 9 0 4.02 130 01:28 03.07.2020
435 Clear 30 1007 9 0 2.68 212 00:56 03.07.2020
436 Clear 31 1007 9 0 4.02 222 00:36 03.07.2020
437 Clear 31 1007 10 0 4.02 237 23:49 02.07.2020
438 Clear 30 1007 10 0 4.92 202 23:21 02.07.2020
439 Clear 29 1007 12 0 4.02 196 22:58 02.07.2020
440 Clear 29 1007 10 0 2.24 184 22:40 02.07.2020
441 Clear 29 1007 12 0 2.68 217 22:21 02.07.2020
442 Clear 32 1007 15 0 1.79 4 21:57 02.07.2020
443 Clear 31 1007 16 0 1.79 20 21:39 02.07.2020
444 Clear 39 1010 8 0 5.94 171 21:19 02.07.2020
445 Clear 29 1008 19 0 1.79 50 20:58 02.07.2020
446 Clear 28 1008 21 0 1.79 56 20:39 02.07.2020
447 Clear 37 1010 10 0 5.68 165 20:19 02.07.2020
448 Clear 26 1007 23 0 2.24 64 19:42 02.07.2020
449 Clear 26 1007 24 0 2.68 45 19:24 02.07.2020
450 Clear 24 1007 26 0 2.24 341 18:58 02.07.2020
451 Clear 24 1007 27 0 2.68 45 18:40 02.07.2020
452 Clear 24 1007 27 0 2.68 45 18:21 02.07.2020
453 Clear 23 1007 29 0 1.34 58 17:57 02.07.2020
454 Clear 22 1007 30 0 1.79 50 17:38 02.07.2020
455 Clear 22 1006 31 0 1.34 54 17:18 02.07.2020
456 Clear 18 1006 40 0 0.45 82 16:42 02.07.2020
457 Clear 17 1006 41 0 2.54 164 16:21 02.07.2020
458 Clear 31 1010 18 0 2.54 164 15:58 02.07.2020
459 Clear 31 1010 18 0 2.54 164 15:38 02.07.2020
460 Clear 27 1009 22 0 2.23 160 15:20 02.07.2020
461 Clear 27 1009 22 0 2.23 160 14:45 02.07.2020
462 Clear 27 1009 21 0 2.52 162 14:23 02.07.2020
463 Clear 27 1009 21 0 2.52 162 13:57 02.07.2020
464 Clear 27 1009 21 0 2.52 162 13:39 02.07.2020
465 Clear 28 1008 20 0 2.77 166 13:19 02.07.2020
466 Clear 28 1008 20 0 2.77 166 12:56 02.07.2020
467 Clear 28 1008 20 0 2.77 166 12:38 02.07.2020
468 Clear 29 1008 21 0 2.92 169 12:19 02.07.2020
469 Clear 29 1008 21 0 2.92 169 11:42 02.07.2020
470 Clear 29 1008 21 0 3.18 169 11:24 02.07.2020
471 Clear 17 1005 33 0 3.18 169 10:47 02.07.2020
472 Clear 18 1004 32 0 0.45 86 10:27 02.07.2020
473 Clear 19 1004 30 0 3.5 171 09:57 02.07.2020
474 Clear 19 1005 30 0 1.34 94 09:37 02.07.2020
475 Clear 20 1004 30 0 0.45 179 09:19 02.07.2020
476 Clear 31 1007 19 0 3.61 169 08:43 02.07.2020
477 Clear 20 1005 29 0 3.17 173 08:24 02.07.2020
478 Clear 22 1004 27 0 3.17 173 07:55 02.07.2020
479 Clear 21 1004 28 0 0.45 188 07:37 02.07.2020
480 Clear 22 1004 26 0 3.16 180 07:18 02.07.2020
481 Clear 23 1004 25 0 0.89 156 06:39 02.07.2020
482 Clear 24 1003 25 0 0.89 168 06:19 02.07.2020
483 Clear 25 1003 24 0 3.13 171 05:43 02.07.2020
484 Clear 29 1002 17 0 2.24 171 03:36 02.07.2020
485 Clear 30 1002 16 0 2.68 200 02:59 02.07.2020
486 Clear 31 1003 14 0 3.58 152 00:48 02.07.2020
487 Clear 30 1004 15 0 1.34 185 00:25 02.07.2020
488 Clear 30 1004 16 0 4.47 236 23:47 01.07.2020
489 Clear 29 1005 14 0 2.24 229 23:27 01.07.2020
490 Clear 29 1005 16 0 2.24 239 22:57 01.07.2020
491 Clear 33 1005 15 0 1.34 89 22:38 01.07.2020
492 Clear 40 1007 8 0 6.63 182 22:19 01.07.2020
493 Clear 32 1005 14 0 2.68 50 21:58 01.07.2020
494 Clear 31 1005 15 0 1.79 33 21:40 01.07.2020
495 Clear 38 1008 9 0 7.37 179 21:22 01.07.2020
496 Clear 29 1005 15 0 2.68 63 20:58 01.07.2020
497 Clear 29 1006 15 0 1.79 40 20:40 01.07.2020
498 Clear 37 1008 9 0 6.77 172 20:21 01.07.2020
499 Clear 37 1008 9 0 6.77 172 19:55 01.07.2020
500 Clear 28 1006 16 0 1.79 36 19:37 01.07.2020
501 Clear 28 1006 16 0 2.24 60 19:18 01.07.2020
502 Clear 26 1006 18 0 0.89 45 18:42 01.07.2020
503 Clear 34 1009 11 0 4.63 164 18:21 01.07.2020
504 Clear 34 1009 11 0 4.63 164 18:21 01.07.2020
505 Clear 23 1006 21 0 0.89 50 17:58 01.07.2020
506 Clear 23 1006 22 0 0.89 79 17:39 01.07.2020
507 Clear 22 1006 24 0 0.89 60 17:19 01.07.2020
508 Clear 18 1006 28 0 3.55 161 16:46 01.07.2020
509 Clear 31 1009 13 0 2.89 160 16:28 01.07.2020
510 Clear 31 1009 13 0 2.89 160 15:56 01.07.2020
511 Clear 31 1009 13 0 2.89 160 15:38 01.07.2020
512 Clear 28 1009 15 0 2.97 162 15:20 01.07.2020
513 Clear 28 1009 15 0 2.97 162 14:44 01.07.2020
514 Clear 28 1008 16 0 2.66 159 14:22 01.07.2020
515 Clear 28 1008 16 0 2.66 159 13:59 01.07.2020
516 Clear 28 1008 16 0 2.66 159 13:39 01.07.2020
517 Clear 28 1008 15 0 2.71 161 13:20 01.07.2020
518 Clear 28 1008 15 0 2.71 161 12:57 01.07.2020
519 Clear 28 1008 15 0 2.71 161 12:39 01.07.2020
520 Clear 29 1008 15 0 2.34 166 12:20 01.07.2020
521 Clear 29 1008 15 0 2.34 166 11:44 01.07.2020
522 Clear 29 1008 15 0 2.34 166 11:44 01.07.2020
523 Clear 29 1008 15 0 2.34 166 11:44 01.07.2020
524 Clear 29 1009 14 0 1.85 171 11:25 01.07.2020
525 Clear 29 1009 14 0 1.85 171 10:59 01.07.2020
526 Clear 29 1009 14 0 1.85 171 10:41 01.07.2020
527 Clear 30 1009 14 0 1.32 187 10:22 01.07.2020
528 Clear 30 1009 14 0 1.32 187 09:58 01.07.2020
529 Clear 30 1009 14 0 1.32 187 09:37 01.07.2020
530 Clear 31 1008 13 0 1.88 179 09:18 01.07.2020
531 Clear 31 1008 13 0 1.88 179 08:41 01.07.2020
532 Clear 31 1008 12 0 1.96 173 08:23 01.07.2020
533 Clear 31 1008 12 0 1.96 173 07:58 01.07.2020
534 Clear 31 1008 12 0 1.96 173 07:38 01.07.2020
535 Clear 31 1008 12 0 1.64 167 07:20 01.07.2020
536 Clear 21 1006 23 0 1.64 167 06:49 01.07.2020
537 Clear 32 1007 12 0 1.12 152 06:27 01.07.2020
538 Clear 26 1005 16 0 3.58 227 04:32 01.07.2020
539 Clear 28 1005 15 0 1.34 164 03:47 01.07.2020
540 Clear 28 1005 14 0 2.68 229 03:27 01.07.2020
541 Clear 29 1005 13 0 3.13 166 02:41 01.07.2020
542 Clear 29 1006 12 0 3.58 225 01:47 01.07.2020
543 Clear 28 1007 14 0 2.68 232 00:43 01.07.2020
544 Clear 28 1007 14 0 2.68 232 00:24 01.07.2020
545 Clear 29 1007 13 0 2.68 225 23:42 30.06.2020
546 Clear 28 1007 14 0 0.89 137 23:22 30.06.2020
547 Clear 28 1008 14 0 2.68 177 22:58 30.06.2020
548 Clear 28 1008 14 0 0.89 212 22:39 30.06.2020
549 Clear 28 1008 14 0 3.58 185 22:18 30.06.2020
550 Clear 36 1010 10 0 0.7 129 21:41 30.06.2020
551 Clear 35 1012 10 0 0.73 34 21:19 30.06.2020
552 Clear 34 1012 10 0 0.59 63 20:54 30.06.2020
553 Clear 34 1012 10 0 0.59 63 20:54 30.06.2020
554 Clear 34 1012 10 0 0.59 63 20:36 30.06.2020
555 Clear 33 1012 11 0 1.38 24 20:18 30.06.2020
556 Clear 33 1012 11 0 1.38 24 19:41 30.06.2020
557 Clear 25 1010 16 0 0.89 175 19:19 30.06.2020
558 Clear 23 1010 18 0 1.76 22 18:43 30.06.2020
559 Clear 22 1010 19 0 0.45 228 18:21 30.06.2020
560 Clear 22 1011 19 0 0.45 314 17:59 30.06.2020
561 Clear 21 1011 21 0 0.45 276 17:37 30.06.2020
562 Clear 21 1011 21 0 0.45 287 17:19 30.06.2020
563 Clear 18 1010 25 0 1.34 342 16:43 30.06.2020
564 Clear 17 1010 27 0 0.89 282 16:24 30.06.2020
565 Clear 16 1010 29 0 1.34 315 15:59 30.06.2020
566 Clear 15 1010 29 0 1.79 331 15:40 30.06.2020
567 Clear 15 1010 29 0 1.79 331 15:40 30.06.2020
568 Clear 15 1010 30 0 0.89 326 15:21 30.06.2020
569 Clear 14 1010 30 0 2.24 353 14:56 30.06.2020
570 Clear 14 1010 30 0 0.89 306 14:38 30.06.2020
571 Clear 15 1010 29 0 1.34 319 14:18 30.06.2020
572 Clear 15 1009 30 0 1.79 308 13:40 30.06.2020
573 Clear 15 1009 29 0 2.68 326 13:20 30.06.2020
574 Clear 15 1009 28 0 1.34 291 12:58 30.06.2020
575 Clear 16 1009 28 0 1.79 294 12:40 30.06.2020
576 Clear 16 1009 28 0 1.34 289 12:21 30.06.2020
577 Clear 16 1009 27 0 2.24 310 11:58 30.06.2020
578 Clear 16 1009 27 0 2.24 310 11:58 30.06.2020
579 Clear 16 1009 27 0 3.13 326 11:39 30.06.2020
580 Clear 16 1009 26 0 2.68 326 11:19 30.06.2020
581 Clear 17 1009 24 0 2.24 349 10:58 30.06.2020
582 Clouds 24 994 22 0 0.89 45 16:40 28.06.2020
583 Clouds 24 994 20 0 0.89 88 16:22 28.06.2020
584 Clouds 22 994 22 0 4.17 161 15:56 28.06.2020
585 Clouds 22 994 22 0 4.17 161 15:38 28.06.2020
586 Clouds 23 995 20 0 0.45 137 15:18 28.06.2020
587 Clouds 23 995 18 0 0.45 190 14:46 28.06.2020
588 Clouds 23 995 19 0 3.27 154 14:28 28.06.2020
589 Clouds 22 995 20 0 3.23 154 13:58 28.06.2020
590 Clouds 23 995 19 0 0.45 279 13:38 28.06.2020
591 Clouds 24 995 18 0 0.89 279 13:19 28.06.2020
592 Clouds 24 996 16 0 0.45 270 12:56 28.06.2020
593 Clouds 25 995 16 0 1.34 277 12:37 28.06.2020
594 Clouds 25 996 16 0 0.45 311 12:19 28.06.2020
595 Clouds 24 996 17 0 0.89 300 11:56 28.06.2020
596 Clouds 25 996 17 0 0.45 291 11:37 28.06.2020
597 Clouds 24 996 18 0 0.89 300 11:19 28.06.2020
598 Clouds 34 1002 24 0 3.43 168 10:55 28.06.2020
599 Clouds 34 1002 24 0 3.43 168 10:36 28.06.2020
600 Clouds 23 996 30 0 3.08 176 10:18 28.06.2020
601 Clouds 25 997 31 0 0.45 234 09:39 28.06.2020
602 Clear 37 1003 19 0 3.72 185 09:20 28.06.2020
603 Clear 37 1003 19 0 3.72 185 08:47 28.06.2020
604 Clouds 38 1003 17 0 4 182 08:25 28.06.2020
605 Clouds 27 997 28 0 0.45 265 07:49 28.06.2020
606 Clouds 27 998 27 0 0.45 224 07:29 28.06.2020
607 Clouds 29 998 25 0 0.89 188 06:43 28.06.2020
608 Clear 40 1002 14 0 4.5 178 06:24 28.06.2020
609 Clear 31 997 20 0 3.13 256 05:26 28.06.2020
610 Clear 36 997 15 0 2.24 224 03:33 28.06.2020
611 Clear 36 998 17 0 4.02 208 02:40 28.06.2020
612 Clear 36 999 16 0 3.58 174 01:56 28.06.2020
613 Clear 36 1000 15 0 4.02 237 01:27 28.06.2020
614 Clear 36 1000 15 0 4.47 228 00:48 28.06.2020
615 Clear 36 1001 14 0 2.68 195 00:27 28.06.2020
616 Clear 36 1001 14 0 3.58 245 23:43 27.06.2020
617 Clear 36 1002 14 0 3.58 137 23:24 27.06.2020
618 Clear 36 1002 13 0 2.68 172 22:59 27.06.2020
619 Clear 36 1002 13 0 3.58 211 22:40 27.06.2020
620 Clear 36 1002 13 0 3.58 211 22:40 27.06.2020
621 Clear 37 1003 13 0 3.13 138 22:22 27.06.2020
622 Clear 45 1006 8 0 4.38 164 21:57 27.06.2020
623 Clear 45 1006 8 0 4.38 164 21:38 27.06.2020
624 Clear 44 1007 9 0 3.66 164 21:19 27.06.2020
625 Clear 44 1007 9 0 3.66 164 20:45 27.06.2020
626 Clear 43 1008 11 0 3.36 165 20:19 27.06.2020
627 Clear 43 1008 11 0 3.36 165 20:19 27.06.2020
628 Clear 43 1008 11 0 3.36 165 19:56 27.06.2020
629 Clear 43 1008 11 0 3.36 165 19:37 27.06.2020
630 Clear 41 1008 12 0 2.78 166 19:18 27.06.2020
631 Clear 41 1008 12 0 2.78 166 18:47 27.06.2020
632 Clear 40 1008 12 0 2.36 169 18:28 27.06.2020
633 Clear 31 1005 17 0 0.45 295 17:59 27.06.2020
634 Clear 30 1005 18 0 1.34 329 17:39 27.06.2020
635 Clear 29 1005 21 0 1.97 166 17:19 27.06.2020
636 Clear 27 1005 24 0 0.45 285 16:48 27.06.2020
637 Clear 24 1005 27 0 1.97 166 16:30 27.06.2020
638 Clear 24 1005 28 0 0.45 295 15:59 27.06.2020
639 Clear 24 1005 28 0 0.89 310 15:41 27.06.2020
640 Clear 24 1005 28 0 0.89 324 15:21 27.06.2020
641 Clear 32 1009 16 0 0.83 177 14:43 27.06.2020
642 Clear 32 1008 15 0 0.7 185 14:25 27.06.2020
643 Clear 32 1009 17 0 0.71 168 13:59 27.06.2020
644 Clear 32 1009 17 0 0.71 168 13:38 27.06.2020
645 Clear 32 1009 17 0 0.71 168 13:38 27.06.2020
646 Clear 32 1009 16 0 0.56 166 13:19 27.06.2020
647 Clear 32 1009 16 0 0.56 166 12:58 27.06.2020
648 Clear 32 1009 16 0 0.56 166 12:39 27.06.2020
649 Clear 33 1008 16 0 0.78 168 12:21 27.06.2020
650 Clear 33 1008 16 0 0.78 168 11:55 27.06.2020
651 Clear 33 1008 16 0 0.78 168 11:37 27.06.2020
652 Clear 33 1008 15 0 1.3 171 11:18 27.06.2020
653 Clear 33 1008 15 0 1.3 171 11:18 27.06.2020
654 Clear 33 1008 15 0 1.3 171 10:39 27.06.2020
655 Clear 34 1009 15 0 1.27 160 10:19 27.06.2020
656 Clear 34 1009 15 0 1.27 160 09:54 27.06.2020
657 Clear 34 1009 15 0 1.27 160 09:36 27.06.2020
658 Clear 35 1009 14 0 1.13 149 09:18 27.06.2020
659 Clear 34 1009 14 0 0.72 136 08:40 27.06.2020
660 Clouds 36 1009 13 0 1.01 135 08:22 27.06.2020
661 Clouds 36 1009 13 0 1.01 135 07:46 27.06.2020
662 Clouds 36 1008 12 0 1.36 154 07:24 27.06.2020
663 Clouds 36 1008 12 0 1.36 154 06:50 27.06.2020
664 Clouds 36 1008 12 0 1.36 154 06:29 27.06.2020
665 Clear 35 1006 12 0 1.87 98 04:24 27.06.2020
666 Clear 36 1006 11 0 0.89 91 03:53 27.06.2020
667 Clear 42 1007 8 0 1.87 98 03:30 27.06.2020
668 Clear 36 1006 13 0 0.89 27 02:36 27.06.2020
669 Clouds 43 1007 9 0 2.33 2 01:49 27.06.2020
670 Clouds 43 1007 9 0 2.62 3 01:24 27.06.2020
671 Clouds 43 1007 9 0 2.62 3 00:38 27.06.2020
672 Clouds 42 1007 10 0 2.67 352 23:47 26.06.2020
673 Clouds 42 1008 12 0 3.1 354 23:26 26.06.2020
674 Clouds 34 1008 17 0 1.79 247 22:57 26.06.2020
675 Clouds 33 1008 19 0 1.34 258 22:39 26.06.2020
676 Clouds 33 1008 18 0 0.45 318 22:20 26.06.2020
677 Clouds 33 1008 20 0 0.89 40 21:57 26.06.2020
678 Clouds 32 1008 21 0 0.89 318 21:38 26.06.2020
679 Clouds 40 1010 13 0 3.85 354 21:20 26.06.2020
680 Clouds 40 1010 13 0 3.85 354 21:20 26.06.2020
681 Clouds 31 1008 23 0 2.68 328 20:47 26.06.2020
682 Clouds 29 1008 24 0 3.13 342 20:26 26.06.2020
683 Clouds 29 1008 26 0 3.58 283 19:47 26.06.2020
684 Clouds 28 1008 28 0 2.24 320 19:25 26.06.2020
685 Clouds 29 1008 26 0 2.68 358 18:59 26.06.2020
686 Clouds 29 1008 26 0 2.68 358 18:40 26.06.2020
687 Clouds 28 1008 27 0 3.58 9 18:21 26.06.2020
688 Clouds 27 1008 32 0 1.34 309 17:44 26.06.2020
689 Clouds 26 1008 33 0 2.24 327 17:26 26.06.2020
690 Clouds 24 1007 38 0 1.34 334 16:59 26.06.2020
691 Clouds 23 1007 42 0 0.89 355 16:41 26.06.2020
692 Clouds 21 1007 45 0 0.89 347 16:21 26.06.2020
693 Clouds 33 1011 24 0 1.18 13 15:41 26.06.2020
694 Clouds 29 1011 30 0 0.55 0 15:21 26.06.2020
695 Clouds 29 1011 30 0 0.55 0 14:58 26.06.2020
696 Clouds 29 1011 30 0 0.55 0 14:39 26.06.2020
697 Clear 29 1010 31 0 0.99 359 14:21 26.06.2020
698 Clear 18 1006 49 0 0.45 302 13:45 26.06.2020
699 Clear 18 1006 49 0 0.89 319 13:23 26.06.2020
700 Clear 18 1006 49 0 0.89 319 13:23 26.06.2020
701 Clear 18 1006 50 0 0.45 312 12:56 26.06.2020
702 Clear 19 1006 49 0 0.45 305 12:38 26.06.2020
703 Clear 19 1006 48 0 0.89 303 12:19 26.06.2020
704 Clear 19 1006 48 0 0.45 291 11:56 26.06.2020
705 Clear 19 1006 46 0 2.24 329 11:38 26.06.2020
706 Clear 19 1006 49 0 2.24 333 11:19 26.06.2020
707 Clear 19 1006 50 0 2.24 326 10:56 26.06.2020
708 Clear 19 1006 50 0 0.45 326 10:37 26.06.2020
709 Clear 19 1006 50 0 0.45 326 10:37 26.06.2020
710 Clear 19 1006 50 0 0.45 326 10:37 26.06.2020
711 Clear 19 1005 49 0 0.89 324 10:18 26.06.2020
712 Clear 19 1005 50 0 1.79 309 09:42 26.06.2020
713 Clear 31 1009 31 0 1.4 336 09:22 26.06.2020
714 Clear 31 1009 31 0 1.4 336 08:49 26.06.2020
715 Clear 31 1009 31 0 1.87 339 08:28 26.06.2020
716 Clear 20 1006 50 0 1.34 295 07:49 26.06.2020
717 Clear 21 1005 49 0 3.58 351 07:24 26.06.2020
718 Clear 20 1005 54 0 3.13 310 06:57 26.06.2020
719 Clear 20 1005 55 0 2.68 337 06:35 26.06.2020
720 Rain 32 1007 30 0 5.49 4 05:58 26.06.2020
721 Rain 32 1007 30 0 5.49 4 05:31 26.06.2020
722 Clear 29 1000 20 0 1.34 344 02:42 26.06.2020
723 Clear 31 1000 19 0 0.89 340 02:22 26.06.2020
724 Clear 46 1003 7 0 8.92 201 00:58 26.06.2020
725 Clear 46 1003 7 0 8.92 201 00:39 26.06.2020
726 Clear 34 999 16 0 3.13 228 00:18 26.06.2020
727 Clear 34 1000 18 0 1.34 164 23:39 25.06.2020
728 Clear 45 1003 10 0 4.72 167 23:18 25.06.2020
729 Clear 45 1003 10 0 4.72 167 22:54 25.06.2020
730 Clear 45 1003 10 0 4.72 167 22:36 25.06.2020
731 Clear 43 1005 12 0 3.73 161 22:18 25.06.2020
732 Clear 43 1005 12 0 3.73 161 21:54 25.06.2020
733 Clear 43 1005 12 0 3.73 161 21:36 25.06.2020
734 Clear 41 1006 14 0 2.44 160 21:18 25.06.2020
735 Clear 41 1006 14 0 2.44 160 20:43 25.06.2020
736 Clouds 40 1006 16 0 1.99 160 20:23 25.06.2020
737 Clouds 40 1006 16 0 1.99 160 19:57 25.06.2020
738 Clouds 40 1006 16 0 1.99 160 19:38 25.06.2020
739 Clouds 39 1006 18 0 2.06 160 19:18 25.06.2020
740 Clouds 33 1001 21 0 1.34 40 18:55 25.06.2020
741 Clouds 33 1002 21 0 0.89 67 18:36 25.06.2020
742 Clouds 37 1006 19 0 1.57 163 18:18 25.06.2020
743 Clouds 37 1006 19 0 1.57 163 17:39 25.06.2020
744 Clouds 28 1001 28 0 0.45 75 17:19 25.06.2020
745 Clouds 25 1001 32 0 1.04 172 16:42 25.06.2020
746 Clouds 24 1001 33 0 0.45 219 16:22 25.06.2020
747 Clouds 23 1001 31 0 1.79 341 15:59 25.06.2020
748 Clouds 22 1001 34 0 1.34 349 15:40 25.06.2020
749 Clouds 31 1006 28 0 0.7 143 15:19 25.06.2020
750 Clouds 31 1006 28 0 0.7 143 14:43 25.06.2020
751 Clouds 31 1005 27 0 0.98 135 14:23 25.06.2020
752 Clouds 30 1006 25 0 0.52 121 13:56 25.06.2020
753 Clouds 30 1006 25 0 0.52 121 13:37 25.06.2020
754 Clouds 32 1005 23 0 1.34 152 13:19 25.06.2020
755 Clouds 19 1000 45 0 1.34 152 12:44 25.06.2020
756 Clouds 32 1005 22 0 1.65 152 12:20 25.06.2020
757 Clouds 21 1000 43 0 0.45 45 11:58 25.06.2020
758 Clouds 21 1000 41 0 1.65 152 11:38 25.06.2020
759 Clouds 21 1000 41 0 1.76 164 11:20 25.06.2020
760 Clouds 22 1000 39 0 1.76 164 10:42 25.06.2020
761 Clouds 22 1000 38 0 0.45 60 10:23 25.06.2020
762 Clouds 34 1006 20 0 1.88 153 09:41 25.06.2020
763 Clouds 35 1006 19 0 1.81 168 09:23 25.06.2020
764 Clouds 23 1000 36 0 2.14 166 08:56 25.06.2020
765 Clouds 24 1000 35 0 2.14 166 08:38 25.06.2020
766 Clouds 24 1000 35 0 2.27 173 08:18 25.06.2020
767 Clouds 26 1000 32 0 2.27 173 07:41 25.06.2020
768 Clouds 26 1001 32 0 0.45 159 07:21 25.06.2020
769 Clouds 28 1000 30 0 1.79 226 06:31 25.06.2020
770 Clouds 29 1000 27 0 2.24 137 05:55 25.06.2020
771 Clouds 29 1000 25 0 1.79 182 05:31 25.06.2020
772 Clouds 32 1000 12 0 3.13 222 03:39 25.06.2020
773 Clouds 34 999 10 0 2.68 176 02:46 25.06.2020
774 Clouds 34 1000 11 0 3.13 216 02:25 25.06.2020
775 Clouds 35 1000 11 0 3.13 214 01:42 25.06.2020
776 Clouds 34 1000 13 0 3.58 182 00:51 25.06.2020
777 Clouds 35 1001 13 0 2.24 207 00:24 25.06.2020
778 Clouds 36 1001 14 0 4.02 210 23:58 24.06.2020
779 Clouds 35 1001 14 0 2.68 199 23:38 24.06.2020
780 Clouds 36 1001 14 0 3.58 226 23:19 24.06.2020
781 Clouds 38 1002 11 0 0.89 127 22:42 24.06.2020
782 Clouds 44 1006 9 0 4.87 165 22:21 24.06.2020
783 Clouds 44 1006 9 0 4.87 165 21:57 24.06.2020
784 Clouds 44 1006 9 0 4.87 165 21:38 24.06.2020
785 Clouds 43 1007 12 0 4.08 165 21:19 24.06.2020
786 Clouds 42 1008 11 0 3.86 167 20:59 24.06.2020
787 Clouds 42 1008 11 0 3.86 167 20:41 24.06.2020
788 Clouds 41 1008 12 0 3.1 162 20:22 24.06.2020
789 Clouds 41 1008 12 0 3.1 162 19:59 24.06.2020
790 Clouds 41 1008 12 0 3.1 162 19:39 24.06.2020
791 Clouds 40 1008 13 0 2.42 160 19:21 24.06.2020
792 Clouds 40 1008 13 0 2.42 160 18:58 24.06.2020
793 Clouds 34 1003 16 0 1.34 77 18:40 24.06.2020
794 Clouds 39 1009 14 0 1.82 161 18:22 24.06.2020
795 Clouds 39 1009 14 0 1.82 161 17:56 24.06.2020
796 Clouds 31 1003 19 0 0.45 337 17:38 24.06.2020
797 Clouds 30 1003 20 0 1.34 337 17:19 24.06.2020
798 Clouds 28 1003 23 0 1.34 314 16:56 24.06.2020
799 Clouds 26 1003 25 0 0.45 288 16:38 24.06.2020
800 Clouds 26 1003 25 0 0.45 288 16:38 24.06.2020
801 Clouds 24 1003 27 0 0.89 288 16:20 24.06.2020
802 Clouds 24 1003 27 0 0.89 288 16:20 24.06.2020
803 Clouds 22 1003 32 0 1.13 133 15:56 24.06.2020
804 Clouds 21 1003 34 0 1.13 133 15:38 24.06.2020
805 Clouds 21 1003 33 0 0.92 134 15:19 24.06.2020
806 Clouds 21 1003 32 0 0.45 286 14:43 24.06.2020
807 Clouds 31 1009 18 0 0.81 136 14:24 24.06.2020
808 Clouds 31 1009 18 0 0.81 136 13:43 24.06.2020
809 Clouds 21 1003 32 0 0.9 154 13:22 24.06.2020
810 Clouds 23 1003 27 0 0.9 154 12:57 24.06.2020
811 Clouds 24 1003 28 0 0.89 352 12:38 24.06.2020
812 Clouds 24 1003 28 0 1.34 355 12:20 24.06.2020
813 Clouds 24 1003 25 0 1.34 329 11:56 24.06.2020
814 Clouds 23 1003 26 0 0.89 332 11:38 24.06.2020
815 Clouds 23 1003 26 0 0.89 345 11:18 24.06.2020
816 Clouds 34 1008 14 0 2.01 174 10:43 24.06.2020
817 Clouds 36 1008 12 0 2.28 177 10:19 24.06.2020
818 Clouds 36 1008 12 0 2.28 177 09:43 24.06.2020
819 Clouds 37 1009 10 0 2.24 177 09:22 24.06.2020
820 Clear 36 1009 15 0 2.12 181 08:44 24.06.2020
821 Clouds 37 1008 12 0 2.25 172 08:26 24.06.2020
822 Clouds 25 1004 21 0 2.25 172 07:55 24.06.2020
823 Clouds 25 1004 21 0 2.25 172 07:37 24.06.2020
824 Clouds 26 1004 19 0 0.45 337 07:18 24.06.2020
825 Clouds 27 1004 18 0 0.45 328 06:39 24.06.2020
826 Clouds 40 1007 8 0 3.8 194 06:21 24.06.2020
827 Clouds 31 1003 14 0 3.8 194 05:30 24.06.2020
828 Clouds 33 1003 12 0 2.24 223 04:36 24.06.2020
829 Clouds 35 1003 11 0 2.68 229 03:36 24.06.2020
830 Clouds 36 1003 10 0 1.79 154 02:52 24.06.2020
831 Clouds 36 1004 10 0 0.89 195 01:46 24.06.2020
832 Clouds 46 1006 5 0 4.39 160 00:49 24.06.2020
833 Clouds 46 1006 5 0 4.39 160 00:29 24.06.2020
834 Clear 46 1007 6 0 4.04 162 23:46 23.06.2020
835 Clear 46 1008 6 0 3.55 160 23:21 23.06.2020
836 Clear 46 1008 6 0 3.55 160 22:57 23.06.2020
837 Clear 46 1008 6 0 3.55 160 22:39 23.06.2020
838 Clear 45 1009 8 0 3.02 161 22:18 23.06.2020
839 Clear 45 1009 8 0 3.02 161 21:42 23.06.2020
840 Clear 43 1010 10 0 2.46 160 21:20 23.06.2020
841 Clear 43 1010 10 0 2.46 160 20:57 23.06.2020
842 Clear 43 1010 10 0 2.46 160 20:39 23.06.2020
843 Clear 42 1011 11 0 2.33 158 20:19 23.06.2020
844 Clear 42 1011 11 0 2.33 158 19:59 23.06.2020
845 Clear 42 1011 11 0 2.33 158 19:40 23.06.2020
846 Clear 40 1011 13 0 2.1 160 19:22 23.06.2020
847 Clear 35 1007 11 0 0.89 335 18:38 23.06.2020
848 Clear 39 1011 13 0 1.82 156 18:18 23.06.2020
849 Clear 39 1011 13 0 1.82 156 18:18 23.06.2020
850 Clear 31 1007 16 0 0.89 323 17:42 23.06.2020
851 Clear 30 1007 17 0 0.89 324 17:24 23.06.2020
852 Clear 28 1007 19 0 1.79 331 16:57 23.06.2020
853 Clear 26 1007 20 0 0.45 314 16:38 23.06.2020
854 Clear 26 1007 20 0 0.45 314 16:38 23.06.2020
855 Clear 24 1007 23 0 0.89 345 16:20 23.06.2020
856 Clear 37 1012 14 0 1.13 144 15:57 23.06.2020
857 Clear 37 1012 14 0 1.13 144 15:39 23.06.2020
858 Clear 32 1011 17 0 1.32 153 15:18 23.06.2020
859 Clear 32 1011 17 0 1.32 153 14:43 23.06.2020
860 Clear 32 1011 16 0 1.73 161 14:20 23.06.2020
861 Clear 32 1011 16 0 1.73 161 13:57 23.06.2020
862 Clear 32 1011 16 0 1.73 161 13:39 23.06.2020
863 Clear 19 1006 28 0 1.59 162 13:20 23.06.2020
864 Clear 21 1006 27 0 1.59 162 12:45 23.06.2020
865 Clear 34 1010 14 0 1.78 177 12:23 23.06.2020
866 Clear 34 1010 14 0 1.78 177 11:58 23.06.2020
867 Clear 34 1010 14 0 1.78 177 11:40 23.06.2020
868 Clear 35 1010 13 0 1.77 188 11:19 23.06.2020
869 Clear 35 1010 13 0 1.77 188 10:57 23.06.2020
870 Clear 35 1010 13 0 1.77 188 10:39 23.06.2020
871 Clear 36 1011 11 0 2 197 10:21 23.06.2020
872 Clear 36 1011 11 0 2 197 09:42 23.06.2020
873 Clear 36 1011 12 0 2.06 197 09:21 23.06.2020
874 Clear 36 1011 12 0 2.06 197 08:59 23.06.2020
875 Clear 36 1011 12 0 2.06 197 08:41 23.06.2020
876 Clear 24 1006 19 0 2.27 199 08:21 23.06.2020
877 Clear 26 1006 18 0 0.45 200 07:41 23.06.2020
878 Clear 27 1006 17 0 3.13 198 07:22 23.06.2020
879 Clear 27 1006 17 0 3.13 198 06:51 23.06.2020
880 Clear 27 1006 17 0 3.13 198 06:31 23.06.2020
881 Clear 39 1009 9 0 3.37 186 05:47 23.06.2020
882 Clear 33 1006 12 0 1.79 220 04:41 23.06.2020
883 Clear 35 1005 9 0 2.24 216 03:19 23.06.2020
884 Clear 36 1005 9 0 2.24 198 02:46 23.06.2020
885 Clear 37 1006 9 0 2.68 75 02:26 23.06.2020
886 Clear 45 1008 6 0 3.11 161 01:44 23.06.2020
887 Clear 45 1008 7 0 3.07 160 01:20 23.06.2020
888 Clear 45 1008 7 0 3.07 160 00:38 23.06.2020
889 Clear 45 1009 7 0 2.83 157 00:18 23.06.2020
890 Clear 45 1009 7 0 2.83 157 23:39 22.06.2020
891 Clear 44 1010 8 0 2.28 155 23:19 22.06.2020
892 Clear 44 1010 8 0 2.28 155 23:19 22.06.2020
893 Clear 44 1010 8 0 2.28 155 22:58 22.06.2020
894 Clear 44 1010 8 0 2.28 155 22:40 22.06.2020
895 Clear 43 1010 9 0 1.97 153 22:20 22.06.2020
896 Clear 43 1010 9 0 1.97 153 21:58 22.06.2020
897 Clear 43 1010 9 0 1.97 153 21:58 22.06.2020
898 Clear 43 1010 9 0 1.97 153 21:58 22.06.2020
899 Clear 43 1010 9 0 1.97 153 21:40 22.06.2020
900 Clear 42 1011 9 0 2.31 157 21:21 22.06.2020
901 Clear 42 1011 9 0 2.31 157 20:58 22.06.2020
902 Clear 42 1011 9 0 2.31 157 20:39 22.06.2020
903 Clear 41 1012 11 0 2.06 155 20:20 22.06.2020
904 Clear 41 1012 11 0 2.06 155 19:44 22.06.2020
905 Clear 39 1012 12 0 1.95 156 19:19 22.06.2020
906 Clear 34 1008 15 0 0.89 29 18:57 22.06.2020
907 Clear 32 1008 16 0 0.89 76 18:37 22.06.2020
908 Clear 38 1012 13 0 1.83 155 18:18 22.06.2020
909 Clear 30 1008 18 0 0.89 329 17:55 22.06.2020
910 Clear 29 1008 19 0 0.89 266 17:37 22.06.2020
911 Clear 29 1008 19 0 0.89 269 17:18 22.06.2020
912 Clear 24 1008 24 0 1.34 339 16:42 22.06.2020
913 Clear 21 1008 30 0 1.34 327 16:18 22.06.2020
914 Clear 35 1012 15 0 0.88 166 15:57 22.06.2020
915 Clear 35 1012 15 0 0.88 166 15:39 22.06.2020
916 Clear 31 1011 19 0 0.75 155 15:21 22.06.2020
917 Clear 31 1011 19 0 0.75 155 14:39 22.06.2020
918 Clear 31 1010 19 0 1.12 152 14:20 22.06.2020
919 Clear 30 1011 19 0 0.88 154 13:57 22.06.2020
920 Clear 30 1011 19 0 0.88 154 13:38 22.06.2020
921 Clear 32 1010 18 0 1.58 166 13:20 22.06.2020
922 Clear 32 1010 18 0 1.58 166 12:43 22.06.2020
923 Clear 33 1010 16 0 1.95 170 12:23 22.06.2020
924 Clear 33 1010 16 0 1.95 170 11:58 22.06.2020
925 Clear 33 1010 16 0 1.95 170 11:37 22.06.2020
926 Clear 33 1010 16 0 1.81 181 11:18 22.06.2020
927 Clear 33 1010 16 0 1.81 181 10:55 22.06.2020
928 Clear 33 1010 16 0 1.81 181 10:36 22.06.2020
929 Clear 34 1011 16 0 2.28 186 10:18 22.06.2020
930 Clear 21 1006 35 0 2.28 186 09:54 22.06.2020
931 Clear 34 1011 16 0 2.28 186 09:36 22.06.2020
932 Clear 35 1010 15 0 2.31 191 09:18 22.06.2020
933 Clear 35 1010 15 0 2.31 191 08:39 22.06.2020
934 Clear 23 1006 29 0 2.39 193 08:20 22.06.2020
935 Clear 23 1006 29 0 2.39 193 08:20 22.06.2020
936 Clear 25 1006 26 0 2.39 193 07:53 22.06.2020
937 Clear 26 1006 25 0 0.45 119 07:33 22.06.2020
938 Clear 26 1006 23 0 0.89 160 06:47 22.06.2020
939 Clear 38 1008 11 0 4.1 193 06:27 22.06.2020
940 Clear 38 1008 11 0 4.1 193 05:58 22.06.2020
941 Clear 28 1005 18 0 4.1 193 05:31 22.06.2020
942 Clear 34 1004 9 0 2.68 246 02:58 22.06.2020
943 Clear 35 1004 9 0 2.24 198 01:37 22.06.2020
944 Clear 35 1005 10 0 0.89 233 00:41 22.06.2020
945 Clear 35 1005 11 0 1.79 112 00:18 22.06.2020
946 Clear 35 1005 11 0 1.79 100 23:54 21.06.2020
947 Clear 34 1006 11 0 2.24 210 23:36 21.06.2020
948 Clear 34 1006 12 0 2.24 241 23:18 21.06.2020
949 Clear 34 1006 11 0 2.24 241 22:54 21.06.2020
950 Clear 37 1006 10 0 1.34 202 22:36 21.06.2020
951 Clear 43 1009 8 0 3.71 167 22:18 21.06.2020
952 Clear 36 1007 11 0 2.68 65 21:42 21.06.2020
953 Clear 42 1010 10 0 2.84 164 21:22 21.06.2020
954 Clear 42 1010 10 0 3.03 164 20:59 21.06.2020
955 Clear 42 1010 10 0 3.03 164 20:38 21.06.2020
956 Clear 40 1010 11 0 2.47 164 20:19 21.06.2020
957 Clear 40 1010 11 0 2.47 164 19:57 21.06.2020
958 Clear 40 1010 11 0 2.47 164 19:38 21.06.2020
959 Clear 39 1010 12 0 2.13 160 19:20 21.06.2020
960 Clear 33 1007 14 0 1.34 89 18:55 21.06.2020
961 Clear 32 1007 15 0 1.34 100 18:37 21.06.2020
962 Clear 32 1007 15 0 1.34 100 18:37 21.06.2020
963 Clear 38 1011 13 0 2.03 156 18:19 21.06.2020
964 Clear 26 1007 21 0 2.03 156 17:40 21.06.2020
965 Clear 26 1007 22 0 1.68 167 17:21 21.06.2020
966 Clear 23 1007 26 0 0.45 158 16:57 21.06.2020
967 Clear 36 1011 14 0 1.68 167 16:38 21.06.2020
968 Clear 20 1007 33 0 0.45 158 16:20 21.06.2020
969 Clear 35 1011 15 0 1.51 177 15:39 21.06.2020
970 Clear 31 1011 20 0 1.02 158 15:21 21.06.2020
971 Clear 31 1011 20 0 1.02 158 14:55 21.06.2020
972 Clear 31 1011 20 0 1.02 158 14:37 21.06.2020
973 Clear 31 1010 19 0 1.48 169 14:18 21.06.2020
974 Clear 31 1010 19 0 1.48 169 13:43 21.06.2020
975 Clear 32 1010 18 0 2.16 174 13:25 21.06.2020
976 Clear 32 1010 18 0 2.16 174 12:59 21.06.2020
977 Clear 18 1006 31 0 2.16 174 12:41 21.06.2020
978 Clear 33 1010 18 0 1.95 181 12:23 21.06.2020
979 Clear 33 1010 18 0 1.95 181 11:43 21.06.2020
980 Clear 33 1010 18 0 1.82 188 11:24 21.06.2020
981 Clear 33 1010 18 0 1.82 188 10:59 21.06.2020
982 Clear 33 1010 18 0 1.82 188 10:40 21.06.2020
983 Clear 34 1010 17 0 2.22 189 10:22 21.06.2020
984 Clear 34 1010 17 0 2.22 189 09:55 21.06.2020
985 Clear 34 1010 17 0 2.22 189 09:36 21.06.2020
986 Clear 35 1010 15 0 2.3 191 09:18 21.06.2020
987 Clear 35 1010 15 0 2.3 191 08:41 21.06.2020
988 Clear 23 1006 25 0 2.73 190 08:21 21.06.2020
989 Clear 24 1006 23 0 0.45 159 07:59 21.06.2020
990 Clear 25 1006 22 0 0.45 154 07:40 21.06.2020
991 Clear 26 1006 22 0 1.34 125 07:20 21.06.2020
992 Clear 25 1006 23 0 0.45 102 06:46 21.06.2020
993 Clear 36 1008 9 0 2.1 165 05:58 21.06.2020
994 Clear 30 1006 11 0 1.34 187 04:49 21.06.2020
995 Clear 34 1005 8 0 3.13 203 03:20 21.06.2020
996 Clear 33 1006 8 0 2.68 133 02:49 21.06.2020
997 Clear 33 1006 9 0 3.58 201 01:48 21.06.2020
998 Clear 34 1006 9 0 2.24 132 01:21 21.06.2020
999 Clear 34 1007 8 0 1.34 193 00:55 21.06.2020
1000 Clear 36 1007 8 0 2.24 153 00:36 21.06.2020
1001 Clear 36 1007 8 0 2.68 107 00:18 21.06.2020
1002 Clear 36 1007 7 0 0.45 183 23:41 20.06.2020
1003 Clear 43 1009 6 0 2.99 164 23:21 20.06.2020
1004 Clear 34 1008 8 0 1.34 227 22:55 20.06.2020
1005 Clear 43 1009 6 0 2.99 164 22:37 20.06.2020
1006 Clouds 42 1010 7 0 2.3 161 22:18 20.06.2020
1007 Clouds 42 1010 7 0 2.3 161 21:56 20.06.2020
1008 Clouds 42 1010 7 0 2.3 161 21:37 20.06.2020
1009 Clear 41 1011 7 0 1.37 146 21:19 20.06.2020
1010 Clear 41 1011 7 0 1.37 146 20:55 20.06.2020
1011 Clear 41 1011 7 0 1.37 146 20:37 20.06.2020
1012 Clear 40 1012 8 0 1.24 138 20:19 20.06.2020
1013 Clear 40 1012 8 0 1.24 138 19:43 20.06.2020
1014 Clear 38 1012 9 0 1.1 141 19:22 20.06.2020
1015 Clear 31 1009 11 0 1.34 6 18:55 20.06.2020
1016 Clear 29 1009 12 0 0.45 277 18:37 20.06.2020
1017 Clear 37 1012 9 0 1.03 147 18:18 20.06.2020
1018 Clear 28 1009 13 0 0.89 280 17:55 20.06.2020
1019 Clear 27 1009 15 0 0.45 217 17:37 20.06.2020
1020 Clear 26 1009 16 0 1.34 268 17:18 20.06.2020
1021 Clear 24 1009 18 0 1.34 318 16:39 20.06.2020
1022 Clouds 23 1009 19 0 1.79 327 16:18 20.06.2020
1023 Clouds 22 1009 22 0 1.34 323 15:54 20.06.2020
1024 Clouds 21 1009 23 0 2.24 331 15:36 20.06.2020
1025 Clear 21 1008 24 0 1.79 322 15:18 20.06.2020
1026 Clear 20 1008 25 0 0.89 328 14:42 20.06.2020
1027 Clear 20 1008 24 0 1.34 328 14:19 20.06.2020
1028 Clear 28 1011 14 0 0.7 168 13:41 20.06.2020
1029 Clear 29 1010 13 0 1.24 171 13:20 20.06.2020
1030 Clear 29 1010 13 0 1.24 171 12:56 20.06.2020
1031 Clear 29 1010 13 0 1.24 171 12:37 20.06.2020
1032 Clear 29 1010 13 0 0.63 179 12:18 20.06.2020
1033 Clear 29 1010 13 0 0.63 179 11:39 20.06.2020
1034 Clear 30 1010 12 0 0.74 182 11:20 20.06.2020
1035 Clear 30 1010 12 0 0.74 182 10:58 20.06.2020
1036 Clear 30 1010 12 0 0.74 182 10:39 20.06.2020
1037 Clear 30 1010 12 0 0.97 199 10:20 20.06.2020
1038 Clear 30 1010 12 0 0.97 199 09:43 20.06.2020
1039 Clear 30 1010 12 0 0.72 228 09:25 20.06.2020
1040 Clear 31 1010 11 0 0.89 214 08:58 20.06.2020
1041 Clear 31 1010 11 0 0.89 214 08:39 20.06.2020
1042 Clear 32 1009 11 0 1.02 209 08:21 20.06.2020
1043 Clear 22 1007 20 0 1.02 209 07:50 20.06.2020
1044 Clear 22 1007 21 0 0.45 325 07:25 20.06.2020
1045 Clear 22 1007 13 0 0.94 181 06:49 20.06.2020
1046 Clear 32 1008 11 0 0.57 150 06:21 20.06.2020
1047 Clear 32 1008 11 0 0.57 150 05:48 20.06.2020
1048 Clear 30 1006 7 0 1.79 217 03:55 20.06.2020
1049 Clear 32 1006 7 0 2.24 233 01:58 20.06.2020
1050 Clear 32 1006 7 0 2.24 143 01:40 20.06.2020
1051 Clear 32 1006 7 0 2.24 210 00:49 20.06.2020
1052 Clear 33 1006 7 0 2.24 148 00:20 20.06.2020
1053 Clear 41 1008 7 0 0.94 127 23:46 19.06.2020
1054 Clear 40 1009 7 0 0.66 102 23:21 19.06.2020
1055 Clear 40 1009 7 0 0.66 102 22:58 19.06.2020
1056 Clear 40 1009 7 0 0.66 102 22:40 19.06.2020
1057 Clear 39 1010 7 0 0.88 65 22:21 19.06.2020
1058 Clear 32 1008 6 0 2.24 107 21:56 19.06.2020
1059 Clear 32 1008 6 0 2.24 107 21:56 19.06.2020
1060 Clear 31 1008 7 0 0.45 301 21:37 19.06.2020
1061 Clear 39 1010 8 0 1.7 32 21:18 19.06.2020
1062 Clear 31 1008 7 0 0.89 269 20:57 19.06.2020
1063 Clear 29 1008 7 0 0.89 252 20:39 19.06.2020
1064 Clear 29 1008 8 0 1.79 220 20:20 19.06.2020
1065 Clear 28 1008 9 0 1.79 211 19:55 19.06.2020
1066 Clear 28 1008 10 0 0.89 215 19:37 19.06.2020
1067 Clear 27 1008 11 0 0.45 238 19:18 19.06.2020
1068 Clear 26 1008 11 0 1.79 347 18:40 19.06.2020
1069 Clear 26 1008 12 0 1.34 267 18:21 19.06.2020
1070 Clear 24 1008 13 0 2.24 284 17:55 19.06.2020
1071 Clear 23 1008 14 0 2.24 272 17:36 19.06.2020
1072 Clouds 23 1008 15 0 1.34 287 17:18 19.06.2020
1073 Clouds 21 1008 16 0 2.68 319 16:41 19.06.2020
1074 Clouds 20 1008 17 0 1.79 306 16:23 19.06.2020
1075 Clouds 19 1008 17 0 3.13 338 15:59 19.06.2020
1076 Clouds 19 1008 18 0 3.13 4 15:40 19.06.2020
1077 Clouds 19 1008 18 0 2.68 343 15:20 19.06.2020
1078 Clouds 18 1008 18 0 3.13 346 14:55 19.06.2020
1079 Clouds 18 1007 18 0 4.47 349 14:37 19.06.2020
1080 Clouds 18 1007 18 0 4.47 337 14:18 19.06.2020
1081 Clouds 18 1007 18 0 2.24 343 13:42 19.06.2020
1082 Clouds 19 1007 17 0 3.58 343 13:24 19.06.2020
1083 Clouds 19 1007 17 0 4.02 281 12:47 19.06.2020
1084 Clouds 19 1007 17 0 2.68 299 12:22 19.06.2020
1085 Clouds 18 1007 18 0 1.79 332 11:57 19.06.2020
1086 Clouds 28 1010 13 0 1.63 346 11:38 19.06.2020
1087 Clouds 28 1010 13 0 1.23 353 11:18 19.06.2020
1088 Clouds 28 1010 13 0 1.23 353 10:45 19.06.2020
1089 Clouds 28 1010 14 0 0.62 346 10:26 19.06.2020
1090 Clouds 28 1010 14 0 0.62 346 09:59 19.06.2020
1091 Clouds 28 1010 14 0 0.62 346 09:41 19.06.2020
1092 Clouds 29 1009 13 0 0.54 305 09:20 19.06.2020
1093 Clouds 29 1009 13 0 0.54 305 08:44 19.06.2020
1094 Clouds 29 1009 13 0 0.56 269 08:26 19.06.2020
1095 Clouds 29 1009 13 0 0.56 269 07:56 19.06.2020
1096 Clouds 29 1009 13 0 0.56 269 07:38 19.06.2020
1097 Clouds 30 1009 12 0 0.59 267 07:19 19.06.2020
1098 Clear 30 1008 12 0 0.75 240 06:25 19.06.2020
1099 Clear 26 1006 8 0 1.34 99 05:44 19.06.2020
1100 Clear 31 1006 5 0 0.89 97 04:25 19.06.2020
1101 Clear 38 1007 7 0 1.09 23 02:51 19.06.2020
1102 Clear 38 1008 7 0 1.26 30 00:56 19.06.2020
1103 Clear 38 1008 7 0 1.26 30 00:37 19.06.2020
1104 Clear 38 1008 7 0 1.69 16 00:18 19.06.2020
1105 Clear 38 1008 7 0 1.69 16 23:41 18.06.2020
1106 Clear 37 1010 7 0 2.78 6 23:23 18.06.2020
1107 Clear 37 1010 7 0 2.78 6 22:59 18.06.2020
1108 Clear 37 1010 7 0 2.78 6 22:37 18.06.2020
1109 Clear 37 1011 8 0 3.29 3 22:18 18.06.2020
1110 Clear 37 1011 8 0 3.29 3 21:39 18.06.2020
1111 Clear 36 1012 8 0 3.36 6 21:20 18.06.2020
1112 Clear 36 1012 8 0 3.36 6 20:58 18.06.2020
1113 Clear 36 1012 8 0 3.36 6 20:38 18.06.2020
1114 Clear 34 1012 9 0 3.93 8 20:19 18.06.2020
1115 Clear 34 1012 9 0 3.93 8 19:54 18.06.2020
1116 Clear 34 1012 9 0 3.93 8 19:36 18.06.2020
1117 Clear 33 1013 10 0 4.82 7 19:18 18.06.2020
1118 Clear 24 1009 9 0 2.24 339 18:38 18.06.2020
1119 Clear 24 1010 11 0 1.34 341 18:19 18.06.2020
1120 Clear 24 1010 11 0 1.34 341 18:19 18.06.2020
1121 Clear 22 1010 12 0 1.34 305 17:45 18.06.2020
1122 Clear 20 1010 14 0 1.79 326 17:25 18.06.2020
1123 Clear 19 1010 15 0 1.79 323 16:56 18.06.2020
1124 Clear 18 1010 16 0 1.79 332 16:37 18.06.2020
1125 Clear 17 1010 16 0 2.24 310 16:19 18.06.2020
1126 Clear 16 1010 18 0 1.79 295 15:56 18.06.2020
1127 Clear 16 1010 17 0 2.68 322 15:38 18.06.2020
1128 Clear 15 1010 18 0 2.24 342 15:18 18.06.2020
1129 Clear 15 1010 17 0 2.24 323 14:55 18.06.2020
1130 Clear 15 1009 17 0 2.24 346 14:36 18.06.2020
1131 Clear 16 1009 17 0 3.13 330 14:18 18.06.2020
1132 Clear 16 1009 15 0 2.68 288 13:41 18.06.2020
1133 Clear 16 1009 15 0 2.24 273 13:23 18.06.2020
1134 Clear 16 1009 15 0 2.68 322 12:56 18.06.2020
1135 Clear 16 1009 15 0 3.13 289 12:38 18.06.2020
1136 Clear 16 1009 15 0 3.13 332 12:19 18.06.2020
1137 Clear 17 1009 15 0 3.58 340 11:47 18.06.2020
1138 Clear 17 1009 15 0 3.13 333 11:21 18.06.2020
1139 Clear 17 1009 15 0 3.13 333 11:21 18.06.2020
1140 Clear 17 1009 16 0 1.79 323 10:58 18.06.2020
1141 Clear 18 1009 16 0 1.34 337 10:38 18.06.2020
1142 Clear 18 1009 16 0 0.89 313 10:18 18.06.2020
1143 Clear 20 1009 13 0 2.24 327 09:44 18.06.2020
1144 Clear 21 1009 13 0 3.58 335 09:24 18.06.2020
1145 Clear 21 1009 13 0 2.68 335 08:54 18.06.2020
1146 Clear 21 1009 14 0 3.13 329 08:36 18.06.2020
1147 Clear 21 1009 14 0 4.02 329 08:18 18.06.2020
1148 Clear 21 1009 15 0 2.68 343 07:43 18.06.2020
1149 Clear 21 1009 15 0 2.24 337 07:23 18.06.2020
1150 Clear 19 1009 17 0 0.89 349 06:34 18.06.2020
1151 Clear 28 1008 10 0 0.45 360 04:27 18.06.2020
1152 Clear 36 1009 9 0 4.11 332 03:31 18.06.2020
1153 Clear 37 1009 8 0 4.35 341 01:43 18.06.2020
1154 Clear 37 1009 8 0 5.04 343 01:20 18.06.2020
1155 Clear 37 1009 8 0 5.04 343 00:49 18.06.2020
1156 Clear 36 1010 9 0 5.78 343 00:26 18.06.2020
1157 Clear 36 1010 9 0 5.78 343 23:55 17.06.2020
1158 Clear 36 1010 9 0 5.78 343 23:36 17.06.2020
1159 Clear 36 1011 9 0 6.31 344 23:18 17.06.2020
1160 Clear 36 1011 9 0 6.31 344 22:54 17.06.2020
1161 Clear 36 1011 9 0 6.31 344 22:36 17.06.2020
1162 Clear 35 1012 10 0 6.68 347 22:18 17.06.2020
1163 Clear 27 1009 11 0 1.79 335 21:40 17.06.2020
1164 Clear 34 1012 11 0 6.76 351 21:21 17.06.2020
1165 Clear 33 1013 11 0 6.48 350 20:56 17.06.2020
1166 Clear 33 1013 11 0 6.48 350 20:37 17.06.2020
1167 Clear 32 1013 12 0 6.77 355 20:19 17.06.2020
1168 Clear 32 1013 12 0 6.77 355 19:43 17.06.2020
1169 Clear 31 1013 13 0 6.75 360 19:22 17.06.2020
1170 Clear 31 1013 13 0 6.75 360 19:22 17.06.2020
1171 Clear 31 1013 13 0 6.75 360 18:56 17.06.2020
1172 Clear 23 1008 16 0 1.34 352 18:38 17.06.2020
1173 Clear 21 1008 17 0 1.79 25 18:19 17.06.2020
1174 Clear 18 1008 22 0 1.79 277 17:42 17.06.2020
1175 Clear 18 1008 23 0 2.68 339 17:21 17.06.2020
1176 Clear 16 1008 26 0 1.34 291 16:56 17.06.2020
1177 Clear 15 1008 26 0 2.68 319 16:38 17.06.2020
1178 Clear 14 1008 27 0 2.24 343 16:20 17.06.2020
1179 Clear 27 1013 16 0 5.74 359 15:40 17.06.2020
1180 Clear 25 1012 18 0 4.03 356 15:21 17.06.2020
1181 Clear 13 1006 28 0 3.13 271 14:59 17.06.2020
1182 Clear 13 1006 27 0 2.24 329 14:40 17.06.2020
1183 Clear 14 1006 27 0 4.02 312 14:21 17.06.2020
1184 Clear 14 1005 26 0 3.58 302 14:00 17.06.2020
1185 Clear 14 1005 26 0 4.02 358 13:41 17.06.2020
1186 Clear 14 1005 26 0 4.02 358 13:41 17.06.2020
1187 Clear 14 1005 25 0 4.02 328 13:21 17.06.2020
1188 Clear 16 1005 23 0 2.68 322 12:56 17.06.2020
1189 Clear 16 1004 23 0 4.02 351 12:37 17.06.2020
1190 Clear 16 1004 23 0 4.47 329 12:19 17.06.2020
1191 Clear 17 1004 23 0 4.02 337 11:44 17.06.2020
1192 Clear 17 1004 23 0 2.68 333 11:24 17.06.2020
1193 Clear 16 1004 25 0 1.34 320 10:55 17.06.2020
1194 Clear 27 1009 17 0 2.11 14 10:36 17.06.2020
1195 Clear 27 1008 19 0 3.05 14 10:18 17.06.2020
1196 Clear 27 1008 19 0 3.05 14 09:54 17.06.2020
1197 Clear 27 1008 19 0 3.05 14 09:36 17.06.2020
1198 Clear 27 1008 19 0 3.05 14 09:36 17.06.2020
1199 Clear 29 1007 16 0 3.13 24 09:18 17.06.2020
1200 Clear 29 1007 16 0 3.13 24 08:41 17.06.2020
1201 Clear 29 1006 16 0 1.69 157 08:19 17.06.2020
1202 Clear 20 1002 26 0 0.45 3 07:43 17.06.2020
1203 Clear 21 1002 25 0 0.45 358 07:23 17.06.2020
1204 Clear 22 1002 24 0 1.79 360 06:57 17.06.2020
1205 Clear 22 1001 23 0 0.89 33 06:39 17.06.2020
1206 Clear 32 1004 13 0 3.23 168 06:20 17.06.2020
1207 Clear 32 1004 13 0 3.23 168 05:45 17.06.2020
1208 Clear 28 1000 17 0 2.68 179 04:18 17.06.2020
1209 Clear 32 1000 13 0 3.13 226 01:55 17.06.2020
1210 Clear 41 1003 8 0 7 186 00:48 17.06.2020
1211 Clear 33 1001 9 0 1.34 158 00:28 17.06.2020
1212 Clear 40 1003 9 0 6 185 23:57 16.06.2020
1213 Clear 40 1003 9 0 6 185 23:57 16.06.2020
1214 Clear 40 1003 9 0 6 185 23:39 16.06.2020
1215 Clear 39 1004 11 0 5.04 176 23:21 16.06.2020
1216 Clear 39 1004 11 0 5.04 176 22:57 16.06.2020
1217 Clear 39 1004 11 0 5.04 176 22:38 16.06.2020
1218 Clear 38 1006 14 0 5.34 167 22:19 16.06.2020
1219 Clear 38 1006 14 0 5.34 167 21:54 16.06.2020
1220 Clear 38 1006 14 0 5.34 167 21:36 16.06.2020
1221 Clear 36 1007 17 0 4.48 163 21:18 16.06.2020
1222 Clear 36 1007 17 0 4.48 163 20:42 16.06.2020
1223 Clear 34 1007 20 0 3.66 159 20:19 16.06.2020
1224 Clear 34 1007 20 0 3.66 159 20:19 16.06.2020
1225 Clear 34 1007 20 0 3.66 159 19:58 16.06.2020
1226 Clear 27 1004 24 0 1.34 15 19:39 16.06.2020
1227 Clear 27 1004 24 0 1.34 15 19:21 16.06.2020
1228 Clear 26 1004 26 0 1.79 40 18:55 16.06.2020
1229 Clear 26 1004 27 0 1.79 62 18:37 16.06.2020
1230 Clear 32 1009 24 0 3.52 158 18:19 16.06.2020
1231 Clear 24 1004 29 0 0.89 85 17:55 16.06.2020
1232 Clear 23 1004 30 0 0.45 87 17:36 16.06.2020
1233 Clear 22 1004 34 0 0.89 67 17:18 16.06.2020
1234 Clear 22 1004 34 0 0.89 67 17:18 16.06.2020
1235 Clear 19 1004 38 0 1.34 58 16:42 16.06.2020
1236 Clear 18 1003 38 0 1.34 40 16:21 16.06.2020
1237 Clear 17 1003 43 0 0.89 40 15:59 16.06.2020
1238 Clear 16 1003 45 0 0.89 29 15:41 16.06.2020
1239 Clear 27 1008 32 0 2.25 156 15:23 16.06.2020
1240 Clear 27 1008 32 0 2.25 156 15:00 16.06.2020
1241 Clear 27 1008 32 0 2.25 156 14:41 16.06.2020
1242 Clouds 27 1007 32 0 1.87 164 14:23 16.06.2020
1243 Clouds 26 1008 30 0 1.37 158 13:49 16.06.2020
1244 Clouds 27 1008 29 0 1.22 191 13:26 16.06.2020
1245 Clouds 14 1003 43 0 1.22 191 12:57 16.06.2020
1246 Clouds 14 1003 43 0 1.22 191 12:39 16.06.2020
1247 Clouds 28 1007 28 0 2.23 193 12:20 16.06.2020
1248 Clouds 28 1007 28 0 2.23 193 11:55 16.06.2020
1249 Clouds 28 1007 28 0 2.23 193 11:37 16.06.2020
1250 Clouds 29 1007 26 0 3.19 209 11:19 16.06.2020
1251 Clouds 29 1007 26 0 3.19 209 10:43 16.06.2020
1252 Clouds 18 1003 33 0 0.89 77 10:21 16.06.2020
1253 Clouds 30 1007 24 0 4.54 195 09:58 16.06.2020
1254 Clouds 18 1003 33 0 4.54 195 09:40 16.06.2020
1255 Clouds 31 1007 21 0 4.74 190 09:21 16.06.2020
1256 Clouds 31 1007 21 0 4.74 190 08:45 16.06.2020
1257 Clouds 32 1007 19 0 5.41 187 08:26 16.06.2020
1258 Clouds 21 1004 31 0 1.34 204 07:50 16.06.2020
1259 Clouds 22 1004 29 0 1.34 232 07:27 16.06.2020
1260 Clouds 23 1004 26 0 1.79 223 06:54 16.06.2020
1261 Clouds 34 1006 14 0 5.4 186 06:27 16.06.2020
1262 Clouds 34 1006 14 0 5.4 186 05:45 16.06.2020
1263 Clouds 26 1004 22 0 1.79 209 04:42 16.06.2020
1264 Clouds 27 1004 20 0 4.02 247 03:31 16.06.2020
1265 Clouds 29 1005 16 0 3.13 239 02:18 16.06.2020
1266 Clouds 29 1006 14 0 3.58 225 01:31 16.06.2020
1267 Clouds 29 1006 14 0 4.02 228 00:52 16.06.2020
1268 Clouds 30 1006 13 0 4.02 240 00:22 16.06.2020
1269 Clouds 30 1006 12 0 3.58 198 23:43 15.06.2020
1270 Clouds 31 1007 11 0 3.13 233 23:23 15.06.2020
1271 Clouds 31 1007 11 0 4.47 188 22:58 15.06.2020
1272 Clouds 31 1007 11 0 2.24 241 22:39 15.06.2020
1273 Clear 30 1007 11 0 1.79 227 22:21 15.06.2020
1274 Clear 31 1008 12 0 2.24 152 21:56 15.06.2020
1275 Clear 31 1008 13 0 1.79 197 21:37 15.06.2020
1276 Clear 39 1010 9 0 6.14 170 21:19 15.06.2020
1277 Clear 31 1008 14 0 3.58 40 20:56 15.06.2020
1278 Clear 31 1008 15 0 2.68 87 20:38 15.06.2020
1279 Clear 38 1011 10 0 4.87 166 20:19 15.06.2020
1280 Clear 38 1011 10 0 4.87 166 19:56 15.06.2020
1281 Clear 38 1011 10 0 4.87 166 19:38 15.06.2020
1282 Clear 36 1011 11 0 3.92 163 19:19 15.06.2020
1283 Clear 29 1009 14 0 0.89 73 18:56 15.06.2020
1284 Clear 29 1009 14 0 0.45 66 18:37 15.06.2020
1285 Clear 35 1012 12 0 3.18 165 18:19 15.06.2020
1286 Clear 25 1009 18 0 0.45 69 17:42 15.06.2020
1287 Clouds 24 1009 20 0 0.45 75 17:22 15.06.2020
1288 Clouds 21 1009 25 0 0.45 79 16:59 15.06.2020
1289 Clouds 34 1012 13 0 2.51 172 16:41 15.06.2020
1290 Clouds 17 1009 31 0 1.74 179 16:19 15.06.2020
1291 Clouds 32 1012 12 0 1.74 179 15:56 15.06.2020
1292 Clouds 32 1012 12 0 1.74 179 15:38 15.06.2020
1293 Clouds 28 1011 16 0 1.48 172 15:18 15.06.2020
1294 Clouds 28 1011 16 0 1.48 172 14:42 15.06.2020
1295 Clouds 27 1011 17 0 1.22 168 14:21 15.06.2020
1296 Clouds 27 1011 17 0 1.22 168 13:59 15.06.2020
1297 Clouds 27 1011 17 0 1.22 168 13:41 15.06.2020
1298 Clouds 27 1011 16 0 1.08 156 13:22 15.06.2020
1299 Clouds 27 1011 16 0 1.08 156 12:58 15.06.2020
1300 Clouds 27 1011 16 0 1.08 156 12:39 15.06.2020
1301 Clouds 28 1011 16 0 0.66 174 12:21 15.06.2020
1302 Clouds 28 1011 16 0 0.66 174 11:45 15.06.2020
1303 Clouds 28 1011 15 0 0.47 220 11:25 15.06.2020
1304 Clouds 28 1011 15 0 0.47 220 10:56 15.06.2020
1305 Clouds 28 1011 15 0 0.47 220 10:38 15.06.2020
1306 Clouds 29 1011 15 0 0.72 220 10:19 15.06.2020
1307 Clouds 29 1011 15 0 0.72 220 09:41 15.06.2020
1308 Clouds 30 1010 14 0 1.07 200 09:22 15.06.2020
1309 Clouds 30 1010 14 0 1.07 200 08:43 15.06.2020
1310 Clouds 30 1010 13 0 1.1 198 08:24 15.06.2020
1311 Clouds 30 1010 13 0 1.1 198 07:50 15.06.2020
1312 Clouds 30 1010 13 0 1.1 198 07:32 15.06.2020
1313 Clear 30 1009 13 0 0.6 197 06:53 15.06.2020
1314 Clear 31 1008 12 0 1.29 166 06:26 15.06.2020
1315 Clear 31 1008 12 0 1.29 166 05:48 15.06.2020
1316 Clear 23 1006 18 0 1.57 160 05:27 15.06.2020
1317 Clear 28 1006 14 0 1.79 200 04:21 15.06.2020
1318 Clear 31 1006 12 0 0.89 73 03:48 15.06.2020
1319 Clear 37 1007 9 0 1.64 160 02:55 15.06.2020
1320 Clouds 37 1007 9 0 1.45 155 01:59 15.06.2020
1321 Clouds 37 1007 9 0 1.45 155 01:40 15.06.2020
1322 Clouds 37 1007 9 0 1.61 146 01:22 15.06.2020
1323 Clouds 37 1007 9 0 1.61 146 00:41 15.06.2020
1324 Clouds 37 1008 9 0 1.1 139 00:22 15.06.2020
1325 Clouds 37 1008 9 0 1.1 139 23:55 14.06.2020
1326 Clouds 37 1008 9 0 1.1 139 23:36 14.06.2020
1327 Clouds 36 1009 9 0 0.87 131 23:18 14.06.2020
1328 Clouds 36 1009 9 0 0.87 131 22:55 14.06.2020
1329 Clouds 36 1009 9 0 0.87 131 22:37 14.06.2020
1330 Clouds 35 1010 10 0 0.8 118 22:18 14.06.2020
1331 Clouds 28 1008 13 0 0.89 320 21:55 14.06.2020
1332 Clouds 35 1010 10 0 0.8 118 21:36 14.06.2020
1333 Clear 33 1010 11 0 0.58 80 21:18 14.06.2020
1334 Clear 33 1010 11 0 0.58 80 20:55 14.06.2020
1335 Clear 33 1010 11 0 0.58 80 20:36 14.06.2020
1336 Clouds 32 1011 12 0 0.83 36 20:18 14.06.2020
1337 Clouds 32 1011 12 0 0.83 36 19:54 14.06.2020
1338 Clouds 32 1011 12 0 0.83 36 19:36 14.06.2020
1339 Clouds 30 1011 14 0 0.69 23 19:18 14.06.2020
1340 Clouds 25 1009 17 0 0.89 64 18:55 14.06.2020
1341 Clouds 24 1009 17 0 0.89 104 18:36 14.06.2020
1342 Clouds 29 1012 15 0 0.63 57 18:18 14.06.2020
1343 Clouds 20 1008 22 0 0.89 323 17:40 14.06.2020
1344 Clear 19 1009 23 0 0.89 322 17:20 14.06.2020
1345 Clear 18 1008 25 0 1.34 360 16:58 14.06.2020
1346 Clear 17 1008 26 0 2.24 340 16:39 14.06.2020
1347 Clear 16 1008 28 0 1.79 343 16:19 14.06.2020
1348 Clear 14 1008 31 0 1.34 316 15:56 14.06.2020
1349 Clear 14 1008 31 0 2.68 325 15:37 14.06.2020
1350 Clear 14 1008 32 0 1.79 344 15:18 14.06.2020
1351 Clear 13 1008 32 0 2.24 343 14:41 14.06.2020
1352 Clear 13 1007 32 0 3.13 329 14:23 14.06.2020
1353 Clear 14 1007 32 0 2.68 351 13:59 14.06.2020
1354 Clear 13 1007 32 0 3.13 347 13:40 14.06.2020
1355 Clear 13 1007 33 0 3.58 314 13:21 14.06.2020
1356 Clear 14 1006 32 0 3.13 315 12:57 14.06.2020
1357 Clear 14 1006 32 0 3.13 320 12:39 14.06.2020
1358 Clear 14 1006 31 0 1.79 310 12:21 14.06.2020
1359 Clear 15 1006 31 0 1.79 266 11:57 14.06.2020
1360 Clear 15 1006 31 0 2.68 335 11:38 14.06.2020
1361 Clear 15 1006 32 0 3.13 347 11:20 14.06.2020
1362 Clear 16 1006 32 0 3.13 4 10:42 14.06.2020
1363 Clear 16 1006 32 0 3.13 342 10:20 14.06.2020
1364 Clear 16 1006 30 0 4.02 354 09:57 14.06.2020
1365 Clear 16 1006 30 0 1.79 341 09:39 14.06.2020
1366 Clear 17 1006 29 0 1.34 350 09:20 14.06.2020
1367 Clear 27 1008 19 0 1.03 117 08:42 14.06.2020
1368 Clear 28 1008 17 0 2.11 145 08:21 14.06.2020
1369 Clear 17 1005 30 0 2.11 145 07:52 14.06.2020
1370 Clear 17 1005 29 0 2.11 145 07:34 14.06.2020
1371 Clear 17 1004 29 0 2.5 163 06:51 14.06.2020
1372 Clear 20 1004 25 0 2.39 171 05:51 14.06.2020
1373 Clear 22 1003 22 0 0.89 98 05:22 14.06.2020
1374 Clear 26 1003 17 0 1.79 99 04:37 14.06.2020
1375 Clear 28 1003 15 0 0.89 78 03:45 14.06.2020
1376 Clear 34 1004 10 0 0.74 95 02:35 14.06.2020
1377 Clear 35 1004 10 0 1.8 181 01:55 14.06.2020
1378 Clear 35 1005 10 0 1.89 189 01:26 14.06.2020
1379 Clear 35 1005 10 0 1.89 189 00:47 14.06.2020
1380 Clear 34 1006 11 0 2.54 174 00:20 14.06.2020
1381 Clear 34 1006 11 0 2.54 174 23:46 13.06.2020
1382 Clear 34 1007 11 0 4.29 168 23:26 13.06.2020
1383 Clear 34 1007 11 0 4.29 168 22:59 13.06.2020
1384 Clear 34 1007 11 0 4.29 168 22:38 13.06.2020
1385 Clear 32 1008 13 0 4.38 168 22:19 13.06.2020
1386 Clear 32 1008 13 0 4.38 168 21:58 13.06.2020
1387 Clear 25 1006 17 0 2.68 57 21:40 13.06.2020
1388 Clear 31 1010 16 0 3.08 172 21:21 13.06.2020
1389 Clear 31 1010 16 0 3.08 172 20:54 13.06.2020
1390 Clear 31 1010 16 0 3.08 172 20:54 13.06.2020
1391 Clear 31 1010 16 0 3.08 172 20:36 13.06.2020
1392 Clouds 29 1010 19 0 2.96 160 20:18 13.06.2020
1393 Clouds 29 1010 19 0 2.96 160 19:39 13.06.2020
1394 Clouds 28 1011 21 0 2.75 157 19:20 13.06.2020
1395 Clouds 22 1007 23 0 1.34 67 18:58 13.06.2020
1396 Clouds 21 1007 24 0 1.34 91 18:40 13.06.2020
1397 Clouds 27 1012 23 0 2.57 166 18:20 13.06.2020
1398 Clouds 27 1012 23 0 2.57 166 18:20 13.06.2020
1399 Clouds 18 1007 28 0 0.45 40 17:57 13.06.2020
1400 Clouds 18 1007 29 0 0.89 35 17:39 13.06.2020
1401 Clouds 17 1007 30 0 0.89 83 17:20 13.06.2020
1402 Clouds 15 1007 35 0 0.89 95 16:55 13.06.2020
1403 Clouds 13 1007 40 0 0.89 88 16:37 13.06.2020
1404 Clouds 12 1007 44 0 2.03 164 16:18 13.06.2020
1405 Clouds 25 1012 25 0 2.03 164 15:42 13.06.2020
1406 Clouds 23 1011 29 0 1.18 183 15:22 13.06.2020
1407 Clouds 10 1006 39 0 1.18 183 14:45 13.06.2020
1408 Clouds 10 1006 44 0 1.38 217 14:26 13.06.2020
1409 Clouds 11 1006 32 0 0.45 279 13:59 13.06.2020
1410 Clouds 12 1006 31 0 0.45 104 13:40 13.06.2020
1411 Clouds 12 1005 30 0 0.89 116 13:22 13.06.2020
1412 Clouds 11 1005 38 0 0.45 152 12:44 13.06.2020
1413 Clear 12 1005 38 0 4.24 209 12:26 13.06.2020
1414 Clear 13 1005 37 0 4.24 209 11:59 13.06.2020
1415 Clear 13 1005 36 0 1.34 159 11:39 13.06.2020
1416 Clear 14 1005 36 0 1.79 242 11:19 13.06.2020
1417 Clear 13 1005 35 0 0.89 126 10:57 13.06.2020
1418 Clear 13 1005 35 0 1.34 73 10:38 13.06.2020
1419 Clear 14 1005 35 0 0.89 276 10:19 13.06.2020
1420 Clear 16 1006 29 0 0.89 214 09:44 13.06.2020
1421 Clear 17 1006 24 0 3.13 232 09:25 13.06.2020
1422 Clear 16 1007 30 0 4.02 190 08:49 13.06.2020
1423 Clear 16 1006 32 0 2.68 166 08:31 13.06.2020
1424 Clear 17 1006 29 0 3.58 202 07:55 13.06.2020
1425 Clear 17 1006 28 0 3.58 192 07:30 13.06.2020
1426 Clear 17 1007 31 0 1.79 134 06:51 13.06.2020
1427 Clear 18 1006 31 0 1.79 201 06:33 13.06.2020
1428 Clear 19 1006 28 0 1.34 222 05:47 13.06.2020
1429 Clouds 20 1006 24 0 0.89 267 05:25 13.06.2020
1430 Clouds 24 1005 14 0 5.81 206 03:48 13.06.2020
1431 Clouds 26 1005 9 0 5.81 231 02:54 13.06.2020
1432 Clouds 27 1005 8 0 6.26 240 02:35 13.06.2020
1433 Clouds 28 1006 9 0 5.81 183 01:46 13.06.2020
1434 Clouds 28 1006 9 0 6.26 271 01:21 13.06.2020
1435 Clouds 28 1006 7 0 4.92 156 00:42 13.06.2020
1436 Clouds 28 1006 7 0 4.92 156 00:42 13.06.2020
1437 Clouds 28 1007 6 0 4.02 229 00:23 13.06.2020
1438 Clouds 28 1007 6 0 4.02 133 23:42 12.06.2020
1439 Clouds 28 1007 5 0 4.47 238 23:19 12.06.2020
1440 Clouds 28 1007 5 0 4.47 238 23:19 12.06.2020
1441 Clouds 28 1008 5 0 4.02 228 22:59 12.06.2020
1442 Clouds 27 1008 5 0 4.47 242 22:40 12.06.2020
1443 Clouds 28 1008 5 0 3.58 191 22:19 12.06.2020
1444 Clouds 28 1009 6 0 4.47 223 21:49 12.06.2020
1445 Clouds 28 1009 7 0 2.68 152 21:26 12.06.2020
1446 Clouds 27 1009 10 0 3.13 236 20:58 12.06.2020
1447 Clouds 27 1009 10 0 3.13 236 20:58 12.06.2020
1448 Clouds 27 1010 9 0 3.13 216 20:40 12.06.2020
1449 Clouds 27 1010 11 0 2.68 90 20:22 12.06.2020
1450 Clouds 27 1010 10 0 2.68 250 19:56 12.06.2020
1451 Clouds 27 1010 9 0 1.34 57 19:38 12.06.2020
1452 Clouds 26 1010 10 0 1.34 23 19:18 12.06.2020
1453 Clouds 25 1010 10 0 1.79 27 18:39 12.06.2020
1454 Clouds 24 1010 11 0 1.34 40 18:19 12.06.2020
1455 Clouds 23 1010 12 0 0.89 35 17:54 12.06.2020
1456 Clouds 22 1010 11 0 1.79 69 17:36 12.06.2020
1457 Clouds 23 1010 11 0 1.34 72 17:18 12.06.2020
1458 Clouds 19 1010 14 0 0.89 71 16:40 12.06.2020
1459 Clouds 17 1010 18 0 0.89 125 16:19 12.06.2020
1460 Clouds 32 1014 10 0 4.11 173 15:47 12.06.2020
1461 Clouds 29 1014 12 0 3.67 169 15:25 12.06.2020
1462 Clouds 14 1010 22 0 3.67 169 14:56 12.06.2020
1463 Clouds 14 1010 21 0 0.45 239 14:38 12.06.2020
1464 Clouds 16 1010 20 0 0.45 239 14:19 12.06.2020
1465 Clouds 16 1010 19 0 0.45 239 13:41 12.06.2020
1466 Clouds 16 1010 19 0 0.45 239 13:21 12.06.2020
1467 Clouds 16 1010 19 0 0.45 239 12:41 12.06.2020
1468 Clouds 30 1014 11 0 3.42 173 12:20 12.06.2020
1469 Clouds 18 1010 19 0 3.42 173 11:58 12.06.2020
1470 Clouds 18 1010 20 0 0.45 227 11:39 12.06.2020
1471 Clouds 18 1011 20 0 0.45 295 11:21 12.06.2020
1472 Clouds 18 1011 22 0 0.45 300 10:46 12.06.2020
1473 Clouds 18 1011 21 0 0.45 258 10:24 12.06.2020
1474 Clouds 19 1011 20 0 1.79 218 09:47 12.06.2020
1475 Clouds 21 1011 19 0 2.24 228 09:21 12.06.2020
1476 Clouds 21 1011 17 0 2.24 210 08:45 12.06.2020
1477 Clear 21 1012 17 0 0.89 221 08:25 12.06.2020
1478 Clear 22 1012 16 0 2.24 138 07:44 12.06.2020
1479 Clear 22 1012 14 0 2.24 130 07:26 12.06.2020
1480 Clear 23 1012 15 0 2.24 235 06:56 12.06.2020
1481 Clear 23 1012 14 0 2.68 223 06:30 12.06.2020
1482 Clear 24 1011 9 0 1.34 213 05:57 12.06.2020
1483 Clear 26 1011 9 0 1.79 212 05:37 12.06.2020
1484 Clear 26 1011 8 0 2.24 225 05:19 12.06.2020
1485 Clear 29 1011 6 0 3.13 182 03:33 12.06.2020
1486 Clear 31 1011 6 0 4.47 189 01:58 12.06.2020
1487 Clear 31 1011 6 0 4.92 216 01:32 12.06.2020
1488 Clear 31 1011 4 0 4.02 204 00:55 12.06.2020
1489 Clear 31 1012 4 0 4.92 206 00:37 12.06.2020
1490 Clear 31 1012 5 0 4.02 237 00:18 12.06.2020
1491 Clear 31 1012 7 0 4.92 180 23:41 11.06.2020
1492 Clear 31 1012 8 0 4.02 195 23:22 11.06.2020
1493 Clear 31 1012 7 0 3.58 213 22:59 11.06.2020
1494 Clear 31 1012 6 0 3.13 229 22:39 11.06.2020
1495 Clear 31 1012 6 0 3.58 230 22:20 11.06.2020
1496 Clear 30 1012 7 0 2.68 171 21:57 11.06.2020
1497 Clear 30 1012 8 0 4.47 198 21:38 11.06.2020
1498 Clear 30 1013 8 0 4.92 154 21:20 11.06.2020
1499 Clear 30 1013 8 0 2.68 176 20:55 11.06.2020
1500 Clear 30 1013 8 0 4.02 241 20:37 11.06.2020
1501 Clear 29 1013 8 0 2.68 204 20:18 11.06.2020
1502 Clear 31 1012 9 0 2.68 128 19:41 11.06.2020
1503 Clear 31 1012 10 0 2.24 81 19:22 11.06.2020
1504 Clear 30 1013 10 0 1.34 8 18:43 11.06.2020
1505 Clear 37 1015 8 0 3.41 159 18:25 11.06.2020
1506 Clear 28 1013 12 0 0.89 29 17:57 11.06.2020
1507 Clear 26 1013 13 0 0.89 81 17:39 11.06.2020
1508 Clear 24 1013 16 0 0.89 81 17:20 11.06.2020
1509 Clear 21 1013 20 0 2.51 159 16:58 11.06.2020
1510 Clear 36 1015 9 0 2.51 159 16:40 11.06.2020
1511 Clear 18 1013 24 0 1.29 160 16:22 11.06.2020
1512 Clear 34 1015 10 0 1.29 160 15:57 11.06.2020
1513 Clear 34 1015 10 0 1.29 160 15:38 11.06.2020
1514 Clear 29 1014 14 0 1.12 163 15:19 11.06.2020
1515 Clear 29 1014 14 0 1.12 163 14:43 11.06.2020
1516 Clear 28 1014 14 0 1.05 164 14:21 11.06.2020
1517 Clear 28 1014 14 0 1.1 164 13:56 11.06.2020
1518 Clear 28 1014 14 0 1.1 164 13:38 11.06.2020
1519 Clear 28 1014 14 0 1.1 164 13:38 11.06.2020
1520 Clear 29 1014 13 0 1.17 164 13:20 11.06.2020
1521 Clear 29 1014 13 0 1.17 164 12:56 11.06.2020
1522 Clear 29 1014 13 0 1.17 164 12:38 11.06.2020
1523 Clear 29 1014 13 0 1.07 169 12:19 11.06.2020
1524 Clear 29 1014 13 0 1.07 169 11:57 11.06.2020
1525 Clear 29 1014 13 0 1.07 169 11:38 11.06.2020
1526 Clear 29 1014 13 0 0.65 168 11:19 11.06.2020
1527 Clear 29 1014 13 0 0.65 168 10:54 11.06.2020
1528 Clear 29 1014 13 0 0.65 168 10:36 11.06.2020
1529 Clear 30 1014 12 0 0.6 179 10:18 11.06.2020
1530 Clear 30 1014 12 0 0.6 179 09:40 11.06.2020
1531 Clear 31 1014 12 0 0.69 209 09:22 11.06.2020
1532 Clear 31 1014 12 0 0.69 209 08:43 11.06.2020
1533 Clear 31 1014 11 0 0.74 187 08:19 11.06.2020
1534 Clear 31 1014 11 0 0.74 187 07:42 11.06.2020
1535 Clear 22 1013 13 0 0.68 165 07:24 11.06.2020
1536 Clear 21 1012 13 0 0.68 165 06:40 11.06.2020
1537 Clear 32 1013 11 0 0.93 172 06:21 11.06.2020
1538 Clear 24 1011 9 0 0.89 212 05:28 11.06.2020
1539 Clear 29 1011 8 0 1.79 206 03:30 11.06.2020
1540 Clear 30 1011 7 0 3.58 218 02:50 11.06.2020
1541 Clear 31 1011 7 0 1.79 104 02:32 11.06.2020
1542 Clear 40 1012 7 0 2.43 156 01:47 11.06.2020
1543 Clear 40 1012 7 0 2.01 152 01:24 11.06.2020
1544 Clear 40 1012 7 0 2.01 152 00:49 11.06.2020
1545 Clear 39 1013 7 0 1.55 143 00:27 11.06.2020
1546 Clear 39 1013 7 0 1.55 143 23:46 10.06.2020
1547 Clear 39 1014 8 0 1.07 133 23:27 10.06.2020
1548 Clear 39 1014 8 0 1.07 133 22:56 10.06.2020
1549 Clear 39 1014 8 0 1.07 133 22:38 10.06.2020
1550 Clear 38 1015 8 0 0.72 105 22:19 10.06.2020
1551 Clear 38 1015 8 0 0.72 105 21:56 10.06.2020
1552 Clear 38 1015 8 0 0.72 105 21:38 10.06.2020
1553 Clear 37 1016 8 0 0.77 39 21:18 10.06.2020
1554 Clear 37 1016 8 0 0.77 78 20:56 10.06.2020
1555 Clear 37 1016 8 0 0.77 78 20:38 10.06.2020
1556 Clear 36 1016 8 0 1.38 47 20:20 10.06.2020
1557 Clear 36 1016 8 0 1.38 47 19:41 10.06.2020
1558 Clear 35 1017 9 0 1.7 37 19:20 10.06.2020
1559 Clear 35 1017 9 0 1.7 37 18:58 10.06.2020
1560 Clear 28 1015 7 0 0.89 50 18:40 10.06.2020
1561 Clear 34 1017 9 0 1.58 30 18:19 10.06.2020
1562 Clear 26 1015 8 0 0.45 33 17:56 10.06.2020
1563 Clear 25 1016 10 0 0.45 324 17:37 10.06.2020
1564 Clear 24 1015 11 0 1.34 334 17:19 10.06.2020
1565 Clear 22 1015 12 0 1.34 337 16:57 10.06.2020
1566 Clear 21 1015 13 0 1.34 351 16:39 10.06.2020
1567 Clear 19 1015 14 0 1.34 331 16:20 10.06.2020
1568 Clear 31 1017 11 0 1.03 358 15:41 10.06.2020
1569 Clear 25 1017 16 0 0.81 3 15:22 10.06.2020
1570 Clear 25 1017 16 0 0.81 3 14:58 10.06.2020
1571 Clear 25 1017 16 0 0.81 3 14:39 10.06.2020
1572 Clear 25 1017 16 0 0.68 6 14:20 10.06.2020
1573 Clear 25 1017 16 0 0.7 5 13:41 10.06.2020
1574 Clear 25 1016 16 0 0.75 6 13:21 10.06.2020
1575 Clear 25 1016 16 0 0.75 6 12:46 10.06.2020
1576 Clear 26 1017 15 0 0.9 354 12:23 10.06.2020
1577 Clear 26 1017 15 0 0.9 354 11:59 10.06.2020
1578 Clear 26 1017 15 0 0.9 354 11:41 10.06.2020
1579 Clear 26 1017 15 0 0.44 333 11:20 10.06.2020
1580 Clear 26 1017 15 0 0.44 333 10:58 10.06.2020
1581 Clear 26 1017 15 0 0.44 333 10:40 10.06.2020
1582 Clear 27 1017 14 0 0.31 202 10:21 10.06.2020
1583 Clear 27 1017 14 0 0.31 202 09:43 10.06.2020
1584 Clear 27 1017 14 0 0.31 202 09:43 10.06.2020
1585 Clear 28 1017 13 0 0.65 193 09:24 10.06.2020
1586 Clear 28 1017 13 0 0.65 193 08:58 10.06.2020
1587 Clear 28 1017 13 0 0.65 193 08:39 10.06.2020
1588 Clear 28 1017 13 0 0.99 192 08:20 10.06.2020
1589 Clear 28 1017 13 0 0.99 192 07:41 10.06.2020
1590 Clear 28 1017 13 0 0.97 206 07:23 10.06.2020
1591 Clear 18 1017 12 0 0.97 206 06:50 10.06.2020
1592 Clear 28 1017 13 0 0.97 206 06:31 10.06.2020
1593 Clear 29 1016 13 0 0.92 231 05:59 10.06.2020
1594 Clear 22 1016 9 0 0.7 226 05:29 10.06.2020
1595 Clear 26 1016 7 0 0.89 189 04:48 10.06.2020
1596 Clear 29 1016 5 0 0.89 20 04:28 10.06.2020
1597 Clear 35 1015 8 0 0.56 83 02:24 10.06.2020
1598 Clear 35 1015 8 0 0.56 83 01:40 10.06.2020
1599 Clear 35 1016 8 0 0.82 62 00:42 10.06.2020
1600 Clear 35 1017 9 0 1.02 33 00:23 10.06.2020
1601 Clear 35 1017 9 0 1.02 33 23:59 09.06.2020
1602 Clear 35 1017 9 0 1.02 33 23:41 09.06.2020
1603 Clear 34 1018 9 0 1.21 24 23:23 09.06.2020
1604 Clear 34 1018 9 0 1.21 24 22:57 09.06.2020
1605 Clear 34 1018 9 0 1.21 24 22:38 09.06.2020
1606 Clear 33 1019 9 0 1.55 18 22:20 09.06.2020
1607 Clear 26 1020 6 0 1.79 147 21:57 09.06.2020
1608 Clear 26 1020 6 0 1.34 212 21:39 09.06.2020
1609 Clear 32 1020 10 0 1.86 19 21:21 09.06.2020
1610 Clear 32 1020 10 0 1.86 19 20:57 09.06.2020
1611 Clear 32 1020 10 0 1.86 19 20:39 09.06.2020
1612 Clear 31 1021 11 0 1.83 17 20:20 09.06.2020
1613 Clear 31 1021 11 0 1.83 17 20:20 09.06.2020
1614 Clear 31 1021 11 0 1.83 17 19:57 09.06.2020
1615 Clear 31 1021 11 0 1.83 17 19:39 09.06.2020
1616 Clear 30 1021 12 0 2.02 19 19:20 09.06.2020
1617 Clear 30 1021 12 0 2.02 19 18:57 09.06.2020
1618 Clear 23 1021 8 0 1.34 81 18:39 09.06.2020
1619 Clear 29 1021 13 0 2.04 22 18:19 09.06.2020
1620 Clear 21 1021 10 0 0.89 357 17:55 09.06.2020
1621 Clear 21 1021 10 0 0.89 65 17:37 09.06.2020
1622 Clear 19 1021 11 0 1.34 339 17:18 09.06.2020
1623 Clear 17 1021 13 0 1.34 328 16:42 09.06.2020
1624 Clear 16 1021 13 0 1.34 330 16:23 09.06.2020
1625 Clear 14 1021 14 0 1.79 332 15:57 09.06.2020
1626 Clear 13 1021 16 0 1.34 338 15:38 09.06.2020
1627 Clear 12 1021 17 0 1.34 341 15:20 09.06.2020
1628 Clear 22 1021 19 0 1.3 8 14:55 09.06.2020
1629 Clear 22 1021 19 0 1.3 8 14:36 09.06.2020
1630 Clear 21 1021 20 0 0.95 15 14:18 09.06.2020
1631 Clear 21 1021 20 0 0.95 15 13:42 09.06.2020
1632 Clear 21 1020 19 0 1.01 0 13:21 09.06.2020
1633 Clear 21 1020 19 0 1.01 0 12:58 09.06.2020
1634 Clear 21 1020 19 0 1.01 0 12:40 09.06.2020
1635 Clear 21 1020 19 0 1.01 347 12:18 09.06.2020
1636 Clear 21 1020 19 0 1.01 347 11:55 09.06.2020
1637 Clear 21 1020 19 0 1.01 347 11:37 09.06.2020
1638 Clear 22 1020 19 0 0.93 357 11:19 09.06.2020
1639 Clear 22 1020 19 0 0.93 357 10:44 09.06.2020
1640 Clear 22 1020 18 0 0.75 356 10:25 09.06.2020
1641 Clear 22 1020 18 0 0.75 356 09:44 09.06.2020
1642 Clear 23 1020 17 0 0.29 309 09:25 09.06.2020
1643 Clear 23 1020 17 0 0.29 309 08:58 09.06.2020
1644 Clear 23 1020 17 0 0.29 309 08:39 09.06.2020
1645 Clear 23 1019 17 0 0.6 277 08:20 09.06.2020
1646 Clear 23 1019 17 0 0.6 277 07:39 09.06.2020
1647 Clear 24 1019 16 0 0.86 268 07:21 09.06.2020
1648 Clear 24 1019 16 0 0.86 268 06:54 09.06.2020
1649 Clear 24 1019 16 0 0.86 268 06:35 09.06.2020
1650 Clear 17 1019 11 0 0.99 282 05:36 09.06.2020
1651 Clear 30 1017 11 0 3.26 341 03:50 09.06.2020
1652 Clear 30 1016 10 0 4.59 343 01:54 09.06.2020
1653 Clear 30 1016 10 0 4.59 343 01:36 09.06.2020
1654 Clear 30 1016 11 0 5.2 340 01:18 09.06.2020
1655 Clear 30 1016 11 0 5.2 340 00:39 09.06.2020
1656 Clear 30 1017 11 0 5.7 341 00:18 09.06.2020
1657 Clear 30 1017 11 0 5.7 341 23:41 08.06.2020
1658 Clear 29 1017 12 0 6.43 346 23:20 08.06.2020
1659 Clear 29 1017 12 0 6.43 346 22:56 08.06.2020
1660 Clear 29 1017 12 0 6.43 346 22:38 08.06.2020
1661 Clear 21 1019 7 0 2.68 16 22:19 08.06.2020
1662 Clear 20 1019 11 0 1.79 58 21:55 08.06.2020
1663 Clear 20 1019 10 0 1.34 354 21:36 08.06.2020
1664 Clear 27 1019 14 0 6.99 353 21:18 08.06.2020
1665 Clear 17 1019 13 0 3.58 306 20:54 08.06.2020
1666 Clear 17 1019 13 0 4.47 308 20:36 08.06.2020
1667 Clear 17 1019 14 0 4.47 353 20:18 08.06.2020
1668 Clear 16 1018 17 0 3.13 349 19:43 08.06.2020
1669 Clear 14 1018 18 0 2.68 61 19:21 08.06.2020
1670 Clear 13 1018 20 0 4.92 354 18:43 08.06.2020
1671 Clear 12 1018 23 0 4.92 8 18:20 08.06.2020
1672 Clear 11 1018 25 0 6.26 329 17:57 08.06.2020
1673 Clear 11 1017 27 0 5.81 320 17:39 08.06.2020
1674 Clear 10 1017 27 0 5.36 349 17:21 08.06.2020
1675 Clear 9 1017 32 0 5.36 345 16:58 08.06.2020
1676 Clear 8 1017 33 0 4.47 323 16:39 08.06.2020
1677 Clear 8 1017 35 0 4.92 348 16:21 08.06.2020
1678 Clear 20 1019 22 0 7.84 357 15:42 08.06.2020
1679 Clear 19 1019 24 0 5.18 6 15:21 08.06.2020
1680 Clear 19 1019 24 0 5.18 6 14:57 08.06.2020
1681 Clear 19 1019 24 0 5.18 6 14:38 08.06.2020
1682 Clear 19 1018 25 0 4.24 11 14:18 08.06.2020
1683 Clear 19 1018 25 0 4.24 11 14:18 08.06.2020
1684 Clear 19 1018 25 0 4.24 11 13:42 08.06.2020
1685 Clear 19 1017 25 0 4.68 7 13:23 08.06.2020
1686 Clear 19 1017 25 0 4.68 7 12:42 08.06.2020
1687 Clear 20 1016 23 0 5.42 6 12:20 08.06.2020
1688 Clear 20 1016 23 0 5.42 6 11:59 08.06.2020
1689 Clear 20 1016 23 0 5.42 6 11:40 08.06.2020
1690 Clear 21 1015 21 0 7.06 4 11:21 08.06.2020
1691 Clear 7 1011 39 0 1.79 258 10:57 08.06.2020
1692 Clear 7 1011 40 0 2.24 260 10:38 08.06.2020
1693 Clear 7 1011 40 0 2.24 262 10:20 08.06.2020
1694 Clear 8 1011 38 0 3.13 258 09:57 08.06.2020
1695 Clear 21 1014 20 0 6.92 354 09:39 08.06.2020
1696 Clear 22 1013 20 0 6.61 2 09:20 08.06.2020
1697 Clear 22 1013 20 0 6.61 2 08:41 08.06.2020
1698 Clear 9 1010 32 0 2.68 253 08:20 08.06.2020
1699 Clear 11 1009 26 0 5.36 326 07:42 08.06.2020
1700 Clear 12 1008 24 0 5.81 324 07:21 08.06.2020
1701 Clear 13 1007 17 0 1.79 304 06:43 08.06.2020
1702 Clear 26 1009 14 0 5.3 17 06:25 08.06.2020
1703 Clear 26 1009 14 0 5.3 17 05:42 08.06.2020
1704 Clear 22 1003 2 0 3.58 299 03:29 08.06.2020
1705 Clear 24 1002 1 0 3.13 264 02:27 08.06.2020
1706 Clear 33 1004 9 0 2.71 171 01:45 08.06.2020
1707 Clear 33 1004 9 0 3.07 166 01:20 08.06.2020
1708 Clear 33 1004 10 0 3.05 168 00:28 08.06.2020
1709 Clear 24 1002 1 0 3.13 158 23:40 07.06.2020
1710 Clear 24 1002 2 0 2.68 204 23:19 07.06.2020
1711 Clear 24 1002 2 0 2.68 204 23:19 07.06.2020
1712 Clear 32 1005 11 0 3.48 169 22:58 07.06.2020
1713 Clear 23 1003 2 0 1.34 267 22:38 07.06.2020
1714 Clear 23 1003 2 0 0.89 256 22:19 07.06.2020
1715 Clear 31 1006 13 0 3.45 171 21:58 07.06.2020
1716 Clear 31 1006 13 0 3.45 171 21:37 07.06.2020
1717 Clear 30 1008 14 0 3.21 169 21:19 07.06.2020
1718 Clear 29 1007 14 0 3.97 167 20:54 07.06.2020
1719 Clear 29 1007 14 0 3.97 167 20:36 07.06.2020
1720 Clear 28 1008 15 0 3.59 168 20:18 07.06.2020
1721 Clear 28 1008 15 0 3.59 168 19:54 07.06.2020
1722 Clear 28 1008 15 0 3.59 168 19:36 07.06.2020
1723 Clear 21 1004 18 0 1.79 75 19:18 07.06.2020
1724 -273 0 0 0 0 0 18:40 07.06.2020
1725 Clear 25 1008 20 0 2.66 166 18:21 07.06.2020
1726 Clear 25 1008 20 0 2.66 166 17:58 07.06.2020
1727 Clear 18 1004 22 0 1.79 3 17:40 07.06.2020
1728 Clear 17 1004 14 0 0.89 289 17:21 07.06.2020
1729 Clear 16 1004 6 0 1.79 256 16:44 07.06.2020
1730 Clear 15 1004 6 0 2.24 262 16:22 07.06.2020
1731 Clear 23 1008 25 0 2.25 159 15:44 07.06.2020
1732 Clear 22 1008 29 0 0.97 148 15:23 07.06.2020
1733 Clear 22 1008 29 0 0.97 148 14:59 07.06.2020
1734 Clear 22 1008 29 0 0.97 148 14:59 07.06.2020
1735 Clear 22 1008 29 0 0.97 148 14:59 07.06.2020
1736 Clear 22 1008 29 0 0.97 148 14:36 07.06.2020
1737 Clear 22 1007 29 0 1.29 160 14:18 07.06.2020
1738 Clear 22 1007 29 0 1.29 160 14:18 07.06.2020
1739 Clear 22 1007 26 0 1.22 161 13:44 07.06.2020
1740 Clear 22 1007 26 0 1.22 161 13:44 07.06.2020
1741 Clear 22 1007 26 0 1.22 161 13:44 07.06.2020
1742 Clear 22 1007 26 0 1.22 161 13:44 07.06.2020
1743 Clear 22 1006 24 0 1.84 168 13:19 07.06.2020
1744 Clear 22 1006 24 0 1.84 168 12:44 07.06.2020
1745 Clear 23 1006 23 0 2.38 170 12:25 07.06.2020
1746 Clear 23 1006 23 0 2.38 170 11:55 07.06.2020
1747 Clear 23 1006 23 0 2.38 170 11:55 07.06.2020
1748 Clear 23 1006 23 0 2.38 170 11:37 07.06.2020
1749 Clear 24 1006 22 0 2.35 174 11:19 07.06.2020
1750 Clear 24 1006 22 0 2.35 174 10:54 07.06.2020
1751 Clear 24 1006 22 0 2.35 174 10:36 07.06.2020
1752 Clear 25 1006 19 0 2.78 170 10:18 07.06.2020
1753 Clear 25 1006 19 0 2.78 170 09:54 07.06.2020
1754 Clear 25 1006 19 0 2.78 170 09:36 07.06.2020
1755 Clear 26 1006 18 0 2.83 173 09:18 07.06.2020
1756 Clear 26 1006 18 0 2.83 173 08:41 07.06.2020
1757 Clear 27 1005 16 0 2.86 159 08:23 07.06.2020
1758 Clear 27 1005 16 0 2.86 159 07:44 07.06.2020
1759 Clear 28 1005 15 0 2.83 154 07:26 07.06.2020
1760 Clear 30 1004 14 0 2.5 155 06:24 07.06.2020
1761 Clear 21 1000 17 0 0.89 274 05:28 07.06.2020
1762 Clear 26 1000 14 0 0.89 45 04:19 07.06.2020
1763 Clear 35 1002 10 0 5.15 165 02:26 07.06.2020
1764 Clear 35 1002 10 0 5.27 174 01:43 07.06.2020
1765 Clear 35 1003 10 0 5.41 189 01:24 07.06.2020
1766 Clear 29 1000 18 0 1.79 77 00:40 07.06.2020
1767 Clear 29 1000 18 0 4.02 98 00:18 07.06.2020
1768 Clear 28 1001 25 0 2.24 16 23:55 06.06.2020
1769 Clear 28 1001 27 0 2.68 359 23:36 06.06.2020
1770 Clear 27 1001 29 0 2.68 29 23:18 06.06.2020
1771 Clear 26 1001 33 0 2.68 31 22:55 06.06.2020
1772 Clear 26 1001 33 0 3.13 71 22:37 06.06.2020
1773 Clear 26 1001 33 0 2.68 40 22:18 06.06.2020
1774 Clear 24 1002 38 0 2.24 45 21:42 06.06.2020
1775 Clear 23 1002 39 0 1.79 27 21:20 06.06.2020
1776 Clear 21 1002 45 0 1.79 15 20:41 06.06.2020
1777 Clouds 21 1002 47 0 1.79 14 20:21 06.06.2020
1778 Clouds 20 1001 48 0 1.79 40 19:59 06.06.2020
1779 Clouds 20 1001 49 0 1.79 23 19:41 06.06.2020
1780 Clouds 19 1001 51 0 2.24 2 19:23 06.06.2020
1781 Clouds 18 1001 56 0 1.79 45 18:59 06.06.2020
1782 Clouds 17 1001 60 0 1.79 32 18:41 06.06.2020
1783 Clouds 15 1001 65 0 1.79 36 18:22 06.06.2020
1784 Clouds 15 1000 66 0 1.34 45 17:44 06.06.2020
1785 Clouds 14 1000 69 0 1.79 40 17:21 06.06.2020
1786 Clouds 13 999 71 0 1.34 75 16:58 06.06.2020
1787 Clouds 13 999 71 0 1.34 45 16:39 06.06.2020
1788 Clouds 13 999 72 0 4.43 159 16:21 06.06.2020
1789 Clouds 24 1005 45 0 4.43 159 15:54 06.06.2020
1790 Clouds 24 1005 45 0 4.43 159 15:36 06.06.2020
1791 Clouds 23 1004 46 0 3.97 160 15:18 06.06.2020
1792 Clouds 23 1004 46 0 3.97 160 14:39 06.06.2020
1793 Clear 24 1003 44 0 3.94 167 14:20 06.06.2020
1794 Clear 24 1004 44 0 3.49 164 13:54 06.06.2020
1795 Clear 24 1004 44 0 3.49 164 13:36 06.06.2020
1796 Clear 25 1003 41 0 3.8 165 13:18 06.06.2020
1797 Clear 25 1003 41 0 3.8 165 12:41 06.06.2020
1798 Clear 25 1003 39 0 4.52 168 12:21 06.06.2020
1799 Clear 25 1003 39 0 4.52 168 11:58 06.06.2020
1800 Clear 25 1003 39 0 4.52 168 11:58 06.06.2020
1801 Clear 25 1003 39 0 4.52 168 11:38 06.06.2020
1802 Clear 27 1002 36 0 4.79 165 11:19 06.06.2020
1803 Clear 27 1002 36 0 4.79 165 10:57 06.06.2020
1804 Clear 27 1002 36 0 4.79 165 10:39 06.06.2020
1805 Clear 27 1002 33 0 4.98 165 10:20 06.06.2020
1806 Clear 14 997 58 0 4.98 165 09:45 06.06.2020
1807 Clear 28 1003 33 0 4.96 170 09:27 06.06.2020
1808 Clear 28 1003 33 0 4.96 170 08:56 06.06.2020
1809 Clear 28 1003 33 0 4.96 170 08:38 06.06.2020
1810 Clear 29 1003 31 0 5.16 174 08:18 06.06.2020
1811 Clear 29 1003 31 0 5.16 174 07:45 06.06.2020
1812 Clear 18 997 36 0 1.34 119 07:20 06.06.2020
1813 Clear 19 997 36 0 1.79 143 06:46 06.06.2020
1814 Clear 31 1001 28 0 5.59 177 06:27 06.06.2020
1815 Clear 31 1001 28 0 5.59 177 05:52 06.06.2020
1816 Clear 33 1000 23 0 7.02 177 05:26 06.06.2020
1817 Clear 22 997 38 0 2.24 133 04:38 06.06.2020
1818 Clear 40 998 10 0 5.89 192 02:36 06.06.2020
1819 Clouds 28 997 14 0 1.34 198 01:42 06.06.2020
1820 Clouds 28 997 13 0 1.34 94 01:18 06.06.2020
1821 Clouds 29 997 13 0 0.89 143 00:43 06.06.2020
1822 Clouds 28 997 19 0 2.68 248 00:25 06.06.2020
1823 Clouds 28 998 18 0 3.13 237 23:40 05.06.2020
1824 Clouds 28 998 17 0 2.68 227 23:21 05.06.2020
1825 Clouds 28 998 16 0 2.24 219 22:59 05.06.2020
1826 Clouds 28 998 19 0 3.13 235 22:41 05.06.2020
1827 Clouds 29 998 18 0 4.02 210 22:23 05.06.2020
1828 Clouds 29 998 17 0 3.58 229 21:58 05.06.2020
1829 Clouds 30 998 16 0 3.13 200 21:40 05.06.2020
1830 Clouds 31 998 17 0 2.24 243 21:19 05.06.2020
1831 Clouds 32 998 18 0 3.58 358 20:56 05.06.2020
1832 Clouds 32 999 20 0 2.68 45 20:37 05.06.2020
1833 Clouds 39 1003 11 0 6 159 20:19 05.06.2020
1834 Clouds 39 1003 11 0 6 159 19:40 05.06.2020
1835 Clouds 39 1003 11 0 6 159 19:40 05.06.2020
1836 Clouds 38 1003 12 0 5 159 19:22 05.06.2020
1837 Clouds 31 999 20 0 1.34 62 18:54 05.06.2020
1838 Clouds 30 999 22 0 1.79 35 18:36 05.06.2020
1839 Clouds 37 1004 13 0 4.08 166 18:18 05.06.2020
1840 Clouds 28 999 25 0 0.89 40 17:55 05.06.2020
1841 Clouds 27 999 26 0 0.89 81 17:37 05.06.2020
1842 Clouds 26 999 28 0 0.89 40 17:18 05.06.2020
1843 Clouds 26 999 28 0 0.89 40 17:18 05.06.2020
1844 Clouds 23 1000 33 0 3.39 162 16:38 05.06.2020
1845 Clouds 21 999 35 0 0.45 29 16:19 05.06.2020
1846 Clouds 35 1004 15 0 1.84 177 15:42 05.06.2020
1847 Clouds 33 1004 17 0 1.97 164 15:21 05.06.2020
1848 Clouds 33 1004 17 0 1.97 164 14:58 05.06.2020
1849 Clouds 33 1004 17 0 1.97 164 14:40 05.06.2020
1850 Clouds 33 1004 18 0 2.67 159 14:22 05.06.2020
1851 Clouds 33 1004 18 0 2.67 159 13:57 05.06.2020
1852 Clouds 33 1004 18 0 2.67 159 13:38 05.06.2020
1853 Clouds 34 1004 17 0 2.93 158 13:19 05.06.2020
1854 Clouds 34 1004 17 0 2.93 158 12:41 05.06.2020
1855 Clouds 34 1004 17 0 2.56 164 12:19 05.06.2020
1856 Clouds 34 1004 17 0 2.56 164 11:55 05.06.2020
1857 Clouds 34 1004 17 0 2.56 164 11:37 05.06.2020
1858 Clouds 35 1004 16 0 2.56 158 11:18 05.06.2020
1859 Clouds 35 1004 16 0 2.56 158 10:42 05.06.2020
1860 Clouds 35 1005 15 0 2.69 170 10:21 05.06.2020
1861 Clouds 35 1005 15 0 2.69 170 09:58 05.06.2020
1862 Clouds 35 1005 15 0 2.69 170 09:40 05.06.2020
1863 Clouds 36 1005 15 0 3.76 172 09:21 05.06.2020
1864 Clouds 36 1005 15 0 3.76 172 08:59 05.06.2020
1865 Clouds 36 1005 15 0 3.76 172 08:58 05.06.2020
1866 Clouds 36 1005 15 0 3.76 172 08:40 05.06.2020
1867 Clear 37 1005 15 0 4.57 177 08:19 05.06.2020
1868 Clear 37 1005 15 0 4.57 177 07:53 05.06.2020
1869 Clear 37 1005 15 0 4.57 177 07:34 05.06.2020
1870 Clear 37 1005 14 0 5.34 184 06:50 05.06.2020
1871 Clear 28 1000 15 0 0.45 225 05:23 05.06.2020
1872 Clear 31 1000 13 0 2.24 239 04:31 05.06.2020
1873 Clear 32 999 12 0 3.58 213 03:49 05.06.2020
1874 Clear 33 1000 12 0 1.79 231 02:37 05.06.2020
1875 Clear 33 1000 11 0 3.58 239 02:18 05.06.2020
1876 Clear 34 1000 9 0 1.79 241 01:36 05.06.2020
1877 Clear 34 1000 9 0 1.79 241 01:36 05.06.2020
1878 Clear 34 1001 8 0 2.68 157 00:56 05.06.2020
1879 Clear 35 1001 8 0 2.24 109 00:37 05.06.2020
1880 Clear 33 1001 12 0 1.79 109 00:18 05.06.2020
1881 Clear 34 1002 12 0 1.34 249 23:42 04.06.2020
1882 Clear 34 1002 12 0 1.79 81 23:24 04.06.2020
1883 Clear 34 1003 12 0 2.68 152 22:44 04.06.2020
1884 Clear 36 1003 12 0 1.79 89 22:22 04.06.2020
1885 Clear 43 1006 7 0 4.7 166 21:58 04.06.2020
1886 Clear 43 1006 7 0 4.7 166 21:39 04.06.2020
1887 Clear 43 1007 8 0 4.61 165 21:21 04.06.2020
1888 Clear 43 1007 8 0 4.61 165 20:57 04.06.2020
1889 Clear 43 1007 8 0 4.61 165 20:39 04.06.2020
1890 Clear 41 1008 9 0 1.68 149 20:20 04.06.2020
1891 Clear 41 1008 9 0 1.68 149 19:55 04.06.2020
1892 Clear 33 1005 13 0 1.79 72 19:37 04.06.2020
1893 Clear 33 1005 14 0 0.45 258 19:19 04.06.2020
1894 Clear 30 1005 17 0 1.34 328 18:40 04.06.2020
1895 Clear 30 1005 17 0 1.34 314 18:21 04.06.2020
1896 Clear 29 1005 17 0 1.34 340 17:59 04.06.2020
1897 Clear 28 1005 20 0 1.34 337 17:41 04.06.2020
1898 Clear 27 1005 21 0 0.89 310 17:20 04.06.2020
1899 Clear 24 1005 25 0 3.13 343 16:41 04.06.2020
1900 Clear 23 1005 26 0 1.79 303 16:21 04.06.2020
1901 Clear 22 1005 27 0 2.68 302 15:55 04.06.2020
1902 Clear 22 1005 28 0 2.68 333 15:37 04.06.2020
1903 Clear 21 1005 29 0 1.79 359 15:19 04.06.2020
1904 Clear 21 1005 28 0 1.79 329 14:38 04.06.2020
1905 Clear 22 1005 27 0 0.89 281 14:19 04.06.2020
1906 Clear 22 1005 27 0 1.34 339 13:54 04.06.2020
1907 Clear 23 1005 26 0 1.34 287 13:36 04.06.2020
1908 Clear 23 1005 26 0 2.24 253 13:18 04.06.2020
1909 Clear 22 1005 27 0 1.34 324 12:42 04.06.2020
1910 Clear 23 1005 27 0 2.68 326 12:23 04.06.2020
1911 Clear 22 1005 28 0 3.58 335 12:00 04.06.2020
1912 Clear 22 1006 28 0 2.24 338 11:39 04.06.2020
1913 Clear 22 1006 27 0 2.24 309 11:20 04.06.2020
1914 Clear 22 1006 26 0 2.24 337 10:57 04.06.2020
1915 Clear 22 1006 26 0 3.13 331 10:38 04.06.2020
1916 Clear 23 1006 25 0 2.24 330 10:19 04.06.2020
1917 Clear 23 1007 25 0 2.24 289 09:45 04.06.2020
1918 Clear 35 1010 13 0 0.98 249 09:27 04.06.2020
1919 Clear 35 1010 13 0 0.98 249 08:49 04.06.2020
1920 Clear 23 1007 24 0 1.79 318 08:28 04.06.2020
1921 Clear 36 1010 12 0 0.58 217 07:58 04.06.2020
1922 Clear 23 1007 23 0 0.89 329 07:29 04.06.2020
1923 Clouds 24 1007 21 0 0.89 291 06:45 04.06.2020
1924 Clouds 37 1009 13 0 0.59 265 06:26 04.06.2020
1925 Clouds 37 1009 13 0 0.59 265 05:51 04.06.2020
1926 Clouds 37 1009 13 0 0.59 265 05:30 04.06.2020
1927 Clouds 31 1006 12 0 0.89 214 03:31 04.06.2020
1928 Clear 33 1007 12 0 2.24 262 01:59 04.06.2020
1929 Clear 33 1007 12 0 1.79 188 01:20 04.06.2020
1930 Clear 34 1008 11 0 0.89 274 00:53 04.06.2020
1931 -273 0 0 0 0 0 23:58 03.06.2020
1932 Clear 35 1009 10 0 1.79 191 23:36 03.06.2020
1933 Clear 34 1009 11 0 2.24 238 23:18 03.06.2020
1934 Clear 34 1010 11 0 2.24 111 22:40 03.06.2020
1935 Clear 42 1012 9 0 0.91 140 22:19 03.06.2020
1936 Clear 42 1012 9 0 0.91 140 21:59 03.06.2020
1937 Clear 42 1012 9 0 0.91 140 21:41 03.06.2020
1938 Clear 41 1013 10 0 1.15 138 21:22 03.06.2020
1939 Clear 41 1013 8 0 2.06 151 20:58 03.06.2020
1940 Clear 41 1013 8 0 2.06 151 20:40 03.06.2020
1941 Clouds 40 1013 8 0 1.76 147 20:20 03.06.2020
1942 Clouds 40 1013 8 0 1.76 147 19:57 03.06.2020
1943 Clouds 40 1013 8 0 1.76 147 19:38 03.06.2020
1944 Clouds 39 1014 9 0 1.14 144 19:20 03.06.2020
1945 Clouds 32 1012 12 0 0.45 341 18:57 03.06.2020
1946 Clouds 30 1012 13 0 0.89 258 18:39 03.06.2020
1947 Clouds 30 1012 13 0 0.45 345 18:19 03.06.2020
1948 Clouds 28 1012 14 0 0.89 266 17:44 03.06.2020
1949 Clouds 26 1012 17 0 0.89 293 17:22 03.06.2020
1950 Clouds 23 1012 20 0 0.45 288 16:58 03.06.2020
1951 Clouds 37 1014 10 0 0.29 105 16:39 03.06.2020
1952 Clouds 22 1012 21 0 1.34 326 16:19 03.06.2020
1953 Clouds 35 1014 11 0 0.24 164 15:54 03.06.2020
1954 Clouds 35 1014 11 0 0.24 164 15:36 03.06.2020
1955 Clouds 31 1014 14 0 0.34 251 15:18 03.06.2020
1956 Clouds 31 1014 14 0 0.34 251 14:42 03.06.2020
1957 Clouds 30 1014 15 0 0.58 241 14:22 03.06.2020
1958 Clouds 30 1014 15 0 0.58 241 13:40 03.06.2020
1959 Clouds 31 1013 15 0 0.96 241 13:21 03.06.2020
1960 Clouds 31 1013 15 0 0.96 241 12:57 03.06.2020
1961 Clouds 31 1013 15 0 0.96 241 12:38 03.06.2020
1962 Clouds 31 1013 14 0 1.31 237 12:18 03.06.2020
1963 Clouds 31 1013 14 0 1.31 237 11:43 03.06.2020
1964 Clouds 32 1014 14 0 1.23 241 11:24 03.06.2020
1965 Clouds 32 1014 14 0 1.23 241 10:44 03.06.2020
1966 Clouds 33 1014 13 0 1.21 244 10:25 03.06.2020
1967 Clouds 33 1014 13 0 1.21 244 09:58 03.06.2020
1968 Clouds 33 1014 13 0 1.21 244 09:37 03.06.2020
1969 Clouds 34 1014 12 0 1.69 228 09:18 03.06.2020
1970 Clouds 34 1014 12 0 1.69 228 08:47 03.06.2020
1971 Clouds 35 1014 11 0 1.71 222 08:22 03.06.2020
1972 Clouds 35 1014 11 0 1.71 222 07:50 03.06.2020
1973 Clouds 36 1013 11 0 1.95 213 07:24 03.06.2020
1974 Clouds 36 1013 11 0 1.95 213 06:59 03.06.2020
1975 Clouds 23 1013 20 0 1.95 213 06:41 03.06.2020
1976 Clouds 37 1013 10 0 3.1 207 06:21 03.06.2020
1977 Clouds 37 1013 10 0 3.1 207 05:44 03.06.2020
1978 Clouds 28 1012 15 0 2.24 218 04:19 03.06.2020
1979 Clouds 29 1012 13 0 1.79 225 03:41 03.06.2020
1980 Clouds 29 1012 15 0 1.34 239 02:34 03.06.2020
1981 Clouds 29 1012 16 0 2.24 224 01:42 03.06.2020
1982 Clouds 29 1012 14 0 1.79 193 00:38 03.06.2020
1983 Clouds 29 1012 14 0 4.02 215 00:19 03.06.2020
1984 Clouds 30 1012 13 0 2.68 187 23:43 02.06.2020
1985 Clouds 31 1012 13 0 3.13 187 23:24 02.06.2020
1986 Clouds 32 1012 12 0 4.92 245 22:55 02.06.2020
1987 Clouds 31 1012 13 0 3.58 201 22:36 02.06.2020
1988 Clouds 31 1012 13 0 1.79 89 22:18 02.06.2020
1989 Clouds 33 1012 12 0 1.34 138 21:54 02.06.2020
1990 Clouds 33 1013 13 0 1.34 82 21:36 02.06.2020
1991 Clouds 33 1013 13 0 1.34 82 21:36 02.06.2020
1992 Clouds 40 1014 9 0 2.79 168 21:18 02.06.2020
1993 Clouds 32 1013 14 0 1.79 74 20:42 02.06.2020
1994 Clouds 30 1013 15 0 1.34 215 20:23 02.06.2020
1995 Clouds 28 1013 16 0 1.6 157 19:58 02.06.2020
1996 Clouds 28 1013 17 0 0.45 237 19:39 02.06.2020
1997 Clouds 28 1013 17 0 0.89 238 19:21 02.06.2020
1998 Clouds 28 1013 18 0 0.45 302 18:55 02.06.2020
1999 Clouds 27 1013 19 0 0.89 286 18:37 02.06.2020
2000 Clouds 26 1013 21 0 0.89 289 18:18 02.06.2020
2001 Clouds 24 1013 23 0 0.89 310 17:41 02.06.2020
2002 Clouds 23 1013 24 0 1.34 316 17:23 02.06.2020
2003 Clouds 21 1012 27 0 0.89 326 16:57 02.06.2020
2004 Clouds 35 1014 11 0 0.76 89 16:38 02.06.2020
2005 Clouds 33 1014 13 0 0.18 109 16:20 02.06.2020
2006 Clouds 33 1014 13 0 0.18 109 15:46 02.06.2020
2007 Clouds 30 1013 16 0 0.27 355 15:24 02.06.2020
2008 Clouds 30 1013 16 0 0.27 355 14:56 02.06.2020
2009 Clouds 30 1013 16 0 0.27 355 14:37 02.06.2020
2010 Clouds 29 1013 16 0 0.75 10 14:19 02.06.2020
2011 Clouds 29 1013 16 0 0.75 10 13:39 02.06.2020
2012 Clouds 29 1012 16 0 0.89 357 13:19 02.06.2020
2013 Clouds 29 1012 16 0 0.89 357 12:59 02.06.2020
2014 Clouds 29 1012 16 0 0.89 357 12:40 02.06.2020
2015 Clouds 29 1012 17 0 0.84 7 12:21 02.06.2020
2016 Clouds 29 1012 17 0 0.84 7 11:56 02.06.2020
2017 Clouds 29 1012 17 0 0.84 7 11:38 02.06.2020
2018 Clouds 30 1012 16 0 0.35 344 11:20 02.06.2020
2019 Clouds 30 1012 16 0 0.35 344 10:47 02.06.2020
2020 Clouds 30 1012 16 0 0.35 344 10:28 02.06.2020
2021 Clouds 31 1012 16 0 0.08 249 09:58 02.06.2020
2022 Clouds 31 1012 16 0 0.08 249 09:38 02.06.2020
2023 Clouds 31 1012 15 0 0.7 234 09:20 02.06.2020
2024 Clouds 31 1012 15 0 0.7 234 09:20 02.06.2020
2025 Clouds 31 1012 15 0 0.7 234 08:48 02.06.2020
2026 Clouds 31 1012 15 0 0.83 211 08:21 02.06.2020
2027 Clouds 31 1012 15 0 0.83 211 07:52 02.06.2020
2028 Clouds 32 1011 14 0 0.92 216 07:26 02.06.2020
2029 Clouds 32 1011 14 0 0.92 216 06:45 02.06.2020
2030 Clouds 33 1011 13 0 1.22 235 06:18 02.06.2020
2031 Clouds 23 1010 24 0 2.16 213 05:21 02.06.2020
2032 Clouds 24 1009 20 0 2.24 256 03:25 02.06.2020
2033 Clouds 25 1009 20 0 3.13 191 02:30 02.06.2020
2034 Clouds 26 1009 18 0 2.68 204 01:25 02.06.2020
2035 Clouds 27 1009 18 0 3.13 152 00:26 02.06.2020
2036 Clouds 28 1009 16 0 3.58 208 23:57 01.06.2020
2037 Clouds 28 1009 16 0 3.13 150 23:37 01.06.2020
2038 Clouds 28 1010 16 0 4.02 182 23:18 01.06.2020
2039 Clouds 27 1010 17 0 3.13 177 22:42 01.06.2020
2040 Clouds 27 1010 18 0 3.13 236 22:21 01.06.2020
2041 Clouds 26 1010 20 0 3.58 243 21:58 01.06.2020
2042 Clouds 27 1010 19 0 4.02 261 21:40 01.06.2020
2043 Clouds 27 1010 19 0 4.02 261 21:40 01.06.2020
2044 Clouds 27 1010 19 0 2.68 191 21:20 01.06.2020
2045 Clouds 27 1010 18 0 3.13 184 20:58 01.06.2020
2046 Clouds 27 1010 19 0 2.24 239 20:39 01.06.2020
2047 Clouds 27 1010 18 0 1.79 210 20:19 01.06.2020
2048 Clouds 27 1010 19 0 2.68 110 19:55 01.06.2020
2049 Clouds 27 1010 21 0 1.34 54 19:37 01.06.2020
2050 Clouds 26 1010 22 0 0.45 50 19:19 01.06.2020
2051 Clouds 24 1010 20 0 1.34 200 18:55 01.06.2020
2052 Clouds 24 1010 24 0 0.89 75 18:37 01.06.2020
2053 Clouds 33 1012 12 0 4.15 170 18:18 01.06.2020
2054 Clouds 22 1010 22 0 1.79 177 17:40 01.06.2020
2055 Clouds 21 1010 24 0 1.34 164 17:20 01.06.2020
2056 Clouds 17 1009 30 0 3.76 167 16:42 01.06.2020
2057 Clouds 16 1009 33 0 2.76 167 16:24 01.06.2020
2058 Clouds 30 1012 14 0 2.76 167 15:59 01.06.2020
2059 Clouds 30 1012 14 0 2.76 167 15:40 01.06.2020
2060 Clouds 27 1012 17 0 2.5 164 15:20 01.06.2020
2061 Clouds 27 1012 17 0 2.5 164 14:58 01.06.2020
2062 Clouds 27 1012 17 0 2.5 164 14:40 01.06.2020
2063 Clouds 27 1011 16 0 2.88 168 14:21 01.06.2020
2064 Clouds 27 1011 17 0 2.74 168 13:55 01.06.2020
2065 Clouds 27 1011 17 0 2.74 168 13:37 01.06.2020
2066 Clouds 14 1009 38 0 3 179 13:18 01.06.2020
2067 Clouds 16 1009 36 0 3 179 12:55 01.06.2020
2068 Clouds 16 1009 36 0 0.89 100 12:37 01.06.2020
2069 Clouds 16 1009 36 0 0.89 100 12:37 01.06.2020
2070 Clouds 16 1009 35 0 3.2 180 12:18 01.06.2020
2071 Clouds 28 1010 15 0 3.2 180 11:40 01.06.2020
2072 Clouds 29 1010 15 0 3.32 175 11:22 01.06.2020
2073 Clouds 29 1010 15 0 3.32 175 10:57 01.06.2020
2074 Clouds 29 1010 15 0 3.32 175 10:38 01.06.2020
2075 Clouds 30 1010 15 0 3.34 178 10:19 01.06.2020
2076 Clouds 30 1010 15 0 3.34 178 09:55 01.06.2020
2077 Clouds 30 1010 15 0 3.34 178 09:37 01.06.2020
2078 Clouds 30 1010 15 0 3.18 175 09:19 01.06.2020
2079 Clouds 30 1010 15 0 3.18 175 08:45 01.06.2020
2080 Clouds 31 1010 15 0 3.13 175 08:25 01.06.2020
2081 Clouds 19 1008 25 0 0.89 133 07:45 01.06.2020
2082 Clouds 19 1008 25 0 0.45 102 07:27 01.06.2020
2083 Clouds 20 1008 24 0 1.79 239 06:54 01.06.2020
2084 Clouds 32 1009 13 0 3.57 179 06:20 01.06.2020
2085 Clouds 21 1008 21 0 0.89 184 05:50 01.06.2020
2086 Clouds 23 1007 21 0 2.24 149 04:23 01.06.2020
2087 Clouds 24 1007 20 0 1.79 168 03:46 01.06.2020
2088 Clouds 25 1007 19 0 2.24 146 03:18 01.06.2020
2089 Clouds 26 1007 20 0 4.47 217 01:48 01.06.2020
2090 Clouds 26 1007 19 0 3.58 256 01:29 01.06.2020
2091 Clouds 24 1007 19 0 3.13 223 00:57 01.06.2020
2092 Clouds 25 1008 17 0 2.68 203 00:39 01.06.2020
2093 Clouds 25 1008 18 0 2.24 193 00:21 01.06.2020
2094 Clouds 24 1008 19 0 3.13 171 23:56 31.05.2020
2095 Clouds 24 1008 19 0 2.24 206 23:37 31.05.2020
2096 Clouds 26 1008 17 0 2.24 214 23:19 31.05.2020
2097 Clouds 35 1008 11 0 4.36 172 22:43 31.05.2020
2098 Clouds 34 1009 13 0 3.64 168 22:25 31.05.2020
2099 -273 0 0 0 0 0 21:58 31.05.2020
2100 Clouds 27 1009 20 0 1.79 18 21:40 31.05.2020
2101 Clouds 33 1010 15 0 2.29 156 21:22 31.05.2020
2102 Clouds 33 1010 15 0 2.29 156 20:57 31.05.2020
2103 Clouds 33 1010 15 0 2.29 156 20:38 31.05.2020
2104 Clouds 31 1011 18 0 1.54 150 20:19 31.05.2020
2105 Clouds 31 1011 18 0 1.54 150 19:54 31.05.2020
2106 Clouds 31 1011 18 0 1.54 150 19:36 31.05.2020
2107 Clouds 30 1011 21 0 1.13 141 19:18 31.05.2020
2108 Clouds 24 1009 24 0 0.89 112 18:43 31.05.2020
2109 Clouds 29 1012 24 0 1.06 137 18:25 31.05.2020
2110 Clouds 21 1009 27 0 0.89 110 17:45 31.05.2020
2111 Clouds 18 1009 31 0 0.45 149 17:25 31.05.2020
2112 Clouds 16 1009 37 0 0.72 150 16:58 31.05.2020
2113 Clouds 16 1009 37 0 0.72 150 16:58 31.05.2020
2114 Clouds 14 1009 41 0 0.72 150 16:40 31.05.2020
2115 Clear 13 1009 45 0 0.61 230 16:19 31.05.2020
2116 Clear 26 1011 29 0 0.61 230 15:39 31.05.2020
2117 Clear 23 1011 33 0 0.58 173 15:21 31.05.2020
2118 Clear 23 1011 33 0 0.58 173 14:47 31.05.2020
2119 Clouds 23 1010 32 0 0.98 130 14:22 31.05.2020
2120 Clouds 23 1011 30 0 0.89 127 13:57 31.05.2020
2121 Clouds 23 1011 30 0 0.89 127 13:38 31.05.2020
2122 Clouds 24 1010 28 0 0.75 145 13:20 31.05.2020
2123 Clouds 24 1010 28 0 0.75 145 12:58 31.05.2020
2124 Clouds 24 1010 28 0 0.75 145 12:38 31.05.2020
2125 Clouds 25 1010 27 0 1.08 171 12:19 31.05.2020
2126 Clouds 25 1010 27 0 1.08 171 12:19 31.05.2020
2127 Clouds 25 1010 27 0 1.08 171 11:49 31.05.2020
2128 Clouds 26 1009 27 0 1.67 179 11:24 31.05.2020
2129 Clouds 26 1009 27 0 1.67 179 10:57 31.05.2020
2130 Clouds 26 1009 27 0 1.67 179 10:39 31.05.2020
2131 Clouds 27 1009 26 0 2.12 187 10:21 31.05.2020
2132 Clouds 13 1006 39 0 2.12 187 09:45 31.05.2020
2133 Clear 27 1009 25 0 3.7 182 09:23 31.05.2020
2134 Clear 27 1009 25 0 3.7 182 08:59 31.05.2020
2135 Clear 16 1005 35 0 0.45 181 08:40 31.05.2020
2136 Clouds 28 1009 23 0 4.91 177 08:22 31.05.2020
2137 Clouds 17 1005 33 0 2.24 122 07:46 31.05.2020
2138 Clouds 17 1005 33 0 1.79 135 07:21 31.05.2020
2139 Clouds 17 1005 31 0 2.68 152 06:55 31.05.2020
2140 Clouds 17 1005 31 0 1.34 91 06:34 31.05.2020
2141 Clouds 30 1007 20 0 4.97 183 05:48 31.05.2020
2142 Clouds 30 1007 20 0 4.97 183 05:30 31.05.2020
2143 Clouds 22 1004 19 0 4.02 229 03:57 31.05.2020
2144 Clouds 24 1004 19 0 3.13 231 03:22 31.05.2020
2145 Clouds 24 1004 18 0 3.58 222 02:44 31.05.2020
2146 Clouds 25 1004 13 0 4.02 239 01:45 31.05.2020
2147 Clouds 24 1004 15 0 4.02 230 00:37 31.05.2020
2148 Clouds 24 1004 15 0 3.58 191 00:19 31.05.2020
2149 Clouds 24 1005 13 0 4.47 223 23:42 30.05.2020
2150 Clouds 24 1005 11 0 2.68 215 23:23 30.05.2020
2151 Clouds 24 1005 12 0 3.13 146 22:54 30.05.2020
2152 Clouds 24 1006 10 0 3.58 181 22:36 30.05.2020
2153 Clouds 24 1006 11 0 4.47 167 22:18 30.05.2020
2154 Clouds 22 1005 9 0 3.58 278 21:42 30.05.2020
2155 Clouds 22 1005 9 0 3.13 164 21:22 30.05.2020
2156 Clouds 21 1006 12 0 2.68 136 20:57 30.05.2020
2157 Clouds 22 1005 9 0 3.13 219 20:39 30.05.2020
2158 Clouds 21 1006 11 0 3.13 243 20:21 30.05.2020
2159 Clouds 21 1005 10 0 2.68 171 19:55 30.05.2020
2160 Clouds 21 1006 10 0 3.58 124 19:37 30.05.2020
2161 Clear 22 1005 9 0 3.13 156 19:18 30.05.2020
2162 Clear 23 1005 6 0 4.02 156 18:42 30.05.2020
2163 Clear 31 1010 12 0 5.63 178 18:18 30.05.2020
2164 Clear 21 1005 18 0 2.24 35 17:41 30.05.2020
2165 Clear 20 1005 24 0 2.24 65 17:23 30.05.2020
2166 Clear 18 1005 20 0 1.79 98 16:57 30.05.2020
2167 Clear 17 1005 22 0 1.34 98 16:38 30.05.2020
2168 Clear 17 1005 21 0 1.34 78 16:20 30.05.2020
2169 Clear 16 1005 16 0 2.68 111 15:42 30.05.2020
2170 Clear 27 1009 17 0 4.85 188 15:24 30.05.2020
2171 Clear 14 1005 27 0 0.89 127 14:43 30.05.2020
2172 Clouds 15 1005 29 0 0.45 116 14:24 30.05.2020
2173 Clouds 14 1004 27 0 4.95 182 13:44 30.05.2020
2174 Clouds 15 1004 26 0 0.45 196 13:24 30.05.2020
2175 Clouds 16 1004 23 0 0.45 104 12:42 30.05.2020
2176 Clouds 29 1009 18 0 4.63 173 12:21 30.05.2020
2177 Clouds 18 1005 23 0 1.34 104 11:58 30.05.2020
2178 Clouds 18 1005 23 0 1.34 104 11:40 30.05.2020
2179 Clouds 18 1005 23 0 2.24 153 11:22 30.05.2020
2180 Clouds 18 1005 23 0 2.24 153 11:22 30.05.2020
2181 Clouds 18 1005 25 0 1.79 73 10:54 30.05.2020
2182 Clouds 18 1006 26 0 0.45 208 10:36 30.05.2020
2183 Clouds 19 1006 26 0 0.45 120 10:18 30.05.2020
2184 Clouds 20 1006 26 0 1.79 192 09:41 30.05.2020
2185 Clouds 21 1006 27 0 2.24 194 09:23 30.05.2020
2186 Clouds 21 1005 27 0 1.34 160 08:40 30.05.2020
2187 Clouds 22 1005 24 0 1.79 162 08:21 30.05.2020
2188 Clouds 22 1006 26 0 2.24 227 07:38 30.05.2020
2189 Clouds 22 1005 27 0 1.34 213 07:18 30.05.2020
2190 Clouds 36 1008 17 0 3.72 183 06:25 30.05.2020
2191 Clouds 36 1008 17 0 3.72 183 05:49 30.05.2020
2192 Clouds 26 1005 27 0 3.13 169 04:33 30.05.2020
2193 Clouds 31 1004 16 0 3.13 185 02:34 30.05.2020
2194 Clouds 32 1005 9 0 4.02 166 01:57 30.05.2020
2195 Clouds 30 1006 15 0 2.68 176 00:44 30.05.2020
2196 Clouds 31 1006 14 0 3.13 179 00:24 30.05.2020
2197 Clouds 31 1006 12 0 3.13 146 23:59 29.05.2020
2198 Clouds 31 1006 14 0 3.13 78 23:38 29.05.2020
2199 Clear 31 1006 14 0 2.68 143 23:19 29.05.2020
2200 Clear 45 1009 6 0 8.15 160 22:54 29.05.2020
2201 Clear 45 1009 6 0 8.15 160 22:36 29.05.2020
2202 Clear 44 1009 6 0 7.99 160 22:18 29.05.2020
2203 Clear 31 1007 16 0 3.13 205 21:40 29.05.2020
2204 Clear 31 1007 16 0 1.79 226 21:21 29.05.2020
2205 Clear 31 1007 16 0 1.79 226 21:21 29.05.2020
2206 Clear 31 1007 14 0 2.24 125 20:58 29.05.2020
2207 Clear 32 1007 13 0 2.68 158 20:38 29.05.2020
2208 Clear 33 1007 16 0 1.34 61 20:19 29.05.2020
2209 Clear 34 1007 17 0 2.68 50 19:43 29.05.2020
2210 Clear 33 1007 18 0 2.24 3 19:24 29.05.2020
2211 Clear 32 1007 20 0 2.24 33 18:48 29.05.2020
2212 Clear 39 1011 11 0 3.36 166 18:23 29.05.2020
2213 Clear 29 1007 22 0 1.79 40 17:59 29.05.2020
2214 Clear 29 1007 23 0 1.34 60 17:39 29.05.2020
2215 Clear 28 1007 25 0 1.34 40 17:20 29.05.2020
2216 Clear 24 1007 31 0 0.45 89 16:54 29.05.2020
2217 Clear 38 1011 12 0 2.82 160 16:36 29.05.2020
2218 Clear 20 1007 40 0 1.38 156 16:18 29.05.2020
2219 Clear 36 1011 13 0 1.38 156 15:41 29.05.2020
2220 Clear 32 1011 17 0 1.39 147 15:21 29.05.2020
2221 Clear 32 1011 17 0 1.39 147 14:58 29.05.2020
2222 Clear 32 1011 17 0 1.39 147 14:38 29.05.2020
2223 Clear 33 1011 17 0 2.38 151 14:19 29.05.2020
2224 Clear 33 1011 17 0 2.38 151 13:43 29.05.2020
2225 Clear 34 1011 16 0 2.69 156 13:23 29.05.2020
2226 Clear 19 1006 36 0 2.69 156 12:57 29.05.2020
2227 Clear 20 1006 35 0 2.69 156 12:39 29.05.2020
2228 Clear 34 1011 16 0 2.24 145 12:19 29.05.2020
2229 Clear 34 1011 16 0 2.24 145 11:42 29.05.2020
2230 Clear 35 1011 15 0 2.24 147 11:24 29.05.2020
2231 Clear 35 1011 15 0 2.24 147 10:55 29.05.2020
2232 Clear 35 1011 15 0 2.24 147 10:36 29.05.2020
2233 Clear 36 1011 13 0 2.77 165 10:18 29.05.2020
2234 Clear 36 1011 13 0 2.77 165 09:41 29.05.2020
2235 Clear 37 1010 12 0 3.19 167 09:19 29.05.2020
2236 Clear 37 1010 12 0 3.19 167 08:48 29.05.2020
2237 Clear 38 1010 10 0 3.09 170 08:25 29.05.2020
2238 Clear 38 1010 10 0 3.09 170 07:48 29.05.2020
2239 Clear 38 1010 10 0 3.09 170 07:30 29.05.2020
2240 Clear 26 1006 19 0 3.26 167 06:58 29.05.2020
2241 Clear 26 1006 18 0 0.45 85 06:39 29.05.2020
2242 Clear 40 1009 7 0 3.14 171 06:21 29.05.2020
2243 Clear 40 1009 7 0 3.14 171 05:40 29.05.2020
2244 Clear 36 1005 7 0 2.24 259 02:20 29.05.2020
2245 Clear 36 1005 7 0 2.24 259 02:20 29.05.2020
2246 Clear 36 1006 8 0 3.13 208 01:27 29.05.2020
2247 Clear 36 1006 8 0 2.24 76 00:53 29.05.2020
2248 Clear 37 1006 7 0 1.79 119 00:33 29.05.2020
2249 Clear 36 1006 10 0 0.89 199 23:57 28.05.2020
2250 Clear 36 1006 10 0 1.34 221 23:39 28.05.2020
2251 Clear 36 1006 10 0 2.24 117 23:18 28.05.2020
2252 Clear 45 1009 6 0 4.56 161 22:42 28.05.2020
2253 Clear 44 1010 8 0 3.12 165 22:24 28.05.2020
2254 Clear 44 1010 8 0 3.12 165 21:56 28.05.2020
2255 Clear 44 1010 8 0 3.12 165 21:56 28.05.2020
2256 Clear 44 1010 8 0 3.12 165 21:38 28.05.2020
2257 Clear 43 1011 10 0 2.12 167 21:19 28.05.2020
2258 Clear 43 1011 10 0 2.12 167 20:56 28.05.2020
2259 Clear 43 1011 10 0 2.12 167 20:37 28.05.2020
2260 Clear 42 1011 11 0 1.55 147 20:18 28.05.2020
2261 Clear 42 1011 11 0 1.55 147 19:43 28.05.2020
2262 Clear 40 1012 13 0 1.28 146 19:21 28.05.2020
2263 Clear 40 1012 13 0 1.28 146 18:58 28.05.2020
2264 Clear 40 1012 13 0 1.28 146 18:58 28.05.2020
2265 Clear 40 1012 13 0 1.28 146 18:40 28.05.2020
2266 Clear 39 1012 14 0 0.95 166 18:22 28.05.2020
2267 Clear 29 1008 21 0 0.45 133 17:43 28.05.2020
2268 Clear 28 1008 20 0 0.45 276 17:22 28.05.2020
2269 Clear 27 1008 22 0 1.34 330 16:57 28.05.2020
2270 Clear 26 1007 23 0 1.34 349 16:37 28.05.2020
2271 Clear 25 1007 24 0 1.34 337 16:19 28.05.2020
2272 Clear 23 1007 29 0 1.34 326 15:42 28.05.2020
2273 Clear 22 1007 29 0 1.34 311 15:24 28.05.2020
2274 Clear 22 1007 28 0 1.34 330 14:57 28.05.2020
2275 Clear 22 1007 29 0 0.89 330 14:38 28.05.2020
2276 Clear 21 1006 31 0 0.89 340 14:20 28.05.2020
2277 Clear 34 1011 20 0 2.17 163 13:40 28.05.2020
2278 Clear 34 1010 19 0 1.92 167 13:21 28.05.2020
2279 Clear 34 1010 19 0 1.92 167 12:42 28.05.2020
2280 Clear 35 1010 18 0 1.99 174 12:19 28.05.2020
2281 Clear 35 1010 18 0 1.99 174 11:44 28.05.2020
2282 Clear 36 1010 17 0 1.97 180 11:26 28.05.2020
2283 Clear 36 1010 17 0 1.97 180 10:57 28.05.2020
2284 Clear 36 1010 17 0 1.97 180 10:39 28.05.2020
2285 Clear 36 1010 15 0 1.85 184 10:20 28.05.2020
2286 Clear 36 1010 15 0 1.85 184 09:39 28.05.2020
2287 Clear 37 1010 11 0 2.01 184 09:21 28.05.2020
2288 Clear 37 1010 14 0 1.99 186 08:51 28.05.2020
2289 Clear 37 1010 14 0 1.99 186 08:31 28.05.2020
2290 Clear 38 1010 11 0 2.15 176 07:54 28.05.2020
2291 Clear 38 1010 11 0 2.15 176 07:36 28.05.2020
2292 Clear 38 1009 10 0 1.41 164 07:18 28.05.2020
2293 Clear 26 1005 27 0 1.41 164 06:39 28.05.2020
2294 Clouds 38 1009 9 0 1.24 157 06:20 28.05.2020
2295 Clouds 38 1009 9 0 1.24 157 05:37 28.05.2020
2296 Clouds 32 1004 15 0 0.89 201 04:34 28.05.2020
2297 Clouds 33 1004 14 0 1.34 230 03:51 28.05.2020
2298 Clouds 32 1004 12 0 2.68 237 02:49 28.05.2020
2299 Clear 34 1004 11 0 3.13 220 01:57 28.05.2020
2300 Clear 35 1005 11 0 3.58 187 01:29 28.05.2020
2301 Clear 36 1005 11 0 1.79 263 00:46 28.05.2020
2302 Clear 35 1005 12 0 3.13 192 00:19 28.05.2020
2303 Clear 35 1005 11 0 0.45 205 23:55 27.05.2020
2304 Clear 35 1005 11 0 1.79 220 23:36 27.05.2020
2305 Clear 36 1005 10 0 1.34 160 23:18 27.05.2020
2306 Clear 44 1009 8 0 2.25 165 22:41 27.05.2020
2307 Clear 43 1010 9 0 1.66 153 22:22 27.05.2020
2308 Clear 43 1010 9 0 1.66 153 21:56 27.05.2020
2309 Clear 43 1010 9 0 1.66 153 21:37 27.05.2020
2310 Clear 42 1011 9 0 1.54 153 21:19 27.05.2020
2311 Clear 42 1011 9 0 1.54 153 20:56 27.05.2020
2312 Clear 42 1011 9 0 1.54 153 20:36 27.05.2020
2313 Clear 41 1011 11 0 1.31 146 20:18 27.05.2020
2314 Clear 41 1011 11 0 1.31 146 19:42 27.05.2020
2315 Clear 39 1011 12 0 1.27 151 19:20 27.05.2020
2316 Clear 31 1007 19 0 0.45 256 18:44 27.05.2020
2317 Clear 31 1007 18 0 0.89 287 18:20 27.05.2020
2318 Clear 29 1008 20 0 0.89 248 17:58 27.05.2020
2319 Clear 29 1008 21 0 0.89 284 17:39 27.05.2020
2320 Clear 28 1008 22 0 1.34 335 17:20 27.05.2020
2321 Clear 27 1008 24 0 0.89 300 16:56 27.05.2020
2322 Clear 25 1008 24 0 0.45 6 16:38 27.05.2020
2323 Clear 24 1007 28 0 0.45 293 16:19 27.05.2020
2324 Clear 23 1007 29 0 1.34 331 15:47 27.05.2020
2325 Clear 22 1007 31 0 1.79 337 15:22 27.05.2020
2326 Clear 22 1007 32 0 1.79 311 14:46 27.05.2020
2327 Clear 22 1007 32 0 1.79 311 14:46 27.05.2020
2328 Clear 22 1007 32 0 1.79 311 14:46 27.05.2020
2329 Clear 22 1007 31 0 2.24 333 14:22 27.05.2020
2330 Clear 22 1007 31 0 2.24 333 14:22 27.05.2020
2331 Clear 22 1007 32 0 1.34 343 13:58 27.05.2020
2332 Clear 22 1007 32 0 0.89 342 13:39 27.05.2020
2333 Clear 22 1007 31 0 1.34 337 13:21 27.05.2020
2334 Clear 22 1007 31 0 0.89 305 12:42 27.05.2020
2335 Clear 33 1011 16 0 0.88 184 12:23 27.05.2020
2336 Clear 33 1011 16 0 0.88 184 11:56 27.05.2020
2337 Clear 33 1011 16 0 0.88 184 11:37 27.05.2020
2338 Clear 34 1010 15 0 1.36 189 11:18 27.05.2020
2339 Clear 23 1008 28 0 0.89 344 10:43 27.05.2020
2340 Clear 22 1008 29 0 1.34 334 10:24 27.05.2020
2341 Clear 35 1011 13 0 1.63 185 09:57 27.05.2020
2342 Clear 35 1011 13 0 1.63 185 09:39 27.05.2020
2343 Clear 36 1010 12 0 2.13 182 09:20 27.05.2020
2344 Clear 36 1010 12 0 2.13 182 08:42 27.05.2020
2345 Clear 36 1010 12 0 2.13 182 08:42 27.05.2020
2346 Clear 36 1010 11 0 1.79 183 08:24 27.05.2020
2347 Clear 36 1010 11 0 1.79 183 07:53 27.05.2020
2348 Clear 24 1008 27 0 1.79 183 07:35 27.05.2020
2349 Clear 24 1008 27 0 1.79 183 07:35 27.05.2020
2350 Clear 24 1008 26 0 0.89 152 06:56 27.05.2020
2351 Clear 24 1008 25 0 0.45 168 06:31 27.05.2020
2352 Clear 36 1010 11 0 1.4 177 05:50 27.05.2020
2353 Clear 28 1007 17 0 0.45 185 05:30 27.05.2020
2354 Clear 31 1006 14 0 2.24 158 04:18 27.05.2020
2355 Clear 33 1006 12 0 2.24 238 02:30 27.05.2020
2356 Clear 33 1007 12 0 3.58 240 01:45 27.05.2020
2357 Clear 33 1007 12 0 2.24 160 00:59 27.05.2020
2358 Clear 34 1007 11 0 1.79 158 00:41 27.05.2020
2359 Clear 33 1007 12 0 1.34 176 00:19 27.05.2020
2360 Clear 42 1009 7 0 1.14 133 23:42 26.05.2020
2361 Clear 41 1010 8 0 1.12 141 23:24 26.05.2020
2362 Clear 41 1010 8 0 1.12 141 22:59 26.05.2020
2363 Clear 41 1010 8 0 1.12 141 22:58 26.05.2020
2364 Clear 41 1010 8 0 1.12 141 22:38 26.05.2020
2365 Clear 40 1011 8 0 1.24 141 22:20 26.05.2020
2366 Clear 40 1011 8 0 1.24 141 21:56 26.05.2020
2367 Clear 40 1011 8 0 1.24 141 21:38 26.05.2020
2368 Clear 39 1011 8 0 1.19 144 21:19 26.05.2020
2369 Clear 39 1011 8 0 1.2 146 20:42 26.05.2020
2370 Clear 38 1012 8 0 1.15 149 20:21 26.05.2020
2371 Clear 38 1012 8 0 1.15 149 19:56 26.05.2020
2372 Clear 38 1012 8 0 1.15 149 19:37 26.05.2020
2373 Clear 37 1012 9 0 0.92 140 19:18 26.05.2020
2374 Clear 29 1010 15 0 0.45 281 18:41 26.05.2020
2375 Clear 36 1012 9 0 0.64 129 18:22 26.05.2020
2376 Clear 27 1010 17 0 1.34 337 17:44 26.05.2020
2377 Clear 26 1010 18 0 0.89 339 17:26 26.05.2020
2378 Clear 25 1010 20 0 0.89 315 16:59 26.05.2020
2379 Clear 21 1010 25 0 0.89 279 16:41 26.05.2020
2380 Clear 18 1010 30 0 0.45 228 16:19 26.05.2020
2381 Clear 33 1012 12 0 0.35 77 15:44 26.05.2020
2382 Clear 28 1012 16 0 0.18 25 15:21 26.05.2020
2383 Clear 28 1012 16 0 0.18 25 14:59 26.05.2020
2384 Clear 28 1012 16 0 0.18 25 14:41 26.05.2020
2385 Clear 27 1012 16 0 0.37 85 14:21 26.05.2020
2386 Clear 27 1012 16 0 0.37 85 13:42 26.05.2020
2387 Clear 28 1011 15 0 0.54 118 13:23 26.05.2020
2388 Clear 28 1011 15 0 0.54 118 12:59 26.05.2020
2389 Clear 28 1011 15 0 0.54 118 12:39 26.05.2020
2390 Clear 29 1011 15 0 0.53 130 12:19 26.05.2020
2391 Clear 29 1011 15 0 0.53 130 11:41 26.05.2020
2392 Clear 29 1011 14 0 0.55 151 11:21 26.05.2020
2393 Clear 29 1011 14 0 0.55 151 10:59 26.05.2020
2394 Clear 29 1011 14 0 0.55 151 10:39 26.05.2020
2395 Clear 30 1012 14 0 0.54 159 10:18 26.05.2020
2396 Clear 30 1012 14 0 0.54 159 09:39 26.05.2020
2397 Clear 31 1011 13 0 0.7 159 09:20 26.05.2020
2398 Clear 31 1011 13 0 0.7 159 08:43 26.05.2020
2399 Clear 32 1011 12 0 1.25 172 08:22 26.05.2020
2400 Clear 32 1011 12 0 1.25 172 07:57 26.05.2020
2401 Clear 32 1011 12 0 1.25 172 07:37 26.05.2020
2402 Clear 32 1011 12 0 1.75 201 07:18 26.05.2020
2403 Clear 21 1008 21 0 1.75 201 06:44 26.05.2020
2404 Clear 33 1010 12 0 1.83 187 05:55 26.05.2020
2405 Clear 24 1008 18 0 1.83 187 05:35 26.05.2020
2406 Clear 27 1008 14 0 0.45 212 04:55 26.05.2020
2407 Clear 29 1007 12 0 1.34 9 04:34 26.05.2020
2408 Clear 37 1010 9 0 0.28 78 03:59 26.05.2020
2409 Clear 37 1010 9 0 1.17 2 02:49 26.05.2020
2410 Clear 37 1009 9 0 2.06 2 01:49 26.05.2020
2411 Clear 37 1010 9 0 2.63 359 01:28 26.05.2020
2412 Clear 37 1010 9 0 2.63 359 00:39 26.05.2020
2413 Clear 37 1011 9 0 2.75 356 00:19 26.05.2020
2414 Clear 37 1011 9 0 2.75 356 23:56 25.05.2020
2415 Clear 37 1011 9 0 2.75 356 23:37 25.05.2020
2416 Clear 36 1012 10 0 2.64 356 23:18 25.05.2020
2417 Clear 36 1012 10 0 2.64 356 22:55 25.05.2020
2418 Clear 36 1012 10 0 2.64 356 22:36 25.05.2020
2419 Clear 36 1012 10 0 2.64 356 22:36 25.05.2020
2420 Clear 35 1013 10 0 2.71 4 22:18 25.05.2020
2421 Clear 35 1013 10 0 2.71 4 21:56 25.05.2020
2422 Clear 35 1013 10 0 2.71 4 21:36 25.05.2020
2423 Clear 35 1013 10 0 2.71 4 21:36 25.05.2020
2424 Clear 34 1014 10 0 3.23 12 21:18 25.05.2020
2425 Clear 34 1014 10 0 3.23 12 21:18 25.05.2020
2426 Clear 34 1014 10 0 3.23 12 20:43 25.05.2020
2427 Clear 33 1014 11 0 3.63 19 20:22 25.05.2020
2428 Clear 33 1014 11 0 3.63 19 19:59 25.05.2020
2429 Clear 33 1014 11 0 3.63 19 19:41 25.05.2020
2430 Clear 33 1015 12 0 3.76 20 19:19 25.05.2020
2431 Clear 26 1011 15 0 2.24 27 18:58 25.05.2020
2432 Clear 26 1011 15 0 0.89 57 18:40 25.05.2020
2433 Clear 32 1015 12 0 3.59 18 18:20 25.05.2020
2434 Clear 23 1012 18 0 1.79 40 17:44 25.05.2020
2435 Clear 22 1012 18 0 3.13 5 17:25 25.05.2020
2436 Clear 21 1012 20 0 1.34 59 16:58 25.05.2020
2437 Clear 20 1012 21 0 0.89 26 16:40 25.05.2020
2438 Clear 19 1011 21 0 0.89 57 16:21 25.05.2020
2439 Clear 19 1011 21 0 3.13 344 15:45 25.05.2020
2440 Clear 18 1011 23 0 3.13 347 15:21 25.05.2020
2441 Clear 17 1011 22 0 3.58 341 14:59 25.05.2020
2442 Clear 17 1011 22 0 3.58 341 14:59 25.05.2020
2443 Clear 17 1011 22 0 3.13 360 14:40 25.05.2020
2444 Clear 18 1011 22 0 3.13 353 14:22 25.05.2020
2445 Clouds 17 1011 22 0 4.02 358 13:55 25.05.2020
2446 Clouds 16 1011 25 0 3.13 285 13:37 25.05.2020
2447 Clouds 15 1011 25 0 2.24 331 13:18 25.05.2020
2448 Clouds 26 1014 16 0 2.34 14 12:39 25.05.2020
2449 Clouds 27 1013 16 0 2.41 23 12:21 25.05.2020
2450 Clouds 17 1011 21 0 2.41 23 11:57 25.05.2020
2451 Clouds 17 1011 20 0 0.89 347 11:37 25.05.2020
2452 Clouds 18 1011 19 0 1.34 332 11:18 25.05.2020
2453 Clouds 19 1011 18 0 2.68 344 10:41 25.05.2020
2454 Clouds 18 1011 19 0 3.58 350 10:21 25.05.2020
2455 Clouds 28 1013 14 0 2.62 26 09:56 25.05.2020
2456 Clouds 28 1013 14 0 2.62 26 09:38 25.05.2020
2457 Clouds 30 1013 13 0 2.41 21 09:19 25.05.2020
2458 Clouds 30 1012 13 0 2.7 14 08:44 25.05.2020
2459 Clear 29 1012 14 0 1.79 339 08:24 25.05.2020
2460 Clear 29 1012 14 0 1.79 339 07:58 25.05.2020
2461 Clear 29 1012 14 0 1.79 339 07:39 25.05.2020
2462 Clear 29 1012 14 0 1.04 314 07:20 25.05.2020
2463 Clear 29 1012 14 0 1.04 314 06:45 25.05.2020
2464 Clear 30 1011 13 0 0.52 1 06:27 25.05.2020
2465 Clear 35 1010 10 0 1.87 329 03:40 25.05.2020
2466 Clear 35 1010 10 0 3.14 338 03:22 25.05.2020
2467 Clear 35 1010 10 0 3.14 338 02:44 25.05.2020
2468 Clear 35 1009 9 0 3.88 348 01:42 25.05.2020
2469 Clear 35 1009 9 0 3.88 348 01:42 25.05.2020
2470 Clear 35 1010 9 0 4.52 348 00:58 25.05.2020
2471 Clear 35 1010 9 0 4.52 348 00:33 25.05.2020
2472 Clear 35 1010 9 0 4.83 350 23:59 24.05.2020
2473 Clear 35 1010 9 0 4.83 350 23:40 24.05.2020
2474 Clear 34 1012 10 0 4.62 348 23:22 24.05.2020
2475 Clear 34 1012 10 0 4.62 348 22:58 24.05.2020
2476 Clear 34 1012 10 0 4.62 348 22:40 24.05.2020
2477 Clear 33 1013 10 0 4.56 354 22:18 24.05.2020
2478 Clear 33 1013 10 0 4.56 354 21:55 24.05.2020
2479 Clear 26 1013 12 0 2.24 71 21:37 24.05.2020
2480 Clear 32 1014 11 0 4.6 359 21:19 24.05.2020
2481 Clear 32 1014 11 0 4.61 357 20:43 24.05.2020
2482 Clear 32 1014 11 0 4.61 357 20:43 24.05.2020
2483 Clear 31 1014 12 0 4.68 1 20:22 24.05.2020
2484 Clear 31 1014 12 0 4.68 1 19:59 24.05.2020
2485 Clear 31 1014 12 0 4.68 1 19:41 24.05.2020
2486 Clear 30 1014 13 0 4.54 7 19:19 24.05.2020
2487 Clear 30 1014 13 0 4.54 7 18:56 24.05.2020
2488 Clear 30 1014 13 0 4.54 7 18:37 24.05.2020
2489 Clear 29 1015 13 0 3.62 12 18:19 24.05.2020
2490 Clear 19 1014 17 0 1.34 341 17:41 24.05.2020
2491 Clear 18 1014 18 0 1.34 302 17:22 24.05.2020
2492 Clear 17 1014 19 0 0.89 277 16:58 24.05.2020
2493 Clear 16 1014 20 0 1.79 341 16:39 24.05.2020
2494 Clear 15 1014 21 0 2.24 342 16:20 24.05.2020
2495 Clear 15 1014 21 0 2.24 342 16:20 24.05.2020
2496 Clear 14 1014 21 0 1.79 349 15:57 24.05.2020
2497 Clear 13 1013 22 0 4.02 283 15:38 24.05.2020
2498 Clear 13 1013 23 0 1.79 356 15:19 24.05.2020
2499 Clear 12 1013 23 0 1.79 319 14:55 24.05.2020
2500 Clear 12 1013 23 0 1.79 312 14:36 24.05.2020
2501 Clouds 13 1013 23 0 1.34 304 14:18 24.05.2020
2502 Clouds 13 1013 22 0 1.79 324 13:43 24.05.2020
2503 Clouds 13 1012 22 0 2.68 299 13:23 24.05.2020
2504 Clouds 13 1012 20 0 1.79 326 12:59 24.05.2020
2505 Clouds 23 1012 18 0 2.08 351 12:41 24.05.2020
2506 Clouds 24 1012 17 0 1.74 3 12:22 24.05.2020
2507 Clouds 24 1012 17 0 1.74 3 11:59 24.05.2020
2508 Clouds 24 1012 17 0 1.74 3 11:41 24.05.2020
2509 Clouds 24 1012 17 0 1.32 10 11:23 24.05.2020
2510 Clouds 24 1012 17 0 1.32 10 10:59 24.05.2020
2511 Clouds 24 1012 17 0 1.32 10 10:39 24.05.2020
2512 Clouds 24 1013 17 0 0.84 10 10:21 24.05.2020
2513 Clouds 24 1013 17 0 0.84 10 09:42 24.05.2020
2514 Clouds 25 1013 16 0 0.68 346 09:19 24.05.2020
2515 Clouds 25 1013 16 0 0.68 346 09:19 24.05.2020
2516 Clouds 25 1013 16 0 0.68 346 08:59 24.05.2020
2517 Clouds 25 1013 16 0 0.68 346 08:40 24.05.2020
2518 Clouds 25 1013 16 0 0.68 346 08:40 24.05.2020
2519 Clouds 25 1012 16 0 0.77 333 08:22 24.05.2020
2520 Clouds 25 1012 16 0 0.77 333 07:52 24.05.2020
2521 Clouds 26 1011 15 0 0.73 327 07:27 24.05.2020
2522 Clouds 26 1011 15 0 0.73 327 06:58 24.05.2020
2523 Clouds 26 1011 15 0 0.73 327 06:37 24.05.2020
2524 Clouds 18 1010 12 0 0.45 23 05:24 24.05.2020
2525 Clear 31 1009 11 0 2.64 325 03:46 24.05.2020
2526 Clear 31 1009 11 0 4.11 329 02:52 24.05.2020
2527 Clear 31 1008 10 0 4.53 335 02:18 24.05.2020
2528 Clear 31 1009 10 0 5.04 338 00:49 24.05.2020
2529 Clear 30 1009 11 0 5.09 340 00:27 24.05.2020
2530 Clear 30 1009 11 0 5.09 340 00:27 24.05.2020
2531 Clear 30 1009 11 0 5.09 340 23:59 23.05.2020
2532 Clear 30 1009 11 0 5.09 340 23:37 23.05.2020
2533 Clear 30 1010 11 0 5.81 342 23:19 23.05.2020
2534 Clear 30 1010 11 0 5.81 342 22:55 23.05.2020
2535 Clear 30 1010 11 0 5.81 342 22:37 23.05.2020
2536 Clear 29 1011 12 0 6.34 343 22:18 23.05.2020
2537 Clear 29 1011 12 0 6.34 343 21:56 23.05.2020
2538 Clear 21 1010 10 0 2.24 346 21:36 23.05.2020
2539 Clear 28 1012 13 0 6.52 348 21:18 23.05.2020
2540 Clear 28 1012 13 0 6.52 348 20:39 23.05.2020
2541 Clear 27 1012 14 0 6.9 354 20:20 23.05.2020
2542 Clear 18 1010 14 0 3.58 351 19:59 23.05.2020
2543 Clear 18 1010 15 0 3.58 341 19:40 23.05.2020
2544 Clear 17 1010 16 0 3.58 327 19:19 23.05.2020
2545 Clear 16 1010 17 0 4.02 325 18:42 23.05.2020
2546 Clear 15 1010 18 0 3.58 328 18:23 23.05.2020
2547 Clear 14 1010 19 0 2.68 327 17:58 23.05.2020
2548 Clear 13 1010 21 0 2.68 308 17:40 23.05.2020
2549 Clear 12 1010 22 0 1.79 256 17:21 23.05.2020
2550 Clear 12 1010 24 0 1.79 312 16:59 23.05.2020
2551 Clear 11 1010 26 0 1.79 320 16:41 23.05.2020
2552 Clear 10 1010 26 0 1.79 274 16:21 23.05.2020
2553 Clear 22 1013 20 0 5.71 1 15:58 23.05.2020
2554 Clear 22 1013 20 0 5.71 1 15:39 23.05.2020
2555 Clear 21 1012 23 0 3.84 353 15:21 23.05.2020
2556 Clear 21 1012 23 0 3.84 353 14:42 23.05.2020
2557 Clear 21 1012 23 0 3.84 353 14:42 23.05.2020
2558 Clear 21 1011 22 0 4.37 341 14:24 23.05.2020
2559 Clear 21 1011 22 0 4.37 341 13:56 23.05.2020
2560 Clear 21 1011 22 0 4.37 341 13:37 23.05.2020
2561 Clear 22 1010 21 0 5.45 344 13:18 23.05.2020
2562 Clear 9 1008 32 0 1.34 247 12:41 23.05.2020
2563 Clear 23 1010 21 0 4.9 355 12:20 23.05.2020
2564 Clear 10 1007 32 0 1.79 263 11:59 23.05.2020
2565 Clear 10 1007 32 0 1.79 304 11:40 23.05.2020
2566 Clear 10 1007 33 0 2.24 262 11:19 23.05.2020
2567 Clear 11 1007 34 0 1.79 309 10:55 23.05.2020
2568 Clear 11 1007 34 0 1.34 310 10:37 23.05.2020
2569 Clear 11 1006 34 0 1.34 277 10:18 23.05.2020
2570 Clear 12 1006 34 0 1.79 343 09:43 23.05.2020
2571 Clear 24 1009 19 0 5.24 9 09:24 23.05.2020
2572 Clear 13 1005 33 0 2.24 335 08:58 23.05.2020
2573 Clear 14 1005 32 0 1.79 315 08:38 23.05.2020
2574 Clouds 15 1005 30 0 1.79 259 08:19 23.05.2020
2575 Clouds 17 1004 30 0 1.79 356 07:45 23.05.2020
2576 Clouds 16 1003 31 0 3.13 340 07:27 23.05.2020
2577 Clouds 17 1003 26 0 0.89 331 06:43 23.05.2020
2578 Clouds 28 1005 16 0 4.96 18 05:59 23.05.2020
2579 Clouds 23 1000 17 0 0.89 346 04:27 23.05.2020
2580 Clouds 24 1000 19 0 4.02 238 03:26 23.05.2020
2581 Clouds 25 999 17 0 3.13 269 02:42 23.05.2020
2582 Clouds 25 1000 18 0 3.58 218 01:53 23.05.2020
2583 Clouds 26 999 15 0 3.58 173 01:20 23.05.2020
2584 Clouds 26 1000 15 0 4.02 205 00:44 23.05.2020
2585 Clouds 24 1000 14 0 3.58 262 00:22 23.05.2020
2586 Clouds 24 1001 11 0 3.58 216 23:55 22.05.2020
2587 Clouds 25 1001 11 0 2.68 252 23:36 22.05.2020
2588 Clouds 25 1001 8 0 4.47 228 23:18 22.05.2020
2589 Clouds 26 1002 18 0 1.34 56 22:42 22.05.2020
2590 Clouds 27 1002 17 0 2.68 131 22:21 22.05.2020
2591 Clouds 27 1002 19 0 3.13 40 21:55 22.05.2020
2592 Clouds 26 1002 19 0 3.13 346 21:37 22.05.2020
2593 Clear 33 1005 11 0 5.34 180 21:19 22.05.2020
2594 Clear 25 1003 20 0 3.13 15 20:45 22.05.2020
2595 Clouds 31 1006 13 0 4.98 169 20:21 22.05.2020
2596 Clouds 31 1006 13 0 4.98 169 19:54 22.05.2020
2597 Clouds 22 1004 25 0 1.79 35 19:36 22.05.2020
2598 Clouds 22 1004 26 0 2.68 23 19:18 22.05.2020
2599 Clouds 19 1004 30 0 1.79 69 18:39 22.05.2020
2600 Clear 19 1004 32 0 1.79 15 18:19 22.05.2020
2601 Clear 19 1005 33 0 1.34 50 17:56 22.05.2020
2602 Clear 18 1005 35 0 1.34 76 17:36 22.05.2020
2603 Clear 17 1005 37 0 1.34 67 17:18 22.05.2020
2604 Clear 14 1005 43 0 0.89 58 16:41 22.05.2020
2605 Clear 13 1005 45 0 0.89 91 16:20 22.05.2020
2606 Clear 26 1008 20 0 2.42 161 15:57 22.05.2020
2607 Clear 26 1008 20 0 2.42 161 15:39 22.05.2020
2608 Clear 24 1008 22 0 2.02 161 15:19 22.05.2020
2609 Clear 24 1008 22 0 2.02 161 14:43 22.05.2020
2610 Clear 24 1008 20 0 1.95 164 14:24 22.05.2020
2611 Clear 24 1008 20 0 1.95 164 13:45 22.05.2020
2612 Clear 25 1008 19 0 2.25 168 13:20 22.05.2020
2613 Clear 25 1008 19 0 2.25 168 12:45 22.05.2020
2614 Clear 26 1008 18 0 1.98 168 12:26 22.05.2020
2615 Clear 26 1008 18 0 1.98 168 11:59 22.05.2020
2616 Clear 26 1008 18 0 1.98 168 11:40 22.05.2020
2617 Clear 26 1008 17 0 1.88 164 11:20 22.05.2020
2618 Clear 26 1008 17 0 1.88 164 10:55 22.05.2020
2619 Clear 26 1008 17 0 1.88 164 10:36 22.05.2020
2620 Clear 27 1009 16 0 2.08 163 10:18 22.05.2020
2621 Clear 27 1009 16 0 2.08 163 09:41 22.05.2020
2622 Clear 28 1009 15 0 2.41 160 09:19 22.05.2020
2623 Clear 28 1009 15 0 2.41 160 08:44 22.05.2020
2624 Clouds 29 1010 14 0 2.93 174 08:21 22.05.2020
2625 Clouds 29 1010 14 0 2.93 174 07:57 22.05.2020
2626 Clouds 29 1009 13 0 3.21 171 07:27 22.05.2020
2627 Clouds 17 1009 36 0 0.45 221 06:58 22.05.2020
2628 Clouds 17 1009 35 0 1.34 214 06:40 22.05.2020
2629 Clouds 18 1008 32 0 0.45 198 05:53 22.05.2020
2630 Clouds 19 1008 31 0 1.34 151 05:32 22.05.2020
2631 Clouds 21 1008 22 0 2.68 187 04:44 22.05.2020
2632 Clouds 23 1008 18 0 2.24 239 03:49 22.05.2020
2633 Clouds 23 1009 16 0 3.58 112 03:23 22.05.2020
2634 Clouds 24 1009 15 0 3.13 244 01:57 22.05.2020
2635 Clouds 25 1010 15 0 2.68 197 01:29 22.05.2020
2636 Clouds 26 1010 14 0 0.45 105 00:49 22.05.2020
2637 Clouds 26 1010 14 0 2.24 270 00:28 22.05.2020
2638 Clouds 33 1010 11 0 1.92 158 23:54 21.05.2020
2639 Clouds 33 1010 11 0 1.92 158 23:36 21.05.2020
2640 Clouds 32 1011 11 0 1.32 154 23:18 21.05.2020
2641 Clouds 32 1011 11 0 1.32 154 22:55 21.05.2020
2642 Clouds 32 1011 11 0 1.32 154 22:36 21.05.2020
2643 Clear 31 1012 12 0 0.62 150 22:18 21.05.2020
2644 Clear 31 1012 12 0 0.62 150 21:43 21.05.2020
2645 Clear 30 1013 13 0 0.28 76 21:25 21.05.2020
2646 Clouds 31 1013 13 0 0.29 115 20:46 21.05.2020
2647 Clear 30 1014 14 0 0.94 24 20:22 21.05.2020
2648 Clear 30 1014 14 0 0.94 24 19:57 21.05.2020
2649 Clear 30 1014 14 0 0.94 24 19:38 21.05.2020
2650 Clear 21 1015 20 0 1.34 102 19:19 21.05.2020
2651 Clear 19 1015 23 0 1.91 14 18:40 21.05.2020
2652 Clear 18 1015 24 0 1.34 219 18:20 21.05.2020
2653 Clear 18 1015 24 0 1.34 219 18:20 21.05.2020
2654 Clear 18 1015 25 0 0.89 354 17:58 21.05.2020
2655 Clear 18 1015 26 0 0.89 332 17:40 21.05.2020
2656 Clear 16 1015 29 0 1.34 283 17:22 21.05.2020
2657 Clear 15 1015 30 0 2.68 337 16:47 21.05.2020
2658 Clear 13 1015 31 0 1.34 285 16:25 21.05.2020
2659 Clear 25 1016 18 0 1.42 2 15:56 21.05.2020
2660 Clear 25 1016 18 0 1.42 2 15:38 21.05.2020
2661 Clear 22 1015 22 0 1.41 360 15:19 21.05.2020
2662 Clear 22 1015 22 0 1.41 360 14:40 21.05.2020
2663 Clear 22 1015 22 0 1.75 357 14:19 21.05.2020
2664 Clear 22 1015 22 0 1.75 357 13:42 21.05.2020
2665 Clear 23 1014 21 0 1.71 358 13:22 21.05.2020
2666 Clear 23 1014 21 0 1.71 358 12:58 21.05.2020
2667 Clear 23 1014 21 0 1.71 358 12:38 21.05.2020
2668 Clear 23 1014 21 0 1.44 2 12:19 21.05.2020
2669 Clear 23 1014 21 0 1.44 2 11:42 21.05.2020
2670 Clear 23 1014 21 0 0.88 351 11:23 21.05.2020
2671 Clear 23 1014 21 0 0.88 351 10:59 21.05.2020
2672 Clear 23 1014 21 0 0.88 351 10:39 21.05.2020
2673 Clear 23 1014 20 0 0.35 315 10:20 21.05.2020
2674 Clear 23 1014 20 0 0.35 315 09:55 21.05.2020
2675 Clear 23 1014 20 0 0.35 315 09:37 21.05.2020
2676 Clear 24 1014 20 0 0.23 294 09:18 21.05.2020
2677 Clear 24 1014 20 0 0.23 294 08:45 21.05.2020
2678 Clear 24 1014 19 0 0.32 314 08:26 21.05.2020
2679 Clear 24 1014 19 0 0.32 314 07:48 21.05.2020
2680 Clear 25 1013 18 0 0.72 326 07:27 21.05.2020
2681 Clear 25 1013 18 0 0.72 326 06:52 21.05.2020
2682 Clear 26 1012 17 0 1.44 358 06:22 21.05.2020
2683 Clear 14 1013 26 0 1.44 358 05:34 21.05.2020
2684 Clouds 21 1013 17 0 1.04 78 03:22 21.05.2020
2685 Clouds 21 1013 17 0 1.04 78 03:22 21.05.2020
2686 Clouds 21 1013 17 0 1.04 78 03:22 21.05.2020
2687 Clouds 21 1013 18 0 2.24 206 02:49 21.05.2020
2688 Clouds 21 1013 17 0 1.79 158 02:30 21.05.2020
2689 Clouds 29 1011 14 0 0.86 109 01:47 21.05.2020
2690 Clouds 29 1011 14 0 1.02 133 01:21 21.05.2020
2691 Clouds 29 1011 14 0 1.02 133 00:53 21.05.2020
2692 Clouds 28 1012 15 0 1.32 150 00:24 21.05.2020
2693 Clouds 28 1012 15 0 1.32 150 23:46 20.05.2020
2694 Clouds 28 1013 16 0 1.72 162 23:21 20.05.2020
2695 Clouds 28 1013 16 0 1.72 162 22:58 20.05.2020
2696 Clouds 28 1013 16 0 1.72 162 22:39 20.05.2020
2697 Clouds 27 1014 17 0 1.83 160 22:21 20.05.2020
2698 Clouds 27 1014 17 0 1.83 160 21:42 20.05.2020
2699 Clouds 26 1015 17 0 1.39 151 21:23 20.05.2020
2700 Clouds 26 1015 17 0 1.39 151 20:57 20.05.2020
2701 Clouds 26 1015 17 0 1.39 151 20:38 20.05.2020
2702 Clear 25 1016 19 0 1.33 151 20:20 20.05.2020
2703 Clear 25 1016 19 0 1.33 151 19:41 20.05.2020
2704 Clear 24 1016 20 0 1.68 152 19:23 20.05.2020
2705 Clear 17 1017 30 0 1.79 40 18:57 20.05.2020
2706 Clear 17 1017 30 0 1.79 40 18:38 20.05.2020
2707 Clear 23 1016 22 0 1.91 163 18:20 20.05.2020
2708 Clear 14 1017 35 0 0.89 2 17:38 20.05.2020
2709 Clear 13 1017 36 0 0.45 331 17:19 20.05.2020
2710 Clear 9 1016 46 0 0.45 289 16:42 20.05.2020
2711 Clear 8 1016 51 0 1.79 166 16:24 20.05.2020
2712 Clear 21 1016 26 0 1.79 166 15:58 20.05.2020
2713 Clear 21 1016 26 0 1.79 166 15:40 20.05.2020
2714 Clear 18 1015 31 0 0.73 157 15:22 20.05.2020
2715 Clear 18 1015 31 0 0.73 157 14:43 20.05.2020
2716 Clear 19 1014 31 0 1.08 168 14:21 20.05.2020
2717 Clear 19 1014 31 0 1.08 168 13:41 20.05.2020
2718 Clear 19 1014 30 0 1.27 190 13:20 20.05.2020
2719 Clear 19 1014 30 0 1.27 190 12:58 20.05.2020
2720 Clear 19 1014 30 0 1.27 190 12:37 20.05.2020
2721 Clouds 19 1014 31 0 0.95 188 12:19 20.05.2020
2722 Clouds 19 1014 31 0 0.95 188 11:36 20.05.2020
2723 Clouds 19 1013 30 0 0.47 217 11:18 20.05.2020
2724 Clouds 19 1013 30 0 0.47 217 10:43 20.05.2020
2725 Clouds 20 1014 29 0 0.08 248 10:20 20.05.2020
2726 Clouds 20 1014 29 0 0.08 248 09:45 20.05.2020
2727 Clouds 21 1013 27 0 0.62 2 09:22 20.05.2020
2728 Clouds 21 1013 27 0 0.62 2 08:58 20.05.2020
2729 Clouds 21 1013 27 0 0.62 2 08:40 20.05.2020
2730 Clouds 22 1012 25 0 2.2 345 08:18 20.05.2020
2731 Clouds 22 1012 25 0 2.2 345 07:47 20.05.2020
2732 Clouds 22 1012 25 0 1.9 316 07:21 20.05.2020
2733 Clouds 22 1012 25 0 1.9 316 06:45 20.05.2020
2734 Clouds 10 1012 41 0 2.49 359 05:25 20.05.2020
2735 Clouds 13 1011 35 0 0.89 50 04:34 20.05.2020
2736 Clouds 15 1010 31 0 2.24 59 03:53 20.05.2020
2737 Clouds 18 1010 25 0 0.45 100 02:34 20.05.2020
2738 Clouds 14 1010 26 0 1.18 146 01:32 20.05.2020
2739 Clouds 25 1008 18 0 2.69 170 00:46 20.05.2020
2740 Clouds 11 1010 36 0 0.89 232 00:24 20.05.2020
2741 Clouds 13 1009 33 0 1.34 231 23:45 19.05.2020
2742 Rain 16 1009 31 0 1.34 58 23:22 19.05.2020
2743 Rain 16 1008 33 0 0.89 102 22:57 19.05.2020
2744 Rain 17 1008 37 0 1.79 76 22:39 19.05.2020
2745 Rain 14 1008 43 0 2.68 91 22:20 19.05.2020
2746 -273 0 0 0 0 0 21:59 19.05.2020
2747 Rain 11 1008 59 0 1.79 56 21:39 19.05.2020
2748 Clouds 11 1008 60 0 1.79 26 21:21 19.05.2020
2749 Clouds 20 1010 35 0 5.19 350 20:58 19.05.2020
2750 Clouds 20 1010 35 0 5.19 350 20:40 19.05.2020
2751 Rain 18 1010 41 0 6 352 20:22 19.05.2020
2752 Rain 18 1010 41 0 6 352 19:59 19.05.2020
2753 Rain 18 1010 41 0 6 352 19:37 19.05.2020
2754 Clouds 20 1010 34 0 5.32 350 19:19 19.05.2020
2755 Clouds 12 1008 46 0 0.89 40 18:43 19.05.2020
2756 Clear 13 1008 45 0 1.34 98 18:22 19.05.2020
2757 Clear 12 1007 44 0 0.89 346 17:57 19.05.2020
2758 Clear 10 1007 51 0 0.45 357 17:38 19.05.2020
2759 Clear 9 1007 52 0 0.89 346 17:19 19.05.2020
2760 Clear 8 1007 55 0 0.45 283 16:41 19.05.2020
2761 Clear 7 1007 59 0 1.34 325 16:22 19.05.2020
2762 Clear 6 1006 63 0 0.89 281 15:56 19.05.2020
2763 Clear 19 1009 32 0 1.96 198 15:38 19.05.2020
2764 Clear 19 1009 32 0 1.96 198 15:38 19.05.2020
2765 Clear 18 1009 36 0 2.97 203 15:19 19.05.2020
2766 Clear 18 1009 36 0 2.97 203 14:54 19.05.2020
2767 Clear 6 1005 63 0 1.79 242 14:36 19.05.2020
2768 Clear 6 1005 60 0 2.68 257 14:18 19.05.2020
2769 Clear 7 1005 59 0 2.68 225 13:54 19.05.2020
2770 Clear 7 1005 58 0 1.79 229 13:36 19.05.2020
2771 Clear 8 1005 56 0 1.34 272 13:18 19.05.2020
2772 Clear 6 1004 61 0 3.97 192 12:40 19.05.2020
2773 Clear 20 1008 34 0 5.05 193 12:22 19.05.2020
2774 Clear 20 1008 34 0 5.05 193 11:59 19.05.2020
2775 Clear 20 1008 34 0 5.05 193 11:40 19.05.2020
2776 Clear 8 1004 59 0 1.79 81 11:21 19.05.2020
2777 Clear 9 1003 55 0 4.92 261 10:49 19.05.2020
2778 Clear 9 1004 54 0 4.47 238 10:29 19.05.2020
2779 Clear 9 1004 57 0 1.79 254 09:59 19.05.2020
2780 Clear 9 1004 56 0 2.68 229 09:41 19.05.2020
2781 Clear 21 1007 33 0 6.74 193 09:23 19.05.2020
2782 Clear 9 1005 58 0 2.68 182 08:44 19.05.2020
2783 Clear 9 1005 58 0 2.24 193 08:24 19.05.2020
2784 Clear 11 1005 50 0 1.79 227 07:45 19.05.2020
2785 Clear 11 1005 50 0 1.79 227 07:27 19.05.2020
2786 Clear 11 1005 48 0 1.34 217 06:54 19.05.2020
2787 Clear 24 1006 28 0 6.85 197 06:25 19.05.2020
2788 Clear 12 1005 45 0 2.24 230 05:42 19.05.2020
2789 Clear 13 1005 40 0 4.02 246 04:57 19.05.2020
2790 Clear 14 1004 38 0 4.92 212 04:35 19.05.2020
2791 Clouds 18 1004 31 0 5.81 222 02:21 19.05.2020
2792 Clouds 18 1004 32 0 8.05 200 00:48 19.05.2020
2793 Clouds 19 1004 34 0 6.26 185 00:26 19.05.2020
2794 Clouds 20 1004 36 0 5.36 202 23:58 18.05.2020
2795 Clouds 20 1004 36 0 5.36 199 23:40 18.05.2020
2796 Clouds 20 1004 38 0 4.02 206 23:20 18.05.2020
2797 Clouds 20 1005 34 0 4.02 185 22:42 18.05.2020
2798 Clouds 20 1005 35 0 6.71 227 22:22 18.05.2020
2799 Clouds 19 1004 37 0 4.02 263 21:59 18.05.2020
2800 Clouds 19 1005 37 0 5.36 196 21:40 18.05.2020
2801 Clouds 19 1005 41 0 4.47 218 21:20 18.05.2020
2802 Clear 17 1005 46 0 2.68 161 20:57 18.05.2020
2803 Clouds 17 1005 45 0 3.13 256 20:37 18.05.2020
2804 Clouds 17 1005 46 0 3.58 238 20:18 18.05.2020
2805 Clouds 16 1005 52 0 1.79 152 19:41 18.05.2020
2806 Clouds 16 1004 52 0 2.68 180 19:19 18.05.2020
2807 Clouds 17 1004 51 0 2.68 200 18:55 18.05.2020
2808 Clouds 17 1004 49 0 2.68 229 18:37 18.05.2020
2809 Clouds 16 1004 52 0 1.79 219 18:19 18.05.2020
2810 Clouds 14 1004 62 0 1.34 102 17:38 18.05.2020
2811 Clouds 14 1004 62 0 0.89 164 17:18 18.05.2020
2812 Clouds 14 1004 62 0 1.79 106 16:56 18.05.2020
2813 Clouds 14 1004 62 0 1.79 108 16:37 18.05.2020
2814 Clouds 13 1004 62 0 1.34 104 16:18 18.05.2020
2815 Clouds 13 1004 62 0 1.34 104 16:18 18.05.2020
2816 Clouds 13 1003 61 0 2.68 174 15:46 18.05.2020
2817 Clouds 13 1003 62 0 1.79 110 15:25 18.05.2020
2818 Clouds 13 1003 63 0 2.24 126 14:59 18.05.2020
2819 Clouds 13 1002 62 0 1.79 127 14:40 18.05.2020
2820 Clouds 13 1003 62 0 1.34 134 14:22 18.05.2020
2821 Clouds 13 1002 63 0 1.79 127 13:54 18.05.2020
2822 Clouds 13 1003 62 0 1.34 152 13:36 18.05.2020
2823 Clouds 13 1003 60 0 2.24 153 13:18 18.05.2020
2824 Clouds 13 1003 60 0 2.68 134 12:55 18.05.2020
2825 Clouds 13 1003 61 0 2.24 132 12:36 18.05.2020
2826 Clouds 13 1003 61 0 1.79 145 12:18 18.05.2020
2827 Clouds 13 1003 60 0 2.24 129 11:46 18.05.2020
2828 Clouds 13 1003 61 0 1.79 160 11:26 18.05.2020
2829 Clouds 14 1003 58 0 1.34 100 10:47 18.05.2020
2830 Clouds 14 1004 55 0 1.79 148 10:27 18.05.2020
2831 Clouds 15 1004 54 0 1.34 171 09:57 18.05.2020
2832 Clouds 15 1004 53 0 1.34 137 09:39 18.05.2020
2833 Clouds 16 1004 52 0 2.24 152 09:20 18.05.2020
2834 Clouds 16 1004 48 0 2.24 134 08:42 18.05.2020
2835 Clouds 16 1004 47 0 2.24 198 08:23 18.05.2020
2836 Clouds 17 1004 43 0 2.68 211 07:50 18.05.2020
2837 Clouds 17 1004 44 0 3.13 220 07:26 18.05.2020
2838 Clouds 17 1004 44 0 3.13 220 07:26 18.05.2020
2839 Clouds 17 1004 43 0 4.02 245 06:49 18.05.2020
2840 Clouds 17 1003 41 0 4.02 186 06:31 18.05.2020
2841 Clouds 30 1006 20 0 7.55 184 05:49 18.05.2020
2842 Clouds 21 1003 25 0 4.02 209 04:40 18.05.2020
2843 Clouds 24 1002 22 0 3.58 129 03:30 18.05.2020
2844 Clouds 27 1002 16 0 4.92 238 01:58 18.05.2020
2845 Clouds 26 1002 14 0 4.02 171 00:55 18.05.2020
2846 Clouds 27 1003 12 0 5.36 304 00:23 18.05.2020
2847 Clouds 27 1003 11 0 4.02 243 23:57 17.05.2020
2848 Clouds 27 1003 12 0 6.71 136 23:38 17.05.2020
2849 Clouds 27 1003 12 0 3.13 89 23:19 17.05.2020
2850 Clouds 26 1003 14 0 4.02 149 22:56 17.05.2020
2851 Clouds 26 1003 13 0 3.58 276 22:37 17.05.2020
2852 Clouds 26 1003 14 0 4.92 263 22:18 17.05.2020
2853 Clouds 26 1003 14 0 4.92 263 22:18 17.05.2020
2854 Clouds 26 1004 14 0 4.02 181 21:42 17.05.2020
2855 Clouds 25 1004 17 0 3.58 121 21:21 17.05.2020
2856 Clouds 24 1004 17 0 4.47 195 20:59 17.05.2020
2857 Clouds 24 1003 17 0 4.92 223 20:41 17.05.2020
2858 Clouds 23 1003 18 0 4.92 231 20:20 17.05.2020
2859 Clouds 23 1004 21 0 4.02 262 19:56 17.05.2020
2860 Clouds 22 1004 20 0 3.13 220 19:37 17.05.2020
2861 Clouds 21 1003 21 0 3.13 190 19:19 17.05.2020
2862 Clouds 21 1004 22 0 3.58 231 18:41 17.05.2020
2863 Clouds 21 1003 20 0 4.02 237 18:23 17.05.2020
2864 Clouds 21 1003 18 0 2.24 270 17:59 17.05.2020
2865 Clouds 21 1003 19 0 2.24 177 17:39 17.05.2020
2866 Clouds 21 1003 21 0 2.24 148 17:19 17.05.2020
2867 Clouds 21 1003 21 0 2.24 148 17:19 17.05.2020
2868 Clouds 18 1003 26 0 2.24 200 16:40 17.05.2020
2869 Clouds 18 1003 27 0 3.13 191 16:21 17.05.2020
2870 Clouds 16 1003 30 0 2.68 215 15:59 17.05.2020
2871 Clouds 16 1003 30 0 2.68 215 15:59 17.05.2020
2872 Clouds 14 1003 33 0 0.89 107 15:39 17.05.2020
2873 Clouds 14 1002 32 0 0.89 112 15:20 17.05.2020
2874 Clouds 14 1002 31 0 5.25 168 14:54 17.05.2020
2875 Clouds 14 1002 32 0 5.25 168 14:36 17.05.2020
2876 Clouds 14 1002 33 0 1.34 108 14:18 17.05.2020
2877 Clouds 16 1002 32 0 1.79 114 13:40 17.05.2020
2878 Clouds 16 1002 32 0 1.34 121 13:20 17.05.2020
2879 Clouds 23 1004 27 0 1.34 156 04:51 17.05.2020
2880 Clouds 26 1004 20 0 3.13 223 03:19 17.05.2020
2881 Clouds 28 1004 19 0 3.13 200 02:22 17.05.2020
2882 Clouds 28 1005 19 0 3.13 191 01:49 17.05.2020
2883 Clouds 27 1005 19 0 3.13 204 00:43 17.05.2020
2884 Clouds 27 1005 19 0 3.13 204 00:21 17.05.2020
2885 Clouds 28 1006 19 0 2.24 187 23:42 16.05.2020
2886 Clouds 28 1006 19 0 2.24 147 23:21 16.05.2020
2887 Clouds 28 1006 16 0 4.47 168 22:59 16.05.2020
2888 Clouds 28 1006 18 0 1.79 198 22:41 16.05.2020
2889 Clouds 36 1009 10 0 2.66 170 22:20 16.05.2020
2890 Clouds 36 1009 10 0 2.66 170 21:55 16.05.2020
2891 Clouds 36 1009 10 0 2.66 170 21:37 16.05.2020
2892 Clouds 35 1010 10 0 1.37 151 21:19 16.05.2020
2893 Clouds 35 1010 10 0 1.37 151 20:55 16.05.2020
2894 Clouds 35 1010 10 0 1.37 151 20:36 16.05.2020
2895 Clouds 34 1010 11 0 0.64 89 20:18 16.05.2020
2896 Clouds 34 1010 11 0 0.64 89 19:40 16.05.2020
2897 Clouds 33 1011 12 0 1.16 29 19:22 16.05.2020
2898 Clouds 33 1011 12 0 1.16 29 18:57 16.05.2020
2899 Clouds 26 1009 23 0 0.45 91 18:37 16.05.2020
2900 Clouds 32 1011 12 0 1.54 23 18:18 16.05.2020
2901 Clouds 22 1009 27 0 0.45 310 17:41 16.05.2020
2902 Clear 21 1009 29 0 1.34 347 17:20 16.05.2020
2903 Clear 19 1009 31 0 1.79 333 16:44 16.05.2020
2904 Clear 17 1009 34 0 0.89 332 16:25 16.05.2020
2905 Clear 17 1009 34 0 1.34 340 15:59 16.05.2020
2906 Clear 16 1009 35 0 2.24 328 15:41 16.05.2020
2907 Clear 16 1008 35 0 2.68 349 15:21 16.05.2020
2908 Clear 15 1008 36 0 2.68 355 14:56 16.05.2020
2909 Clear 15 1008 35 0 2.68 345 14:38 16.05.2020
2910 Clear 15 1008 37 0 1.79 306 14:19 16.05.2020
2911 Clear 16 1008 39 0 1.79 322 13:42 16.05.2020
2912 Clear 16 1008 40 0 1.34 287 13:24 16.05.2020
2913 Clear 16 1008 42 0 2.68 340 12:59 16.05.2020
2914 Clear 14 1008 45 0 2.24 335 12:40 16.05.2020
2915 Clear 28 1010 19 0 1.64 4 12:19 16.05.2020
2916 Clear 28 1010 19 0 1.64 4 11:42 16.05.2020
2917 Clear 28 1010 20 0 1.14 339 11:23 16.05.2020
2918 Clear 28 1010 20 0 1.14 339 10:58 16.05.2020
2919 Clear 28 1010 20 0 1.14 339 10:39 16.05.2020
2920 Clear 29 1010 19 0 0.52 255 10:21 16.05.2020
2921 Clear 29 1010 19 0 0.52 255 09:47 16.05.2020
2922 Clouds 29 1010 19 0 1.15 216 09:29 16.05.2020
2923 Clouds 29 1010 19 0 1.15 216 09:29 16.05.2020
2924 Clear 30 1010 18 0 1.25 213 08:59 16.05.2020
2925 Clear 30 1010 18 0 1.25 213 08:40 16.05.2020
2926 Clear 31 1009 16 0 1.4 206 08:19 16.05.2020
2927 Clear 31 1009 16 0 1.4 206 07:43 16.05.2020
2928 Clouds 31 1009 16 0 1.56 197 07:23 16.05.2020
2929 Clouds 31 1009 16 0 1.56 197 06:48 16.05.2020
2930 Clouds 31 1009 16 0 1.16 182 06:24 16.05.2020
2931 Clouds 31 1009 16 0 1.16 182 05:49 16.05.2020
2932 Clouds 21 1007 27 0 0.82 145 05:27 16.05.2020
2933 Clouds 26 1006 21 0 2.24 229 03:34 16.05.2020
2934 Clouds 34 1008 12 0 1.15 126 02:52 16.05.2020
2935 Clear 34 1008 12 0 1.04 141 02:20 16.05.2020
2936 Clear 34 1008 12 0 1.04 141 01:43 16.05.2020
2937 Clear 34 1008 12 0 1.12 139 01:18 16.05.2020
2938 Clear 34 1008 12 0 1.12 139 00:42 16.05.2020
2939 Clear 34 1009 13 0 0.63 102 00:21 16.05.2020
2940 Clear 34 1009 13 0 0.63 102 23:40 15.05.2020
2941 Clear 34 1010 13 0 0.71 56 23:20 15.05.2020
2942 Clear 34 1010 13 0 0.71 56 22:56 15.05.2020
2943 Clear 34 1010 13 0 0.71 56 22:38 15.05.2020
2944 Clear 33 1011 14 0 1.24 23 22:18 15.05.2020
2945 Clear 33 1011 14 0 1.24 23 21:39 15.05.2020
2946 Clear 31 1011 17 0 0.7 40 21:21 15.05.2020
2947 Clear 31 1011 17 0 0.7 40 20:58 15.05.2020
2948 Clear 31 1011 16 0 0.85 36 20:40 15.05.2020
2949 Clear 30 1012 19 0 0.83 57 20:22 15.05.2020
2950 Clear 30 1012 19 0 1.03 36 20:22 15.05.2020
2951 Clear 30 1012 19 0 0.83 57 19:55 15.05.2020
2952 Clear 30 1012 19 0 1.03 36 19:37 15.05.2020
2953 Clear 28 1012 22 0 0.86 84 19:18 15.05.2020
2954 Clear 22 1009 27 0 0.89 63 18:42 15.05.2020
2955 Clear 21 1009 28 0 0.89 287 18:23 15.05.2020
2956 Clear 19 1009 31 0 1.34 318 17:39 15.05.2020
2957 Clear 18 1009 32 0 0.89 305 17:19 15.05.2020
2958 Clear 16 1009 36 0 1.79 339 16:57 15.05.2020
2959 Clear 15 1009 37 0 2.24 342 16:38 15.05.2020
2960 Clear 14 1009 38 0 2.68 349 16:19 15.05.2020
2961 Clear 13 1009 41 0 3.58 316 15:54 15.05.2020
2962 Clear 25 1013 26 0 0.72 199 15:36 15.05.2020
2963 Clear 24 1012 29 0 0.91 233 15:18 15.05.2020
2964 Clear 24 1012 29 0 0.91 233 15:18 15.05.2020
2965 Clear 13 1009 42 0 1.79 272 14:41 15.05.2020
2966 Clouds 13 1009 41 0 1.79 326 14:23 15.05.2020
2967 Clouds 13 1009 40 0 4.02 319 13:58 15.05.2020
2968 Clouds 13 1008 40 0 2.24 283 13:39 15.05.2020
2969 Clouds 13 1008 40 0 2.24 283 13:19 15.05.2020
2970 Clouds 14 1008 38 0 1.79 314 12:39 15.05.2020
2971 Clouds 26 1011 25 0 1.25 119 12:18 15.05.2020
2972 Clouds 26 1011 25 0 1.25 119 11:57 15.05.2020
2973 Clouds 26 1011 25 0 1.25 119 11:38 15.05.2020
2974 Clouds 15 1008 37 0 0.89 323 11:20 15.05.2020
2975 Clouds 16 1008 36 0 1.79 266 10:58 15.05.2020
2976 Clouds 15 1008 37 0 1.79 266 10:39 15.05.2020
2977 Clouds 15 1008 39 0 1.79 324 10:20 15.05.2020
2978 Clouds 28 1010 22 0 2.45 161 09:58 15.05.2020
2979 Clouds 28 1010 22 0 2.45 161 09:37 15.05.2020
2980 Clouds 28 1010 20 0 2.61 167 09:18 15.05.2020
2981 Clouds 28 1010 20 0 2.91 167 08:39 15.05.2020
2982 Clouds 29 1010 17 0 3.05 172 08:20 15.05.2020
2983 Clouds 29 1010 17 0 3.05 172 07:59 15.05.2020
2984 Clouds 29 1010 17 0 3.05 172 07:40 15.05.2020
2985 Clouds 30 1010 15 0 3.2 167 07:21 15.05.2020
2986 Clouds 30 1010 15 0 3.2 167 06:35 15.05.2020
2987 Clouds 18 1008 33 0 1.34 205 05:38 15.05.2020
2988 Clear 22 1007 22 0 1.34 172 03:52 15.05.2020
2989 Clear 22 1007 22 0 1.34 118 03:31 15.05.2020
2990 Clear 33 1007 12 0 2.38 143 01:37 15.05.2020
2991 Clear 32 1008 12 0 2.26 154 01:19 15.05.2020
2992 Clear 32 1008 12 0 2.26 154 00:43 15.05.2020
2993 Clear 32 1009 12 0 2.05 156 00:22 15.05.2020
2994 Clear 32 1009 12 0 2.05 156 23:42 14.05.2020
2995 Clear 31 1010 13 0 1.81 152 23:20 14.05.2020
2996 Clear 31 1010 13 0 1.81 152 22:55 14.05.2020
2997 Clear 31 1010 13 0 1.81 152 22:37 14.05.2020
2998 Clear 30 1010 13 0 1.76 143 22:19 14.05.2020
2999 Clear 30 1010 13 0 1.76 143 21:42 14.05.2020
3000 Clear 29 1011 15 0 1.78 145 21:20 14.05.2020
3001 Clear 29 1011 15 0 1.78 145 20:59 14.05.2020
3002 Clear 29 1011 15 0 1.78 145 20:59 14.05.2020
3003 Clear 29 1011 15 0 1.78 145 20:41 14.05.2020
3004 Clouds 28 1012 16 0 1.85 149 20:20 14.05.2020
3005 Clouds 28 1012 16 0 1.85 149 19:58 14.05.2020
3006 Clouds 28 1012 16 0 1.85 149 19:39 14.05.2020
3007 Clouds 27 1012 17 0 1.65 161 19:20 14.05.2020
3008 Clouds 19 1010 24 0 1.34 5 18:58 14.05.2020
3009 Clouds 18 1010 25 0 1.34 316 18:38 14.05.2020
3010 Clouds 18 1010 25 0 1.34 280 18:19 14.05.2020
3011 Clouds 17 1010 25 0 0.89 263 17:58 14.05.2020
3012 Clouds 17 1010 25 0 2.24 288 17:37 14.05.2020
3013 Clouds 17 1010 25 0 2.24 298 17:18 14.05.2020
3014 Clouds 14 1010 31 0 1.34 335 16:57 14.05.2020
3015 Clouds 12 1009 37 0 1.34 345 16:37 14.05.2020
3016 Clouds 24 1012 21 0 0.88 169 16:18 14.05.2020
3017 Clouds 24 1012 21 0 0.88 169 15:41 14.05.2020
3018 Clouds 22 1011 24 0 0.81 142 15:21 14.05.2020
3019 Clouds 22 1011 24 0 0.81 142 14:57 14.05.2020
3020 Clouds 22 1011 24 0 0.81 142 14:39 14.05.2020
3021 Clear 22 1011 24 0 1.14 146 14:20 14.05.2020
3022 Clear 22 1011 24 0 1.14 146 13:57 14.05.2020
3023 Clear 22 1011 24 0 1.14 146 13:38 14.05.2020
3024 Clear 23 1011 23 0 1.56 146 13:20 14.05.2020
3025 Clear 23 1011 23 0 1.56 146 12:58 14.05.2020
3026 Clear 23 1011 23 0 1.56 146 12:38 14.05.2020
3027 Clear 24 1010 23 0 1.73 134 12:20 14.05.2020
3028 Clear 24 1010 23 0 1.73 134 11:57 14.05.2020
3029 Clear 24 1010 23 0 1.73 134 11:38 14.05.2020
3030 Clear 24 1010 23 0 1.73 134 11:38 14.05.2020
3031 Clear 25 1010 22 0 2.25 148 11:20 14.05.2020
3032 Clear 25 1010 22 0 2.25 148 10:45 14.05.2020
3033 Clear 25 1010 21 0 3.4 169 10:26 14.05.2020
3034 Clear 25 1010 21 0 3.4 169 09:57 14.05.2020
3035 Clear 25 1010 21 0 3.4 169 09:39 14.05.2020
3036 Clear 26 1009 21 0 3.66 172 09:19 14.05.2020
3037 Clear 26 1009 21 0 3.66 172 08:41 14.05.2020
3038 Clear 27 1009 19 0 3.52 167 08:20 14.05.2020
3039 Clear 27 1009 19 0 3.52 167 07:46 14.05.2020
3040 Clear 15 1008 37 0 3.04 166 07:25 14.05.2020
3041 Clear 16 1008 34 0 3.04 166 06:54 14.05.2020
3042 Clear 28 1009 18 0 3.04 166 06:31 14.05.2020
3043 Clear 28 1009 18 0 3.04 166 06:31 14.05.2020
3044 Clear 29 1008 16 0 3.4 160 05:56 14.05.2020
3045 Clear 17 1007 33 0 0.45 202 05:35 14.05.2020
3046 Clear 21 1006 25 0 1.79 214 04:25 14.05.2020
3047 Clear 23 1007 21 0 2.24 169 03:27 14.05.2020
3048 Clear 23 1007 21 0 1.34 168 02:42 14.05.2020
3049 Clear 23 1007 20 0 2.68 233 01:56 14.05.2020
3050 Clear 23 1007 19 0 1.79 227 01:28 14.05.2020
3051 Clear 23 1007 19 0 2.68 147 00:50 14.05.2020
3052 Clear 31 1008 15 0 3.75 169 00:25 14.05.2020
3053 Clear 31 1008 15 0 3.75 169 23:44 13.05.2020
3054 Clear 30 1009 16 0 3.2 166 23:22 13.05.2020
3055 Clear 30 1009 16 0 3.2 166 22:56 13.05.2020
3056 Clear 30 1009 16 0 3.2 166 22:37 13.05.2020
3057 Clear 29 1010 19 0 2.64 162 22:19 13.05.2020
3058 Clear 29 1010 19 0 2.64 162 21:57 13.05.2020
3059 Clear 29 1010 19 0 2.64 162 21:38 13.05.2020
3060 Clear 27 1011 23 0 2.45 156 21:18 13.05.2020
3061 Clear 27 1011 23 0 2.45 156 20:41 13.05.2020
3062 Clouds 26 1011 26 0 1.73 142 20:23 13.05.2020
3063 Clouds 26 1011 26 0 1.73 142 19:44 13.05.2020
3064 Clouds 25 1011 29 0 1.75 144 19:25 13.05.2020
3065 Clouds 25 1011 29 0 1.75 144 19:25 13.05.2020
3066 Clouds 19 1010 32 0 0.89 64 18:58 13.05.2020
3067 Clouds 18 1010 32 0 0.89 20 18:40 13.05.2020
3068 Clouds 23 1011 33 0 1.32 158 18:21 13.05.2020
3069 Clouds 14 1009 43 0 0.45 92 17:40 13.05.2020
3070 Clouds 13 1009 46 0 1.47 180 17:20 13.05.2020
3071 Clouds 11 1009 50 0 0.45 12 16:59 13.05.2020
3072 Clouds 10 1009 54 0 1.47 180 16:40 13.05.2020
3073 Clouds 21 1010 38 0 2.37 162 16:19 13.05.2020
3074 Clouds 21 1010 38 0 2.37 162 15:54 13.05.2020
3075 Clouds 21 1010 38 0 2.37 162 15:36 13.05.2020
3076 Clear 21 1010 40 0 1.33 142 15:18 13.05.2020
3077 Clear 21 1010 40 0 1.33 142 14:41 13.05.2020
3078 Clear 21 1009 39 0 0.94 117 14:22 13.05.2020
3079 Clear 21 1010 37 0 0.78 108 13:58 13.05.2020
3080 Clear 21 1010 37 0 0.78 108 13:39 13.05.2020
3081 Clear 21 1009 36 0 0.81 119 13:21 13.05.2020
3082 Clear 21 1009 36 0 0.81 119 13:21 13.05.2020
3083 Clear 21 1009 36 0 0.81 119 12:57 13.05.2020
3084 Clear 21 1009 36 0 0.81 119 12:39 13.05.2020
3085 Clear 21 1009 34 0 1.09 134 12:18 13.05.2020
3086 Clear 21 1009 34 0 1.09 134 11:56 13.05.2020
3087 Clear 21 1009 34 0 1.09 134 11:36 13.05.2020
3088 Clear 22 1008 32 0 2.1 148 11:18 13.05.2020
3089 Clear 22 1008 32 0 2.1 148 10:56 13.05.2020
3090 Clear 22 1008 32 0 2.1 148 10:38 13.05.2020
3091 Clear 22 1008 32 0 2.1 148 10:38 13.05.2020
3092 Clear 23 1008 30 0 2.72 153 10:19 13.05.2020
3093 Clear 23 1008 30 0 2.72 153 09:45 13.05.2020
3094 Clear 23 1008 27 0 3.19 164 09:23 13.05.2020
3095 Clear 23 1009 28 0 3.98 159 08:57 13.05.2020
3096 Clear 23 1009 28 0 3.98 159 08:37 13.05.2020
3097 Clouds 24 1008 25 0 3.75 165 08:19 13.05.2020
3098 Clouds 24 1008 25 0 3.75 165 07:44 13.05.2020
3099 Clouds 25 1007 24 0 3.84 173 07:26 13.05.2020
3100 Clouds 13 1004 36 0 0.45 207 06:49 13.05.2020
3101 Clouds 26 1006 23 0 4.71 178 06:28 13.05.2020
3102 Clouds 17 1003 30 0 1.34 146 04:57 13.05.2020
3103 Clouds 20 1002 20 0 2.68 228 03:28 13.05.2020
3104 Clouds 21 1002 21 0 4.02 260 02:34 13.05.2020
3105 Clouds 22 1002 23 0 3.13 91 01:38 13.05.2020
3106 Clouds 23 1002 21 0 2.68 139 00:55 13.05.2020
3107 Clouds 23 1002 20 0 4.02 183 00:22 13.05.2020
3108 Clouds 23 1002 19 0 4.02 263 23:55 12.05.2020
3109 Clouds 23 1002 21 0 3.58 239 23:36 12.05.2020
3110 Clouds 23 1002 21 0 3.58 115 23:18 12.05.2020
3111 Clouds 23 1003 18 0 3.58 207 22:42 12.05.2020
3112 Clouds 23 1003 18 0 3.58 207 22:22 12.05.2020
3113 Clouds 23 1003 19 0 3.13 143 21:56 12.05.2020
3114 Clouds 23 1003 18 0 0.45 10 21:38 12.05.2020
3115 Clear 29 1007 19 0 3.18 179 21:19 12.05.2020
3116 Clear 29 1007 19 0 3.18 179 20:58 12.05.2020
3117 Clear 29 1007 19 0 3.18 179 20:39 12.05.2020
3118 Clouds 28 1008 21 0 3.03 174 20:20 12.05.2020
3119 Clouds 28 1008 21 0 3.03 174 19:57 12.05.2020
3120 Clouds 28 1008 21 0 3.03 174 19:39 12.05.2020
3121 Clouds 20 1004 24 0 2.24 2 19:20 12.05.2020
3122 Clouds 18 1004 26 0 2.24 78 18:55 12.05.2020
3123 Clouds 18 1004 25 0 2.68 50 18:36 12.05.2020
3124 Clouds 25 1009 24 0 3.18 170 18:18 12.05.2020
3125 Clouds 16 1004 23 0 2.24 78 17:41 12.05.2020
3126 Clouds 15 1004 23 0 2.68 86 17:23 12.05.2020
3127 Clouds 14 1004 25 0 2.24 104 16:47 12.05.2020
3128 Clouds 12 1004 26 0 0.89 62 16:26 12.05.2020
3129 Clouds 11 1003 28 0 2.68 156 15:56 12.05.2020
3130 Clouds 11 1003 29 0 1.34 79 15:38 12.05.2020
3131 Clouds 11 1003 28 0 1.79 62 15:19 12.05.2020
3132 Clouds 12 1003 27 0 1.34 151 14:57 12.05.2020
3133 Clouds 12 1003 27 0 1.34 73 14:37 12.05.2020
3134 Clouds 13 1003 26 0 0.89 141 14:19 12.05.2020
3135 Clouds 13 1003 27 0 1.79 71 13:58 12.05.2020
3136 Clouds 13 1003 26 0 1.34 118 13:39 12.05.2020
3137 Clouds 13 1003 26 0 1.34 154 13:19 12.05.2020
3138 Clouds 14 1003 27 0 2.24 221 12:57 12.05.2020
3139 Clouds 14 1003 27 0 2.24 206 12:39 12.05.2020
3140 Clouds 13 1003 27 0 2.24 210 12:21 12.05.2020
3141 Clouds 14 1003 27 0 2.24 218 11:58 12.05.2020
3142 Clouds 14 1003 27 0 3.58 211 11:38 12.05.2020
3143 Clouds 14 1003 27 0 3.13 233 11:20 12.05.2020
3144 Clouds 14 1004 26 0 3.58 238 10:58 12.05.2020
3145 Clouds 14 1004 26 0 3.58 262 10:40 12.05.2020
3146 Clouds 14 1004 26 0 2.68 141 10:21 12.05.2020
3147 Clouds 14 1004 26 0 2.68 208 09:59 12.05.2020
3148 Clouds 15 1004 24 0 3.58 260 09:39 12.05.2020
3149 Clouds 14 1004 24 0 2.68 245 09:20 12.05.2020
3150 Clouds 14 1004 24 0 0.89 173 08:54 12.05.2020
3151 Clouds 14 1004 24 0 1.34 170 08:36 12.05.2020
3152 Clear 15 1004 23 0 1.34 114 08:18 12.05.2020
3153 Clear 16 1004 23 0 2.24 104 07:41 12.05.2020
3154 Clear 16 1004 23 0 3.13 125 07:21 12.05.2020
3155 Clear 17 1004 21 0 2.68 175 06:41 12.05.2020
3156 Clear 29 1007 14 0 6.38 197 06:22 12.05.2020
3157 Clear 18 1003 18 0 3.58 195 05:50 12.05.2020
3158 Clear 19 1003 18 0 4.47 274 05:30 12.05.2020
3159 Clear 24 1002 10 0 4.92 208 03:26 12.05.2020
3160 Clear 26 1003 7 0 6.71 186 02:29 12.05.2020
3161 Clear 27 1003 6 0 4.47 247 01:59 12.05.2020
3162 Clear 27 1003 6 0 4.92 241 01:26 12.05.2020
3163 Clear 27 1004 10 0 3.13 210 00:26 12.05.2020
3164 Clear 27 1004 10 0 3.58 272 23:58 11.05.2020
3165 Clear 28 1004 9 0 4.02 243 23:40 11.05.2020
3166 Clear 36 1007 9 0 6.64 199 23:20 11.05.2020
3167 Clear 36 1007 9 0 6.64 199 22:58 11.05.2020
3168 Clear 28 1005 16 0 1.79 45 22:40 11.05.2020
3169 Clear 27 1005 16 0 2.24 58 22:20 11.05.2020
3170 Clear 27 1005 17 0 1.79 79 21:58 11.05.2020
3171 Clear 26 1006 17 0 2.68 29 21:39 11.05.2020
3172 Clouds 26 1006 18 0 2.24 45 21:19 11.05.2020
3173 Clouds 24 1006 18 0 2.24 16 20:58 11.05.2020
3174 Clouds 24 1006 20 0 2.24 54 20:40 11.05.2020
3175 Clouds 24 1007 19 0 1.79 23 20:20 11.05.2020
3176 Clouds 23 1006 21 0 1.79 26 19:55 11.05.2020
3177 Clouds 23 1006 21 0 1.79 26 19:55 11.05.2020
3178 Clouds 23 1006 22 0 3.13 50 19:36 11.05.2020
3179 Clouds 22 1006 23 0 2.24 45 19:18 11.05.2020
3180 Clouds 20 1006 25 0 1.79 45 18:55 11.05.2020
3181 Clouds 20 1006 26 0 1.79 50 18:36 11.05.2020
3182 Clear 19 1006 27 0 0.89 32 18:18 11.05.2020
3183 Clear 19 1006 27 0 0.89 32 18:18 11.05.2020
3184 Clear 17 1006 30 0 0.89 50 17:55 11.05.2020
3185 Clear 16 1006 32 0 1.34 67 17:36 11.05.2020
3186 Clear 16 1006 32 0 1.34 67 17:36 11.05.2020
3187 Clear 16 1006 32 0 0.45 66 17:18 11.05.2020
3188 Clear 14 1006 36 0 1.34 79 16:41 11.05.2020
3189 Clear 13 1006 40 0 2.59 174 16:22 11.05.2020
3190 Clear 27 1010 22 0 2.59 174 15:58 11.05.2020
3191 Clear 27 1010 22 0 2.59 174 15:39 11.05.2020
3192 Clear 25 1010 25 0 2.59 180 15:19 11.05.2020
3193 Clear 25 1010 25 0 2.59 180 14:55 11.05.2020
3194 Clear 25 1010 25 0 2.59 180 14:37 11.05.2020
3195 Clear 26 1009 24 0 3.25 179 14:18 11.05.2020
3196 Clear 26 1009 23 0 2.93 168 14:18 11.05.2020
3197 Clear 12 1005 37 0 0.45 98 13:41 11.05.2020
3198 Clear 26 1008 22 0 2.86 177 13:22 11.05.2020
3199 Clear 26 1008 22 0 2.86 177 13:22 11.05.2020
3200 Clear 26 1008 22 0 2.86 177 12:58 11.05.2020
3201 Clear 26 1008 22 0 2.86 177 12:40 11.05.2020
3202 Clear 27 1008 20 0 3.69 182 12:22 11.05.2020
3203 Clear 27 1008 20 0 3.69 182 11:57 11.05.2020
3204 Clear 27 1008 20 0 3.69 182 11:38 11.05.2020
3205 Clear 28 1008 18 0 4.2 187 11:20 11.05.2020
3206 Clear 28 1008 18 0 4.2 187 10:56 11.05.2020
3207 Clear 28 1008 18 0 4.2 187 10:38 11.05.2020
3208 Clouds 29 1008 16 0 4.87 192 10:19 11.05.2020
3209 Clouds 29 1008 16 0 4.87 192 09:56 11.05.2020
3210 Clouds 29 1008 16 0 4.87 192 09:37 11.05.2020
3211 Clouds 30 1008 15 0 5.44 187 09:18 11.05.2020
3212 Clouds 30 1008 16 0 5.5 184 08:42 11.05.2020
3213 Clouds 31 1008 16 0 5.87 188 08:23 11.05.2020
3214 Clouds 19 1005 24 0 0.45 214 07:56 11.05.2020
3215 Clouds 18 1005 23 0 2.68 160 07:38 11.05.2020
3216 Clouds 18 1005 25 0 0.89 118 07:20 11.05.2020
3217 Clouds 18 1005 25 0 0.89 118 07:20 11.05.2020
3218 Clouds 20 1005 16 0 0.89 222 06:34 11.05.2020
3219 Clouds 21 1004 12 0 3.13 235 05:53 11.05.2020
3220 Clouds 22 1004 11 0 3.13 219 05:22 11.05.2020
3221 Clouds 26 1004 13 0 4.47 215 03:56 11.05.2020
3222 Clouds 28 1004 14 0 4.47 280 02:36 11.05.2020
3223 Clouds 28 1004 14 0 5.81 252 02:18 11.05.2020
3224 Clouds 28 1004 13 0 4.92 224 01:21 11.05.2020
3225 Clouds 29 1005 12 0 5.81 266 00:41 11.05.2020
3226 Clouds 29 1005 12 0 3.58 199 00:18 11.05.2020
3227 Clouds 28 1006 13 0 4.02 126 23:40 10.05.2020
3228 Clouds 28 1006 14 0 4.02 234 23:20 10.05.2020
3229 Clouds 27 1006 16 0 3.58 250 22:55 10.05.2020
3230 Clouds 27 1007 16 0 6.26 154 22:37 10.05.2020
3231 Clouds 28 1007 15 0 4.47 229 22:18 10.05.2020
3232 Clouds 28 1007 16 0 4.92 242 21:43 10.05.2020
3233 Clouds 28 1007 17 0 4.02 258 21:19 10.05.2020
3234 Clouds 28 1007 18 0 3.58 198 20:43 10.05.2020
3235 Clouds 28 1007 18 0 3.13 220 20:25 10.05.2020
3236 Clouds 28 1007 18 0 3.13 220 20:25 10.05.2020
3237 Clouds 27 1007 19 0 3.13 262 19:59 10.05.2020
3238 Clouds 27 1007 19 0 2.68 205 19:39 10.05.2020
3239 Clouds 27 1007 20 0 2.68 223 19:21 10.05.2020
3240 Clouds 27 1007 19 0 2.24 133 18:56 10.05.2020
3241 Clouds 27 1007 19 0 2.68 185 18:37 10.05.2020
3242 Clear 26 1007 18 0 2.68 202 18:19 10.05.2020
3243 Clear 25 1007 20 0 2.24 187 17:58 10.05.2020
3244 Clear 24 1007 21 0 1.79 156 17:40 10.05.2020
3245 Clear 24 1007 21 0 1.79 156 17:40 10.05.2020
3246 Clear 24 1007 22 0 1.79 210 17:20 10.05.2020
3247 Clear 23 1007 23 0 2.68 225 16:55 10.05.2020
3248 Clear 22 1007 25 0 2.24 229 16:37 10.05.2020
3249 Clear 19 1007 31 0 4.23 178 16:18 10.05.2020
3250 Clear 32 1011 16 0 4.23 178 15:42 10.05.2020
3251 Clear 31 1010 17 0 3.67 176 15:23 10.05.2020
3252 Clear 31 1010 17 0 3.67 176 14:57 10.05.2020
3253 Clear 17 1006 30 0 0.89 261 14:38 10.05.2020
3254 Clouds 17 1007 30 0 1.34 276 14:19 10.05.2020
3255 Clouds 17 1007 30 0 0.45 233 13:58 10.05.2020
3256 Clouds 17 1007 29 0 0.89 258 13:37 10.05.2020
3257 Clouds 17 1007 29 0 0.45 254 13:19 10.05.2020
3258 Clouds 17 1007 29 0 0.45 254 13:19 10.05.2020
3259 Clouds 32 1010 16 0 3.24 175 12:56 10.05.2020
3260 Clouds 32 1010 16 0 3.24 175 12:38 10.05.2020
3261 Clouds 32 1009 15 0 2.6 176 12:20 10.05.2020
3262 Clouds 32 1009 15 0 2.6 176 11:56 10.05.2020
3263 Clouds 32 1009 15 0 2.6 176 11:38 10.05.2020
3264 Clouds 33 1010 15 0 2.38 182 11:19 10.05.2020
3265 Clouds 33 1010 15 0 2.38 182 10:46 10.05.2020
3266 Clouds 33 1010 14 0 2.34 183 10:27 10.05.2020
3267 Clouds 19 1007 20 0 2.34 183 09:58 10.05.2020
3268 Clouds 33 1010 14 0 2.34 183 09:39 10.05.2020
3269 Clear 34 1010 14 0 2.72 187 09:20 10.05.2020
3270 Clear 34 1010 14 0 2.72 187 08:48 10.05.2020
3271 Clear 34 1010 14 0 3.26 191 08:24 10.05.2020
3272 Clear 21 1007 15 0 0.89 285 07:45 10.05.2020
3273 Clear 21 1008 15 0 0.89 304 07:21 10.05.2020
3274 Clear 21 1008 15 0 0.89 264 06:57 10.05.2020
3275 Clear 22 1008 15 0 0.89 273 06:32 10.05.2020
3276 Clear 24 1007 13 0 1.34 224 05:52 10.05.2020
3277 Clear 26 1006 13 0 1.79 226 04:55 10.05.2020
3278 Clear 26 1006 12 0 2.68 233 04:36 10.05.2020
3279 Clear 28 1006 10 0 4.02 206 03:57 10.05.2020
3280 Clear 29 1006 10 0 4.02 210 03:38 10.05.2020
3281 Clear 30 1006 9 0 4.92 193 02:48 10.05.2020
3282 Clear 30 1006 9 0 5.36 222 02:19 10.05.2020
3283 Clear 30 1006 10 0 4.02 179 01:42 10.05.2020
3284 Clear 31 1006 10 0 5.36 264 01:20 10.05.2020
3285 Clear 31 1006 10 0 4.02 237 00:55 10.05.2020
3286 Clear 31 1007 10 0 2.68 206 00:26 10.05.2020
3287 Clear 31 1007 9 0 2.68 231 23:59 09.05.2020
3288 Clear 31 1007 8 0 4.02 252 23:39 09.05.2020
3289 Clear 31 1007 6 0 4.47 167 23:20 09.05.2020
3290 Clear 40 1010 7 0 4.33 172 22:44 09.05.2020
3291 Clear 39 1011 8 0 3.75 166 22:24 09.05.2020
3292 Clear 39 1011 8 0 3.75 166 21:59 09.05.2020
3293 Clear 39 1011 8 0 3.75 166 21:41 09.05.2020
3294 Clear 38 1012 10 0 2.89 165 21:22 09.05.2020
3295 Clear 38 1012 8 0 3.25 166 20:58 09.05.2020
3296 Clear 38 1012 8 0 3.25 166 20:39 09.05.2020
3297 Clouds 37 1012 11 0 2.48 166 20:20 09.05.2020
3298 Clouds 37 1012 11 0 2.48 166 19:58 09.05.2020
3299 Clouds 37 1012 11 0 2.48 166 19:39 09.05.2020
3300 Clouds 36 1013 13 0 2.03 159 19:19 09.05.2020
3301 Clouds 36 1013 13 0 2.03 159 18:46 09.05.2020
3302 Clouds 35 1013 14 0 1.87 154 18:26 09.05.2020
3303 Clouds 24 1009 15 0 1.79 270 17:58 09.05.2020
3304 Clouds 23 1009 18 0 2.24 337 17:40 09.05.2020
3305 Clouds 23 1009 21 0 1.34 326 17:21 09.05.2020
3306 Clouds 19 1009 24 0 1.34 339 16:41 09.05.2020
3307 Clouds 32 1012 17 0 1.54 162 16:20 09.05.2020
3308 Clouds 32 1012 17 0 1.54 162 16:20 09.05.2020
3309 Clouds 32 1012 17 0 1.54 162 15:46 09.05.2020
3310 Clouds 30 1011 18 0 1.88 159 15:27 09.05.2020
3311 Clouds 30 1011 18 0 1.88 159 14:59 09.05.2020
3312 Clouds 30 1011 18 0 1.88 159 14:41 09.05.2020
3313 Clouds 30 1011 14 0 1.55 153 14:20 09.05.2020
3314 Clouds 30 1011 14 0 1.55 153 13:58 09.05.2020
3315 Clouds 30 1011 14 0 1.55 153 13:40 09.05.2020
3316 Clouds 31 1011 13 0 1.13 170 13:20 09.05.2020
3317 Clouds 31 1011 13 0 1.13 170 12:43 09.05.2020
3318 Clouds 31 1011 13 0 1.3 175 12:23 09.05.2020
3319 Clouds 31 1011 13 0 1.3 175 11:59 09.05.2020
3320 Clouds 31 1011 13 0 1.3 175 11:41 09.05.2020
3321 Clouds 32 1010 12 0 1.45 178 11:19 09.05.2020
3322 Clouds 32 1010 12 0 1.45 178 10:47 09.05.2020
3323 Clouds 33 1010 11 0 1.5 177 10:26 09.05.2020
3324 Clouds 33 1010 11 0 1.5 177 09:58 09.05.2020
3325 Clouds 33 1010 11 0 1.5 177 09:40 09.05.2020
3326 Clouds 34 1010 10 0 2.07 177 09:19 09.05.2020
3327 Clouds 33 1010 10 0 1.93 177 08:51 09.05.2020
3328 Clouds 33 1010 10 0 1.93 177 08:33 09.05.2020
3329 Clouds 34 1011 10 0 1.9 170 07:54 09.05.2020
3330 Clouds 34 1011 10 0 1.9 170 07:36 09.05.2020
3331 Clouds 21 1009 26 0 1.67 167 07:18 09.05.2020
3332 Clouds 35 1010 9 0 2.06 139 06:26 09.05.2020
3333 Clouds 35 1010 9 0 2.06 139 05:49 09.05.2020
3334 Clouds 27 1007 10 0 1.34 144 04:43 09.05.2020
3335 Clouds 29 1007 8 0 1.79 204 03:38 09.05.2020
3336 Clear 30 1007 8 0 2.24 189 02:50 09.05.2020
3337 Clear 31 1008 7 0 1.34 190 01:54 09.05.2020
3338 Clear 31 1008 8 0 2.24 158 01:27 09.05.2020
3339 Clear 31 1008 7 0 2.68 158 00:59 09.05.2020
3340 Clear 31 1008 8 0 1.79 160 00:38 09.05.2020
3341 Clear 30 1009 8 0 1.79 194 23:58 08.05.2020
3342 Clear 30 1009 8 0 2.68 215 23:39 08.05.2020
3343 Clear 29 1009 8 0 1.79 229 23:20 08.05.2020
3344 Clear 29 1009 8 0 3.13 212 22:55 08.05.2020
3345 Clear 30 1009 8 0 2.24 148 22:36 08.05.2020
3346 Clear 29 1010 7 0 3.58 239 22:18 08.05.2020
3347 Clear 37 1012 8 0 0.94 117 21:54 08.05.2020
3348 Clear 37 1012 8 0 0.94 117 21:36 08.05.2020
3349 Clear 36 1013 8 0 0.92 91 21:18 08.05.2020
3350 Clear 36 1013 8 0 0.92 91 20:41 08.05.2020
3351 Clouds 35 1013 9 0 1.49 63 20:23 08.05.2020
3352 Clouds 35 1013 9 0 1.49 63 19:58 08.05.2020
3353 Clouds 35 1013 9 0 1.49 63 19:40 08.05.2020
3354 Clouds 34 1014 10 0 1.82 54 19:20 08.05.2020
3355 Clouds 34 1014 10 0 1.82 54 19:20 08.05.2020
3356 Clouds 34 1014 10 0 1.82 54 18:45 08.05.2020
3357 Clouds 33 1014 10 0 2.03 44 18:27 08.05.2020
3358 Clouds 24 1011 13 0 0.89 100 17:43 08.05.2020
3359 Clouds 22 1011 15 0 0.45 360 17:20 08.05.2020
3360 Clouds 19 1011 21 0 0.45 360 16:56 08.05.2020
3361 Clouds 32 1014 11 0 1.85 37 16:38 08.05.2020
3362 Clear 29 1014 13 0 1.45 40 16:19 08.05.2020
3363 Clear 29 1014 13 0 1.45 40 15:43 08.05.2020
3364 Clear 27 1013 15 0 1.37 51 15:22 08.05.2020
3365 Clear 27 1013 15 0 1.37 51 14:57 08.05.2020
3366 Clear 27 1013 15 0 1.37 51 14:39 08.05.2020
3367 Clouds 27 1013 15 0 1.42 59 14:19 08.05.2020
3368 Clouds 27 1013 15 0 1.68 43 13:55 08.05.2020
3369 Clouds 27 1013 15 0 1.68 43 13:37 08.05.2020
3370 Clouds 28 1013 14 0 1.58 40 13:18 08.05.2020
3371 Clouds 28 1013 14 0 1.58 40 12:42 08.05.2020
3372 Clouds 29 1013 13 0 1.49 36 12:23 08.05.2020
3373 Clouds 29 1013 13 0 1.49 36 11:54 08.05.2020
3374 Clouds 29 1013 13 0 1.49 36 11:36 08.05.2020
3375 Clouds 30 1013 13 0 1.24 27 11:18 08.05.2020
3376 Clouds 30 1013 13 0 1.24 27 10:42 08.05.2020
3377 Clouds 30 1013 12 0 1.09 8 10:20 08.05.2020
3378 Clouds 30 1013 12 0 1.09 8 09:59 08.05.2020
3379 Clouds 30 1013 12 0 1.09 8 09:39 08.05.2020
3380 Clouds 31 1013 12 0 1.07 2 09:18 08.05.2020
3381 Clouds 31 1013 12 0 1.07 2 08:45 08.05.2020
3382 Clouds 32 1013 11 0 1.21 347 08:23 08.05.2020
3383 Clouds 32 1013 11 0 1.21 347 07:44 08.05.2020
3384 Clear 32 1013 11 0 1.56 347 07:25 08.05.2020
3385 Clear 32 1013 11 0 1.56 347 06:52 08.05.2020
3386 Clear 33 1012 11 0 1.47 351 06:25 08.05.2020
3387 Clear 33 1012 11 0 1.47 351 05:59 08.05.2020
3388 Clouds 24 1008 9 0 0.45 31 04:56 08.05.2020
3389 Clear 37 1011 8 0 2.37 352 02:57 08.05.2020
3390 Clear 37 1011 8 0 2.29 352 02:22 08.05.2020
3391 Clear 37 1011 8 0 2.29 352 01:37 08.05.2020
3392 Clear 37 1012 8 0 2.76 356 01:18 08.05.2020
3393 Clear 37 1012 8 0 2.76 356 00:45 08.05.2020
3394 Clear 37 1012 8 0 3.23 360 00:22 08.05.2020
3395 Clear 37 1012 8 0 3.23 360 23:44 07.05.2020
3396 Clear 36 1013 8 0 3.79 3 23:24 07.05.2020
3397 Clear 36 1013 8 0 3.79 3 22:59 07.05.2020
3398 Clear 36 1013 8 0 3.79 3 22:41 07.05.2020
3399 Clear 35 1014 9 0 4.22 5 22:20 07.05.2020
3400 Clear 35 1014 9 0 4.22 5 22:20 07.05.2020
3401 Clear 35 1014 9 0 4.22 5 21:57 07.05.2020
3402 Clear 35 1014 9 0 4.22 5 21:38 07.05.2020
3403 Clear 34 1015 9 0 4.53 7 21:19 07.05.2020
3404 Clear 34 1015 9 0 4.53 7 21:19 07.05.2020
3405 Clear 35 1015 9 0 4.8 7 20:56 07.05.2020
3406 Clear 35 1015 9 0 4.8 7 20:37 07.05.2020
3407 Clouds 34 1015 10 0 5.12 9 20:18 07.05.2020
3408 Clouds 34 1015 10 0 5.12 9 19:45 07.05.2020
3409 Clouds 26 1011 9 0 2.24 351 19:21 07.05.2020
3410 Clouds 24 1011 9 0 2.68 330 18:47 07.05.2020
3411 Clouds 23 1011 11 0 3.13 350 18:29 07.05.2020
3412 Clouds 21 1011 14 0 1.79 340 17:58 07.05.2020
3413 Clouds 20 1011 14 0 2.68 308 17:38 07.05.2020
3414 Clouds 19 1011 15 0 1.79 324 17:19 07.05.2020
3415 Clouds 31 1016 12 0 4.86 7 16:42 07.05.2020
3416 Clouds 16 1011 18 0 3.58 333 16:19 07.05.2020
3417 Clouds 29 1016 13 0 3.5 359 15:57 07.05.2020
3418 Clouds 29 1016 13 0 3.5 359 15:37 07.05.2020
3419 Clouds 27 1015 14 0 3.34 355 15:18 07.05.2020
3420 Clouds 15 1011 17 0 2.68 300 14:55 07.05.2020
3421 Clouds 15 1011 17 0 2.24 333 14:37 07.05.2020
3422 Clouds 15 1011 17 0 3.58 357 14:18 07.05.2020
3423 Clouds 15 1010 18 0 2.24 291 13:41 07.05.2020
3424 Clouds 15 1011 18 0 2.68 329 13:22 07.05.2020
3425 Clouds 16 1011 18 0 4.92 341 12:42 07.05.2020
3426 Clouds 29 1014 12 0 3.78 355 12:20 07.05.2020
3427 Clouds 29 1014 12 0 3.78 355 11:40 07.05.2020
3428 Clouds 30 1014 11 0 3.83 1 11:22 07.05.2020
3429 Clouds 17 1011 15 0 5.36 11 10:58 07.05.2020
3430 Clouds 17 1011 14 0 4.92 324 10:40 07.05.2020
3431 Clouds 17 1011 14 0 4.02 335 10:20 07.05.2020
3432 Clouds 18 1012 13 0 2.24 285 09:40 07.05.2020
3433 Clouds 32 1014 10 0 2.71 343 09:20 07.05.2020
3434 Clouds 19 1012 13 0 1.79 288 08:56 07.05.2020
3435 Clouds 21 1012 8 0 2.24 329 08:37 07.05.2020
3436 Clouds 22 1011 8 0 4.02 352 08:19 07.05.2020
3437 Clouds 21 1011 9 0 5.36 322 07:43 07.05.2020
3438 Clouds 34 1013 10 0 2.72 11 07:25 07.05.2020
3439 Clouds 34 1013 10 0 2.72 11 06:45 07.05.2020
3440 Clouds 33 1013 11 0 0.66 319 06:23 07.05.2020
3441 Clouds 23 1010 18 0 0.66 319 05:29 07.05.2020
3442 Clouds 32 1009 8 0 0.45 20 03:55 07.05.2020
3443 Clouds 38 1012 8 0 0.32 121 03:25 07.05.2020
3444 Clouds 38 1012 8 0 0.32 121 02:42 07.05.2020
3445 Clouds 38 1011 8 0 0.64 90 01:44 07.05.2020
3446 Clouds 38 1011 8 0 0.65 92 01:24 07.05.2020
3447 Clouds 38 1011 8 0 0.65 92 00:46 07.05.2020
3448 Clouds 37 1012 8 0 0.78 98 00:27 07.05.2020
3449 Clouds 37 1012 8 0 0.78 98 23:47 06.05.2020
3450 Clouds 37 1012 9 0 0.76 99 23:25 06.05.2020
3451 Clouds 37 1012 9 0 0.76 99 22:58 06.05.2020
3452 Clouds 37 1012 9 0 0.76 99 22:40 06.05.2020
3453 Clouds 36 1013 9 0 0.7 110 22:20 06.05.2020
3454 Clouds 36 1013 9 0 0.7 110 21:57 06.05.2020
3455 Clouds 36 1013 9 0 0.7 110 21:39 06.05.2020
3456 Clouds 35 1014 10 0 0.72 120 21:20 06.05.2020
3457 Clouds 35 1014 10 0 0.72 120 20:43 06.05.2020
3458 Clouds 34 1014 11 0 0.67 135 20:25 06.05.2020
3459 Clouds 34 1014 11 0 0.67 135 19:59 06.05.2020
3460 Clouds 34 1014 11 0 0.67 135 19:39 06.05.2020
3461 Clouds 27 1012 14 0 0.89 304 19:21 06.05.2020
3462 Clouds 33 1014 12 0 0.73 159 18:59 06.05.2020
3463 Clouds 27 1012 15 0 2.24 338 18:41 06.05.2020
3464 Clouds 32 1014 12 0 0.98 166 18:21 06.05.2020
3465 Clouds 21 1012 23 0 0.98 166 17:59 06.05.2020
3466 Clouds 20 1012 24 0 0.98 166 17:40 06.05.2020
3467 Clouds 19 1012 27 0 0.45 289 17:22 06.05.2020
3468 Clouds 31 1015 13 0 1.05 175 16:59 06.05.2020
3469 Clouds 31 1015 13 0 1.05 175 16:41 06.05.2020
3470 Clouds 31 1015 13 0 1.05 175 16:41 06.05.2020
3471 Clouds 29 1015 15 0 0.87 194 16:22 06.05.2020
3472 Clouds 29 1015 15 0 0.87 194 15:59 06.05.2020
3473 Clouds 29 1015 15 0 0.87 194 15:41 06.05.2020
3474 Clouds 27 1014 16 0 1.22 179 15:22 06.05.2020
3475 Clouds 27 1014 16 0 1.22 179 14:56 06.05.2020
3476 Clouds 27 1014 16 0 1.22 179 14:38 06.05.2020
3477 Clouds 28 1014 15 0 1.43 178 14:18 06.05.2020
3478 Clouds 28 1014 15 0 1.43 178 14:18 06.05.2020
3479 Clouds 28 1014 15 0 1.43 178 13:56 06.05.2020
3480 Clouds 28 1014 15 0 1.43 178 13:37 06.05.2020
3481 Clouds 29 1013 15 0 1.85 179 13:18 06.05.2020
3482 Clouds 29 1013 15 0 1.85 179 12:42 06.05.2020
3483 Clouds 29 1013 14 0 1.91 176 12:24 06.05.2020
3484 Clouds 29 1013 14 0 1.91 176 11:41 06.05.2020
3485 Clouds 30 1014 13 0 1.81 175 11:22 06.05.2020
3486 Clouds 30 1014 13 0 1.81 175 10:58 06.05.2020
3487 Clouds 30 1014 13 0 1.81 175 10:39 06.05.2020
3488 Clouds 31 1014 12 0 1.55 172 10:19 06.05.2020
3489 Clouds 31 1014 12 0 1.55 172 09:56 06.05.2020
3490 Clouds 31 1014 12 0 1.55 172 09:36 06.05.2020
3491 Clouds 31 1015 11 0 1.52 155 09:18 06.05.2020
3492 Clouds 31 1015 11 0 1.52 155 08:41 06.05.2020
3493 Clouds 32 1014 11 0 1.52 163 08:20 06.05.2020
3494 Clouds 32 1014 11 0 1.52 163 07:56 06.05.2020
3495 Clouds 32 1014 11 0 1.52 163 07:37 06.05.2020
3496 Clouds 19 1013 22 0 1.98 171 07:18 06.05.2020
3497 Clouds 20 1013 19 0 1.98 171 06:46 06.05.2020
3498 Clouds 34 1013 10 0 2.43 167 06:20 06.05.2020
3499 Clouds 22 1013 18 0 1.34 188 05:38 06.05.2020
3500 Clouds 23 1012 13 0 0.45 142 04:52 06.05.2020
3501 Clouds 27 1012 9 0 2.24 220 03:52 06.05.2020
3502 Clouds 27 1012 9 0 2.24 177 03:26 06.05.2020
3503 Clouds 28 1012 10 0 2.24 214 02:54 06.05.2020
3504 Clouds 28 1012 9 0 2.24 175 02:26 06.05.2020
3505 Clear 28 1012 8 0 3.13 150 01:43 06.05.2020
3506 Clear 28 1013 8 0 3.13 197 01:21 06.05.2020
3507 Clear 28 1013 6 0 3.13 220 00:44 06.05.2020
3508 Clear 28 1013 6 0 3.13 208 00:19 06.05.2020
3509 Clear 28 1013 6 0 3.13 208 00:19 06.05.2020
3510 Clear 28 1014 6 0 3.13 207 23:41 05.05.2020
3511 Clear 28 1014 6 0 3.13 169 23:20 05.05.2020
3512 Clear 28 1014 6 0 0.89 206 22:55 05.05.2020
3513 Clear 28 1014 6 0 2.24 109 22:37 05.05.2020
3514 Clear 28 1014 7 0 0.89 160 22:18 05.05.2020
3515 Clear 35 1015 8 0 1.28 140 21:41 05.05.2020
3516 Clear 35 1015 8 0 1.28 140 21:41 05.05.2020
3517 Clear 34 1015 9 0 1.07 118 21:22 05.05.2020
3518 Clear 34 1015 9 0 1.07 118 20:59 05.05.2020
3519 Clear 34 1015 9 0 1.07 118 20:40 05.05.2020
3520 Clear 34 1016 10 0 1.05 66 20:20 05.05.2020
3521 Clear 34 1016 10 0 1.05 66 19:59 05.05.2020
3522 Clear 34 1016 10 0 1.05 66 19:59 05.05.2020
3523 Clear 34 1016 10 0 1.05 66 19:40 05.05.2020
3524 Clear 34 1016 10 0 1.05 66 19:40 05.05.2020
3525 Clear 32 1016 10 0 1.47 53 19:21 05.05.2020
3526 Clear 32 1016 10 0 1.47 53 18:57 05.05.2020
3527 Clear 32 1016 10 0 1.47 53 18:57 05.05.2020
3528 Clear 32 1016 10 0 1.47 53 18:39 05.05.2020
3529 Clear 31 1016 11 0 1.55 49 18:19 05.05.2020
3530 Clear 22 1016 15 0 1.55 49 17:56 05.05.2020
3531 Clear 20 1016 17 0 1.55 49 17:38 05.05.2020
3532 Clear 20 1016 17 0 1.55 49 17:38 05.05.2020
3533 Clear 18 1016 21 0 1.29 41 17:20 05.05.2020
3534 Clear 30 1016 11 0 1.29 41 16:39 05.05.2020
3535 Clear 27 1017 14 0 0.98 37 16:20 05.05.2020
3536 Clear 27 1017 14 0 0.98 37 15:59 05.05.2020
3537 Clear 27 1017 14 0 0.98 37 15:39 05.05.2020
3538 Clear 25 1016 16 0 0.9 31 15:21 05.05.2020
3539 Clear 25 1016 16 0 0.9 31 14:55 05.05.2020
3540 Clear 25 1016 16 0 0.9 31 14:55 05.05.2020
3541 Clear 25 1016 16 0 0.9 31 14:37 05.05.2020
3542 Clear 25 1016 16 0 0.82 29 14:19 05.05.2020
3543 Clear 25 1016 16 0 0.82 29 13:56 05.05.2020
3544 Clear 25 1016 16 0 0.82 29 13:38 05.05.2020
3545 Clear 26 1016 16 0 0.86 5 13:18 05.05.2020
3546 Clear 26 1016 16 0 0.86 5 12:56 05.05.2020
3547 Clear 26 1016 16 0 0.86 5 12:37 05.05.2020
3548 Clear 26 1015 16 0 0.83 353 12:19 05.05.2020
3549 Clear 26 1015 16 0 0.83 353 11:41 05.05.2020
3550 Clear 27 1015 15 0 0.77 338 11:20 05.05.2020
3551 Clear 27 1015 15 0 0.77 338 10:56 05.05.2020
3552 Clear 27 1015 15 0 0.77 338 10:38 05.05.2020
3553 Clear 27 1016 15 0 0.45 317 10:19 05.05.2020
3554 Clear 27 1016 15 0 0.45 317 09:55 05.05.2020
3555 Clear 27 1016 15 0 0.45 317 09:37 05.05.2020
3556 Clear 28 1016 15 0 0.28 315 09:18 05.05.2020
3557 Clear 28 1016 15 0 0.28 315 08:41 05.05.2020
3558 Clouds 28 1016 14 0 0.42 343 08:19 05.05.2020
3559 Clouds 28 1016 14 0 0.42 343 07:56 05.05.2020
3560 Clouds 28 1016 14 0 0.42 343 07:38 05.05.2020
3561 Clouds 29 1016 14 0 0.61 42 07:18 05.05.2020
3562 Clouds 29 1016 14 0 0.61 42 06:40 05.05.2020
3563 Clouds 30 1015 13 0 1.47 1 06:20 05.05.2020
3564 Clouds 18 1014 12 0 0.45 88 05:30 05.05.2020
3565 Clouds 33 1015 10 0 2.78 344 03:19 05.05.2020
3566 Clear 34 1015 10 0 2.92 337 01:23 05.05.2020
3567 Clear 34 1015 10 0 2.92 337 00:49 05.05.2020
3568 Clear 33 1015 10 0 3.19 336 00:19 05.05.2020
3569 Clear 33 1015 10 0 3.19 336 23:43 04.05.2020
3570 Clear 33 1016 11 0 3.95 341 23:21 04.05.2020
3571 Clear 33 1016 11 0 3.95 341 22:56 04.05.2020
3572 Clear 33 1016 11 0 3.95 341 22:37 04.05.2020
3573 Clear 32 1016 11 0 4.93 345 22:19 04.05.2020
3574 Clear 32 1016 11 0 4.93 345 21:52 04.05.2020
3575 Clear 32 1016 11 0 4.93 345 21:52 04.05.2020
3576 Clear 32 1016 11 0 4.93 345 21:52 04.05.2020
3577 Clear 32 1016 11 0 4.93 345 21:52 04.05.2020
3578 Clear 32 1016 11 0 4.93 345 21:52 04.05.2020
3579 Clear 32 1016 11 0 4.44 347 21:30 04.05.2020
3580 Clear 32 1016 11 0 4.44 347 21:30 04.05.2020
3581 Clear 32 1016 11 0 4.93 345 21:30 04.05.2020
3582 Clear 32 1016 11 0 4.93 345 21:29 04.05.2020
3583 Clear 32 1016 11 0 4.44 347 21:29 04.05.2020
3584 Clear 31 1017 11 0 5.01 350 20:44 04.05.2020
3585 Clear 30 1018 13 0 5.33 357 20:23 04.05.2020
3586 Clear 30 1018 12 0 5.33 357 20:23 04.05.2020
3587 Clear 30 1018 13 0 5.33 357 19:59 04.05.2020
3588 Clear 30 1018 13 0 5.33 357 19:40 04.05.2020
3589 Clear 29 1018 13 0 5.94 360 19:20 04.05.2020
3590 Clear 21 1016 14 0 2.68 331 18:55 04.05.2020
3591 Clear 21 1016 14 0 2.24 350 18:37 04.05.2020
3592 Clear 19 1016 15 0 2.24 329 18:18 04.05.2020
3593 Clear 18 1015 17 0 3.13 345 17:55 04.05.2020
3594 Clear 18 1015 17 0 3.13 345 17:55 04.05.2020
3595 Clear 17 1015 17 0 4.47 341 17:36 04.05.2020
3596 Clear 16 1015 21 0 1.79 346 17:18 04.05.2020
3597 Clear 13 1015 23 0 2.24 350 16:42 04.05.2020
3598 Clear 13 1015 23 0 2.24 350 16:42 04.05.2020
3599 Clear 13 1015 24 0 2.68 280 16:21 04.05.2020
3600 Clear 25 1017 17 0 3.78 345 15:46 04.05.2020
3601 Clear 24 1017 18 0 3.87 344 15:25 04.05.2020
3602 Clear 24 1017 18 0 3.87 344 15:25 04.05.2020
3603 Clear 24 1017 18 0 3.87 344 14:57 04.05.2020
3604 Clear 24 1017 18 0 3.87 344 14:57 04.05.2020
3605 Clear 24 1017 18 0 3.87 344 14:38 04.05.2020
3606 Clear 24 1017 18 0 3.87 344 14:38 04.05.2020
3607 Clear 24 1017 18 0 3.87 344 14:38 04.05.2020
3608 Clear 24 1017 18 0 3.87 344 14:38 04.05.2020
3609 Clear 24 1017 18 0 3.87 344 14:38 04.05.2020
3610 Clouds 12 1013 26 0 1.79 314 13:46 04.05.2020
3611 Clouds 12 1013 26 0 1.79 314 13:46 04.05.2020
3612 Clouds 12 1013 26 0 1.79 314 13:46 04.05.2020
3613 Clouds 12 1013 26 0 1.79 314 13:46 04.05.2020
3614 Clouds 12 1012 28 0 4.47 326 12:48 04.05.2020
3615 Clouds 12 1012 28 0 4.47 326 12:48 04.05.2020
3616 Clouds 12 1012 28 0 4.47 326 12:48 04.05.2020
3617 Clouds 12 1012 28 0 4.47 326 12:48 04.05.2020
3618 Clear 26 1015 17 0 2.97 14 12:21 04.05.2020
3619 Clear 26 1015 17 0 2.97 14 12:21 04.05.2020
3620 Clear 26 1015 17 0 2.97 14 12:21 04.05.2020
3621 Clear 27 1015 16 0 2.14 46 09:33 04.05.2020
3622 Clear 29 1014 16 0 2.07 22 08:57 04.05.2020
3623 Clear 29 1014 16 0 2.07 22 08:57 04.05.2020
3624 Clear 29 1014 16 0 2.07 22 08:57 04.05.2020
3625 Clear 17 1011 20 0 0.45 308 07:47 04.05.2020
3626 Clear 17 1011 20 0 0.45 308 07:47 04.05.2020
3627 Clear 17 1011 20 0 0.45 308 07:47 04.05.2020
3628 Clear 18 1010 16 0 1.34 316 07:24 04.05.2020
3629 Clear 22 1007 13 0 1.34 306 04:55 04.05.2020
3630 Clouds 28 1007 12 0 1.79 14 03:20 04.05.2020
3631 Clouds 28 1007 12 0 1.79 14 03:20 04.05.2020
3632 Clouds 28 1007 10 0 1.34 266 02:31 04.05.2020
3633 Clouds 34 1009 10 0 2.3 179 00:38 04.05.2020
3634 Clouds 34 1009 11 0 2.97 171 23:46 03.05.2020
3635 Clouds 33 1010 12 0 2.93 169 23:25 03.05.2020
3636 Clouds 33 1010 12 0 2.93 169 22:57 03.05.2020
3637 Clouds 33 1010 12 0 2.93 169 22:39 03.05.2020
3638 Clouds 32 1011 15 0 2.73 176 22:21 03.05.2020
3639 Clouds 32 1011 15 0 2.73 176 21:41 03.05.2020
3640 Clouds 31 1013 15 0 2 163 21:21 03.05.2020
3641 Clouds 31 1013 15 0 2 163 20:47 03.05.2020
3642 Clouds 30 1014 17 0 2.37 161 20:23 03.05.2020
3643 Clouds 30 1014 17 0 2.37 161 19:56 03.05.2020
3644 Clouds 30 1014 17 0 2.37 161 19:38 03.05.2020
3645 Clouds 29 1013 19 0 1.99 161 19:18 03.05.2020
3646 Clouds 22 1011 19 0 2.24 352 18:39 03.05.2020
3647 Clouds 21 1011 16 0 1.34 287 18:20 03.05.2020
3648 Clouds 21 1011 16 0 1.34 287 18:20 03.05.2020
3649 Clouds 19 1011 20 0 1.79 328 17:56 03.05.2020
3650 Clouds 19 1011 20 0 1.79 328 17:56 03.05.2020
3651 Clouds 19 1011 20 0 0.89 286 17:38 03.05.2020
3652 Clouds 19 1011 22 0 0.89 325 17:20 03.05.2020
3653 Clouds 16 1011 23 0 0.45 285 16:44 03.05.2020
3654 Clouds 15 1011 25 0 0.45 277 16:19 03.05.2020
3655 Clouds 15 1010 24 0 0.89 286 15:58 03.05.2020
3656 Clouds 14 1010 23 0 1.79 281 15:39 03.05.2020
3657 Clouds 14 1010 23 0 1.79 281 15:39 03.05.2020
3658 Clear 14 1010 24 0 0.89 277 15:20 03.05.2020
3659 Clear 14 1010 24 0 1.34 310 14:57 03.05.2020
3660 Clear 14 1009 23 0 2.68 320 14:38 03.05.2020
3661 Clear 13 1009 27 0 0.89 270 14:19 03.05.2020
3662 Clear 25 1013 25 0 1.19 132 13:39 03.05.2020
3663 Clear 25 1013 25 0 1.19 132 13:39 03.05.2020
3664 Clear 25 1013 25 0 1.19 132 13:39 03.05.2020
3665 Clear 25 1013 25 0 1.19 132 13:39 03.05.2020
3666 Clear 26 1012 24 0 1.44 143 12:58 03.05.2020
3667 Clear 26 1012 24 0 1.44 143 12:58 03.05.2020
3668 Clear 26 1012 24 0 1.44 143 12:58 03.05.2020
3669 Clear 26 1012 24 0 1.44 143 12:58 03.05.2020
3670 Clear 26 1012 24 0 1.44 143 12:58 03.05.2020
3671 Clear 26 1012 24 0 1.44 143 12:38 03.05.2020
3672 Clear 26 1012 22 0 2.09 155 11:58 03.05.2020
3673 Clear 26 1012 22 0 2.09 155 11:40 03.05.2020
3674 Clear 27 1012 21 0 2.54 162 11:21 03.05.2020
3675 Clear 27 1012 21 0 2.54 162 10:59 03.05.2020
3676 Clear 27 1012 21 0 2.54 162 10:39 03.05.2020
3677 Clear 27 1012 21 0 2.54 162 10:39 03.05.2020
3678 Clear 27 1012 21 0 2.54 162 10:39 03.05.2020
3679 Clear 27 1012 21 0 2.54 162 10:38 03.05.2020
3680 Clear 27 1012 21 0 2.54 162 10:38 03.05.2020
3681 Clear 28 1012 20 0 2.69 169 09:45 03.05.2020
3682 Clear 29 1012 18 0 3.17 172 09:26 03.05.2020
3683 Clouds 29 1012 16 0 3.52 172 09:26 03.05.2020
3684 Clouds 29 1012 16 0 3.52 172 08:36 03.05.2020
3685 Clouds 30 1012 14 0 3.47 179 08:00 03.05.2020
3686 Clouds 30 1012 14 0 3.47 179 07:38 03.05.2020
3687 Clouds 32 1010 12 0 3.83 169 06:18 03.05.2020
3688 Clouds 32 1010 12 0 3.83 169 05:44 03.05.2020
3689 Clouds 22 1008 17 0 1.34 248 04:29 03.05.2020
3690 Clear 23 1007 19 0 2.68 233 03:58 03.05.2020
3691 Clear 23 1007 19 0 2.68 233 03:58 03.05.2020
3692 Clear 26 1007 16 0 2.24 195 02:47 03.05.2020
3693 Clear 26 1007 14 0 1.79 222 02:22 03.05.2020
3694 Clear 27 1007 14 0 3.13 143 01:42 03.05.2020
3695 Clear 26 1007 15 0 4.02 194 01:24 03.05.2020
3696 Clear 27 1007 16 0 2.24 181 00:41 03.05.2020
3697 Clear 26 1007 16 0 3.13 162 00:21 03.05.2020
3698 Clear 26 1008 14 0 2.24 178 23:56 02.05.2020
3699 Clear 26 1008 15 0 3.13 253 23:38 02.05.2020
3700 Clear 34 1011 12 0 3.6 168 23:19 02.05.2020
3701 Clear 34 1011 12 0 3.6 168 22:42 02.05.2020
3702 Clear 33 1011 14 0 3.6 163 22:23 02.05.2020
3703 Clear 33 1011 14 0 3.6 163 21:56 02.05.2020
3704 Clear 33 1011 13 0 3.74 164 21:37 02.05.2020
3705 Clear 32 1012 15 0 3.53 166 21:18 02.05.2020
3706 Clear 32 1012 15 0 3.32 162 20:55 02.05.2020
3707 Clear 32 1012 15 0 3.32 162 20:37 02.05.2020
3708 Clear 31 1013 16 0 2.93 164 20:18 02.05.2020
3709 Clear 31 1013 16 0 2.93 164 19:55 02.05.2020
3710 Clear 31 1013 16 0 2.93 164 19:37 02.05.2020
3711 Clear 23 1009 20 0 0.45 268 19:18 02.05.2020
3712 Clear 21 1009 26 0 1.79 274 18:40 02.05.2020
3713 Clear 20 1009 27 0 0.89 338 18:22 02.05.2020
3714 Clear 18 1009 29 0 1.79 299 17:57 02.05.2020
3715 Clear 18 1009 29 0 2.68 251 17:39 02.05.2020
3716 Clear 17 1009 31 0 1.34 319 17:20 02.05.2020
3717 Clear 17 1009 32 0 2.24 341 16:58 02.05.2020
3718 Clear 16 1009 32 0 1.79 340 16:39 02.05.2020
3719 Clear 16 1008 32 0 1.34 263 16:21 02.05.2020
3720 Clear 14 1007 34 0 2.68 360 15:42 02.05.2020
3721 Clear 14 1007 32 0 3.13 45 15:20 02.05.2020
3722 Clear 14 1007 32 0 3.13 324 14:57 02.05.2020
3723 Clear 14 1007 32 0 2.68 9 14:39 02.05.2020
3724 Clear 14 1006 33 0 1.79 345 14:20 02.05.2020
3725 Clear 14 1006 33 0 1.79 345 14:20 02.05.2020
3726 Clear 15 1007 34 0 3.58 301 13:40 02.05.2020
3727 Clear 15 1006 34 0 2.24 250 13:22 02.05.2020
3728 Clear 15 1006 34 0 4.92 341 12:44 02.05.2020
3729 Clear 27 1010 22 0 1.96 169 12:25 02.05.2020
3730 Clear 27 1010 22 0 1.96 169 11:59 02.05.2020
3731 Clear 27 1010 22 0 1.96 169 11:41 02.05.2020
3732 Clear 28 1010 21 0 2.39 168 11:22 02.05.2020
3733 Clear 28 1010 21 0 2.39 168 10:58 02.05.2020
3734 Clear 28 1010 21 0 2.39 168 10:38 02.05.2020
3735 Clear 28 1010 20 0 1.73 156 10:20 02.05.2020
3736 Clear 28 1010 20 0 1.73 156 10:20 02.05.2020
3737 Clear 28 1010 20 0 1.73 156 09:57 02.05.2020
3738 Clear 28 1010 20 0 1.73 156 09:38 02.05.2020
3739 Clear 30 1010 18 0 2.86 165 09:20 02.05.2020
3740 Clear 30 1010 18 0 2.86 165 09:20 02.05.2020
3741 Clear 30 1010 18 0 2.86 165 08:49 02.05.2020
3742 Clear 30 1010 18 0 2.86 165 08:30 02.05.2020
3743 Clear 31 1010 16 0 3.52 171 07:48 02.05.2020
3744 Clear 31 1010 15 0 3.36 166 07:29 02.05.2020
3745 Clear 31 1010 15 0 3.36 166 06:52 02.05.2020
3746 Clear 32 1009 14 0 3.14 155 06:18 02.05.2020
3747 Clear 21 1004 30 0 2.24 159 05:27 02.05.2020
3748 Clear 24 1004 21 0 0.89 112 04:25 02.05.2020
3749 Clear 27 1004 16 0 2.24 214 03:34 02.05.2020
3750 Clouds 35 1007 11 0 2.67 155 02:39 02.05.2020
3751 Clouds 36 1007 11 0 3.44 172 01:51 02.05.2020
3752 Clouds 36 1007 13 0 3.57 169 00:58 02.05.2020
3753 Clouds 36 1007 13 0 3.57 169 00:39 02.05.2020
3754 Clouds 35 1008 15 0 3.58 168 00:18 02.05.2020
3755 Clouds 35 1008 15 0 3.58 168 00:18 02.05.2020
3756 Clouds 35 1008 15 0 3.58 168 23:40 01.05.2020
3757 Clouds 34 1008 16 0 3.24 169 23:20 01.05.2020
3758 Clouds 34 1008 16 0 3.24 169 22:58 01.05.2020
3759 Clouds 34 1008 16 0 3.24 169 22:38 01.05.2020
3760 Clouds 34 1009 17 0 3.1 166 22:19 01.05.2020
3761 Clouds 34 1009 17 0 3.1 166 21:57 01.05.2020
3762 Clouds 34 1009 17 0 3.1 166 21:38 01.05.2020
3763 Clouds 32 1010 17 0 3.34 160 21:18 01.05.2020
3764 Clouds 26 1006 25 0 2.68 67 20:56 01.05.2020
3765 Clouds 32 1010 17 0 3.34 160 20:37 01.05.2020
3766 Clear 32 1011 18 0 3.03 158 20:19 01.05.2020
3767 Clear 32 1011 18 0 3.03 158 19:42 01.05.2020
3768 Clear 30 1011 20 0 2.91 163 19:23 01.05.2020
3769 Clear 30 1011 20 0 2.91 163 18:59 01.05.2020
3770 Clear 30 1011 20 0 2.91 163 18:59 01.05.2020
3771 Clear 24 1005 29 0 1.34 50 18:40 01.05.2020
3772 Clear 29 1010 22 0 2.99 160 18:21 01.05.2020
3773 Clear 23 1006 32 0 1.34 45 17:59 01.05.2020
3774 Clear 22 1006 34 0 0.89 50 17:39 01.05.2020
3775 Clear 20 1006 35 0 0.89 40 17:21 01.05.2020
3776 Clear 17 1006 34 0 2.67 156 16:57 01.05.2020
3777 Clear 29 1010 23 0 2.67 156 16:38 01.05.2020
3778 Clear 28 1010 25 0 2.17 158 16:20 01.05.2020
3779 Clear 28 1010 25 0 2.17 158 15:56 01.05.2020
3780 Clear 28 1010 25 0 2.17 158 15:38 01.05.2020
3781 Clear 27 1009 27 0 1.86 157 15:18 01.05.2020
3782 Clear 27 1009 27 0 1.86 157 14:42 01.05.2020
3783 Clear 28 1009 26 0 1.58 146 14:23 01.05.2020
3784 Clear 28 1010 26 0 1.5 159 13:42 01.05.2020
3785 Clear 28 1010 26 0 1.5 159 13:42 01.05.2020
3786 Clear 16 1004 28 0 1.44 145 13:23 01.05.2020
3787 Clear 17 1004 25 0 0.45 327 12:59 01.05.2020
3788 Clear 16 1004 26 0 1.34 13 12:40 01.05.2020
3789 Clear 29 1009 25 0 1.28 117 12:20 01.05.2020
3790 Clear 29 1009 25 0 1.28 117 11:59 01.05.2020
3791 Clear 29 1009 25 0 1.28 117 11:41 01.05.2020
3792 Clear 30 1009 24 0 1.79 140 11:19 01.05.2020
3793 Clear 19 1005 26 0 0.45 282 10:54 01.05.2020
3794 Clear 18 1004 26 0 0.45 279 10:36 01.05.2020
3795 Clear 19 1005 25 0 0.89 277 10:18 01.05.2020
3796 Clear 19 1005 26 0 2.24 257 09:41 01.05.2020
3797 Clouds 32 1009 20 0 3.68 166 09:19 01.05.2020
3798 Clouds 32 1009 20 0 3.68 166 08:46 01.05.2020
3799 Clouds 32 1009 20 0 3.68 166 08:46 01.05.2020
3800 Clouds 33 1009 18 0 3.6 181 08:28 01.05.2020
3801 Clouds 33 1009 18 0 3.6 181 07:59 01.05.2020
3802 Clouds 33 1009 18 0 3.6 181 07:39 01.05.2020
3803 Clouds 34 1009 16 0 4.27 174 07:20 01.05.2020
3804 Clouds 34 1009 16 0 4.27 174 06:30 01.05.2020
3805 Clear 36 1007 14 0 4.26 167 05:26 01.05.2020
3806 Clear 29 1003 21 0 1.79 113 03:45 01.05.2020
3807 Clear 38 1006 13 0 3.3 147 02:57 01.05.2020
3808 Clear 38 1006 13 0 3.3 147 02:38 01.05.2020
3809 Clear 38 1007 13 0 1.91 148 01:54 01.05.2020
3810 Clear 38 1007 13 0 2.12 150 01:27 01.05.2020
3811 Clear 38 1007 13 0 2.12 150 00:41 01.05.2020
3812 Clear 38 1007 13 0 2.12 150 00:41 01.05.2020
3813 Clear 38 1007 14 0 2.31 155 00:22 01.05.2020
3814 Clear 38 1007 14 0 2.31 155 23:57 30.04.2020
3815 Clear 38 1007 14 0 2.31 155 23:39 30.04.2020
3816 Clear 38 1008 16 0 2.81 162 23:21 30.04.2020
3817 Clear 38 1008 16 0 2.81 162 22:59 30.04.2020
3818 Clear 38 1008 16 0 2.81 162 22:40 30.04.2020
3819 Clear 37 1009 18 0 2.93 163 22:19 30.04.2020
3820 Clear 30 1006 28 0 2.24 67 21:55 30.04.2020
3821 Clear 29 1007 29 0 2.24 36 21:36 30.04.2020
3822 Clear 36 1010 21 0 2.81 169 21:18 30.04.2020
3823 Clear 28 1007 31 0 2.24 29 20:41 30.04.2020
3824 Clouds 35 1011 23 0 2.95 170 20:19 30.04.2020
3825 Clouds 35 1011 23 0 2.95 170 20:19 30.04.2020
3826 Clouds 35 1011 23 0 2.95 170 19:47 30.04.2020
3827 Clouds 34 1011 25 0 2.85 160 19:27 30.04.2020
3828 Clouds 26 1007 31 0 0.89 56 18:59 30.04.2020
3829 Clouds 26 1007 34 0 0.89 65 18:39 30.04.2020
3830 Clouds 24 1007 36 0 1.34 97 18:21 30.04.2020
3831 Clouds 20 1007 43 0 0.89 22 17:59 30.04.2020
3832 Clouds 33 1011 27 0 1.98 166 17:40 30.04.2020
3833 Clouds 32 1011 28 0 2.94 176 17:21 30.04.2020
3834 Clouds 32 1011 28 0 2.94 176 16:57 30.04.2020
3835 Clouds 32 1011 28 0 2.94 176 16:39 30.04.2020
3836 Clouds 31 1011 29 0 3.17 184 16:19 30.04.2020
3837 Clouds 31 1011 29 0 3.17 184 15:48 30.04.2020
3838 Clouds 30 1010 29 0 3.48 177 15:25 30.04.2020
3839 Clouds 30 1010 29 0 3.48 177 14:59 30.04.2020
3840 Clouds 30 1010 29 0 3.48 177 14:40 30.04.2020
3841 Clouds 31 1010 29 0 3.35 178 14:19 30.04.2020
3842 Clouds 31 1010 29 0 3.35 178 13:56 30.04.2020
3843 Clouds 17 1007 51 0 3.35 178 13:38 30.04.2020
3844 Clouds 17 1007 50 0 0.45 33 13:20 30.04.2020
3845 Clouds 17 1007 44 0 3.9 177 12:41 30.04.2020
3846 Clouds 32 1010 23 0 3.7 179 12:21 30.04.2020
3847 Clouds 32 1010 23 0 3.7 179 11:59 30.04.2020
3848 Clouds 32 1010 23 0 3.7 179 11:38 30.04.2020
3849 Clouds 33 1010 20 0 3.78 179 11:18 30.04.2020
3850 Clouds 33 1010 20 0 3.78 179 11:18 30.04.2020
3851 Clouds 33 1010 20 0 3.78 179 10:55 30.04.2020
3852 Clouds 33 1010 20 0 3.78 179 10:37 30.04.2020
3853 Clouds 33 1010 20 0 3.96 174 10:18 30.04.2020
3854 Clouds 33 1010 20 0 3.96 174 09:43 30.04.2020
3855 Clouds 34 1011 19 0 4.05 178 09:23 30.04.2020
3856 Clouds 34 1011 19 0 4.05 178 08:54 30.04.2020
3857 Clouds 34 1011 19 0 4.05 178 08:36 30.04.2020
3858 Clouds 34 1011 18 0 4.1 184 08:18 30.04.2020
3859 Clouds 34 1011 18 0 4.1 184 07:42 30.04.2020
3860 Clouds 21 1009 37 0 0.45 156 07:23 30.04.2020
3861 Clouds 22 1009 31 0 0.89 124 06:40 30.04.2020
3862 Clouds 23 1009 32 0 3.91 210 05:49 30.04.2020
3863 Clouds 24 1008 32 0 1.79 152 05:28 30.04.2020
3864 Clouds 25 1008 27 0 0.45 154 04:32 30.04.2020
3865 Clouds 27 1009 21 0 2.68 177 03:52 30.04.2020
3866 Clouds 27 1008 22 0 3.58 183 02:43 30.04.2020
3867 Clouds 27 1008 22 0 4.92 234 02:23 30.04.2020
3868 Clouds 28 1008 18 0 3.13 216 01:35 30.04.2020
3869 Clouds 29 1009 16 0 4.47 256 00:42 30.04.2020
3870 Clouds 29 1009 18 0 3.13 202 00:19 30.04.2020
3871 Clouds 30 1010 17 0 4.92 179 23:56 29.04.2020
3872 Clouds 30 1010 17 0 4.92 202 23:36 29.04.2020
3873 Clouds 31 1010 15 0 3.58 233 23:18 29.04.2020
3874 Clouds 30 1010 15 0 4.47 160 22:40 29.04.2020
3875 Clouds 29 1010 16 0 2.24 135 22:21 29.04.2020
3876 Clouds 29 1011 16 0 4.02 181 21:57 29.04.2020
3877 Clouds 30 1011 17 0 2.68 131 21:37 29.04.2020
3878 Clear 29 1011 16 0 3.13 234 21:18 29.04.2020
3879 Clear 29 1012 16 0 3.58 227 20:55 29.04.2020
3880 Clear 29 1012 18 0 3.58 220 20:36 29.04.2020
3881 Clouds 29 1012 18 0 1.79 150 20:18 29.04.2020
3882 Clouds 29 1012 19 0 2.24 169 19:42 29.04.2020
3883 Clouds 28 1011 19 0 3.13 243 19:20 29.04.2020
3884 Clouds 29 1012 23 0 1.34 108 18:43 29.04.2020
3885 Clouds 37 1014 12 0 2.04 158 18:25 29.04.2020
3886 Clouds 26 1012 27 0 0.45 98 17:59 29.04.2020
3887 Clouds 25 1012 30 0 0.45 66 17:41 29.04.2020
3888 Clouds 23 1012 32 0 1.12 155 17:21 29.04.2020
3889 Clouds 36 1014 13 0 1.12 155 16:39 29.04.2020
3890 Clouds 32 1014 19 0 0.62 170 16:20 29.04.2020
3891 Clouds 32 1014 19 0 0.62 170 15:58 29.04.2020
3892 Clouds 32 1014 19 0 0.62 170 15:40 29.04.2020
3893 Clear 30 1014 19 0 0.64 152 15:21 29.04.2020
3894 Clear 30 1014 19 0 0.64 152 14:59 29.04.2020
3895 Clear 30 1014 19 0 0.64 152 14:41 29.04.2020
3896 Clear 30 1014 19 0 0.6 180 14:22 29.04.2020
3897 Clear 30 1014 19 0 0.51 177 13:55 29.04.2020
3898 Clear 30 1014 19 0 0.51 177 13:37 29.04.2020
3899 Clear 31 1014 19 0 0.66 210 13:18 29.04.2020
3900 Clear 31 1014 19 0 0.66 210 12:40 29.04.2020
3901 Clear 31 1014 19 0 0.51 190 12:19 29.04.2020
3902 Clear 31 1014 19 0 0.51 190 11:58 29.04.2020
3903 Clear 31 1014 19 0 0.51 190 11:58 29.04.2020
3904 Clear 31 1014 19 0 0.51 190 11:36 29.04.2020
3905 Clear 32 1014 18 0 0.39 205 11:18 29.04.2020
3906 Clear 32 1014 18 0 0.39 205 10:38 29.04.2020
3907 Clear 32 1015 18 0 0.37 229 10:20 29.04.2020
3908 Clear 32 1015 18 0 0.37 229 09:59 29.04.2020
3909 Clear 32 1015 18 0 0.37 229 09:40 29.04.2020
3910 Clear 33 1015 18 0 0.51 202 09:19 29.04.2020
3911 Clear 33 1015 18 0 0.51 202 08:43 29.04.2020
3912 Clear 34 1015 18 0 0.64 212 08:25 29.04.2020
3913 Clear 34 1015 18 0 0.64 212 07:51 29.04.2020
3914 Clear 34 1015 17 0 0.89 234 07:27 29.04.2020
3915 Clear 34 1015 17 0 0.89 234 06:52 29.04.2020
3916 Clear 34 1015 17 0 0.89 234 06:32 29.04.2020
3917 Clear 35 1015 17 0 0.99 236 05:42 29.04.2020
3918 Clear 36 1014 15 0 0.68 221 05:18 29.04.2020
3919 Clear 27 1011 22 0 0.89 220 04:19 29.04.2020
3920 Clear 38 1013 11 0 0.44 88 02:56 29.04.2020
3921 Clear 38 1013 11 0 0.71 36 01:54 29.04.2020
3922 Clear 38 1014 11 0 1.2 18 01:28 29.04.2020
3923 Clear 38 1014 11 0 1.2 18 00:55 29.04.2020
3924 Clear 38 1014 11 0 1.2 18 00:36 29.04.2020
3925 Clear 38 1014 11 0 1.7 18 00:18 29.04.2020
3926 Clear 38 1014 11 0 1.7 18 23:43 28.04.2020
3927 Clear 37 1015 12 0 2.09 16 23:20 28.04.2020
3928 Clear 37 1015 12 0 2.09 16 22:38 28.04.2020
3929 Clear 37 1016 12 0 2.5 13 22:20 28.04.2020
3930 Clear 37 1016 12 0 2.5 13 21:59 28.04.2020
3931 Clear 37 1016 12 0 2.63 12 21:40 28.04.2020
3932 Clear 36 1017 13 0 3.18 10 21:21 28.04.2020
3933 Clear 36 1017 13 0 3.18 10 20:58 28.04.2020
3934 Clear 36 1017 13 0 3.18 10 20:40 28.04.2020
3935 Clear 35 1017 14 0 3.21 8 20:20 28.04.2020
3936 Clear 35 1017 14 0 3.21 8 19:56 28.04.2020
3937 Clear 28 1014 20 0 1.34 50 19:37 28.04.2020
3938 Clear 27 1015 22 0 0.89 71 19:19 28.04.2020
3939 Clear 26 1014 23 0 0.89 312 18:42 28.04.2020
3940 Clear 25 1014 24 0 1.34 308 18:20 28.04.2020
3941 Clear 23 1014 25 0 0.89 290 17:59 28.04.2020
3942 Clear 22 1014 27 0 1.79 337 17:37 28.04.2020
3943 Clear 22 1014 27 0 1.79 337 17:37 28.04.2020
3944 Clear 21 1014 27 0 1.79 323 17:19 28.04.2020
3945 Clear 20 1014 29 0 2.24 322 16:56 28.04.2020
3946 Clear 19 1014 29 0 3.58 328 16:38 28.04.2020
3947 Clear 19 1014 30 0 2.68 351 16:20 28.04.2020
3948 Clear 17 1013 32 0 1.34 328 15:55 28.04.2020
3949 Clear 17 1013 32 0 2.24 333 15:37 28.04.2020
3950 Clear 17 1013 32 0 2.68 343 15:18 28.04.2020
3951 Clear 17 1013 33 0 1.34 339 14:43 28.04.2020
3952 Clear 18 1013 33 0 1.79 314 14:22 28.04.2020
3953 Clear 17 1013 35 0 1.79 347 13:59 28.04.2020
3954 Clear 17 1013 35 0 1.34 349 13:40 28.04.2020
3955 Clouds 17 1013 36 0 0.89 326 13:22 28.04.2020
3956 Clouds 30 1015 19 0 1.81 349 12:58 28.04.2020
3957 Clouds 30 1015 19 0 1.81 349 12:39 28.04.2020
3958 Clouds 30 1015 19 0 1.77 335 12:21 28.04.2020
3959 Clouds 30 1015 19 0 1.77 335 11:42 28.04.2020
3960 Clouds 30 1015 20 0 1.16 348 11:21 28.04.2020
3961 Clouds 30 1015 20 0 1.16 348 10:57 28.04.2020
3962 Clouds 30 1015 20 0 1.16 348 10:38 28.04.2020
3963 Clouds 30 1015 20 0 1.16 348 10:38 28.04.2020
3964 Clouds 31 1015 20 0 0.61 6 10:18 28.04.2020
3965 Clouds 31 1015 20 0 0.61 6 09:43 28.04.2020
3966 Clouds 32 1015 20 0 0.19 204 09:25 28.04.2020
3967 Clouds 32 1014 19 0 0.83 223 08:57 28.04.2020
3968 Clouds 32 1014 19 0 0.83 223 08:38 28.04.2020
3969 Clouds 32 1014 18 0 0.96 218 08:20 28.04.2020
3970 Clouds 32 1014 18 0 0.96 218 07:42 28.04.2020
3971 Clouds 33 1013 18 0 1.1 210 07:18 28.04.2020
3972 Clouds 33 1013 18 0 1.1 210 06:41 28.04.2020
3973 Clouds 33 1013 17 0 1.43 200 05:52 28.04.2020
3974 Clouds 33 1013 17 0 1.43 200 05:34 28.04.2020
3975 Clear 24 1010 22 0 0.89 147 04:35 28.04.2020
3976 Clear 36 1012 10 0 0.87 140 02:39 28.04.2020
3977 Clouds 36 1011 10 0 0.78 113 01:53 28.04.2020
3978 Clouds 36 1012 11 0 0.72 89 01:22 28.04.2020
3979 Clouds 36 1012 11 0 0.72 89 00:45 28.04.2020
3980 Clouds 36 1012 12 0 0.7 67 00:18 28.04.2020
3981 Clouds 36 1012 12 0 0.7 67 23:43 27.04.2020
3982 Clouds 35 1013 13 0 0.63 84 23:21 27.04.2020
3983 Clouds 35 1012 14 0 0.62 106 22:43 27.04.2020
3984 Clouds 35 1013 13 0 0.63 84 22:43 27.04.2020
3985 Clear 34 1013 16 0 0.52 81 22:23 27.04.2020
3986 Clear 34 1013 16 0 0.52 81 22:23 27.04.2020
3987 Clear 34 1013 16 0 0.52 81 21:58 27.04.2020
3988 Clear 34 1013 16 0 0.52 81 21:39 27.04.2020
3989 Clear 33 1014 18 0 0.68 95 21:20 27.04.2020
3990 Clear 26 1012 19 0 0.89 278 20:59 27.04.2020
3991 Clear 26 1012 18 0 1.34 260 20:40 27.04.2020
3992 Clear 25 1012 20 0 0.89 345 20:21 27.04.2020
3993 Clear 24 1012 21 0 0.89 260 19:57 27.04.2020
3994 Clear 24 1012 20 0 0.89 262 19:38 27.04.2020
3995 Clear 24 1012 20 0 0.45 271 19:19 27.04.2020
3996 Clear 24 1012 20 0 0.45 271 19:19 27.04.2020
3997 Clear 23 1012 20 0 1.34 211 18:56 27.04.2020
3998 Clear 23 1012 21 0 0.89 304 18:37 27.04.2020
3999 Clear 23 1011 21 0 0.89 337 18:18 27.04.2020
4000 Clear 23 1011 21 0 0.89 337 18:18 27.04.2020
4001 Clear 20 1011 26 0 2.68 344 17:41 27.04.2020
4002 Clear 19 1011 26 0 2.24 306 17:20 27.04.2020
4003 Clear 18 1011 29 0 1.34 286 16:56 27.04.2020
4004 Clear 17 1011 29 0 2.68 334 16:38 27.04.2020
4005 Clear 16 1011 31 0 2.24 302 16:20 27.04.2020
4006 Clear 15 1011 33 0 3.13 305 15:56 27.04.2020
4007 Clear 15 1010 33 0 2.68 337 15:37 27.04.2020
4008 Clear 15 1010 33 0 2.24 324 15:18 27.04.2020
4009 Clear 14 1010 34 0 2.24 320 14:41 27.04.2020
4010 Clear 14 1010 35 0 1.79 326 14:20 27.04.2020
4011 Clear 16 1010 32 0 1.34 308 13:57 27.04.2020
4012 Clear 16 1010 30 0 2.24 329 13:39 27.04.2020
4013 Clear 16 1010 30 0 2.24 329 13:39 27.04.2020
4014 Clear 16 1010 31 0 1.34 256 13:19 27.04.2020
4015 Clear 16 1010 31 0 2.24 335 12:43 27.04.2020
4016 Clear 16 1010 32 0 1.34 282 12:23 27.04.2020
4017 Clear 28 1012 24 0 1.64 246 11:59 27.04.2020
4018 Clear 28 1012 24 0 1.64 246 11:40 27.04.2020
4019 Clear 28 1012 24 0 1.64 246 11:19 27.04.2020
4020 Clear 28 1012 24 0 1.64 246 10:56 27.04.2020
4021 Clear 28 1012 24 0 1.64 246 10:37 27.04.2020
4022 Clear 28 1012 24 0 1.64 246 10:19 27.04.2020
4023 Clear 28 1012 24 0 1.64 246 09:43 27.04.2020
4024 Clouds 30 1012 19 0 1.69 240 09:18 27.04.2020
4025 Clouds 30 1012 19 0 1.69 240 08:53 27.04.2020
4026 Clouds 30 1012 19 0 1.69 240 08:34 27.04.2020
4027 Clouds 30 1012 19 0 1.69 240 07:58 27.04.2020
4028 Clouds 30 1012 19 0 1.69 240 07:40 27.04.2020
4029 Clouds 30 1012 19 0 1.69 240 07:19 27.04.2020
4030 Clouds 30 1012 19 0 1.69 240 06:40 27.04.2020
4031 Clouds 34 1010 14 0 1.56 159 06:21 27.04.2020
4032 Clouds 34 1010 14 0 1.56 159 05:49 27.04.2020
4033 Clouds 23 1008 32 0 0.89 125 04:41 27.04.2020
4034 Clouds 24 1008 27 0 1.79 143 03:49 27.04.2020
4035 Clouds 25 1008 21 0 1.34 109 02:41 27.04.2020
4036 Clouds 27 1009 17 0 1.79 224 01:31 27.04.2020
4037 Clouds 27 1009 13 0 2.24 181 00:47 27.04.2020
4038 Clouds 28 1009 13 0 2.24 163 00:19 27.04.2020
4039 Clouds 35 1011 13 0 1.26 158 23:55 26.04.2020
4040 Clouds 35 1011 13 0 1.26 158 23:37 26.04.2020
4041 Clouds 35 1011 13 0 1.26 158 23:18 26.04.2020
4042 Clouds 35 1011 13 0 1.26 158 22:56 26.04.2020
4043 Clouds 28 1010 21 0 1.79 73 22:37 26.04.2020
4044 Clouds 35 1011 13 0 1.26 158 22:19 26.04.2020
4045 Clouds 35 1011 13 0 1.26 158 21:56 26.04.2020
4046 Clouds 35 1011 13 0 0.59 172 21:37 26.04.2020
4047 Clouds 33 1013 19 0 0.64 173 21:18 26.04.2020
4048 Clouds 33 1013 19 0 0.64 173 20:39 26.04.2020
4049 Clouds 33 1013 19 0 0.64 173 20:20 26.04.2020
4050 Clouds 24 1011 20 0 0.45 106 19:59 26.04.2020
4051 Clouds 24 1011 18 0 0.89 255 19:38 26.04.2020
4052 Clouds 23 1011 20 0 0.45 308 19:20 26.04.2020
4053 Clouds 22 1011 22 0 1.34 215 18:54 26.04.2020
4054 Clouds 21 1011 22 0 0.89 281 18:36 26.04.2020
4055 Clouds 21 1011 24 0 0.45 293 18:18 26.04.2020
4056 Clouds 18 1011 29 0 1.23 241 17:40 26.04.2020
4057 Clouds 17 1011 31 0 0.45 306 17:22 26.04.2020
4058 Clouds 16 1011 29 0 0.45 326 16:55 26.04.2020
4059 Clouds 30 1014 29 0 1.23 241 16:36 26.04.2020
4060 Clouds 30 1014 29 0 1.23 241 16:18 26.04.2020
4061 Clouds 30 1014 29 0 1.23 241 15:54 26.04.2020
4062 Clouds 30 1014 29 0 1.23 241 15:36 26.04.2020
4063 Clouds 27 1012 36 0 2.49 244 15:18 26.04.2020
4064 Clouds 27 1012 36 0 2.49 244 15:18 26.04.2020
4065 Clouds 27 1012 36 0 2.49 244 14:40 26.04.2020
4066 Clouds 27 1012 36 0 2.57 249 14:19 26.04.2020
4067 Clouds 27 1012 36 0 2.57 249 13:58 26.04.2020
4068 Clouds 27 1012 36 0 2.57 249 13:38 26.04.2020
4069 Clouds 27 1012 36 0 2.57 249 13:20 26.04.2020
4070 Clouds 27 1012 36 0 2.57 249 12:55 26.04.2020
4071 Clouds 27 1012 36 0 2.57 249 12:36 26.04.2020
4072 Clouds 30 1013 28 0 2.92 230 12:18 26.04.2020
4073 Clouds 30 1013 28 0 2.92 230 11:43 26.04.2020
4074 Clouds 30 1013 28 0 2.92 230 11:23 26.04.2020
4075 Clouds 30 1013 28 0 2.92 230 10:59 26.04.2020
4076 Clouds 30 1013 28 0 2.92 230 10:59 26.04.2020
4077 Clouds 30 1013 28 0 2.92 230 10:41 26.04.2020
4078 Clouds 17 1011 36 0 2.92 230 10:23 26.04.2020
4079 Clouds 18 1011 32 0 2.24 239 09:57 26.04.2020
4080 Clouds 18 1011 32 0 0.45 233 09:37 26.04.2020
4081 Clouds 18 1011 30 0 0.45 148 09:18 26.04.2020
4082 Clouds 19 1011 29 0 2.69 206 08:41 26.04.2020
4083 Clouds 19 1011 29 0 2.69 206 08:41 26.04.2020
4084 Clouds 19 1010 27 0 1.79 252 08:22 26.04.2020
4085 Clouds 18 1011 30 0 2.24 220 07:48 26.04.2020
4086 Clouds 19 1011 26 0 0.89 206 07:23 26.04.2020
4087 Clouds 20 1011 19 0 2.24 136 06:47 26.04.2020
4088 Clouds 21 1011 16 0 1.79 221 06:23 26.04.2020
4089 Clouds 35 1013 14 0 2.5 173 05:49 26.04.2020
4090 Clouds 35 1013 14 0 2.5 173 05:30 26.04.2020
4091 Clouds 23 1010 32 0 1.79 214 04:37 26.04.2020
4092 Clouds 25 1010 25 0 2.68 249 03:39 26.04.2020
4093 Clouds 27 1011 23 0 4.02 278 02:37 26.04.2020
4094 Clouds 27 1011 22 0 4.47 204 02:19 26.04.2020
4095 Clouds 27 1011 22 0 4.02 212 01:36 26.04.2020
4096 Clouds 27 1011 20 0 3.13 203 00:41 26.04.2020
4097 Clouds 28 1012 21 0 1.79 202 00:21 26.04.2020
4098 Clouds 28 1012 21 0 1.79 202 00:21 26.04.2020
4099 Clouds 27 1012 20 0 3.13 260 23:56 25.04.2020
4100 Clouds 27 1012 21 0 1.79 222 23:37 25.04.2020
4101 Clouds 27 1012 22 0 1.79 135 23:18 25.04.2020
4102 Clouds 28 1013 20 0 3.58 212 22:42 25.04.2020
4103 Clouds 35 1015 11 0 2.23 138 22:21 25.04.2020
4104 Clouds 35 1015 11 0 2.23 138 21:58 25.04.2020
4105 Clouds 35 1015 11 0 2.43 140 21:39 25.04.2020
4106 Clear 33 1017 13 0 1.99 93 21:19 25.04.2020
4107 Clear 33 1017 13 0 1.99 93 20:54 25.04.2020
4108 Clear 33 1017 13 0 1.99 93 20:36 25.04.2020
4109 Clear 33 1017 13 0 1.99 93 20:18 25.04.2020
4110 Clear 33 1017 13 0 1.99 93 19:40 25.04.2020
4111 Clear 26 1015 25 0 1.79 63 19:22 25.04.2020
4112 Clear 25 1015 26 0 1.34 62 18:57 25.04.2020
4113 Clear 24 1015 29 0 0.89 61 18:38 25.04.2020
4114 Clouds 30 1018 16 0 1.63 21 18:19 25.04.2020
4115 Clouds 22 1015 32 0 0.45 81 17:55 25.04.2020
4116 Clouds 20 1015 37 0 1.63 21 17:37 25.04.2020
4117 Clouds 18 1015 42 0 1.63 21 17:18 25.04.2020
4118 Clouds 30 1018 16 0 1.63 21 16:48 25.04.2020
4119 Clouds 30 1018 16 0 1.63 21 16:28 25.04.2020
4120 Clouds 30 1018 16 0 1.63 21 15:58 25.04.2020
4121 Clouds 30 1018 16 0 1.63 21 15:39 25.04.2020
4122 Clouds 27 1015 21 0 1.02 28 15:19 25.04.2020
4123 Clouds 14 1013 51 0 0.89 336 14:58 25.04.2020
4124 Clouds 14 1013 50 0 0.45 335 14:38 25.04.2020
4125 Clouds 14 1013 51 0 1.34 340 14:19 25.04.2020
4126 Clouds 27 1016 22 0 1.02 23 13:43 25.04.2020
4127 Clouds 27 1016 22 0 1.02 23 13:19 25.04.2020
4128 Clouds 27 1016 22 0 1.02 23 12:58 25.04.2020
4129 Clouds 27 1016 22 0 1.02 23 12:39 25.04.2020
4130 Clouds 28 1016 20 0 1.31 349 12:20 25.04.2020
4131 Clouds 28 1016 20 0 1.31 349 11:56 25.04.2020
4132 Clouds 28 1016 20 0 1.31 349 11:38 25.04.2020
4133 Clouds 28 1016 20 0 1.31 349 11:20 25.04.2020
4134 Clouds 28 1016 20 0 1.31 349 10:43 25.04.2020
4135 Clouds 28 1016 20 0 1.31 349 10:23 25.04.2020
4136 Clouds 28 1016 20 0 1.31 349 09:48 25.04.2020
4137 Clouds 30 1015 18 0 0.79 323 09:29 25.04.2020
4138 Clouds 30 1015 18 0 0.86 298 08:58 25.04.2020
4139 Clouds 30 1015 18 0 0.86 298 08:40 25.04.2020
4140 Clouds 30 1015 18 0 0.86 298 08:21 25.04.2020
4141 Clouds 30 1015 18 0 0.86 298 07:58 25.04.2020
4142 Clouds 30 1015 18 0 0.86 298 07:39 25.04.2020
4143 Clear 30 1015 19 0 0.63 307 06:48 25.04.2020
4144 Clouds 30 1015 18 0 0.86 298 06:30 25.04.2020
4145 Clear 32 1014 15 0 0.43 168 05:40 25.04.2020
4146 Clouds 20 1011 37 0 0.3 151 05:19 25.04.2020
4147 Clouds 34 1014 11 0 0.45 15 02:59 25.04.2020
4148 Clouds 34 1014 11 0 0.45 15 02:21 25.04.2020
4149 Clouds 34 1014 11 0 0.45 15 01:54 25.04.2020
4150 Clouds 34 1014 11 0 0.45 15 01:34 25.04.2020
4151 Clouds 34 1014 11 0 0.45 15 00:58 25.04.2020
4152 Clouds 34 1014 11 0 0.45 15 00:34 25.04.2020
4153 Clear 33 1016 12 0 1.72 17 23:55 24.04.2020
4154 Clear 33 1016 12 0 1.72 17 23:36 24.04.2020
4155 Clear 33 1016 12 0 1.72 17 23:18 24.04.2020
4156 Clear 33 1016 12 0 1.72 17 22:40 24.04.2020
4157 Clear 33 1016 12 0 1.72 17 22:19 24.04.2020
4158 Clear 33 1016 12 0 1.72 17 21:57 24.04.2020
4159 Clear 32 1016 12 0 1.62 29 21:38 24.04.2020
4160 Clear 30 1018 14 0 2.95 26 21:20 24.04.2020
4161 Clear 30 1018 14 0 2.95 26 20:56 24.04.2020
4162 Clear 30 1018 14 0 2.95 26 20:38 24.04.2020
4163 Clear 30 1018 14 0 2.95 26 20:18 24.04.2020
4164 Clear 30 1018 14 0 2.95 26 19:43 24.04.2020
4165 Clear 30 1018 14 0 2.95 26 19:24 24.04.2020
4166 Clear 23 1015 22 0 1.34 86 18:46 24.04.2020
4167 Clear 21 1014 22 0 0.89 294 18:28 24.04.2020
4168 Clear 19 1015 24 0 0.89 282 17:59 24.04.2020
4169 Clear 18 1014 27 0 0.89 306 17:39 24.04.2020
4170 Clear 18 1014 27 0 0.89 306 17:20 24.04.2020
4171 Clear 16 1014 30 0 1.34 338 16:58 24.04.2020
4172 Clear 16 1015 28 0 2.24 321 16:40 24.04.2020
4173 Clear 16 1015 28 0 2.24 321 16:40 24.04.2020
4174 Clear 15 1015 29 0 1.79 332 16:21 24.04.2020
4175 Clear 14 1014 30 0 1.34 339 15:55 24.04.2020
4176 Clear 14 1014 29 0 0.89 304 15:37 24.04.2020
4177 Clear 14 1014 29 0 0.89 304 15:37 24.04.2020
4178 Clear 14 1014 28 0 1.79 327 15:18 24.04.2020
4179 Clear 14 1014 29 0 2.24 277 14:40 24.04.2020
4180 Clear 13 1013 29 0 3.58 341 14:20 24.04.2020
4181 Clear 13 1013 30 0 3.13 347 13:55 24.04.2020
4182 Clear 14 1013 30 0 2.24 355 13:36 24.04.2020
4183 Clear 14 1013 29 0 3.13 324 13:18 24.04.2020
4184 Clear 14 1013 34 0 2.71 354 12:41 24.04.2020
4185 Clear 27 1016 19 0 2.75 353 12:21 24.04.2020
4186 Clear 14 1013 32 0 0.89 315 11:57 24.04.2020
4187 Clear 14 1013 32 0 1.34 328 11:37 24.04.2020
4188 Clear 14 1014 32 0 1.34 347 11:19 24.04.2020
4189 Clear 15 1013 31 0 1.79 327 10:54 24.04.2020
4190 Clear 16 1014 31 0 0.89 298 10:36 24.04.2020
4191 Clear 16 1013 31 0 0.89 312 10:18 24.04.2020
4192 Clear 17 1013 31 0 1.34 327 09:44 24.04.2020
4193 Clear 18 1013 29 0 2.24 335 09:24 24.04.2020
4194 Clear 19 1013 23 0 3.58 2 08:55 24.04.2020
4195 Clear 19 1013 24 0 4.47 326 08:37 24.04.2020
4196 Clear 19 1013 24 0 4.02 347 08:18 24.04.2020
4197 Clear 18 1012 32 0 2.68 328 07:44 24.04.2020
4198 Clear 18 1012 33 0 1.79 350 07:26 24.04.2020
4199 Clear 17 1012 42 0 0.89 356 06:50 24.04.2020
4200 Clear 18 1012 42 0 0.45 354 06:31 24.04.2020
4201 Clear 19 1011 39 0 0.89 347 05:42 24.04.2020
4202 Clear 19 1011 39 0 0.89 347 05:42 24.04.2020
4203 Clear 24 1010 30 0 1.34 26 04:25 24.04.2020
4204 Clouds 33 1012 15 0 1.37 26 02:58 24.04.2020
4205 Clouds 33 1012 15 0 1.37 26 02:38 24.04.2020
4206 Clouds 33 1012 17 0 0.78 12 01:58 24.04.2020
4207 Clouds 33 1012 17 0 0.78 12 01:18 24.04.2020
4208 Clouds 27 1011 23 0 0.45 216 00:36 24.04.2020
4209 Clouds 32 1015 19 0 1.6 14 00:18 24.04.2020
4210 Clouds 32 1015 19 0 1.6 14 23:42 23.04.2020
4211 Clouds 32 1015 19 0 1.6 14 23:23 23.04.2020
4212 Clouds 32 1015 19 0 1.6 14 22:55 23.04.2020
4213 Clouds 32 1015 19 0 1.6 14 22:36 23.04.2020
4214 Clouds 32 1015 19 0 1.6 14 22:18 23.04.2020
4215 Clouds 32 1015 19 0 1.6 14 21:55 23.04.2020
4216 Clouds 32 1015 19 0 2.51 0 21:37 23.04.2020
4217 Clear 30 1018 23 0 3.1 15 21:19 23.04.2020
4218 Clear 30 1018 23 0 3.1 15 20:41 23.04.2020
4219 Clear 30 1018 23 0 3.1 15 20:22 23.04.2020
4220 Clear 22 1015 31 0 3.1 15 19:59 23.04.2020
4221 Clear 22 1015 27 0 0.89 285 19:40 23.04.2020
4222 Clear 22 1015 25 0 2.24 274 19:21 23.04.2020
4223 Clear 30 1018 23 0 3.1 15 18:57 23.04.2020
4224 Clear 30 1018 23 0 3.1 15 18:38 23.04.2020
4225 Clear 27 1017 29 0 1.14 29 18:20 23.04.2020
4226 Clear 21 1016 35 0 0.89 302 17:55 23.04.2020
4227 Clear 20 1016 33 0 1.34 353 17:37 23.04.2020
4228 Clear 19 1016 35 0 1.79 337 17:19 23.04.2020
4229 Clear 17 1016 37 0 1.34 336 16:43 23.04.2020
4230 Clear 17 1016 39 0 1.79 1 16:20 23.04.2020
4231 Clear 15 1015 42 0 1.34 1 15:43 23.04.2020
4232 Clear 16 1015 41 0 1.34 307 15:23 23.04.2020
4233 Clear 15 1015 43 0 1.79 349 14:59 23.04.2020
4234 Clear 15 1015 42 0 1.34 333 14:39 23.04.2020
4235 Clear 16 1015 41 0 2.68 307 14:21 23.04.2020
4236 Clear 16 1015 42 0 0.89 287 13:58 23.04.2020
4237 Clear 15 1015 43 0 0.45 297 13:38 23.04.2020
4238 Clear 16 1015 43 0 0.45 302 13:20 23.04.2020
4239 Clear 14 1015 46 0 0.45 295 12:56 23.04.2020
4240 Clear 25 1017 31 0 0.49 19 12:38 23.04.2020
4241 Clouds 27 1017 26 0 0.87 297 12:19 23.04.2020
4242 Clouds 27 1017 26 0 0.87 297 11:46 23.04.2020
4243 Clouds 27 1017 26 0 0.87 297 11:27 23.04.2020
4244 Clouds 27 1017 26 0 0.87 297 10:57 23.04.2020
4245 Clouds 27 1017 26 0 0.87 297 10:39 23.04.2020
4246 Clouds 27 1017 26 0 0.87 297 10:19 23.04.2020
4247 Clouds 27 1017 26 0 0.81 328 09:38 23.04.2020
4248 Clear 29 1018 21 0 1.06 281 09:18 23.04.2020
4249 Clear 29 1018 21 0 1.06 281 08:47 23.04.2020
4250 Clear 29 1018 21 0 1.06 281 08:29 23.04.2020
4251 Clear 29 1018 21 0 1.06 281 07:56 23.04.2020
4252 Clear 29 1018 21 0 1.06 281 07:38 23.04.2020
4253 Clear 29 1018 21 0 1.06 281 07:18 23.04.2020
4254 Clear 29 1018 21 0 1.06 281 06:43 23.04.2020
4255 Clear 31 1017 17 0 2.1 192 05:39 23.04.2020
4256 Clear 31 1017 17 0 2.1 192 05:21 23.04.2020
4257 Clear 24 1015 24 0 2.68 245 02:52 23.04.2020
4258 Clear 24 1016 23 0 1.34 226 02:23 23.04.2020
4259 Clear 26 1016 22 0 1.79 208 01:38 23.04.2020
4260 Clear 26 1017 20 0 1.34 239 00:55 23.04.2020
4261 Clear 25 1017 18 0 1.79 216 00:27 23.04.2020
4262 Clear 32 1018 14 0 1.21 291 23:58 22.04.2020
4263 Clear 24 1018 16 0 0.89 233 23:40 22.04.2020
4264 Clear 24 1017 21 0 0.45 117 23:19 22.04.2020
4265 Clear 32 1018 14 0 1.21 291 22:40 22.04.2020
4266 Clear 24 1018 22 0 0.45 127 22:20 22.04.2020
4267 Clear 32 1018 14 0 1.21 291 21:59 22.04.2020
4268 Clear 23 1019 27 0 0.45 35 21:41 22.04.2020
4269 Clear 29 1020 15 0 1.7 346 21:22 22.04.2020
4270 Clear 21 1020 27 0 0.45 199 20:59 22.04.2020
4271 Clear 21 1020 27 0 1.34 270 20:41 22.04.2020
4272 Clear 20 1020 29 0 0.89 221 20:19 22.04.2020
4273 Clear 20 1020 29 0 0.89 274 19:57 22.04.2020
4274 Clear 20 1020 29 0 1.79 252 19:38 22.04.2020
4275 Clear 21 1020 31 0 0.89 263 19:18 22.04.2020
4276 Clear 19 1020 30 0 0.89 254 18:57 22.04.2020
4277 Clear 19 1020 30 0 0.89 254 18:57 22.04.2020
4278 Clear 19 1020 30 0 0.89 254 18:57 22.04.2020
4279 Clear 19 1020 31 0 1.79 347 18:39 22.04.2020
4280 Clear 18 1021 33 0 0.45 257 18:20 22.04.2020
4281 Clear 17 1020 37 0 0.89 304 17:43 22.04.2020
4282 Clear 16 1021 37 0 2.24 326 17:25 22.04.2020
4283 Clear 14 1021 41 0 1.79 298 16:58 22.04.2020
4284 Clear 14 1021 41 0 1.79 298 16:58 22.04.2020
4285 Clear 13 1021 44 0 1.34 324 16:40 22.04.2020
4286 Clear 12 1020 43 0 2.24 326 16:21 22.04.2020
4287 Clear 11 1020 45 0 2.68 316 15:41 22.04.2020
4288 Clouds 11 1020 45 0 2.68 335 15:22 22.04.2020
4289 Clouds 11 1020 46 0 3.13 347 14:58 22.04.2020
4290 Clouds 11 1020 46 0 2.68 322 14:38 22.04.2020
4291 Clouds 11 1020 45 0 2.24 320 14:20 22.04.2020
4292 Clouds 12 1020 45 0 2.24 341 13:55 22.04.2020
4293 Clouds 12 1020 45 0 2.24 309 13:36 22.04.2020
4294 Clouds 12 1020 46 0 2.24 317 13:18 22.04.2020
4295 Clouds 12 1019 52 0 2.68 338 12:39 22.04.2020
4296 Clear 25 1019 29 0 2.44 301 12:21 22.04.2020
4297 Clear 25 1019 29 0 2.44 301 11:40 22.04.2020
4298 Clear 25 1019 29 0 2.44 301 11:22 22.04.2020
4299 Clear 25 1019 29 0 2.44 301 10:59 22.04.2020
4300 Clear 25 1019 29 0 2.44 301 10:39 22.04.2020
4301 Clear 25 1019 29 0 2.44 301 10:20 22.04.2020
4302 Clear 25 1019 29 0 2.44 301 09:39 22.04.2020
4303 Clouds 27 1018 26 0 1.95 304 09:21 22.04.2020
4304 Clouds 27 1018 26 0 1.95 304 08:58 22.04.2020
4305 Clouds 27 1018 26 0 1.95 304 08:40 22.04.2020
4306 Clouds 27 1018 26 0 1.95 304 08:22 22.04.2020
4307 Clouds 27 1018 26 0 1.95 304 07:53 22.04.2020
4308 Clouds 27 1018 26 0 1.95 304 07:28 22.04.2020
4309 Clouds 27 1018 26 0 1.95 304 06:53 22.04.2020
4310 Clouds 27 1018 26 0 1.95 304 06:53 22.04.2020
4311 Clouds 29 1015 21 0 0.88 5 06:21 22.04.2020
4312 Clouds 29 1015 21 0 0.88 5 05:37 22.04.2020
4313 Clouds 17 1015 38 0 1.34 360 04:30 22.04.2020
4314 Clouds 22 1015 29 0 0.45 244 02:51 22.04.2020
4315 Clear 22 1015 32 0 0.89 77 01:53 22.04.2020
4316 Clear 21 1015 34 0 1.34 100 01:27 22.04.2020
4317 Clear 21 1015 34 0 0.89 80 00:59 22.04.2020
4318 Clear 21 1015 34 0 0.89 14 00:41 22.04.2020
4319 Clear 21 1015 35 0 0.45 87 00:19 22.04.2020
4320 Clear 28 1014 19 0 1.96 332 23:43 21.04.2020
4321 Clear 28 1014 19 0 1.96 332 23:20 21.04.2020
4322 Clear 28 1014 19 0 1.96 332 22:41 21.04.2020
4323 Clear 28 1014 19 0 1.96 332 22:22 21.04.2020
4324 Clear 28 1014 19 0 1.96 332 21:59 21.04.2020
4325 Clear 28 1014 19 0 1.96 332 21:59 21.04.2020
4326 Clear 28 1014 19 0 1.96 332 21:59 21.04.2020
4327 Clear 20 1016 39 0 1.34 50 21:41 21.04.2020
4328 Clouds 25 1017 29 0 1.6 335 21:23 21.04.2020
4329 Clouds 19 1017 38 0 3.58 343 20:57 21.04.2020
4330 Clouds 19 1017 39 0 2.68 330 20:39 21.04.2020
4331 Clouds 18 1017 38 0 3.13 357 20:21 21.04.2020
4332 Clouds 18 1016 51 0 1.34 26 19:41 21.04.2020
4333 Clouds 17 1016 49 0 1.79 18 19:20 21.04.2020
4334 Clouds 16 1016 51 0 2.24 18 18:59 21.04.2020
4335 Clouds 16 1016 51 0 2.24 18 18:59 21.04.2020
4336 Clouds 16 1016 52 0 1.79 31 18:39 21.04.2020
4337 Rain 14 1016 60 0 1.34 20 18:19 21.04.2020
4338 Clouds 13 1016 59 0 1.79 326 17:59 21.04.2020
4339 Clouds 12 1016 64 0 1.34 322 17:39 21.04.2020
4340 Clouds 11 1015 66 0 0.89 305 17:19 21.04.2020
4341 Clouds 9 1015 74 0 1.34 257 16:39 21.04.2020
4342 Rain 8 1015 77 0 1.79 338 16:20 21.04.2020
4343 Rain 7 1015 77 0 2.68 337 15:59 21.04.2020
4344 Rain 7 1015 81 0 2.68 341 15:41 21.04.2020
4345 Rain 7 1015 80 0 2.68 335 15:23 21.04.2020
4346 Rain 7 1014 81 0 4.02 339 14:58 21.04.2020
4347 Rain 7 1014 83 0 3.58 351 14:40 21.04.2020
4348 Rain 7 1014 82 0 5.81 10 14:22 21.04.2020
4349 Rain 9 1014 78 0 0.89 16 13:54 21.04.2020
4350 Rain 9 1013 74 0 0.89 359 13:36 21.04.2020
4351 Rain 8 1013 75 0 2.68 327 13:18 21.04.2020
4352 Rain 9 1013 74 0 1.34 275 12:38 21.04.2020
4353 Rain 9 1013 71 0 1.34 340 12:19 21.04.2020
4354 Rain 9 1012 72 0 0.89 337 11:57 21.04.2020
4355 Rain 9 1012 71 0 1.34 312 11:38 21.04.2020
4356 Rain 9 1012 71 0 1.79 310 11:19 21.04.2020
4357 Rain 9 1013 73 0 0.89 328 10:58 21.04.2020
4358 Rain 10 1013 67 0 1.34 349 10:39 21.04.2020
4359 Rain 10 1013 72 0 0.89 342 10:20 21.04.2020
4360 Rain 9 1013 74 0 0.89 344 09:55 21.04.2020
4361 Rain 9 1013 77 0 1.34 358 09:36 21.04.2020
4362 Rain 9 1013 77 0 1.34 358 09:36 21.04.2020
4363 Rain 23 1013 35 0 0.79 300 09:18 21.04.2020
4364 Rain 23 1013 35 0 0.79 300 08:42 21.04.2020
4365 Rain 23 1013 35 0 0.79 300 08:23 21.04.2020
4366 Rain 23 1013 35 0 0.79 300 07:49 21.04.2020
4367 Rain 23 1013 35 0 0.79 300 07:26 21.04.2020
4368 Rain 23 1013 35 0 0.79 300 06:50 21.04.2020
4369 Rain 23 1013 35 0 0.79 300 06:31 21.04.2020
4370 Clouds 25 1011 29 0 1.57 273 05:49 21.04.2020
4371 Clouds 11 1012 70 0 1.79 325 04:54 21.04.2020
4372 Clouds 13 1011 51 0 2.24 25 03:45 21.04.2020
4373 Clouds 13 1011 51 0 2.24 25 03:45 21.04.2020
4374 Rain 14 1011 49 0 1.34 45 02:40 21.04.2020
4375 Rain 15 1011 50 0 1.79 45 01:30 21.04.2020
4376 Rain 16 1011 46 0 2.24 29 00:38 21.04.2020
4377 Clouds 17 1012 36 0 0.89 91 23:55 20.04.2020
4378 Clouds 18 1012 34 0 0.89 150 23:37 20.04.2020
4379 Clouds 20 1012 33 0 0.89 110 23:19 20.04.2020
4380 Clouds 17 1013 36 0 0.45 349 22:54 20.04.2020
4381 Clouds 14 1013 44 0 0.89 344 22:36 20.04.2020
4382 Clouds 13 1013 43 0 3.58 231 22:18 20.04.2020
4383 Clouds 14 1013 42 0 2.68 227 21:54 20.04.2020
4384 Clear 17 1013 37 0 0.45 45 21:36 20.04.2020
4385 Clear 18 1013 37 0 1.79 60 21:18 20.04.2020
4386 Clear 25 1014 29 0 2.07 134 20:40 20.04.2020
4387 Clear 25 1014 29 0 2.07 134 20:19 20.04.2020
4388 Clear 25 1014 29 0 2.07 134 19:59 20.04.2020
4389 Clear 18 1013 37 0 0.45 35 19:40 20.04.2020
4390 Clear 18 1013 38 0 0.89 32 19:20 20.04.2020
4391 Clear 17 1013 37 0 0.89 100 18:55 20.04.2020
4392 Clear 17 1013 39 0 0.45 355 18:37 20.04.2020
4393 Clear 15 1013 39 0 1.8 126 18:19 20.04.2020
4394 Clear 14 1014 42 0 0.89 331 17:43 20.04.2020
4395 Clear 13 1013 42 0 0.89 309 17:23 20.04.2020
4396 Clear 12 1014 46 0 1.34 347 16:59 20.04.2020
4397 Clear 11 1013 48 0 0.89 324 16:41 20.04.2020
4398 Clear 9 1013 49 0 1.79 340 16:19 20.04.2020
4399 Clear 21 1014 37 0 1.8 126 15:55 20.04.2020
4400 Clear 21 1014 37 0 1.8 126 15:37 20.04.2020
4401 Clouds 8 1013 51 0 2.24 335 15:19 20.04.2020
4402 Clouds 8 1013 53 0 2.24 324 14:41 20.04.2020
4403 Clouds 8 1012 53 0 1.79 322 14:19 20.04.2020
4404 Clouds 8 1012 55 0 0.89 302 13:58 20.04.2020
4405 Clouds 20 1012 39 0 0.66 148 13:38 20.04.2020
4406 Clouds 20 1012 39 0 0.66 148 13:20 20.04.2020
4407 Clouds 9 1012 52 0 0.89 324 12:44 20.04.2020
4408 Clouds 9 1012 52 0 0.89 324 12:44 20.04.2020
4409 Clouds 22 1011 35 0 0.74 283 12:23 20.04.2020
4410 Clouds 10 1012 53 0 1.34 316 11:57 20.04.2020
4411 Clouds 11 1012 47 0 2.68 330 11:38 20.04.2020
4412 Clouds 11 1012 46 0 3.58 335 11:18 20.04.2020
4413 Clouds 11 1012 46 0 4.02 8 10:54 20.04.2020
4414 Clouds 11 1012 46 0 4.02 8 10:54 20.04.2020
4415 Clouds 12 1012 49 0 3.13 349 10:36 20.04.2020
4416 Clouds 12 1012 51 0 4.92 344 10:18 20.04.2020
4417 Clouds 11 1013 57 0 0.45 9 09:44 20.04.2020
4418 Clouds 24 1012 29 0 1.91 201 09:25 20.04.2020
4419 Clouds 24 1011 28 0 1.42 193 08:58 20.04.2020
4420 Clouds 24 1011 28 0 1.42 193 08:58 20.04.2020
4421 Clouds 24 1011 28 0 1.42 193 08:40 20.04.2020
4422 Clouds 24 1011 28 0 1.42 193 08:18 20.04.2020
4423 Clouds 24 1011 28 0 1.42 193 07:52 20.04.2020
4424 Clouds 24 1011 28 0 1.42 193 07:28 20.04.2020
4425 Clouds 24 1011 28 0 1.42 193 06:38 20.04.2020
4426 Clouds 26 1009 22 0 1.92 173 06:20 20.04.2020
4427 Clouds 13 1010 56 0 0.45 58 05:22 20.04.2020
4428 Clouds 19 1010 40 0 1.34 10 03:30 20.04.2020
4429 Clouds 21 1010 37 0 1.79 20 02:38 20.04.2020
4430 Clouds 21 1010 39 0 1.34 50 01:31 20.04.2020
4431 Clouds 21 1010 44 0 1.34 50 00:57 20.04.2020
4432 Clouds 20 1011 44 0 2.68 40 00:33 20.04.2020
4433 Clouds 19 1011 48 0 2.24 351 23:55 19.04.2020
4434 Clouds 19 1012 49 0 1.79 40 23:37 19.04.2020
4435 Clouds 19 1012 50 0 2.68 27 23:19 19.04.2020
4436 Clouds 18 1012 52 0 2.24 61 22:39 19.04.2020
4437 Clouds 18 1012 53 0 2.24 56 22:21 19.04.2020
4438 Clouds 17 1013 58 0 2.24 32 21:57 19.04.2020
4439 Clouds 16 1013 58 0 2.68 29 21:38 19.04.2020
4440 Clouds 16 1013 58 0 2.68 62 21:20 19.04.2020
4441 Clouds 17 1014 59 0 2.24 50 20:41 19.04.2020
4442 Clouds 16 1014 60 0 2.24 57 20:21 19.04.2020
4443 Clouds 16 1014 61 0 1.79 74 19:59 19.04.2020
4444 Clouds 16 1014 61 0 1.79 56 19:41 19.04.2020
4445 Clouds 14 1014 66 0 1.34 50 19:22 19.04.2020
4446 Clouds 14 1014 68 0 1.34 40 18:58 19.04.2020
4447 Clouds 14 1014 69 0 1.34 61 18:39 19.04.2020
4448 Clear 12 1014 72 0 0.45 168 18:20 19.04.2020
4449 Clear 9 1014 83 0 1.4 185 17:58 19.04.2020
4450 Clear 9 1014 83 0 1.4 185 17:40 19.04.2020
4451 Clear 8 1014 86 0 0.45 119 17:21 19.04.2020
4452 Clear 21 1013 43 0 1.4 185 16:58 19.04.2020
4453 Clear 21 1013 43 0 1.4 185 16:38 19.04.2020
4454 Clear 21 1013 43 0 1.4 185 16:20 19.04.2020
4455 Clear 21 1013 43 0 1.4 185 15:43 19.04.2020
4456 Clear 20 1012 46 0 1.14 210 15:23 19.04.2020
4457 Clear 20 1012 46 0 1.14 210 14:56 19.04.2020
4458 Clear 20 1013 44 0 1.14 212 14:38 19.04.2020
4459 Clear 20 1013 44 0 1.14 212 14:19 19.04.2020
4460 Clear 20 1013 44 0 1.14 212 13:40 19.04.2020
4461 Clear 20 1013 44 0 1.14 212 13:21 19.04.2020
4462 Clear 20 1013 44 0 1.14 212 12:59 19.04.2020
4463 Clear 20 1013 44 0 1.14 212 12:41 19.04.2020
4464 Clear 22 1012 39 0 1.66 222 12:23 19.04.2020
4465 Clear 22 1012 39 0 1.66 222 12:23 19.04.2020
4466 Clear 22 1012 39 0 1.66 222 11:38 19.04.2020
4467 Clear 22 1012 39 0 1.66 222 11:19 19.04.2020
4468 Clear 22 1012 39 0 1.66 222 10:58 19.04.2020
4469 Clear 22 1012 39 0 1.66 222 10:40 19.04.2020
4470 Clear 22 1012 39 0 1.66 222 10:20 19.04.2020
4471 Clear 22 1012 39 0 1.66 222 09:46 19.04.2020
4472 Clear 24 1012 31 0 2.06 203 09:28 19.04.2020
4473 Clear 24 1012 32 0 1.69 197 08:59 19.04.2020
4474 Clear 24 1012 32 0 1.69 197 08:37 19.04.2020
4475 Clear 24 1012 32 0 1.69 197 08:18 19.04.2020
4476 Clear 24 1012 32 0 1.69 197 07:44 19.04.2020
4477 Clear 24 1012 32 0 1.69 197 07:24 19.04.2020
4478 Clear 24 1012 31 0 2.06 203 06:31 19.04.2020
4479 Clear 25 1010 28 0 0.93 155 05:56 19.04.2020
4480 Clear 25 1010 26 0 0.99 160 04:54 19.04.2020
4481 Clouds 14 1013 63 0 0.89 156 03:19 19.04.2020
4482 Clouds 14 1012 55 0 2.24 210 02:22 19.04.2020
4483 Clouds 18 1013 45 0 1.94 172 01:39 19.04.2020
4484 Clouds 19 1013 43 0 0.89 135 00:50 19.04.2020
4485 Clouds 25 1011 27 0 2.57 166 00:26 19.04.2020
4486 Clouds 19 1013 51 0 1.34 7 23:59 18.04.2020
4487 Clouds 18 1013 53 0 1.79 18 23:39 18.04.2020
4488 Clouds 16 1014 54 0 1.79 31 23:19 18.04.2020
4489 Clouds 25 1011 27 0 2.57 166 22:43 18.04.2020
4490 Clouds 17 1014 61 0 1.34 74 22:23 18.04.2020
4491 Clouds 14 1014 63 0 0.45 10 21:58 18.04.2020
4492 Clouds 14 1014 67 0 0.89 56 21:38 18.04.2020
4493 Clouds 13 1014 58 0 0.45 219 21:20 18.04.2020
4494 Clouds 13 1015 68 0 0.89 258 20:56 18.04.2020
4495 Clouds 12 1015 65 0 1.34 268 20:37 18.04.2020
4496 Clouds 12 1015 65 0 2.68 274 20:18 18.04.2020
4497 Clouds 11 1015 76 0 2.68 250 19:40 18.04.2020
4498 Clouds 11 1015 78 0 2.24 254 19:22 18.04.2020
4499 Clouds 23 1012 35 0 1.47 163 18:39 18.04.2020
4500 Clouds 9 1015 81 0 2.24 254 18:20 18.04.2020
4501 Clouds 9 1014 79 0 1.34 253 17:57 18.04.2020
4502 Clouds 9 1014 85 0 0.89 264 17:39 18.04.2020
4503 Clouds 8 1014 84 0 0.45 274 17:18 18.04.2020
4504 Clouds 20 1012 41 0 1.48 219 16:43 18.04.2020
4505 Clouds 20 1012 41 0 1.48 219 16:22 18.04.2020
4506 Clouds 20 1012 41 0 1.48 219 15:56 18.04.2020
4507 Clouds 20 1012 41 0 1.48 219 15:37 18.04.2020
4508 Clouds 20 1011 42 0 2.05 248 15:19 18.04.2020
4509 Clouds 20 1011 42 0 2.05 248 14:44 18.04.2020
4510 Clouds 20 1011 43 0 1.95 248 14:23 18.04.2020
4511 Clouds 20 1011 43 0 1.95 248 13:44 18.04.2020
4512 Clouds 20 1011 43 0 1.95 248 13:22 18.04.2020
4513 Clouds 20 1011 43 0 1.95 248 12:55 18.04.2020
4514 Clouds 20 1011 43 0 1.95 248 12:36 18.04.2020
4515 Clouds 21 1010 37 0 1.91 255 12:18 18.04.2020
4516 Clouds 21 1010 37 0 1.91 255 11:42 18.04.2020
4517 Clouds 21 1010 37 0 1.91 255 11:22 18.04.2020
4518 Clouds 21 1010 37 0 1.91 255 10:57 18.04.2020
4519 Clouds 21 1010 37 0 1.91 255 10:37 18.04.2020
4520 Clouds 21 1010 37 0 1.91 255 10:18 18.04.2020
4521 Clouds 21 1010 37 0 1.91 255 09:41 18.04.2020
4522 Clouds 21 1010 37 0 1.91 255 09:41 18.04.2020
4523 Clouds 23 1010 31 0 1.85 276 09:23 18.04.2020
4524 Clouds 23 1010 31 0 1.85 276 08:43 18.04.2020
4525 Clouds 23 1010 31 0 1.85 276 08:25 18.04.2020
4526 Clouds 23 1010 31 0 1.85 276 07:54 18.04.2020
4527 Clouds 23 1010 31 0 1.85 276 07:34 18.04.2020
4528 Clouds 23 1010 31 0 1.85 276 06:55 18.04.2020
4529 Clouds 25 1009 25 0 1.94 329 06:25 18.04.2020
4530 Clouds 25 1009 25 0 1.94 329 05:36 18.04.2020
4531 Clouds 25 1009 25 0 1.94 329 04:46 18.04.2020
4532 Clouds 25 1009 25 0 1.94 329 04:25 18.04.2020
4533 Rain 26 1009 21 0 1.63 292 02:47 18.04.2020
4534 Clouds 27 1008 18 0 1.57 275 02:23 18.04.2020
4535 Clouds 27 1008 18 0 1.57 275 01:53 18.04.2020
4536 Clouds 27 1008 18 0 1.57 275 01:33 18.04.2020
4537 Clouds 15 1009 51 0 2.24 258 00:41 18.04.2020
4538 Clouds 16 1009 51 0 1.79 299 00:20 18.04.2020
4539 Clouds 14 1010 50 0 3.58 348 23:55 17.04.2020
4540 Clouds 14 1010 51 0 2.68 303 23:37 17.04.2020
4541 Clouds 14 1010 51 0 3.58 324 23:18 17.04.2020
4542 Clouds 14 1010 50 0 3.58 347 22:54 17.04.2020
4543 Clouds 14 1010 50 0 3.13 339 22:36 17.04.2020
4544 Clouds 13 1010 52 0 2.68 298 22:18 17.04.2020
4545 Clouds 16 1010 43 0 3.58 333 21:41 17.04.2020
4546 Clouds 16 1010 43 0 2.68 343 21:21 17.04.2020
4547 Clouds 17 1010 43 0 2.68 331 20:56 17.04.2020
4548 Clouds 16 1010 44 0 3.13 320 20:37 17.04.2020
4549 Clouds 16 1010 45 0 4.02 348 20:18 17.04.2020
4550 Clouds 14 1010 51 0 3.58 349 19:56 17.04.2020
4551 Clouds 14 1010 52 0 3.13 331 19:38 17.04.2020
4552 Clouds 14 1010 51 0 3.58 341 19:20 17.04.2020
4553 Clouds 12 1010 55 0 3.58 340 18:44 17.04.2020
4554 Clouds 12 1010 57 0 4.02 358 18:23 17.04.2020
4555 Clouds 11 1010 59 0 4.47 323 17:55 17.04.2020
4556 Clouds 11 1010 59 0 3.58 326 17:36 17.04.2020
4557 Clouds 11 1009 61 0 4.02 346 17:18 17.04.2020
4558 Clouds 10 1009 65 0 4.02 309 16:41 17.04.2020
4559 Clouds 9 1009 66 0 5.81 347 16:22 17.04.2020
4560 Clouds 8 1009 69 0 4.02 305 15:41 17.04.2020
4561 Clouds 23 1010 31 0 1.18 333 15:23 17.04.2020
4562 Clouds 23 1010 31 0 1.18 333 14:56 17.04.2020
4563 Clouds 23 1010 33 0 1.33 321 14:37 17.04.2020
4564 Clouds 23 1010 33 0 1.33 321 14:37 17.04.2020
4565 Clouds 23 1010 33 0 1.33 321 14:19 17.04.2020
4566 Clouds 9 1009 71 0 4.02 346 13:41 17.04.2020
4567 Clouds 9 1009 70 0 4.47 329 13:22 17.04.2020
4568 Clouds 9 1009 70 0 3.58 325 12:59 17.04.2020
4569 Clouds 9 1009 72 0 2.24 320 12:41 17.04.2020
4570 Clouds 24 1010 31 0 1.23 281 12:22 17.04.2020
4571 Clouds 24 1010 31 0 1.23 281 11:40 17.04.2020
4572 Clouds 24 1010 31 0 1.23 281 11:19 17.04.2020
4573 Clouds 24 1010 31 0 1.23 281 10:55 17.04.2020
4574 Clouds 24 1010 31 0 1.23 281 10:37 17.04.2020
4575 Clouds 24 1010 31 0 1.23 281 10:18 17.04.2020
4576 Clouds 11 1009 64 0 3.13 332 09:40 17.04.2020
4577 Clouds 12 1009 61 0 3.13 319 09:20 17.04.2020
4578 Clouds 13 1009 48 0 1.79 332 08:56 17.04.2020
4579 Clouds 14 1009 48 0 1.79 348 08:38 17.04.2020
4580 Clouds 14 1009 46 0 0.89 349 08:19 17.04.2020
4581 Clouds 14 1009 44 0 1.34 354 07:43 17.04.2020
4582 Clouds 13 1009 49 0 0.45 9 07:21 17.04.2020
4583 Clouds 13 1009 51 0 0.62 357 06:45 17.04.2020
4584 Clouds 14 1009 48 0 0.25 87 06:22 17.04.2020
4585 Clouds 16 1007 39 0 0.45 149 04:46 17.04.2020
4586 Clouds 18 1007 33 0 2.24 126 03:19 17.04.2020
4587 Clouds 20 1007 28 0 0.89 229 01:58 17.04.2020
4588 Clouds 29 1007 19 0 1.42 164 01:27 17.04.2020
4589 Clouds 29 1007 19 0 1.42 164 00:51 17.04.2020
4590 Clouds 28 1009 20 0 1.67 97 00:19 17.04.2020
4591 Clouds 28 1009 20 0 1.67 97 23:42 16.04.2020
4592 Clouds 28 1009 20 0 1.67 97 23:42 16.04.2020
4593 Clouds 28 1009 20 0 1.67 97 23:22 16.04.2020
4594 Clouds 28 1009 20 0 1.67 97 22:57 16.04.2020
4595 Clouds 28 1009 20 0 1.67 97 22:37 16.04.2020
4596 Clouds 28 1009 20 0 1.67 97 22:19 16.04.2020
4597 Clouds 28 1009 20 0 1.67 97 21:43 16.04.2020
4598 Clouds 26 1011 25 0 1.8 98 21:20 16.04.2020
4599 Clouds 26 1011 25 0 1.8 98 20:59 16.04.2020
4600 Clouds 26 1011 25 0 1.8 98 20:40 16.04.2020
4601 Clouds 26 1011 25 0 1.8 98 20:20 16.04.2020
4602 Clouds 26 1011 25 0 1.8 98 19:55 16.04.2020
4603 Clouds 26 1011 25 0 1.8 98 19:37 16.04.2020
4604 Clouds 26 1011 25 0 1.8 98 19:18 16.04.2020
4605 Clouds 18 1010 31 0 0.89 50 18:43 16.04.2020
4606 Clouds 23 1011 30 0 0.79 114 18:25 16.04.2020
4607 Clouds 17 1010 37 0 1.34 355 17:57 16.04.2020
4608 Clouds 16 1010 44 0 0.45 56 17:39 16.04.2020
4609 Clouds 14 1010 51 0 0.45 40 17:20 16.04.2020
4610 Clouds 23 1011 30 0 0.79 114 16:44 16.04.2020
4611 Clouds 23 1011 30 0 0.79 114 16:26 16.04.2020
4612 Clouds 23 1011 30 0 0.79 114 15:55 16.04.2020
4613 Clouds 23 1011 30 0 0.79 114 15:36 16.04.2020
4614 Clouds 21 1009 32 0 0.65 169 15:18 16.04.2020
4615 Clouds 21 1009 32 0 0.65 169 14:45 16.04.2020
4616 Clouds 21 1010 33 0 0.53 158 14:25 16.04.2020
4617 Clouds 21 1010 33 0 0.53 158 13:59 16.04.2020
4618 Clouds 21 1010 33 0 0.53 158 13:40 16.04.2020
4619 Clouds 21 1010 33 0 0.53 158 13:40 16.04.2020
4620 Clouds 21 1010 33 0 0.53 158 13:22 16.04.2020
4621 Clouds 21 1010 33 0 0.53 158 12:58 16.04.2020
4622 Clouds 21 1010 33 0 0.53 158 12:39 16.04.2020
4623 Clouds 23 1011 28 0 0.26 188 12:19 16.04.2020
4624 Clouds 23 1011 28 0 0.26 188 11:57 16.04.2020
4625 Clouds 23 1011 28 0 0.26 188 11:39 16.04.2020
4626 Clouds 23 1011 28 0 0.26 188 11:20 16.04.2020
4627 Clouds 23 1011 28 0 0.26 188 10:55 16.04.2020
4628 Clouds 23 1011 28 0 0.26 188 10:37 16.04.2020
4629 Clouds 23 1011 28 0 0.26 188 10:18 16.04.2020
4630 Clouds 23 1011 28 0 0.26 188 09:39 16.04.2020
4631 Clouds 25 1011 24 0 1.15 197 09:20 16.04.2020
4632 Clouds 25 1011 24 0 0.86 185 09:20 16.04.2020
4633 Clouds 25 1011 24 0 0.86 185 08:56 16.04.2020
4634 Clouds 25 1011 24 0 0.86 185 08:38 16.04.2020
4635 Clouds 25 1011 24 0 0.86 185 08:19 16.04.2020
4636 Clouds 25 1011 24 0 0.86 185 07:43 16.04.2020
4637 Clouds 25 1011 24 0 0.86 185 07:23 16.04.2020
4638 Clouds 12 1011 49 0 0.89 81 06:41 16.04.2020
4639 Clear 27 1011 18 0 1.87 158 06:23 16.04.2020
4640 Clear 16 1010 38 0 1.96 156 04:54 16.04.2020
4641 Clear 19 1011 27 0 2.24 252 03:29 16.04.2020
4642 Clear 19 1011 26 0 2.24 216 02:59 16.04.2020
4643 Clear 20 1012 25 0 2.24 214 02:39 16.04.2020
4644 Clear 21 1012 23 0 3.13 194 01:58 16.04.2020
4645 Clear 29 1011 14 0 1.36 205 00:57 16.04.2020
4646 Clear 27 1015 15 0 1.9 180 00:26 16.04.2020
4647 Clear 27 1015 15 0 1.9 180 23:56 15.04.2020
4648 Clear 27 1015 15 0 1.9 180 23:38 15.04.2020
4649 Clear 27 1015 15 0 1.9 180 23:19 15.04.2020
4650 Clear 27 1015 15 0 1.9 180 22:39 15.04.2020
4651 Clear 27 1015 15 0 1.9 180 22:21 15.04.2020
4652 Clear 27 1015 15 0 1.9 180 21:57 15.04.2020
4653 Clear 27 1015 15 0 1.9 180 21:39 15.04.2020
4654 Clear 25 1018 16 0 0.72 146 21:21 15.04.2020
4655 Clear 25 1018 16 0 0.72 146 20:57 15.04.2020
4656 Clear 25 1018 16 0 0.72 146 20:39 15.04.2020
4657 Clear 25 1018 16 0 0.72 146 20:20 15.04.2020
4658 Clear 25 1018 16 0 0.72 146 20:20 15.04.2020
4659 Clear 25 1018 16 0 0.72 146 19:42 15.04.2020
4660 Clear 18 1019 18 0 0.45 289 19:20 15.04.2020
4661 Clear 16 1019 21 0 0.45 313 18:54 15.04.2020
4662 Clear 16 1019 20 0 0.89 237 18:36 15.04.2020
4663 Clear 15 1019 20 0 0.45 178 18:18 15.04.2020
4664 Clear 12 1020 23 0 0.45 218 17:40 15.04.2020
4665 Clear 11 1020 28 0 0.45 218 17:21 15.04.2020
4666 Clear 11 1020 24 0 0.45 334 16:58 15.04.2020
4667 Clear 10 1020 26 0 1.34 311 16:39 15.04.2020
4668 Clear 9 1020 27 0 1.34 340 16:20 15.04.2020
4669 Clear 8 1020 28 0 1.79 333 15:58 15.04.2020
4670 Clear 8 1020 28 0 1.34 316 15:39 15.04.2020
4671 Clear 7 1020 30 0 1.34 331 15:20 15.04.2020
4672 Clear 7 1020 30 0 1.34 331 15:20 15.04.2020
4673 Clear 18 1019 26 0 0.93 297 14:58 15.04.2020
4674 Clear 18 1019 26 0 0.93 297 14:40 15.04.2020
4675 Clear 6 1020 41 0 0.78 282 14:21 15.04.2020
4676 Clear 8 1020 30 0 1.34 329 13:58 15.04.2020
4677 Clear 7 1020 32 0 0.89 320 13:39 15.04.2020
4678 Clear 7 1020 32 0 1.34 320 13:20 15.04.2020
4679 Clear 18 1018 26 0 0.78 282 12:56 15.04.2020
4680 Clear 6 1020 43 0 0.78 282 12:38 15.04.2020
4681 Clear 20 1019 24 0 1.06 248 12:20 15.04.2020
4682 Clear 20 1019 24 0 1.06 248 11:44 15.04.2020
4683 Clear 20 1019 24 0 1.06 248 11:25 15.04.2020
4684 Clear 20 1019 24 0 1.06 248 10:58 15.04.2020
4685 Clear 20 1019 24 0 1.06 248 10:37 15.04.2020
4686 Clear 20 1019 24 0 1.06 248 10:19 15.04.2020
4687 Clear 20 1019 24 0 1.06 248 09:55 15.04.2020
4688 Clear 20 1019 24 0 1.06 248 09:37 15.04.2020
4689 Clear 21 1020 22 0 1.22 266 09:18 15.04.2020
4690 Clear 21 1020 22 0 1.22 266 08:41 15.04.2020
4691 Clear 21 1020 22 0 1.22 266 08:41 15.04.2020
4692 Clear 21 1020 22 0 1.22 266 08:21 15.04.2020
4693 Clear 21 1020 22 0 1.22 266 07:56 15.04.2020
4694 Clear 21 1020 22 0 1.22 266 07:36 15.04.2020
4695 Clear 21 1020 22 0 1.22 266 06:49 15.04.2020
4696 Clear 23 1019 20 0 0.17 264 06:24 15.04.2020
4697 Clear 23 1019 20 0 0.17 264 05:22 15.04.2020
4698 Clear 13 1019 26 0 0.17 264 04:46 15.04.2020
4699 Clear 17 1019 15 0 0.17 264 04:18 15.04.2020
4700 Clear 24 1019 16 0 2.19 357 03:22 15.04.2020
4701 Clear 24 1019 16 0 2.19 357 02:40 15.04.2020
4702 Clear 24 1019 16 0 2.19 357 01:50 15.04.2020
4703 Clear 24 1019 16 0 2.19 357 01:24 15.04.2020
4704 Clear 24 1019 16 0 2.19 357 00:46 15.04.2020
4705 Clear 23 1022 17 0 3.08 5 00:23 15.04.2020
4706 Clear 23 1022 17 0 3.08 5 23:55 14.04.2020
4707 Clear 23 1022 17 0 3.08 5 23:37 14.04.2020
4708 Clear 23 1022 17 0 3.08 5 23:19 14.04.2020
4709 Clear 23 1022 17 0 3.08 5 22:56 14.04.2020
4710 Clear 23 1022 17 0 3.08 5 22:38 14.04.2020
4711 Clear 23 1022 17 0 3.08 5 22:20 14.04.2020
4712 Clear 23 1022 17 0 3.08 5 21:56 14.04.2020
4713 Clear 23 1022 17 0 3.08 5 21:37 14.04.2020
4714 Clear 20 1024 20 0 4.66 8 21:19 14.04.2020
4715 Clear 20 1024 20 0 4.66 8 20:55 14.04.2020
4716 Clear 20 1025 20 0 4.39 11 20:36 14.04.2020
4717 Clear 20 1025 20 0 4.39 11 20:18 14.04.2020
4718 Clear 13 1024 15 0 3.13 8 19:41 14.04.2020
4719 Clear 12 1024 15 0 4.02 347 19:22 14.04.2020
4720 Clear 12 1024 17 0 3.13 35 18:57 14.04.2020
4721 Clear 11 1024 18 0 1.79 321 18:39 14.04.2020
4722 Clear 11 1024 17 0 2.68 272 18:21 14.04.2020
4723 Clear 9 1024 19 0 3.13 355 17:58 14.04.2020
4724 Clear 9 1024 19 0 1.34 336 17:38 14.04.2020
4725 Clear 8 1024 20 0 1.79 349 17:19 14.04.2020
4726 Clear 7 1024 21 0 3.13 335 16:56 14.04.2020
4727 Clear 7 1023 22 0 2.68 343 16:37 14.04.2020
4728 Clear 6 1023 21 0 4.02 346 16:19 14.04.2020
4729 Clear 6 1023 21 0 4.47 351 15:55 14.04.2020
4730 Clear 6 1023 21 0 4.02 342 15:37 14.04.2020
4731 Clear 5 1022 21 0 4.47 324 15:18 14.04.2020
4732 Clear 6 1022 22 0 3.58 341 14:55 14.04.2020
4733 Clear 6 1022 21 0 5.36 339 14:37 14.04.2020
4734 Clouds 6 1022 25 0 1.79 308 14:18 14.04.2020
4735 Clouds 6 1022 25 0 1.79 308 14:18 14.04.2020
4736 Clouds 7 1021 23 0 1.79 336 13:40 14.04.2020
4737 Clouds 7 1021 21 0 3.58 355 13:22 14.04.2020
4738 Clouds 7 1021 23 0 3.13 292 12:54 14.04.2020
4739 Clouds 7 1021 24 0 2.68 342 12:36 14.04.2020
4740 Clouds 7 1021 23 0 2.24 335 12:18 14.04.2020
4741 Clouds 7 1020 21 0 4.47 326 11:40 14.04.2020
4742 Clouds 7 1020 22 0 3.13 336 11:20 14.04.2020
4743 Clouds 8 1020 21 0 2.68 334 10:47 14.04.2020
4744 Clouds 8 1020 22 0 2.68 337 10:28 14.04.2020
4745 Clouds 8 1020 22 0 3.13 354 09:59 14.04.2020
4746 Clouds 9 1019 23 0 2.68 321 09:40 14.04.2020
4747 Clouds 9 1019 27 0 2.68 337 09:22 14.04.2020
4748 Clouds 9 1019 24 0 4.02 322 08:44 14.04.2020
4749 Clouds 9 1019 24 0 2.68 335 08:25 14.04.2020
4750 Clouds 21 1020 21 0 3.89 351 07:59 14.04.2020
4751 Clouds 10 1018 21 0 4.92 347 07:41 14.04.2020
4752 Clouds 11 1018 21 0 4.92 331 07:22 14.04.2020
4753 Clouds 21 1020 21 0 3.89 351 06:45 14.04.2020
4754 Clouds 12 1016 25 0 0.45 339 05:22 14.04.2020
4755 Clear 26 1014 17 0 2.37 350 03:27 14.04.2020
4756 Clouds 26 1014 18 0 1.23 322 02:33 14.04.2020
4757 Clouds 26 1014 18 0 1.23 322 01:27 14.04.2020
4758 Clouds 26 1014 18 0 1.23 322 00:50 14.04.2020
4759 Clear 25 1014 19 0 0.46 94 00:24 14.04.2020
4760 Clear 25 1014 19 0 0.46 94 23:57 13.04.2020
4761 Clear 25 1014 19 0 0.46 94 23:37 13.04.2020
4762 Clear 25 1014 19 0 0.46 94 23:18 13.04.2020
4763 Clear 25 1014 19 0 0.46 94 22:42 13.04.2020
4764 Clear 25 1014 19 0 0.46 94 22:22 13.04.2020
4765 Clear 25 1014 19 0 0.46 94 21:58 13.04.2020
4766 Clear 25 1014 18 0 0.33 102 21:40 13.04.2020
4767 Clear 23 1016 20 0 0.9 88 21:21 13.04.2020
4768 Clear 23 1016 20 0 0.9 88 20:57 13.04.2020
4769 Clear 23 1016 20 0 0.9 88 20:39 13.04.2020
4770 Clear 23 1016 20 0 0.9 88 20:19 13.04.2020
4771 Clear 23 1016 20 0 0.9 88 20:19 13.04.2020
4772 Clear 16 1016 32 0 0.45 185 19:58 13.04.2020
4773 Clear 23 1016 20 0 0.9 88 19:37 13.04.2020
4774 Clear 23 1016 20 0 0.9 88 19:18 13.04.2020
4775 Clear 14 1015 40 0 0.9 88 18:56 13.04.2020
4776 Clear 13 1015 43 0 0.9 88 18:37 13.04.2020
4777 Clouds 13 1015 46 0 0.89 262 18:18 13.04.2020
4778 Clouds 13 1015 47 0 0.45 337 17:56 13.04.2020
4779 Clouds 13 1015 50 0 0.89 337 17:37 13.04.2020
4780 Clouds 12 1015 49 0 0.45 337 17:18 13.04.2020
4781 Clouds 9 1015 58 0 0.92 32 16:57 13.04.2020
4782 Clouds 8 1014 65 0 0.89 333 16:37 13.04.2020
4783 Clouds 21 1015 26 0 0.92 32 16:19 13.04.2020
4784 Clouds 21 1015 26 0 0.92 32 15:46 13.04.2020
4785 Clouds 20 1014 37 0 0.86 346 15:28 13.04.2020
4786 Clouds 20 1014 37 0 0.86 346 14:59 13.04.2020
4787 Clouds 19 1014 45 0 0.37 322 14:40 13.04.2020
4788 Clouds 19 1014 45 0 0.37 322 14:22 13.04.2020
4789 Clouds 19 1014 45 0 0.37 322 13:56 13.04.2020
4790 Clouds 7 1013 74 0 0.45 322 13:38 13.04.2020
4791 Clouds 7 1013 73 0 0.45 320 13:20 13.04.2020
4792 Clouds 7 1013 74 0 0.45 26 12:58 13.04.2020
4793 Clouds 8 1013 75 0 0.45 67 12:40 13.04.2020
4794 Rain 20 1013 45 0 1.3 225 12:20 13.04.2020
4795 Rain 20 1013 45 0 1.3 225 11:58 13.04.2020
4796 Rain 20 1013 45 0 1.3 225 11:40 13.04.2020
4797 Rain 20 1014 49 0 0.86 215 11:18 13.04.2020
4798 Rain 20 1013 45 0 1.3 225 10:55 13.04.2020
4799 Rain 8 1013 73 0 0.45 317 10:37 13.04.2020
4800 Rain 8 1013 72 0 2.68 335 10:18 13.04.2020
4801 Rain 9 1013 71 0 3.58 331 09:44 13.04.2020
4802 Rain 9 1013 70 0 3.58 285 09:25 13.04.2020
4803 Rain 9 1012 72 0 1.79 335 08:46 13.04.2020
4804 Rain 9 1012 72 0 1.79 335 08:46 13.04.2020
4805 Rain 9 1013 74 0 1.79 348 08:27 13.04.2020
4806 Rain 9 1012 74 0 2.68 346 07:58 13.04.2020
4807 Rain 9 1012 72 0 2.24 339 07:38 13.04.2020
4808 Rain 9 1012 71 0 3.13 350 07:19 13.04.2020
4809 Rain 9 1012 75 0 3.13 336 06:46 13.04.2020
4810 Rain 11 1012 68 0 0.45 326 05:53 13.04.2020
4811 Rain 11 1011 68 0 0.89 316 05:27 13.04.2020
4812 Rain 11 1011 68 0 2.24 345 04:50 13.04.2020
4813 Rain 10 1010 75 0 0.89 54 04:20 13.04.2020
4814 Rain 11 1010 79 0 0.45 10 03:44 13.04.2020
4815 Clouds 27 1009 26 0 3.41 228 02:48 13.04.2020
4816 Rain 18 1008 48 0 0.89 109 01:49 13.04.2020
4817 Rain 21 1008 47 0 0.89 40 01:30 13.04.2020
4818 Rain 19 1009 54 0 1.34 82 00:55 13.04.2020
4819 Rain 18 1009 59 0 1.79 50 00:36 13.04.2020
4820 Clear 16 1010 71 0 1.79 56 00:18 13.04.2020
4821 Clear 15 1010 66 0 1.34 21 23:42 12.04.2020
4822 Clear 14 1010 68 0 1.34 36 23:22 12.04.2020
4823 Clear 19 1010 40 0 1.34 28 22:55 12.04.2020
4824 Clear 19 1010 40 0 1.34 28 22:37 12.04.2020
4825 Clear 27 1011 25 0 1.19 161 22:18 12.04.2020
4826 Clear 27 1011 25 0 1.19 161 21:40 12.04.2020
4827 Clouds 24 1012 32 0 1.25 129 21:20 12.04.2020
4828 Clouds 24 1012 32 0 1.25 129 20:56 12.04.2020
4829 Clouds 24 1012 32 0 1.25 129 20:38 12.04.2020
4830 Clouds 24 1012 32 0 1.25 129 20:19 12.04.2020
4831 Clouds 24 1012 32 0 1.25 129 19:55 12.04.2020
4832 Clouds 24 1012 32 0 1.25 129 19:36 12.04.2020
4833 Clouds 24 1012 32 0 1.25 129 19:18 12.04.2020
4834 Clouds 17 1011 46 0 1.79 18 18:40 12.04.2020
4835 Clouds 21 1012 42 0 0.48 154 18:21 12.04.2020
4836 Clouds 14 1012 53 0 0.48 154 17:56 12.04.2020
4837 Clouds 13 1012 62 0 0.48 154 17:38 12.04.2020
4838 Clouds 12 1012 67 0 0.45 40 17:18 12.04.2020
4839 Clouds 10 1011 71 0 0.48 154 16:56 12.04.2020
4840 Clouds 9 1011 73 0 0.45 20 16:37 12.04.2020
4841 Clouds 9 1011 74 0 0.45 14 16:19 12.04.2020
4842 Clouds 9 1011 67 0 1.34 329 15:41 12.04.2020
4843 Clouds 9 1011 69 0 0.89 335 15:22 12.04.2020
4844 Clouds 20 1010 42 0 0.54 204 14:41 12.04.2020
4845 Clouds 20 1010 44 0 0.59 228 14:22 12.04.2020
4846 Clouds 20 1010 42 0 0.54 204 13:58 12.04.2020
4847 Clouds 20 1010 42 0 0.54 204 13:40 12.04.2020
4848 Clouds 20 1010 42 0 0.54 204 13:21 12.04.2020
4849 Clouds 20 1010 42 0 0.54 204 12:47 12.04.2020
4850 Clouds 21 1010 39 0 1.34 261 12:22 12.04.2020
4851 Clouds 21 1010 39 0 1.34 261 11:59 12.04.2020
4852 Clouds 21 1010 39 0 1.34 261 11:59 12.04.2020
4853 Clouds 21 1010 39 0 1.34 261 11:39 12.04.2020
4854 Clouds 21 1010 39 0 1.34 261 11:20 12.04.2020
4855 Clouds 21 1010 39 0 1.34 261 10:57 12.04.2020
4856 Clouds 21 1010 39 0 1.34 261 10:39 12.04.2020
4857 Clouds 21 1010 39 0 1.34 261 10:39 12.04.2020
4858 Clouds 21 1010 39 0 1.34 261 10:20 12.04.2020
4859 Clouds 21 1010 39 0 1.34 261 09:58 12.04.2020
4860 Clouds 21 1010 39 0 1.34 261 09:39 12.04.2020
4861 Clouds 23 1009 35 0 1.3 245 09:19 12.04.2020
4862 Clouds 23 1009 35 0 1.3 245 08:51 12.04.2020
4863 Clouds 23 1009 35 0 1.3 245 08:32 12.04.2020
4864 Clouds 23 1009 35 0 1.3 245 07:47 12.04.2020
4865 Clouds 23 1009 35 0 1.3 245 07:20 12.04.2020
4866 Clouds 23 1009 35 0 1.3 245 06:59 12.04.2020
4867 Clouds 23 1009 35 0 1.3 245 06:31 12.04.2020
4868 Clouds 25 1009 28 0 2.03 198 05:49 12.04.2020
4869 Clouds 25 1009 28 0 2.03 198 05:27 12.04.2020
4870 Clouds 16 1009 50 0 2.24 357 03:32 12.04.2020
4871 Clear 18 1010 48 0 1.79 50 02:51 12.04.2020
4872 Clear 19 1010 45 0 1.79 22 02:30 12.04.2020
4873 Clear 19 1010 47 0 1.79 14 01:31 12.04.2020
4874 Clear 21 1011 42 0 2.24 32 00:56 12.04.2020
4875 Clear 21 1011 41 0 1.34 40 00:38 12.04.2020
4876 Clear 21 1011 41 0 1.34 40 00:38 12.04.2020
4877 Clear 25 1010 26 0 1.95 164 00:19 12.04.2020
4878 Clear 20 1012 44 0 1.79 62 23:44 11.04.2020
4879 Clear 25 1010 26 0 1.95 164 23:23 11.04.2020
4880 Clear 25 1010 26 0 1.95 164 22:40 11.04.2020
4881 Clear 25 1010 26 0 1.95 164 22:22 11.04.2020
4882 Clear 19 1013 49 0 1.79 35 21:57 11.04.2020
4883 Clear 19 1013 50 0 1.34 14 21:37 11.04.2020
4884 Clear 18 1013 34 0 0.45 90 21:19 11.04.2020
4885 Clear 18 1014 50 0 0.45 121 20:57 11.04.2020
4886 Clear 18 1014 50 0 0.45 92 20:39 11.04.2020
4887 Clear 22 1013 34 0 1.28 140 20:20 11.04.2020
4888 Clear 16 1015 40 0 0.45 227 19:58 11.04.2020
4889 Clear 15 1015 39 0 1.34 257 19:38 11.04.2020
4890 Clear 16 1015 44 0 0.45 25 19:19 11.04.2020
4891 Clear 13 1015 45 0 1.34 354 18:56 11.04.2020
4892 Clear 13 1015 46 0 0.89 245 18:38 11.04.2020
4893 Clouds 12 1015 49 0 0.89 260 18:20 11.04.2020
4894 Clouds 12 1015 49 0 1.79 344 17:58 11.04.2020
4895 Clouds 11 1015 55 0 1.34 335 17:40 11.04.2020
4896 Clouds 9 1015 60 0 1.34 333 17:20 11.04.2020
4897 Clouds 6 1015 72 0 0.69 217 16:55 11.04.2020
4898 Clouds 18 1013 43 0 0.69 217 16:36 11.04.2020
4899 Clouds 18 1013 43 0 0.69 217 16:18 11.04.2020
4900 Clouds 18 1013 43 0 0.69 217 15:37 11.04.2020
4901 Clouds 16 1013 54 0 0.79 317 15:18 11.04.2020
4902 Clouds 7 1014 60 0 0.45 306 14:42 11.04.2020
4903 Clouds 8 1014 58 0 2.24 329 14:24 11.04.2020
4904 Clouds 7 1014 58 0 3.13 349 13:59 11.04.2020
4905 Clouds 7 1014 58 0 3.13 349 13:59 11.04.2020
4906 Clouds 7 1014 58 0 1.79 357 13:39 11.04.2020
4907 Clouds 7 1014 58 0 2.68 332 13:19 11.04.2020
4908 Clouds 15 1013 54 0 0.45 318 12:42 11.04.2020
4909 Clouds 16 1013 53 0 0.23 46 12:20 11.04.2020
4910 Clouds 16 1013 53 0 0.23 46 11:58 11.04.2020
4911 Clouds 16 1013 53 0 0.23 46 11:39 11.04.2020
4912 Clouds 5 1015 70 0 0.45 21 11:19 11.04.2020
4913 Clouds 6 1015 66 0 0.45 18 10:55 11.04.2020
4914 Clouds 6 1015 66 0 0.89 80 10:36 11.04.2020
4915 Clouds 6 1015 66 0 0.89 80 10:36 11.04.2020
4916 Clouds 6 1015 66 0 0.89 10 10:18 11.04.2020
4917 Clouds 6 1015 69 0 0.42 7 09:40 11.04.2020
4918 Clouds 6 1015 69 0 0.42 7 09:40 11.04.2020
4919 Clouds 6 1015 67 0 0.45 40 09:22 11.04.2020
4920 Clouds 7 1015 65 0 1.34 3 08:51 11.04.2020
4921 Clouds 6 1016 69 0 1.34 343 08:29 11.04.2020
4922 Clouds 6 1016 67 0 1.34 354 07:56 11.04.2020
4923 Clouds 6 1016 68 0 0.89 8 07:38 11.04.2020
4924 Clouds 6 1016 71 0 1.34 335 07:19 11.04.2020
4925 Clouds 7 1016 70 0 2.24 338 06:35 11.04.2020
4926 Rain 7 1016 66 0 1.34 346 05:57 11.04.2020
4927 Rain 7 1016 69 0 1.34 54 03:57 11.04.2020
4928 Rain 9 1015 62 0 0.89 50 02:51 11.04.2020
4929 Rain 11 1016 56 0 0.89 61 01:26 11.04.2020
4930 Rain 12 1016 54 0 1.34 13 00:56 11.04.2020
4931 Rain 12 1016 52 0 0.89 83 00:38 11.04.2020
4932 Clouds 18 1015 37 0 1.1 337 00:18 11.04.2020
4933 Clouds 18 1015 37 0 1.1 337 00:18 11.04.2020
4934 Clouds 11 1017 54 0 0.89 81 23:42 10.04.2020
4935 Clouds 11 1017 52 0 1.79 360 23:19 10.04.2020
4936 Clouds 10 1017 60 0 1.34 28 22:58 10.04.2020
4937 Clouds 10 1017 60 0 1.34 28 22:38 10.04.2020
4938 Clouds 9 1018 58 0 0.45 347 22:20 10.04.2020
4939 Clouds 8 1018 60 0 1.79 351 21:42 10.04.2020
4940 Clouds 8 1018 60 0 1.79 351 21:42 10.04.2020
4941 Rain 9 1018 61 0 3.13 337 21:21 10.04.2020
4942 Rain 8 1018 63 0 3.13 341 20:59 10.04.2020
4943 Rain 8 1018 61 0 4.02 358 20:40 10.04.2020
4944 Rain 9 1018 61 0 3.58 335 20:21 10.04.2020
4945 Rain 7 1018 73 0 3.58 317 19:56 10.04.2020
4946 Rain 6 1019 77 0 4.02 353 19:38 10.04.2020
4947 Rain 6 1019 77 0 4.02 353 19:38 10.04.2020
4948 Rain 5 1019 77 0 4.02 10 19:19 10.04.2020
4949 Rain 6 1019 72 0 2.68 331 18:56 10.04.2020
4950 Rain 6 1018 69 0 3.13 312 18:38 10.04.2020
4951 Rain 6 1018 69 0 3.13 337 18:20 10.04.2020
4952 Rain 6 1018 70 0 3.58 330 17:57 10.04.2020
4953 Rain 6 1018 70 0 3.58 330 17:57 10.04.2020
4954 Rain 6 1019 69 0 2.68 354 17:39 10.04.2020
4955 Rain 6 1019 70 0 2.24 338 17:19 10.04.2020
4956 Rain 4 1019 75 0 1.34 333 16:46 10.04.2020
4957 Rain 4 1019 74 0 1.34 341 16:24 10.04.2020
4958 Rain 4 1018 72 0 2.68 345 15:59 10.04.2020
4959 Rain 4 1018 73 0 2.24 346 15:40 10.04.2020
4960 Clouds 4 1018 72 0 2.24 356 15:22 10.04.2020
4961 Clouds 4 1018 70 0 3.13 347 15:00 10.04.2020
4962 Clouds 4 1018 72 0 1.79 357 14:41 10.04.2020
4963 Clouds 4 1018 71 0 2.24 348 14:23 10.04.2020
4964 Clouds 4 1018 70 0 1.79 351 13:57 10.04.2020
4965 Clouds 4 1018 69 0 2.24 353 13:39 10.04.2020
4966 Clouds 4 1018 69 0 2.24 349 13:20 10.04.2020
4967 Clouds 4 1019 69 0 0.89 329 12:43 10.04.2020
4968 Clouds 4 1019 69 0 1.34 353 12:22 10.04.2020
4969 Clouds 4 1019 70 0 1.79 334 11:55 10.04.2020
4970 Clouds 4 1019 69 0 2.24 329 11:37 10.04.2020
4971 Clouds 4 1019 68 0 1.34 350 11:18 10.04.2020
4972 Clouds 4 1020 67 0 1.79 329 10:43 10.04.2020
4973 Clouds 4 1020 66 0 2.24 327 10:23 10.04.2020
4974 Clouds 4 1020 68 0 1.34 329 09:57 10.04.2020
4975 Clouds 4 1020 68 0 1.34 322 09:38 10.04.2020
4976 Clouds 4 1020 68 0 1.34 320 09:18 10.04.2020
4977 Clouds 4 1020 71 0 0.97 9 08:42 10.04.2020
4978 Clouds 4 1020 71 0 0.89 335 08:23 10.04.2020
4979 Clouds 17 1017 33 0 0.97 9 07:45 10.04.2020
4980 Clouds 17 1017 33 0 0.97 9 07:24 10.04.2020
4981 Clouds 17 1017 33 0 0.97 9 06:49 10.04.2020
4982 Clouds 18 1017 31 0 1.44 132 06:28 10.04.2020
4983 Clouds 4 1020 77 0 0.45 6 05:42 10.04.2020
4984 Clouds 5 1020 75 0 0.45 21 04:58 10.04.2020
4985 Clouds 7 1020 66 0 0.45 26 03:51 10.04.2020
4986 Clouds 7 1020 66 0 0.45 40 03:32 10.04.2020
4987 Rain 8 1020 63 0 1.34 34 02:49 10.04.2020
4988 Rain 9 1019 59 0 1.79 67 02:30 10.04.2020
4989 Rain 18 1016 31 0 0.71 148 01:30 10.04.2020
4990 Rain 18 1016 31 0 0.71 148 00:52 10.04.2020
4991 Rain 11 1020 65 0 1.34 54 00:25 10.04.2020
4992 Rain 17 1018 35 0 1.8 175 23:56 09.04.2020
4993 Rain 17 1018 35 0 1.8 175 23:38 09.04.2020
4994 Rain 17 1018 35 0 1.8 175 23:20 09.04.2020
4995 Rain 9 1021 76 0 1.34 40 22:42 09.04.2020
4996 Rain 17 1018 35 0 1.8 175 22:23 09.04.2020
4997 Rain 8 1022 85 0 0.89 88 21:59 09.04.2020
4998 Rain 7 1022 81 0 1.34 3 21:37 09.04.2020
4999 Clouds 7 1022 85 0 1.79 67 21:19 09.04.2020
5000 Clouds 6 1022 84 0 0.89 29 20:45 09.04.2020
5001 Clouds 6 1022 88 0 1.34 35 20:21 09.04.2020
5002 Clouds 4 1022 91 0 1.34 23 19:58 09.04.2020
5003 Clouds 4 1022 92 0 0.89 56 19:37 09.04.2020
5004 Clouds 3 1022 92 0 0.89 31 19:18 09.04.2020
5005 Clouds 2 1022 94 0 1.34 33 18:42 09.04.2020
5006 Clouds 2 1022 94 0 1.34 33 18:42 09.04.2020
5007 Clouds 1 1022 94 0 1.34 25 18:20 09.04.2020
5008 Clouds 2 1021 94 0 0.45 40 17:43 09.04.2020
5009 Clouds 1 1021 94 0 0.89 29 17:24 09.04.2020
5010 Clouds 0 1020 93 0 1.34 137 16:57 09.04.2020
5011 Clouds 0 1020 94 0 0.45 58 16:39 09.04.2020
5012 Clouds 0 1020 94 0 0.45 45 16:19 09.04.2020
5013 Clouds 0 1020 94 0 0.89 50 15:55 09.04.2020
5014 Clouds 0 1020 94 0 0.89 50 15:55 09.04.2020
5015 Clouds 0 1019 94 0 0.89 11 15:37 09.04.2020
5016 Clouds 0 1019 94 0 0.89 11 15:37 09.04.2020
5017 Clouds 0 1019 94 0 0.89 11 15:37 09.04.2020
5018 Clouds 0 1019 94 0 0.89 14 15:18 09.04.2020
5019 Clouds 0 1019 94 0 0.89 14 15:18 09.04.2020
5020 Clouds -1 1019 94 0 0.89 35 14:42 09.04.2020
5021 Clouds -1 1018 93 0 0.89 45 14:21 09.04.2020
5022 Clouds 0 1018 93 0 0.89 82 13:56 09.04.2020
5023 Clouds 0 1018 93 0 0.89 89 13:38 09.04.2020
5024 Clouds 0 1018 93 0 0.89 45 13:19 09.04.2020
5025 Clouds 1 1018 89 0 1.34 91 12:43 09.04.2020
5026 Clouds 0 1018 88 0 1.34 122 12:24 09.04.2020
5027 Clouds 0 1018 88 0 1.79 100 11:59 09.04.2020
5028 Clouds 0 1018 88 0 1.79 100 11:59 09.04.2020
5029 Clouds 1 1018 88 0 0.89 201 11:41 09.04.2020
5030 Clouds 1 1018 88 0 1.34 140 11:20 09.04.2020
5031 Clouds 1 1018 88 0 1.79 114 10:58 09.04.2020
5032 Clouds 1 1018 88 0 1.79 110 10:39 09.04.2020
5033 Clouds 1 1019 88 0 1.79 145 10:20 09.04.2020
5034 Clouds 1 1018 93 0 0.89 123 09:56 09.04.2020
5035 Rain 1 1018 94 0 1.34 87 09:38 09.04.2020
5036 Rain 1 1018 95 0 0.45 127 09:20 09.04.2020
5037 Rain 2 1018 95 0 3.68 183 08:44 09.04.2020
5038 Rain 2 1018 95 0 0.45 85 08:23 09.04.2020
5039 Rain 1 1017 95 0 3.68 183 07:55 09.04.2020
5040 Rain 1 1017 95 0 0.45 85 07:27 09.04.2020
5041 Rain 2 1017 95 0 0.45 86 06:55 09.04.2020
5042 Rain 13 1014 57 0 2.97 164 06:18 09.04.2020
5043 Rain 13 1014 57 0 2.97 164 05:40 09.04.2020
5044 Rain 2 1015 94 0 1.34 73 03:55 09.04.2020
5045 Rain 15 1012 57 0 4.31 171 02:30 09.04.2020
5046 Rain 15 1012 57 0 4.31 171 01:41 09.04.2020
5047 Rain 15 1012 57 0 4.31 171 01:41 09.04.2020
5048 Rain 15 1012 57 0 4.31 171 01:23 09.04.2020
5049 Rain 6 1014 88 0 4.02 25 00:43 09.04.2020
5050 Rain 18 1011 41 0 6.62 153 00:20 09.04.2020
5051 Rain 7 1013 87 0 1.79 343 23:58 08.04.2020
5052 Rain 8 1013 83 0 6.62 153 23:40 08.04.2020
5053 Rain 8 1013 83 0 6.62 153 23:40 08.04.2020
5054 Rain 18 1011 41 0 6.62 153 23:21 08.04.2020
5055 Rain 11 1012 72 0 1.34 31 22:43 08.04.2020
5056 Rain 10 1013 81 0 0.45 73 22:24 08.04.2020
5057 Rain 10 1013 81 0 0.45 73 22:24 08.04.2020
5058 Rain 8 1013 86 0 1.34 62 21:56 08.04.2020
5059 Rain 8 1013 89 0 0.89 33 21:38 08.04.2020
5060 Rain 20 1012 37 0 1.89 108 21:19 08.04.2020
5061 Rain 9 1013 83 0 1.34 76 20:58 08.04.2020
5062 Rain 9 1013 83 0 0.89 2 20:38 08.04.2020
5063 Rain 11 1013 76 0 1.79 80 20:20 08.04.2020
5064 Rain 12 1014 66 0 3.13 355 19:55 08.04.2020
5065 Rain 12 1013 71 0 2.68 334 19:36 08.04.2020
5066 Rain 11 1013 76 0 2.68 358 19:18 08.04.2020
5067 Rain 20 1012 37 0 1.89 108 18:41 08.04.2020
5068 Rain 5 1014 90 0 2.24 284 18:23 08.04.2020
5069 Rain 3 1014 90 0 3.13 341 17:54 08.04.2020
5070 Rain 4 1014 89 0 3.13 312 17:36 08.04.2020
5071 Rain 4 1014 89 0 4.02 308 17:18 08.04.2020
5072 Rain 3 1014 91 0 3.13 326 16:42 08.04.2020
5073 Rain 3 1014 91 0 3.13 326 16:42 08.04.2020
5074 Rain 3 1014 91 0 3.13 323 16:23 08.04.2020
5075 Rain 17 1011 51 0 2.09 28 15:55 08.04.2020
5076 Rain 17 1011 51 0 2.09 28 15:37 08.04.2020
5077 Rain 2 1013 92 0 3.13 341 15:18 08.04.2020
5078 Rain 16 1012 58 0 2.13 343 14:42 08.04.2020
5079 Rain 16 1012 56 0 1.54 11 14:24 08.04.2020
5080 Rain 16 1012 56 0 1.54 11 13:54 08.04.2020
5081 Rain 16 1012 56 0 1.54 11 13:36 08.04.2020
5082 Rain 16 1012 56 0 1.54 11 13:18 08.04.2020
5083 Rain 16 1012 56 0 1.54 11 12:41 08.04.2020
5084 Rain 16 1013 58 0 0.24 10 12:18 08.04.2020
5085 Rain 16 1013 58 0 0.24 10 12:18 08.04.2020
5086 Rain 16 1013 58 0 0.24 10 11:56 08.04.2020
5087 Rain 16 1013 58 0 0.24 10 11:38 08.04.2020
5088 Rain 16 1013 58 0 0.24 10 11:19 08.04.2020
5089 Rain 16 1013 58 0 0.24 10 10:55 08.04.2020
5090 Rain 2 1017 92 0 0.89 231 10:37 08.04.2020
5091 Rain 2 1017 92 0 0.45 203 10:18 08.04.2020
5092 Rain 2 1017 91 0 1.34 232 09:42 08.04.2020
5093 Rain 2 1017 91 0 1.34 220 09:20 08.04.2020
5094 Rain 3 1016 90 0 2.24 341 08:59 08.04.2020
5095 Rain 3 1016 90 0 1.79 321 08:41 08.04.2020
5096 Rain 3 1017 90 0 3.58 339 08:21 08.04.2020
5097 Rain 3 1017 88 0 1.34 285 07:43 08.04.2020
5098 Rain 4 1016 89 0 1.79 320 07:23 08.04.2020
5099 Rain 4 1016 89 0 1.79 337 06:48 08.04.2020
5100 Rain 5 1017 86 0 1.04 333 05:49 08.04.2020
5101 Rain 8 1016 66 0 1.79 31 03:34 08.04.2020
5102 Rain 9 1016 56 0 1.79 40 02:49 08.04.2020
5103 Rain 9 1016 52 0 2.24 21 02:19 08.04.2020
5104 Rain 11 1017 47 0 2.24 16 01:30 08.04.2020
5105 Rain 13 1017 41 0 1.34 85 00:59 08.04.2020
5106 Rain 13 1017 41 0 1.34 85 00:59 08.04.2020
5107 Rain 18 1014 46 0 2.69 38 00:40 08.04.2020
5108 Rain 16 1017 51 0 2.52 73 00:20 08.04.2020
5109 Rain 16 1017 51 0 2.52 73 23:39 07.04.2020
5110 Rain 16 1017 51 0 2.52 73 23:20 07.04.2020
5111 Rain 16 1017 51 0 2.52 73 22:57 07.04.2020
5112 Rain 16 1017 51 0 2.52 73 22:39 07.04.2020
5113 Rain 16 1017 51 0 2.52 73 22:19 07.04.2020
5114 Rain 12 1020 49 0 1.34 40 21:56 07.04.2020
5115 Rain 17 1016 49 0 2.45 47 21:38 07.04.2020
5116 Rain 14 1018 58 0 0.64 5 21:19 07.04.2020
5117 Rain 14 1018 58 0 0.64 5 20:55 07.04.2020
5118 Rain 14 1018 58 0 0.64 5 20:37 07.04.2020
5119 Rain 14 1018 58 0 0.64 5 20:18 07.04.2020
5120 Rain 8 1021 66 0 0.89 121 19:56 07.04.2020
5121 Rain 8 1021 59 0 0.89 314 19:36 07.04.2020
5122 Rain 8 1021 64 0 0.89 104 19:18 07.04.2020
5123 Rain 7 1020 73 0 0.45 116 18:54 07.04.2020
5124 Rain 5 1020 69 0 0.64 5 18:36 07.04.2020
5125 Rain 4 1020 77 0 0.89 39 18:18 07.04.2020
5126 Rain 3 1020 87 0 0.45 74 17:41 07.04.2020
5127 Rain 3 1020 90 0 0.45 64 17:20 07.04.2020
5128 Rain 1 1019 93 0 0.89 39 16:45 07.04.2020
5129 Rain 1 1019 93 0 0.89 39 16:26 07.04.2020
5130 Rain 13 1018 60 0 0.89 39 15:55 07.04.2020
5131 Rain 1 1019 90 0 0.89 39 15:36 07.04.2020
5132 Rain 1 1018 91 0 1.12 72 15:18 07.04.2020
5133 Rain 2 1018 86 0 1.08 128 14:39 07.04.2020
5134 Rain 2 1017 87 0 1.08 128 14:21 07.04.2020
5135 Rain 2 1017 88 0 1.34 33 13:56 07.04.2020
5136 Rain 1 1017 88 0 1.79 26 13:37 07.04.2020
5137 Rain 1 1017 88 0 1.79 5 13:18 07.04.2020
5138 Rain 2 1017 89 0 2.24 4 12:54 07.04.2020
5139 Rain 2 1017 89 0 2.24 4 12:36 07.04.2020
5140 Rain 2 1016 89 0 1.34 25 12:18 07.04.2020
5141 Rain 2 1016 87 0 0.45 21 11:42 07.04.2020
5142 Rain 2 1016 85 0 1.34 20 11:22 07.04.2020
5143 Rain 2 1016 88 0 1.49 167 10:57 07.04.2020
5144 Rain 2 1017 88 0 1.49 167 10:37 07.04.2020
5145 Rain 2 1017 86 0 1.49 167 10:18 07.04.2020
5146 Rain 1 1016 87 0 1.49 167 09:44 07.04.2020
5147 Rain 15 1014 52 0 2.05 188 09:18 07.04.2020
5148 Rain 1 1016 83 0 2.05 188 08:43 07.04.2020
5149 Rain 2 1015 81 0 2.05 188 08:25 07.04.2020
5150 Rain 3 1015 80 0 1.34 214 07:59 07.04.2020
5151 Rain 3 1015 80 0 2.24 223 07:40 07.04.2020
5152 Rain 3 1015 80 0 2.24 223 07:40 07.04.2020
5153 Rain 4 1015 80 0 0.89 232 07:21 07.04.2020
5154 Rain 4 1015 79 0 0.89 168 06:49 07.04.2020
5155 Clouds 4 1014 79 0 0.45 164 06:21 07.04.2020
5156 Clouds 4 1014 78 0 0.89 106 05:38 07.04.2020
5157 Clouds 5 1013 78 0 1.79 178 04:46 07.04.2020
5158 Rain 7 1012 77 0 1.79 143 03:26 07.04.2020
5159 Rain 7 1012 77 0 2.24 179 02:54 07.04.2020
5160 Rain 7 1011 77 0 3.58 147 01:48 07.04.2020
5161 Rain 8 1011 77 0 5.36 189 01:25 07.04.2020
5162 Rain 7 1011 75 0 3.58 201 00:29 07.04.2020
5163 Rain 7 1011 75 0 3.58 201 00:29 07.04.2020
5164 Rain 8 1010 75 0 4.02 202 23:56 06.04.2020
5165 Rain 7 1011 84 0 4.02 251 23:36 06.04.2020
5166 Rain 7 1011 82 0 3.13 167 23:18 06.04.2020
5167 Rain 8 1010 78 0 3.58 274 22:40 06.04.2020
5168 Rain 8 1010 81 0 3.13 177 22:21 06.04.2020
5169 Rain 7 1010 83 0 3.13 198 21:57 06.04.2020
5170 Rain 7 1010 84 0 1.79 152 21:39 06.04.2020
5171 Rain 6 1010 86 0 2.24 232 21:19 06.04.2020
5172 Rain 5 1010 86 0 2.68 126 20:55 06.04.2020
5173 Rain 15 1010 57 0 3.7 178 20:37 06.04.2020
5174 Rain 15 1010 57 0 3.7 178 20:18 06.04.2020
5175 Rain 15 1010 57 0 3.7 178 19:41 06.04.2020
5176 Rain 15 1010 57 0 3.7 178 19:23 06.04.2020
5177 Rain 15 1010 57 0 3.7 178 18:59 06.04.2020
5178 Rain 4 1008 82 0 2.68 147 18:40 06.04.2020
5179 Rain 4 1008 82 0 3.58 184 18:22 06.04.2020
5180 Rain 4 1008 84 0 2.24 125 17:55 06.04.2020
5181 Rain 4 1007 85 0 1.79 199 17:36 06.04.2020
5182 Rain 4 1007 85 0 1.34 145 17:18 06.04.2020
5183 Rain 4 1007 87 0 2.24 198 16:44 06.04.2020
5184 Rain 4 1007 86 0 3.58 209 16:26 06.04.2020
5185 Rain 3 1006 84 0 3.58 206 14:45 06.04.2020
5186 Rain 3 1006 84 0 3.58 206 14:45 06.04.2020
5187 Rain 3 1006 84 0 3.58 206 14:45 06.04.2020
5188 Rain 3 1006 84 0 3.58 206 14:45 06.04.2020
5189 Rain 3 1006 84 0 3.58 206 14:45 06.04.2020
5190 Rain 4 1005 85 0 4.02 243 13:44 06.04.2020
5191 Rain 4 1005 85 0 4.02 243 13:44 06.04.2020
5192 Rain 4 1005 85 0 4.02 243 13:44 06.04.2020
5193 Rain 4 1005 85 0 4.02 243 13:44 06.04.2020
5194 Rain 4 1005 85 0 4.02 243 13:44 06.04.2020
5195 Rain 4 1005 80 0 4.02 175 13:20 06.04.2020
5196 Rain 4 1005 80 0 4.02 175 13:20 06.04.2020
5197 Rain 4 1005 80 0 4.02 175 13:20 06.04.2020
5198 Rain 4 1005 80 0 4.02 175 13:20 06.04.2020
5199 Rain 4 1005 82 0 5.36 240 12:26 06.04.2020
5200 Clouds 4 1005 82 0 4.02 229 12:01 06.04.2020
5201 Clouds 4 1005 81 0 3.13 247 11:40 06.04.2020
5202 Clouds 4 1005 81 0 3.13 247 11:40 06.04.2020
5203 Clouds 4 1005 81 0 3.13 247 11:40 06.04.2020
5204 Clouds 4 1005 81 0 3.13 247 11:40 06.04.2020
5205 Clouds 4 1005 80 0 4.47 203 10:53 06.04.2020
5206 Clouds 4 1005 80 0 4.47 203 10:53 06.04.2020
5207 Clouds 4 1005 80 0 4.47 203 10:53 06.04.2020
5208 Clouds 4 1005 80 0 4.47 203 10:53 06.04.2020
5209 Clouds 4 1005 80 0 4.47 203 10:53 06.04.2020
5210 Clouds 4 1006 78 0 3.13 252 10:23 06.04.2020
5211 Clouds 4 1006 78 0 3.13 252 10:23 06.04.2020
5212 Clouds 4 1006 78 0 3.13 252 10:23 06.04.2020
5213 Clouds 4 1006 78 0 3.13 252 10:23 06.04.2020
5214 Clouds 4 1006 78 0 3.13 252 10:23 06.04.2020
5215 Clouds 4 1006 76 0 1.34 125 09:57 06.04.2020
5216 Clouds 4 1006 76 0 1.34 125 09:57 06.04.2020
5217 Clouds 4 1006 76 0 1.34 125 09:55 06.04.2020
5218 Clouds 4 1006 76 0 1.34 125 09:55 06.04.2020
5219 Clouds 4 1006 76 0 1.34 125 09:55 06.04.2020
5220 Clouds 4 1006 74 0 1.34 106 09:26 06.04.2020
5221 Clouds 4 1006 75 0 1.34 258 08:55 06.04.2020
5222 Clouds 4 1006 75 0 1.34 258 08:55 06.04.2020
5223 Clouds 4 1006 75 0 2.68 111 08:36 06.04.2020
5224 Clouds 4 1006 75 0 2.68 111 08:36 06.04.2020
5225 Clouds 4 1006 75 0 2.68 111 08:36 06.04.2020
5226 Clouds 4 1006 73 0 3.58 220 07:56 06.04.2020
5227 Clouds 5 1006 73 0 3.58 151 07:19 06.04.2020
5228 Clouds 5 1005 74 0 3.58 172 06:26 06.04.2020
5229 Clouds 5 1005 75 0 3.58 161 05:40 06.04.2020
5230 Clouds 5 1005 75 0 3.58 161 05:39 06.04.2020
5231 Clouds 5 1005 75 0 4.02 146 05:28 06.04.2020
5232 Clouds 8 1004 68 0 3.13 158 03:29 06.04.2020
5233 Clouds 9 1004 62 0 3.13 162 02:48 06.04.2020
5234 Clouds 10 1004 56 0 2.68 223 01:52 06.04.2020
5235 Clouds 12 1003 49 0 3.13 106 00:51 06.04.2020
5236 Clouds 12 1004 47 0 4.02 119 00:27 06.04.2020
5237 Clouds 12 1004 47 0 4.02 119 00:27 06.04.2020
5238 Clouds 14 1004 39 0 4.02 237 23:49 05.04.2020
5239 Clouds 13 1004 41 0 3.58 204 23:30 05.04.2020
5240 Clouds 13 1004 41 0 3.58 204 23:30 05.04.2020
5241 Clouds 13 1004 42 0 4.47 239 22:56 05.04.2020
5242 Clouds 13 1004 43 0 4.02 225 22:38 05.04.2020
5243 Clouds 13 1004 43 0 4.02 225 22:38 05.04.2020
5244 Clouds 13 1005 46 0 4.47 150 22:19 05.04.2020
5245 Clouds 13 1005 43 0 3.58 272 21:58 05.04.2020
5246 Clouds 11 1005 48 0 4.02 250 21:39 05.04.2020
5247 Clouds 11 1005 48 0 2.68 212 21:21 05.04.2020
5248 Clear 9 1006 56 0 1.34 199 20:21 05.04.2020
5249 Clear 11 1006 53 0 2.68 237 19:41 05.04.2020
5250 Clear 12 1006 51 0 2.68 228 19:22 05.04.2020
5251 Clear 11 1005 52 0 2.68 189 18:47 05.04.2020
5252 Clouds 9 1005 56 0 3.13 245 17:59 05.04.2020
5253 Clouds 9 1005 56 0 3.13 245 17:59 05.04.2020
5254 Clouds 9 1005 56 0 3.13 245 17:59 05.04.2020
5255 Clouds 9 1005 56 0 3.13 245 17:59 05.04.2020
5256 Clouds 9 1005 57 0 3.13 202 17:40 05.04.2020
5257 Clouds 9 1005 57 0 3.13 202 17:40 05.04.2020
5258 Clouds 9 1005 57 0 3.13 202 17:40 05.04.2020
5259 Clouds 9 1005 57 0 3.13 202 17:40 05.04.2020
5260 Clouds 9 1005 57 0 3.13 202 17:40 05.04.2020
5261 Clouds 8 1005 60 0 2.68 257 17:20 05.04.2020
5262 Clouds 7 1005 62 0 3.13 220 16:46 05.04.2020
5263 Clouds 7 1005 62 0 3.13 220 16:46 05.04.2020
5264 Clouds 7 1005 62 0 3.13 220 16:46 05.04.2020
5265 Clouds 7 1005 62 0 3.13 220 16:46 05.04.2020
5266 Clouds 7 1005 62 0 3.13 220 16:46 05.04.2020
5267 Clouds 6 1004 66 0 3.58 245 16:18 05.04.2020
5268 Clouds 5 1004 66 0 2.24 123 15:45 05.04.2020
5269 Clouds 5 1004 65 0 1.79 200 15:25 05.04.2020
5270 Clouds 17 1005 47 0 3.11 211 14:48 05.04.2020
5271 Clouds 17 1005 47 0 3.11 211 14:48 05.04.2020
5272 Clouds 17 1005 47 0 3.11 211 14:48 05.04.2020
5273 Clouds 17 1005 47 0 3.11 211 14:48 05.04.2020
5274 Clear 17 1005 46 0 3.13 215 13:47 05.04.2020
5275 Clear 17 1005 46 0 3.13 215 13:47 05.04.2020
5276 Clear 17 1005 46 0 3.13 215 13:01 05.04.2020
5277 Clear 18 1004 40 0 3.47 213 11:58 05.04.2020
5278 Clear 18 1004 40 0 3.47 213 11:39 05.04.2020
5279 Clear 18 1004 40 0 3.47 213 11:19 05.04.2020
5280 Clear 18 1004 40 0 3.47 213 10:46 05.04.2020
5281 Clear 18 1004 40 0 3.47 213 10:45 05.04.2020
5282 Clear 18 1004 40 0 3.47 213 10:21 05.04.2020
5283 Clear 7 1004 50 0 0.89 161 09:52 05.04.2020
5284 Clear 7 1004 50 0 0.89 161 09:52 05.04.2020
5285 Clear 7 1004 49 0 0.45 313 09:25 05.04.2020
5286 Clear 7 1004 49 0 0.45 313 09:25 05.04.2020
5287 Clear 7 1004 49 0 0.45 313 09:25 05.04.2020
5288 Clear 7 1004 49 0 0.45 313 09:25 05.04.2020
5289 Clear 7 1004 49 0 0.45 313 09:25 05.04.2020
5290 Clear 9 1003 42 0 1.34 173 07:58 05.04.2020
5291 Clear 13 1003 32 0 3.13 218 05:37 05.04.2020
5292 Clear 13 1003 32 0 3.13 218 05:37 05.04.2020
5293 Clear 14 1003 28 0 4.47 236 03:58 05.04.2020
5294 Clear 15 1003 30 0 3.58 260 03:24 05.04.2020
5295 Clear 18 1003 23 0 4.47 223 02:18 05.04.2020
5296 Clear 17 1003 25 0 4.47 200 01:42 05.04.2020
5297 Clear 16 1003 26 0 4.92 230 01:18 05.04.2020
5298 Clear 16 1003 26 0 4.92 230 01:18 05.04.2020
5299 Clear 16 1004 25 0 3.13 266 00:37 05.04.2020
5300 Clear 18 1004 24 0 2.68 247 00:18 05.04.2020
5301 Clear 18 1005 23 0 2.24 229 23:41 04.04.2020
5302 Clear 18 1005 22 0 2.24 175 23:21 04.04.2020
5303 Clear 25 1005 19 0 5.29 165 22:57 04.04.2020
5304 Clear 25 1005 19 0 5.29 165 22:39 04.04.2020
5305 Clear 25 1005 19 0 5.29 165 22:20 04.04.2020
5306 Clear 25 1005 19 0 5.29 165 21:57 04.04.2020
5307 Clear 25 1005 19 0 5.29 165 21:39 04.04.2020
5308 Clear 22 1008 22 0 3.62 153 21:19 04.04.2020
5309 Clear 22 1008 23 0 3.54 156 20:55 04.04.2020
5310 Clear 22 1008 22 0 3.67 159 20:37 04.04.2020
5311 Clear 22 1008 23 0 3.54 156 20:19 04.04.2020
5312 Clear 22 1008 23 0 3.54 156 19:42 04.04.2020
5313 Clear 22 1008 23 0 3.54 156 19:21 04.04.2020
5314 Clear 22 1008 22 0 3.67 159 18:59 04.04.2020
5315 Clear 22 1008 23 0 3.54 156 18:40 04.04.2020
5316 Clear 13 1008 35 0 0.45 122 18:21 04.04.2020
5317 Clear 12 1008 37 0 1.46 177 17:59 04.04.2020
5318 Clear 11 1008 39 0 0.45 146 17:39 04.04.2020
5319 Clear 11 1008 39 0 0.45 146 17:39 04.04.2020
5320 Clear 8 1008 46 0 1.4 173 17:19 04.04.2020
5321 Clear 19 1009 27 0 1.4 173 16:46 04.04.2020
5322 Clear 19 1009 27 0 1.4 173 16:27 04.04.2020
5323 Clear 19 1009 27 0 1.46 177 15:59 04.04.2020
5324 Clear 19 1009 27 0 1.4 173 15:39 04.04.2020
5325 Clear 19 1009 27 0 1.4 173 15:20 04.04.2020
5326 Clear 19 1009 27 0 1.4 173 15:20 04.04.2020
5327 Clear 18 1008 29 0 0.73 226 14:56 04.04.2020
5328 Clear 18 1008 29 0 0.73 226 14:38 04.04.2020
5329 Clear 18 1008 29 0 0.86 224 14:20 04.04.2020
5330 Clear 18 1008 29 0 0.86 224 13:54 04.04.2020
5331 Clear 18 1008 29 0 0.86 224 13:36 04.04.2020
5332 Clear 18 1008 29 0 0.86 224 13:18 04.04.2020
5333 Clear 18 1008 29 0 0.86 224 12:43 04.04.2020
5334 Clear 18 1008 29 0 0.86 224 12:23 04.04.2020
5335 Clear 20 1008 26 0 1.18 189 11:55 04.04.2020
5336 Clear 20 1008 26 0 1.18 189 11:36 04.04.2020
5337 Clear 20 1008 26 0 1.18 189 11:18 04.04.2020
5338 Clear 20 1008 26 0 1.18 189 10:55 04.04.2020
5339 Clear 20 1008 26 0 1.18 189 10:37 04.04.2020
5340 Clear 20 1008 26 0 1.18 189 10:18 04.04.2020
5341 Clear 20 1008 26 0 1.18 189 09:54 04.04.2020
5342 Clear 20 1008 26 0 1.18 189 09:36 04.04.2020
5343 Clear 21 1009 24 0 0.78 162 09:18 04.04.2020
5344 Clear 21 1009 24 0 0.78 162 08:38 04.04.2020
5345 Clear 21 1009 24 0 0.78 162 08:19 04.04.2020
5346 Clear 21 1009 24 0 0.78 162 07:41 04.04.2020
5347 Clear 21 1009 24 0 0.78 162 07:23 04.04.2020
5348 Clear 21 1009 24 0 0.78 162 06:47 04.04.2020
5349 Clear 23 1008 21 0 1.31 118 06:18 04.04.2020
5350 Clear 10 1008 33 0 1.31 118 05:41 04.04.2020
5351 Clear 11 1008 30 0 1.31 118 05:23 04.04.2020
5352 Clear 12 1008 26 0 1.79 360 04:27 04.04.2020
5353 Clear 16 1008 22 0 0.89 50 03:49 04.04.2020
5354 Clouds 19 1008 18 0 1.79 34 02:50 04.04.2020
5355 Clouds 25 1008 19 0 2 142 02:32 04.04.2020
5356 Clouds 25 1008 19 0 1.96 132 01:53 04.04.2020
5357 Clouds 25 1008 19 0 1.96 132 01:24 04.04.2020
5358 Clouds 25 1008 19 0 1.96 132 00:48 04.04.2020
5359 Clouds 25 1008 19 0 1.96 132 00:28 04.04.2020
5360 Clouds 24 1010 19 0 1.54 132 23:39 03.04.2020
5361 Clouds 24 1010 19 0 1.54 132 23:21 03.04.2020
5362 Clouds 24 1010 19 0 1.54 132 22:58 03.04.2020
5363 Clouds 24 1010 19 0 1.54 132 22:39 03.04.2020
5364 Clouds 24 1010 19 0 1.54 132 22:18 03.04.2020
5365 Clouds 24 1010 19 0 1.54 132 22:18 03.04.2020
5366 Clouds 24 1010 19 0 1.54 132 21:44 03.04.2020
5367 Clouds 24 1010 19 0 1.9 135 21:25 03.04.2020
5368 Clouds 22 1013 21 0 1.78 125 20:57 03.04.2020
5369 Clouds 22 1013 21 0 1.78 125 20:38 03.04.2020
5370 Clouds 22 1013 21 0 1.78 125 20:20 03.04.2020
5371 Clouds 22 1013 21 0 1.78 125 19:57 03.04.2020
5372 Clouds 22 1013 21 0 1.78 125 19:39 03.04.2020
5373 Clouds 22 1013 21 0 1.78 125 19:21 03.04.2020
5374 Clouds 22 1013 21 0 1.78 125 18:59 03.04.2020
5375 Clouds 22 1013 21 0 1.78 125 18:59 03.04.2020
5376 Clouds 14 1013 28 0 1.34 40 18:41 03.04.2020
5377 Clouds 14 1013 29 0 1.34 94 18:23 03.04.2020
5378 Clouds 12 1013 34 0 0.89 94 17:57 03.04.2020
5379 Clouds 10 1013 35 0 0.19 107 17:39 03.04.2020
5380 Clouds 7 1013 44 0 0.19 107 17:18 03.04.2020
5381 Clouds 19 1014 25 0 0.19 107 16:45 03.04.2020
5382 Clouds 19 1014 25 0 0.19 107 16:22 03.04.2020
5383 Clouds 19 1014 25 0 0.19 107 15:58 03.04.2020
5384 Clouds 19 1014 25 0 0.19 107 15:40 03.04.2020
5385 Clouds 19 1014 25 0 0.19 107 15:21 03.04.2020
5386 Clear 17 1013 29 0 0.08 21 14:56 03.04.2020
5387 Clear 17 1013 29 0 0.08 21 14:38 03.04.2020
5388 Clear 17 1013 29 0 0.08 21 14:20 03.04.2020
5389 Clear 17 1014 29 0 0.27 67 13:43 03.04.2020
5390 Clear 17 1014 29 0 0.27 67 13:25 03.04.2020
5391 Clear 17 1014 29 0 0.27 67 12:56 03.04.2020
5392 Clear 17 1014 29 0 0.27 67 12:37 03.04.2020
5393 Clear 19 1013 27 0 0.43 353 12:18 03.04.2020
5394 Clear 19 1013 27 0 0.43 353 11:54 03.04.2020
5395 Clear 19 1013 27 0 0.43 353 11:36 03.04.2020
5396 Clear 19 1013 27 0 0.43 353 11:18 03.04.2020
5397 Clear 19 1013 27 0 0.43 353 10:54 03.04.2020
5398 Clear 19 1013 27 0 0.43 353 10:36 03.04.2020
5399 Clear 19 1013 27 0 0.43 353 10:18 03.04.2020
5400 Clear 19 1013 27 0 0.43 353 09:40 03.04.2020
5401 Clear 18 1014 27 0 0.83 13 09:22 03.04.2020
5402 Clear 20 1014 25 0 0.47 343 08:57 03.04.2020
5403 Clear 20 1014 25 0 0.47 343 08:39 03.04.2020
5404 Clear 20 1014 25 0 0.47 343 08:20 03.04.2020
5405 Clear 20 1014 25 0 0.47 343 07:50 03.04.2020
5406 Clear 20 1014 25 0 0.47 343 07:31 03.04.2020
5407 Clear 20 1014 25 0 0.47 343 06:50 03.04.2020
5408 Clear 20 1014 25 0 0.47 343 06:25 03.04.2020
5409 Clear 8 1011 35 0 0.71 30 05:40 03.04.2020
5410 Clear 14 1010 21 0 1.34 31 03:45 03.04.2020
5411 Clear 14 1010 20 0 2.24 45 03:23 03.04.2020
5412 Clear 23 1011 19 0 1.78 12 02:28 03.04.2020
5413 Clear 23 1011 19 0 1.73 25 01:23 03.04.2020
5414 Clear 23 1011 19 0 1.73 25 00:40 03.04.2020
5415 Clear 22 1013 20 0 3.04 8 00:20 03.04.2020
5416 Clear 22 1013 20 0 3.04 8 23:42 02.04.2020
5417 Clear 22 1013 20 0 3.04 8 23:23 02.04.2020
5418 Clear 22 1013 20 0 3.04 8 22:59 02.04.2020
5419 Clear 22 1013 20 0 3.04 8 22:41 02.04.2020
5420 Clear 22 1013 20 0 3.04 8 22:20 02.04.2020
5421 Clear 22 1013 20 0 3.04 8 21:55 02.04.2020
5422 Clear 22 1013 20 0 3.04 8 21:36 02.04.2020
5423 Clear 20 1014 24 0 4.51 6 21:18 02.04.2020
5424 Clear 20 1014 24 0 4.51 6 20:42 02.04.2020
5425 Clear 20 1014 24 0 4.51 6 20:22 02.04.2020
5426 Clear 20 1014 24 0 4.51 6 19:55 02.04.2020
5427 Clear 20 1014 24 0 4.51 6 19:37 02.04.2020
5428 Clear 20 1014 24 0 4.51 6 19:18 02.04.2020
5429 Clear 11 1011 25 0 1.79 310 18:41 02.04.2020
5430 Clear 10 1011 26 0 2.24 334 18:21 02.04.2020
5431 Clear 10 1011 26 0 2.24 334 18:21 02.04.2020
5432 Clear 9 1011 26 0 2.68 299 17:57 02.04.2020
5433 Clear 8 1010 28 0 3.13 335 17:39 02.04.2020
5434 Clear 7 1010 30 0 4.02 327 17:20 02.04.2020
5435 Clear 6 1010 31 0 4.02 334 16:57 02.04.2020
5436 Clear 6 1009 32 0 3.13 336 16:39 02.04.2020
5437 Clear 5 1008 33 0 3.13 333 16:21 02.04.2020
5438 Clear 4 1008 33 0 1.79 330 15:55 02.04.2020
5439 Clear 4 1008 33 0 2.68 325 15:37 02.04.2020
5440 Clear 4 1008 36 0 3.13 318 15:18 02.04.2020
5441 Clear 4 1007 37 0 1.34 339 14:40 02.04.2020
5442 Clear 6 1007 33 0 4.02 341 14:21 02.04.2020
5443 Clear 6 1007 33 0 4.02 341 13:59 02.04.2020
5444 Clear 6 1007 33 0 2.68 318 13:40 02.04.2020
5445 Clear 6 1006 36 0 2.24 325 13:21 02.04.2020
5446 Clear 17 1010 31 0 2.87 349 12:57 02.04.2020
5447 Clear 17 1010 31 0 2.87 349 12:39 02.04.2020
5448 Clear 19 1008 31 0 2.41 313 12:19 02.04.2020
5449 Clear 19 1008 31 0 2.41 313 12:19 02.04.2020
5450 Clear 19 1008 31 0 2.41 313 12:19 02.04.2020
5451 Clear 19 1008 31 0 2.41 313 12:19 02.04.2020
5452 Clear 19 1008 31 0 2.41 313 11:57 02.04.2020
5453 Clear 19 1008 31 0 2.41 313 11:38 02.04.2020
5454 Clear 19 1008 31 0 2.41 313 11:19 02.04.2020
5455 Clear 19 1008 31 0 2.41 313 11:19 02.04.2020
5456 Clear 19 1008 31 0 2.41 313 10:55 02.04.2020
5457 Clear 19 1008 31 0 2.41 313 10:37 02.04.2020
5458 Clear 19 1008 31 0 2.41 313 10:19 02.04.2020
5459 Clear 19 1008 31 0 2.41 313 09:56 02.04.2020
5460 Clear 19 1008 31 0 2.41 313 09:38 02.04.2020
5461 Clear 22 1005 24 0 3.5 226 09:19 02.04.2020
5462 Clear 22 1005 24 0 3.7 238 08:46 02.04.2020
5463 Clear 22 1005 24 0 3.7 238 08:26 02.04.2020
5464 Clear 11 1004 33 0 0.89 82 07:45 02.04.2020
5465 Clear 11 1004 32 0 1.34 2 07:21 02.04.2020
5466 Clear 12 1004 31 0 1.79 92 06:59 02.04.2020
5467 Clear 12 1003 30 0 3.7 238 06:22 02.04.2020
5468 Clear 26 1003 19 0 3.61 260 05:45 02.04.2020
5469 Clear 14 1002 24 0 3.13 235 04:46 02.04.2020
5470 Clear 22 1001 13 0 3.58 240 01:54 02.04.2020
5471 Clear 22 1002 13 0 3.58 252 00:54 02.04.2020
5472 Clear 30 1002 14 0 4.14 213 00:31 02.04.2020
5473 Clear 27 1005 24 0 2.81 174 23:59 01.04.2020
5474 Clear 22 1003 28 0 2.68 27 23:38 01.04.2020
5475 Clear 27 1005 24 0 2.81 174 23:18 01.04.2020
5476 Clear 27 1005 24 0 2.81 174 22:41 01.04.2020
5477 Clear 27 1005 24 0 2.81 174 22:22 01.04.2020
5478 Clear 27 1005 24 0 2.81 174 21:58 01.04.2020
5479 Clear 21 1005 34 0 2.68 45 21:39 01.04.2020
5480 Clear 24 1008 33 0 2.65 162 21:19 01.04.2020
5481 Clear 24 1008 33 0 2.65 162 20:56 01.04.2020
5482 Clear 19 1006 37 0 2.24 50 20:38 01.04.2020
5483 Clear 24 1008 33 0 2.65 162 20:19 01.04.2020
5484 Clear 24 1008 33 0 2.65 162 19:57 01.04.2020
5485 Clear 24 1008 33 0 2.65 162 19:37 01.04.2020
5486 Clear 24 1008 33 0 2.65 162 19:37 01.04.2020
5487 Clear 18 1007 40 0 1.34 54 19:19 01.04.2020
5488 Clear 17 1007 41 0 1.34 67 18:41 01.04.2020
5489 Clear 16 1007 43 0 1.34 76 18:22 01.04.2020
5490 Clear 14 1007 46 0 0.89 50 17:57 01.04.2020
5491 Clear 13 1007 48 0 1.34 59 17:37 01.04.2020
5492 Clear 11 1007 57 0 0.45 63 17:19 01.04.2020
5493 Clear 10 1007 62 0 0.89 59 16:56 01.04.2020
5494 Clear 8 1007 67 0 0.45 45 16:38 01.04.2020
5495 Clear 21 1008 39 0 1.28 188 16:20 01.04.2020
5496 Clear 21 1008 39 0 1.28 188 15:43 01.04.2020
5497 Clear 21 1008 39 0 1.28 188 15:24 01.04.2020
5498 Clouds 20 1008 40 0 0.5 246 14:59 01.04.2020
5499 Clouds 20 1008 40 0 0.5 246 14:40 01.04.2020
5500 Clouds 20 1008 40 0 0.5 246 14:40 01.04.2020
5501 Clouds 20 1008 40 0 0.5 246 14:21 01.04.2020
5502 Clouds 20 1008 40 0 0.7 240 13:59 01.04.2020
5503 Clouds 20 1008 40 0 0.7 240 13:39 01.04.2020
5504 Clouds 20 1008 40 0 0.7 240 13:20 01.04.2020
5505 Clouds 20 1008 40 0 0.7 240 12:58 01.04.2020
5506 Clouds 20 1008 40 0 0.7 240 12:40 01.04.2020
5507 Clouds 20 1008 40 0 0.7 240 12:21 01.04.2020
5508 Clouds 22 1010 35 0 0.54 255 11:57 01.04.2020
5509 Clouds 22 1010 35 0 0.54 255 11:37 01.04.2020
5510 Clouds 22 1010 35 0 0.54 255 11:37 01.04.2020
5511 Clouds 22 1010 35 0 0.54 255 11:19 01.04.2020
5512 Clouds 22 1010 35 0 0.54 255 10:40 01.04.2020
5513 Clouds 22 1010 35 0 0.54 255 10:21 01.04.2020
5514 Clouds 22 1010 35 0 0.54 255 09:59 01.04.2020
5515 Clouds 22 1010 35 0 0.54 255 09:40 01.04.2020
5516 Clouds 22 1010 35 0 0.54 255 09:20 01.04.2020
5517 Clouds 23 1011 27 0 0.84 195 08:56 01.04.2020
5518 Clouds 23 1011 27 0 0.84 195 08:37 01.04.2020
5519 Clouds 23 1011 27 0 0.84 195 08:18 01.04.2020
5520 Clouds 23 1011 27 0 0.84 195 07:41 01.04.2020
5521 Clouds 23 1011 27 0 0.84 195 07:19 01.04.2020
5522 Clouds 23 1011 27 0 0.84 195 06:47 01.04.2020
5523 Clouds 23 1011 27 0 0.84 195 06:21 01.04.2020
5524 Clouds 25 1011 22 0 1.67 169 05:50 01.04.2020
5525 Clouds 16 1012 36 0 1.34 110 04:29 01.04.2020
5526 Clouds 22 1012 24 0 0.89 106 03:21 01.04.2020
5527 Clouds 22 1012 24 0 2.68 10 02:41 01.04.2020
5528 Clouds 27 1011 17 0 2.29 152 01:53 01.04.2020
5529 Clouds 27 1011 17 0 2.29 152 01:27 01.04.2020
5530 Clouds 27 1011 17 0 2.29 152 00:47 01.04.2020
5531 Clouds 27 1011 17 0 2.29 152 00:25 01.04.2020
5532 Clouds 26 1015 18 0 2.03 130 23:59 31.03.2020
5533 Clouds 26 1015 18 0 2.03 130 23:41 31.03.2020
5534 Clouds 26 1015 18 0 2.03 130 23:22 31.03.2020
5535 Clouds 26 1015 18 0 2.03 130 22:42 31.03.2020
5536 Clouds 26 1015 18 0 2.03 130 22:22 31.03.2020
5537 Clouds 26 1015 18 0 2.03 130 21:59 31.03.2020
5538 Clouds 26 1015 18 0 2.03 130 21:59 31.03.2020
5539 Clouds 26 1015 18 0 2.03 130 21:41 31.03.2020
5540 Clear 26 1015 18 0 2.31 134 21:22 31.03.2020
5541 Clear 24 1018 21 0 1.42 109 20:58 31.03.2020
5542 Clear 24 1018 21 0 1.42 109 20:38 31.03.2020
5543 Clear 24 1018 21 0 1.42 109 20:20 31.03.2020
5544 Clear 24 1018 21 0 1.42 109 19:59 31.03.2020
5545 Clear 24 1018 21 0 1.42 109 19:40 31.03.2020
5546 Clear 24 1018 21 0 1.42 109 19:21 31.03.2020
5547 Clear 24 1018 21 0 1.42 109 18:55 31.03.2020
5548 Clear 17 1020 34 0 0.89 92 18:37 31.03.2020
5549 Clear 21 1019 27 0 0.25 94 18:18 31.03.2020
5550 Clear 14 1020 39 0 0.45 78 17:54 31.03.2020
5551 Clear 13 1020 41 0 0.25 94 17:36 31.03.2020
5552 Clear 10 1020 50 0 0.89 277 17:18 31.03.2020
5553 Clear 21 1019 27 0 0.25 94 16:38 31.03.2020
5554 Clear 21 1019 27 0 0.25 94 16:19 31.03.2020
5555 Clear 21 1019 27 0 0.25 94 15:57 31.03.2020
5556 Clear 21 1019 27 0 0.25 94 15:38 31.03.2020
5557 Clear 18 1019 32 0 0.66 342 15:19 31.03.2020
5558 Clear 18 1019 32 0 0.66 342 14:56 31.03.2020
5559 Clear 18 1019 32 0 0.66 342 14:38 31.03.2020
5560 Clear 18 1018 32 0 0.48 352 14:20 31.03.2020
5561 Clear 18 1018 32 0 0.48 352 13:42 31.03.2020
5562 Clear 18 1018 32 0 0.48 352 13:19 31.03.2020
5563 Clear 18 1018 32 0 0.48 352 12:55 31.03.2020
5564 Clear 18 1018 32 0 0.48 352 12:37 31.03.2020
5565 Clear 19 1020 30 0 0.36 197 12:18 31.03.2020
5566 Clear 19 1020 30 0 0.36 197 11:39 31.03.2020
5567 Clear 19 1020 30 0 0.36 197 11:20 31.03.2020
5568 Clear 19 1020 30 0 0.36 197 10:58 31.03.2020
5569 Clear 19 1020 30 0 0.36 197 10:40 31.03.2020
5570 Clear 19 1020 30 0 0.36 197 10:21 31.03.2020
5571 Clear 19 1020 30 0 0.36 197 09:56 31.03.2020
5572 Clear 19 1020 30 0 0.36 197 09:37 31.03.2020
5573 Clear 21 1021 27 0 1.05 200 09:19 31.03.2020
5574 Clear 21 1021 27 0 1.05 200 08:56 31.03.2020
5575 Clear 21 1021 27 0 1.05 200 08:56 31.03.2020
5576 Clear 21 1021 27 0 1.05 200 08:37 31.03.2020
5577 Clear 21 1021 27 0 1.05 200 08:19 31.03.2020
5578 Clear 21 1021 27 0 1.05 200 07:55 31.03.2020
5579 Clear 21 1021 27 0 1.05 200 07:37 31.03.2020
5580 Clear 21 1021 27 0 1.05 200 07:18 31.03.2020
5581 Clear 21 1021 27 0 1.05 200 06:42 31.03.2020
5582 Clear 23 1020 23 0 0.82 157 05:57 31.03.2020
5583 Clear 23 1020 23 0 0.82 157 05:38 31.03.2020
5584 Clear 15 1021 27 0 0.89 116 03:27 31.03.2020
5585 Clear 25 1018 19 0 2.21 165 01:52 31.03.2020
5586 Clear 25 1018 19 0 2.21 165 01:33 31.03.2020
5587 Clear 25 1018 19 0 2.21 165 00:46 31.03.2020
5588 Clear 25 1018 19 0 2.21 165 00:24 31.03.2020
5589 Clear 23 1021 22 0 2.24 157 23:41 30.03.2020
5590 Clear 23 1021 22 0 2.24 157 23:20 30.03.2020
5591 Clear 23 1021 22 0 2.24 157 22:58 30.03.2020
5592 Clear 23 1021 22 0 2.24 157 22:39 30.03.2020
5593 Clear 23 1021 22 0 2.24 157 22:20 30.03.2020
5594 Clear 23 1021 22 0 2.24 157 21:58 30.03.2020
5595 Clear 23 1021 22 0 2.24 157 21:39 30.03.2020
5596 Clear 23 1021 22 0 2.24 157 21:20 30.03.2020
5597 Clear 21 1023 29 0 2.32 142 20:59 30.03.2020
5598 Clear 21 1023 29 0 2.32 142 20:39 30.03.2020
5599 Clear 21 1023 29 0 2.32 142 20:20 30.03.2020
5600 Clear 21 1023 29 0 2.32 142 20:20 30.03.2020
5601 Clear 21 1023 29 0 2.32 142 20:20 30.03.2020
5602 Clear 21 1023 29 0 2.32 142 19:57 30.03.2020
5603 Clear 12 1025 42 0 0.89 181 19:39 30.03.2020
5604 Clear 21 1023 29 0 2.32 142 19:20 30.03.2020
5605 Clear 12 1025 45 0 0.45 125 18:43 30.03.2020
5606 Clear 11 1024 46 0 0.89 130 18:25 30.03.2020
5607 Clear 8 1024 58 0 0.74 117 17:58 30.03.2020
5608 Clear 7 1024 60 0 0.74 117 17:39 30.03.2020
5609 Clear 5 1024 70 0 0.45 106 17:21 30.03.2020
5610 Clear 18 1022 37 0 0.74 117 16:59 30.03.2020
5611 Clear 18 1022 37 0 0.74 117 16:40 30.03.2020
5612 Clear 18 1022 37 0 0.74 117 16:20 30.03.2020
5613 Clear 18 1022 37 0 0.74 117 15:56 30.03.2020
5614 Clear 18 1022 37 0 0.74 117 15:38 30.03.2020
5615 Clear 18 1022 37 0 0.74 117 15:38 30.03.2020
5616 Clear 15 1020 44 0 0.83 254 15:20 30.03.2020
5617 Clear 15 1020 44 0 0.83 254 14:56 30.03.2020
5618 Clear 15 1020 44 0 0.83 254 14:37 30.03.2020
5619 Clear 15 1020 44 0 0.83 254 14:18 30.03.2020
5620 Clear 16 1020 40 0 1.01 269 13:56 30.03.2020
5621 Clear 16 1020 40 0 1.01 269 13:37 30.03.2020
5622 Clear 16 1020 40 0 1.01 269 13:19 30.03.2020
5623 Clear 16 1020 40 0 1.01 269 12:44 30.03.2020
5624 Clear 16 1020 40 0 1.01 269 12:21 30.03.2020
5625 Clear 17 1019 39 0 0.69 263 11:58 30.03.2020
5626 Clear 17 1019 39 0 0.69 263 11:39 30.03.2020
5627 Clear 17 1019 39 0 0.69 263 11:21 30.03.2020
5628 Clear 17 1019 39 0 0.69 263 10:55 30.03.2020
5629 Clear 17 1019 39 0 0.69 263 10:36 30.03.2020
5630 Clear 4 1020 68 0 0.89 339 10:18 30.03.2020
5631 Clear 4 1020 69 0 1.34 331 09:40 30.03.2020
5632 Clouds 18 1018 38 0 0.41 332 09:19 30.03.2020
5633 Clouds 18 1018 38 0 0.41 332 08:56 30.03.2020
5634 Clouds 18 1018 38 0 0.41 332 08:36 30.03.2020
5635 Clouds 18 1018 38 0 0.41 332 08:18 30.03.2020
5636 Clouds 18 1018 38 0 0.41 332 07:42 30.03.2020
5637 Clouds 18 1018 38 0 0.41 332 07:20 30.03.2020
5638 Clouds 18 1018 38 0 0.41 332 06:42 30.03.2020
5639 Clouds 18 1018 38 0 0.41 332 06:23 30.03.2020
5640 Clouds 19 1015 32 0 1.08 16 05:43 30.03.2020
5641 Clouds 7 1017 60 0 0.45 349 04:29 30.03.2020
5642 Clouds 8 1016 53 0 0.89 329 03:54 30.03.2020
5643 Rain 9 1016 56 0 0.45 245 02:44 30.03.2020
5644 Rain 8 1015 62 0 2.24 147 01:55 30.03.2020
5645 Rain 20 1013 31 0 1.03 3 00:59 30.03.2020
5646 Rain 7 1015 67 0 1.79 169 00:28 30.03.2020
5647 Clouds 8 1016 63 0 2.24 184 23:56 29.03.2020
5648 Clouds 7 1016 72 0 1.79 243 23:37 29.03.2020
5649 Clouds 8 1015 47 0 2.24 223 23:18 29.03.2020
5650 Clouds 9 1015 43 0 1.79 226 22:40 29.03.2020
5651 Clouds 19 1015 33 0 1.62 20 22:20 29.03.2020
5652 Clouds 19 1015 33 0 1.62 20 21:59 29.03.2020
5653 Clouds 19 1015 33 0 1.62 20 21:38 29.03.2020
5654 Clouds 19 1016 29 0 1.01 140 21:20 29.03.2020
5655 Clouds 19 1016 29 0 1.01 140 20:55 29.03.2020
5656 Clouds 19 1016 29 0 1.01 140 20:37 29.03.2020
5657 Clouds 19 1016 29 0 1.01 140 20:19 29.03.2020
5658 Clouds 11 1016 42 0 0.89 21 19:57 29.03.2020
5659 Clouds 11 1016 42 0 0.89 21 19:57 29.03.2020
5660 Clouds 11 1016 41 0 0.89 13 19:39 29.03.2020
5661 Clouds 11 1016 41 0 0.89 13 19:39 29.03.2020
5662 Clouds 10 1016 43 0 1.79 25 19:21 29.03.2020
5663 Clouds 10 1016 42 0 1.34 40 18:57 29.03.2020
5664 Clouds 10 1016 43 0 0.89 69 18:38 29.03.2020
5665 Clouds 16 1016 35 0 1.34 226 18:19 29.03.2020
5666 Clouds 9 1016 48 0 0.45 96 17:55 29.03.2020
5667 Clouds 8 1015 52 0 1.34 226 17:37 29.03.2020
5668 Clouds 4 1016 63 0 0.45 72 17:18 29.03.2020
5669 Clouds 3 1016 68 0 0.45 75 16:56 29.03.2020
5670 Clouds 16 1016 35 0 1.34 226 16:38 29.03.2020
5671 Clouds 16 1016 35 0 1.34 226 16:18 29.03.2020
5672 Clouds 16 1016 35 0 1.34 226 15:41 29.03.2020
5673 Clouds 16 1016 35 0 1.34 226 15:23 29.03.2020
5674 Clouds 16 1016 35 0 1.34 226 15:23 29.03.2020
5675 Clouds 3 1015 65 0 1.51 218 14:58 29.03.2020
5676 Clouds 3 1015 63 0 1.51 218 14:40 29.03.2020
5677 Clouds 4 1015 62 0 1.34 6 14:20 29.03.2020
5678 Clouds 4 1015 61 0 1.79 20 13:57 29.03.2020
5679 Clouds 4 1015 61 0 0.89 31 13:39 29.03.2020
5680 Clouds 4 1015 59 0 1.34 50 13:20 29.03.2020
5681 Clouds 4 1015 59 0 1.79 18 12:55 29.03.2020
5682 Clouds 4 1015 58 0 1.79 36 12:37 29.03.2020
5683 Clouds 4 1015 61 0 0.89 26 12:19 29.03.2020
5684 Clouds 4 1015 61 0 0.89 26 12:19 29.03.2020
5685 Clouds 5 1016 58 0 0.45 45 11:55 29.03.2020
5686 Clouds 5 1016 56 0 1.66 176 11:37 29.03.2020
5687 Clouds 5 1016 57 0 0.45 83 11:18 29.03.2020
5688 Clouds 5 1016 57 0 0.45 83 11:18 29.03.2020
5689 Clouds 5 1016 55 0 0.45 100 10:38 29.03.2020
5690 Clouds 6 1016 54 0 0.89 86 10:19 29.03.2020
5691 Clouds 6 1017 52 0 0.89 180 09:41 29.03.2020
5692 Clouds 6 1017 52 0 0.89 166 09:22 29.03.2020
5693 Clouds 7 1017 52 0 0.89 155 08:56 29.03.2020
5694 Clouds 7 1017 51 0 2.24 159 08:38 29.03.2020
5695 Clouds 7 1017 53 0 0.89 220 08:19 29.03.2020
5696 Clouds 6 1017 56 0 0.45 106 07:42 29.03.2020
5697 Clouds 6 1017 56 0 0.45 106 07:21 29.03.2020
5698 Clouds 6 1017 51 0 0.45 127 05:58 29.03.2020
5699 Clouds 7 1017 45 0 1.34 181 04:55 29.03.2020
5700 Clouds 9 1017 35 0 2.68 228 03:33 29.03.2020
5701 Clouds 11 1018 34 0 2.24 235 01:52 29.03.2020
5702 Clouds 10 1018 34 0 1.79 212 01:24 29.03.2020
5703 Clouds 12 1018 30 0 2.68 207 00:58 29.03.2020
5704 Clouds 12 1018 31 0 3.13 158 00:34 29.03.2020
5705 Clouds 12 1018 34 0 2.24 210 23:59 28.03.2020
5706 Clouds 13 1018 27 0 1.79 102 23:40 28.03.2020
5707 Clouds 20 1015 25 0 4.02 164 23:22 28.03.2020
5708 Clouds 19 1017 26 0 3.27 143 22:42 28.03.2020
5709 Clouds 19 1017 26 0 3.27 143 22:22 28.03.2020
5710 Clouds 19 1017 26 0 3.27 143 21:57 28.03.2020
5711 Clouds 19 1017 26 0 3.27 143 21:39 28.03.2020
5712 Clouds 19 1017 26 0 3.27 143 21:19 28.03.2020
5713 Clouds 19 1017 26 0 3.27 143 20:56 28.03.2020
5714 Clouds 19 1017 26 0 3.27 143 20:37 28.03.2020
5715 Clouds 17 1020 30 0 2.6 133 20:19 28.03.2020
5716 Clouds 17 1020 30 0 2.61 135 19:55 28.03.2020
5717 Clouds 17 1020 30 0 2.61 135 19:36 28.03.2020
5718 Clouds 17 1020 30 0 2.61 135 19:18 28.03.2020
5719 Clouds 17 1020 30 0 2.61 135 18:41 28.03.2020
5720 Clouds 17 1020 30 0 2.61 135 18:20 28.03.2020
5721 Clouds 10 1022 39 0 1.34 54 17:43 28.03.2020
5722 Clouds 9 1022 39 0 0.89 36 17:24 28.03.2020
5723 Clouds 8 1022 47 0 0.89 77 16:59 28.03.2020
5724 Clouds 7 1022 54 0 0.45 94 16:39 28.03.2020
5725 Clouds 3 1023 69 0 1.31 140 16:18 28.03.2020
5726 Clouds 15 1020 36 0 1.31 140 15:55 28.03.2020
5727 Clouds 15 1020 36 0 1.31 140 15:37 28.03.2020
5728 Clouds 15 1020 36 0 1.31 140 15:18 28.03.2020
5729 Clouds 15 1020 36 0 1.31 140 14:41 28.03.2020
5730 Clouds 15 1020 36 0 1.31 140 14:21 28.03.2020
5731 Clear 14 1019 39 0 0.73 169 13:43 28.03.2020
5732 Clear 14 1019 39 0 0.73 169 13:24 28.03.2020
5733 Clear 14 1019 38 0 0.68 193 12:43 28.03.2020
5734 Clear 14 1019 38 0 0.68 193 12:24 28.03.2020
5735 Clear 14 1019 38 0 0.68 193 11:59 28.03.2020
5736 Clear 14 1019 38 0 0.68 193 11:41 28.03.2020
5737 Clear 14 1019 38 0 0.68 193 11:21 28.03.2020
5738 Clear 15 1019 36 0 1.14 235 10:40 28.03.2020
5739 Clear 15 1019 36 0 1.14 235 10:22 28.03.2020
5740 Clear 15 1019 36 0 1.14 235 09:56 28.03.2020
5741 Clear 15 1019 36 0 1.14 235 09:37 28.03.2020
5742 Clear 15 1019 36 0 1.14 235 09:19 28.03.2020
5743 Clear 15 1019 36 0 1.14 235 08:42 28.03.2020
5744 Clear 15 1019 36 0 1.14 235 08:22 28.03.2020
5745 Clear 17 1018 31 0 1.48 228 07:46 28.03.2020
5746 Clear 17 1018 31 0 1.48 228 07:28 28.03.2020
5747 Clear 17 1018 31 0 1.48 228 06:41 28.03.2020
5748 Clear 17 1018 31 0 1.48 228 06:18 28.03.2020
5749 Clear 17 1018 31 0 1.48 228 05:23 28.03.2020
5750 Clear 18 1015 25 0 2.03 173 04:43 28.03.2020
5751 Clear 18 1015 25 0 2.03 173 04:20 28.03.2020
5752 Clear 9 1018 28 0 1.34 182 02:46 28.03.2020
5753 Clear 11 1018 25 0 2.68 220 01:46 28.03.2020
5754 Clear 12 1018 23 0 1.34 162 01:20 28.03.2020
5755 Clear 20 1013 21 0 0.85 314 00:47 28.03.2020
5756 Clear 20 1013 21 0 0.85 314 00:21 28.03.2020
5757 Clear 20 1013 21 0 0.85 314 23:43 27.03.2020
5758 Clear 20 1013 21 0 0.85 314 23:24 27.03.2020
5759 Clear 12 1019 19 0 0.89 270 22:57 27.03.2020
5760 Clear 11 1019 19 0 1.79 192 22:39 27.03.2020
5761 Clear 9 1019 24 0 0.89 339 22:20 27.03.2020
5762 Clear 9 1019 24 0 1.34 298 21:57 27.03.2020
5763 Clear 9 1019 24 0 1.34 251 21:38 27.03.2020
5764 Clear 9 1020 27 0 1.34 277 21:20 27.03.2020
5765 Clear 9 1020 24 0 0.89 260 20:55 27.03.2020
5766 Clear 9 1020 29 0 0.89 94 20:37 27.03.2020
5767 Clear 8 1020 30 0 0.89 339 20:19 27.03.2020
5768 Clear 8 1020 28 0 1.34 309 19:43 27.03.2020
5769 Clear 8 1020 28 0 0.89 247 19:23 27.03.2020
5770 Clear 7 1020 39 0 0.89 277 18:57 27.03.2020
5771 Clear 6 1020 41 0 1.34 326 18:39 27.03.2020
5772 Clear 3 1020 47 0 2.24 243 18:20 27.03.2020
5773 Clear 3 1020 47 0 4.02 229 17:40 27.03.2020
5774 Clear 3 1019 49 0 2.24 255 17:20 27.03.2020
5775 Clear 2 1019 53 0 1.34 274 16:57 27.03.2020
5776 Clear 2 1019 54 0 1.34 303 16:38 27.03.2020
5777 Clear 0 1019 57 0 1.34 254 16:20 27.03.2020
5778 Clear 14 1016 37 0 2.93 308 15:43 27.03.2020
5779 Clear 14 1016 37 0 2.93 308 15:25 27.03.2020
5780 Clear 14 1016 37 0 2.93 308 14:48 27.03.2020
5781 Clear 14 1016 37 0 2.93 308 14:27 27.03.2020
5782 Clouds 13 1014 41 0 1.77 296 13:58 27.03.2020
5783 Clouds 13 1014 41 0 1.77 296 13:40 27.03.2020
5784 Clouds 13 1014 40 0 1.71 293 13:21 27.03.2020
5785 Clouds 13 1014 40 0 1.71 293 12:58 27.03.2020
5786 Clouds 13 1014 40 0 1.71 293 12:39 27.03.2020
5787 Clouds 13 1014 40 0 1.71 293 12:19 27.03.2020
5788 Clouds 13 1014 40 0 1.71 293 11:42 27.03.2020
5789 Clouds 13 1014 40 0 1.71 293 11:24 27.03.2020
5790 Rain 14 1013 39 0 1.94 266 10:55 27.03.2020
5791 Rain 14 1013 39 0 1.94 266 10:37 27.03.2020
5792 Rain 14 1013 39 0 1.94 266 10:19 27.03.2020
5793 Rain 14 1013 39 0 1.94 266 09:57 27.03.2020
5794 Rain 14 1013 39 0 1.94 266 09:38 27.03.2020
5795 Rain 14 1013 39 0 1.94 266 09:19 27.03.2020
5796 Rain 14 1013 39 0 1.94 266 08:56 27.03.2020
5797 Rain 14 1013 39 0 1.94 266 08:38 27.03.2020
5798 Rain 14 1012 37 0 1 257 08:20 27.03.2020
5799 Rain 14 1012 39 0 0.36 166 07:52 27.03.2020
5800 Rain 14 1012 39 0 0.36 166 07:25 27.03.2020
5801 Rain 14 1012 39 0 0.36 166 06:53 27.03.2020
5802 Rain 14 1012 39 0 0.36 166 06:35 27.03.2020
5803 Rain 14 1010 43 0 0.22 5 04:59 27.03.2020
5804 Rain 14 1010 43 0 0.22 5 02:46 27.03.2020
5805 Rain 16 1009 32 0 1.93 225 01:23 27.03.2020
5806 Rain 16 1009 33 0 1.55 230 00:51 27.03.2020
5807 Rain 16 1009 33 0 1.55 230 00:32 27.03.2020
5808 Rain 16 1009 33 0 1.55 230 23:44 26.03.2020
5809 Rain 16 1009 33 0 1.55 230 23:23 26.03.2020
5810 Rain 16 1011 33 0 1.57 162 22:59 26.03.2020
5811 Rain 16 1011 33 0 1.57 162 22:39 26.03.2020
5812 Rain 16 1011 33 0 1.57 162 22:20 26.03.2020
5813 Rain 16 1011 33 0 1.57 162 21:58 26.03.2020
5814 Rain 16 1011 33 0 1.57 162 21:39 26.03.2020
5815 Rain 16 1011 33 0 1.57 162 21:21 26.03.2020
5816 Rain 16 1011 33 0 1.57 162 20:58 26.03.2020
5817 Rain 16 1011 33 0 1.57 162 20:38 26.03.2020
5818 Rain 14 1013 39 0 1.02 143 20:20 26.03.2020
5819 Rain 14 1013 39 0 1.02 143 19:56 26.03.2020
5820 Rain 14 1013 39 0 1.02 143 19:38 26.03.2020
5821 Rain 14 1013 39 0 1.02 143 19:38 26.03.2020
5822 Rain 14 1013 39 0 1.02 143 19:20 26.03.2020
5823 Rain 14 1013 39 0 1.02 143 18:55 26.03.2020
5824 Rain 14 1013 39 0 1.02 143 18:37 26.03.2020
5825 Rain 14 1013 39 0 1.02 143 18:19 26.03.2020
5826 Rain 14 1013 39 0 1.02 143 17:42 26.03.2020
5827 Rain 12 1014 45 0 0.36 87 17:19 26.03.2020
5828 Rain 12 1014 45 0 0.36 87 17:19 26.03.2020
5829 Rain 12 1014 45 0 0.36 87 16:45 26.03.2020
5830 Rain 12 1014 45 0 0.36 87 16:27 26.03.2020
5831 Rain 12 1014 45 0 0.36 87 15:59 26.03.2020
5832 Rain 12 1014 45 0 0.36 87 15:40 26.03.2020
5833 Rain 12 1014 45 0 0.36 87 15:22 26.03.2020
5834 Rain 12 1014 45 0 0.36 87 14:58 26.03.2020
5835 Rain 12 1014 45 0 0.36 87 14:39 26.03.2020
5836 Clear 12 1012 45 0 2.25 280 14:19 26.03.2020
5837 Clear 12 1012 45 0 2.25 280 13:44 26.03.2020
5838 Clear 12 1012 45 0 2.25 280 13:23 26.03.2020
5839 Clouds 12 1012 46 0 2.1 282 12:57 26.03.2020
5840 Clouds 12 1012 46 0 2.1 282 12:38 26.03.2020
5841 Clouds 12 1012 46 0 2.1 282 12:19 26.03.2020
5842 Clouds 12 1012 46 0 2.1 282 11:45 26.03.2020
5843 Clouds 12 1012 46 0 2.1 282 11:22 26.03.2020
5844 Clear 13 1011 40 0 2.88 233 10:56 26.03.2020
5845 Clear 13 1011 40 0 2.88 233 10:37 26.03.2020
5846 Clear 13 1011 40 0 2.88 233 10:19 26.03.2020
5847 Clear 13 1011 40 0 2.88 233 09:44 26.03.2020
5848 -273 0 0 0 0 0 09:20 26.03.2020
5849 Clear 13 1011 40 0 2.88 233 08:55 26.03.2020
5850 Clear 13 1011 40 0 2.88 233 08:37 26.03.2020
5851 Clear 15 1010 41 0 4.75 219 08:18 26.03.2020
5852 Clear 15 1010 41 0 4.75 219 07:44 26.03.2020
5853 Clear 15 1010 41 0 4.75 219 07:22 26.03.2020
5854 Clear 15 1010 41 0 4.75 219 06:56 26.03.2020
5855 Clear 15 1010 41 0 4.75 219 05:59 26.03.2020
5856 Clear 17 1007 31 0 7.84 221 04:49 26.03.2020
5857 Clear 17 1007 31 0 7.84 221 03:44 26.03.2020
5858 Clear 17 1007 31 0 7.84 221 02:55 26.03.2020
5859 Clouds 21 1006 24 0 8.74 215 01:50 26.03.2020
5860 Clouds 21 1006 24 0 8.48 218 00:55 26.03.2020
5861 Clouds 21 1006 24 0 8.48 218 00:22 26.03.2020
5862 Clouds 21 1006 24 0 8.48 218 23:41 25.03.2020
5863 Clouds 21 1006 24 0 8.48 218 23:21 25.03.2020
5864 Clouds 21 1009 24 0 4.59 207 22:42 25.03.2020
5865 Clouds 21 1009 24 0 4.59 207 22:21 25.03.2020
5866 Clouds 21 1009 24 0 4.59 207 21:56 25.03.2020
5867 Clouds 21 1009 24 0 4.59 207 21:38 25.03.2020
5868 Clouds 21 1009 24 0 4.59 207 21:20 25.03.2020
5869 Clouds 21 1009 24 0 4.59 207 20:56 25.03.2020
5870 Clouds 21 1009 24 0 4.59 207 20:37 25.03.2020
5871 Clouds 18 1012 33 0 2.61 198 20:18 25.03.2020
5872 Clouds 18 1012 33 0 2.61 198 20:18 25.03.2020
5873 Clouds 18 1012 33 0 2.61 198 19:43 25.03.2020
5874 Clouds 17 1013 33 0 2.32 198 19:23 25.03.2020
5875 Clouds 17 1013 33 0 2.32 198 18:59 25.03.2020
5876 Clouds 18 1012 33 0 2.61 198 18:40 25.03.2020
5877 Clouds 18 1012 33 0 2.61 198 18:22 25.03.2020
5878 Clouds 17 1013 33 0 2.32 198 17:56 25.03.2020
5879 Clouds 18 1012 33 0 2.61 198 17:38 25.03.2020
5880 Clouds 18 1012 33 0 2.61 198 17:38 25.03.2020
5881 Clouds 15 1013 46 0 2.59 210 17:20 25.03.2020
5882 Clouds 15 1013 46 0 2.74 211 16:55 25.03.2020
5883 Clouds 15 1013 46 0 2.74 211 16:36 25.03.2020
5884 Clouds 15 1013 46 0 2.74 211 16:18 25.03.2020
5885 Clouds 15 1013 46 0 2.74 211 15:41 25.03.2020
5886 Clouds 15 1013 46 0 2.74 211 15:20 25.03.2020
5887 Clouds 15 1013 46 0 2.59 210 14:56 25.03.2020
5888 Clouds 15 1013 46 0 2.74 211 14:37 25.03.2020
5889 Clouds 15 1013 48 0 2.71 211 14:18 25.03.2020
5890 Clouds 15 1013 48 0 2.71 211 13:42 25.03.2020
5891 Clouds 15 1013 48 0 2.54 220 13:22 25.03.2020
5892 Clouds 15 1013 48 0 2.54 220 12:38 25.03.2020
5893 Clouds 15 1013 48 0 2.54 220 12:20 25.03.2020
5894 Clouds 15 1013 48 0 2.54 220 11:56 25.03.2020
5895 Clouds 15 1013 48 0 2.54 220 11:38 25.03.2020
5896 Clouds 16 1013 45 0 3.01 221 11:20 25.03.2020
5897 Clouds 16 1013 45 0 3.01 221 10:57 25.03.2020
5898 Clouds 16 1013 45 0 3.01 221 10:39 25.03.2020
5899 Clouds 16 1013 45 0 3.01 221 10:18 25.03.2020
5900 Clouds 16 1013 45 0 3.01 221 09:43 25.03.2020
5901 Clouds 16 1013 45 0 3.01 221 09:24 25.03.2020
5902 Clouds 16 1013 45 0 3.01 221 08:57 25.03.2020
5903 Clouds 16 1013 45 0 3.01 221 08:39 25.03.2020
5904 Clouds 18 1013 41 0 3.86 222 08:19 25.03.2020
5905 Clouds 18 1013 39 0 3.82 222 07:41 25.03.2020
5906 Clouds 18 1013 39 0 3.82 222 07:22 25.03.2020
5907 Clouds 18 1013 39 0 3.82 222 06:50 25.03.2020
5908 Clouds 18 1013 39 0 3.82 222 06:28 25.03.2020
5909 Clouds 18 1013 39 0 3.82 222 05:57 25.03.2020
5910 Clouds 18 1013 39 0 3.82 222 05:37 25.03.2020
5911 Clouds 20 1012 28 0 4.43 217 04:41 25.03.2020
5912 Clouds 20 1012 28 0 4.43 217 03:52 25.03.2020
5913 Clouds 20 1012 28 0 4.43 217 03:29 25.03.2020
5914 Clouds 24 1012 21 0 4.44 209 01:31 25.03.2020
5915 Clouds 24 1011 21 0 4.45 222 00:49 25.03.2020
5916 Clouds 24 1011 21 0 4.45 222 00:26 25.03.2020
5917 Clouds 24 1011 21 0 4.45 222 23:53 24.03.2020
5918 Clouds 24 1011 21 0 4.45 222 23:28 24.03.2020
5919 Clouds 22 1014 28 0 3.53 197 22:57 24.03.2020
5920 Clouds 22 1014 28 0 3.53 197 22:38 24.03.2020
5921 Clouds 22 1014 28 0 3.53 197 22:19 24.03.2020
5922 Clouds 22 1014 28 0 3.53 197 22:19 24.03.2020
5923 Clouds 22 1014 28 0 3.53 197 21:57 24.03.2020
5924 Clouds 22 1014 28 0 3.53 197 21:39 24.03.2020
5925 Clouds 22 1014 28 0 3.53 197 21:18 24.03.2020
5926 Clouds 22 1014 28 0 3.53 197 20:57 24.03.2020
5927 Clouds 22 1014 28 0 3.53 197 20:39 24.03.2020
5928 Clouds 22 1014 28 0 3.53 197 20:21 24.03.2020
5929 Clear 19 1017 41 0 3.56 175 19:46 24.03.2020
5930 Clear 19 1017 41 0 3.56 175 19:20 24.03.2020
5931 Clear 19 1017 41 0 3.56 175 18:56 24.03.2020
5932 Clear 19 1017 41 0 3.56 175 18:38 24.03.2020
5933 Clear 19 1017 41 0 3.56 175 18:20 24.03.2020
5934 Clear 19 1017 41 0 3.56 175 17:56 24.03.2020
5935 Clear 19 1017 41 0 3.56 175 17:38 24.03.2020
5936 Clear 16 1017 53 0 2.15 173 17:20 24.03.2020
5937 Clear 4 1017 87 0 0.45 67 16:56 24.03.2020
5938 Clear 4 1017 89 0 0.89 30 16:37 24.03.2020
5939 Clear 4 1017 92 0 0.89 84 16:19 24.03.2020
5940 Clear 3 1017 93 0 0.45 33 15:42 24.03.2020
5941 Clear 3 1017 94 0 0.45 33 15:24 24.03.2020
5942 Clear 2 1017 94 0 2.19 234 14:44 24.03.2020
5943 Clear 2 1017 94 0 2.19 234 14:44 24.03.2020
5944 Clear 16 1017 53 0 2.15 173 14:23 24.03.2020
5945 Clear 15 1017 54 0 1.41 189 13:59 24.03.2020
5946 Clear 15 1017 54 0 1.41 189 13:41 24.03.2020
5947 Clear 15 1017 54 0 1.41 189 13:22 24.03.2020
5948 Clear 15 1017 52 0 0.88 201 12:43 24.03.2020
5949 Clear 15 1017 52 0 0.88 201 12:25 24.03.2020
5950 Clear 15 1017 52 0 0.88 201 11:56 24.03.2020
5951 Clear 15 1017 52 0 0.88 201 11:37 24.03.2020
5952 Clear 8 1017 66 0 3.28 244 11:18 24.03.2020
5953 Clear 8 1017 66 0 3.28 244 10:41 24.03.2020
5954 Clear 8 1017 66 0 3.28 244 10:19 24.03.2020
5955 Clear 8 1017 66 0 3.28 244 10:19 24.03.2020
5956 Clear 8 1017 66 0 3.28 244 09:48 24.03.2020
5957 Clear 8 1017 66 0 3.28 244 09:27 24.03.2020
5958 Clear 8 1017 66 0 3.28 244 08:58 24.03.2020
5959 Clear 8 1017 66 0 3.28 244 08:38 24.03.2020
5960 Clear 11 1017 55 0 2.39 243 08:20 24.03.2020
5961 Clear 11 1017 55 0 2.39 243 07:45 24.03.2020
5962 Clear 11 1017 55 0 2.39 243 07:22 24.03.2020
5963 Clear 11 1017 55 0 2.39 243 06:42 24.03.2020
5964 Clear 11 1017 55 0 2.39 243 06:23 24.03.2020
5965 Clear 13 1016 42 0 0.97 224 04:53 24.03.2020
5966 Clear 9 1016 62 0 0.97 224 03:43 24.03.2020
5967 Clear 12 1015 52 0 0.97 224 02:45 24.03.2020
5968 Clear 14 1014 35 0 1.69 177 01:38 24.03.2020
5969 Clear 14 1015 52 0 1.34 40 00:42 24.03.2020
5970 Clear 13 1015 56 0 2.68 15 00:22 24.03.2020
5971 Clear 16 1015 52 0 1.34 64 23:39 23.03.2020
5972 Clear 16 1015 53 0 2.24 68 23:21 23.03.2020
5973 Clouds 15 1015 56 0 2.68 27 22:55 23.03.2020
5974 Clouds 15 1015 57 0 2.24 64 22:36 23.03.2020
5975 Clouds 14 1016 58 0 2.24 24 22:18 23.03.2020
5976 Clouds 14 1016 61 0 1.79 27 21:42 23.03.2020
5977 Clouds 13 1015 38 0 0.42 272 21:20 23.03.2020
5978 Clouds 13 1015 38 0 0.42 272 20:57 23.03.2020
5979 Clouds 13 1015 38 0 0.42 272 20:57 23.03.2020
5980 Clouds 13 1016 67 0 1.34 50 20:38 23.03.2020
5981 Clouds 9 1016 56 0 3.04 280 20:19 23.03.2020
5982 Clouds 9 1016 56 0 3.04 280 20:19 23.03.2020
5983 Clouds 9 1016 56 0 3.04 280 19:45 23.03.2020
5984 Clouds 11 1016 74 0 1.79 59 19:27 23.03.2020
5985 Clouds 9 1016 67 0 1.34 142 18:59 23.03.2020
5986 Clouds 8 1016 68 0 0.45 229 18:40 23.03.2020
5987 Clouds 8 1015 71 0 0.45 275 18:21 23.03.2020
5988 Clouds 7 1015 83 0 3.04 280 17:43 23.03.2020
5989 Clouds 6 1015 83 0 3.04 280 17:21 23.03.2020
5990 Rain 6 1015 92 0 0.45 71 16:59 23.03.2020
5991 Rain 4 1015 89 0 4.92 221 16:41 23.03.2020
5992 Rain 4 1014 91 0 0.89 25 16:23 23.03.2020
5993 Rain 3 1013 92 0 4.92 221 15:42 23.03.2020
5994 Rain 3 1013 88 0 0.45 109 15:20 23.03.2020
5995 Rain 3 1013 88 0 0.89 156 14:55 23.03.2020
5996 Rain 3 1013 90 0 1.34 137 14:36 23.03.2020
5997 Rain 3 1012 92 0 1.34 133 14:18 23.03.2020
5998 Rain 3 1013 91 0 2.89 210 13:40 23.03.2020
5999 Rain 3 1013 91 0 2.89 210 13:40 23.03.2020
6000 Rain 3 1013 92 0 0.89 121 13:22 23.03.2020
6001 Rain 3 1013 92 0 3.87 201 12:55 23.03.2020
6002 Rain 3 1013 92 0 3.87 201 12:37 23.03.2020
6003 Rain 3 1014 92 0 3.87 201 12:19 23.03.2020
6004 Rain 3 1014 92 0 3.87 201 11:42 23.03.2020
6005 Rain 8 1013 78 0 3.87 201 11:21 23.03.2020
6006 Rain 9 1014 74 0 2.91 238 10:58 23.03.2020
6007 Rain 4 1015 90 0 0.45 169 10:39 23.03.2020
6008 Rain 4 1015 89 0 2.91 238 10:21 23.03.2020
6009 Rain 4 1015 87 0 0.89 197 09:57 23.03.2020
6010 Rain 4 1015 84 0 2.91 238 09:37 23.03.2020
6011 Rain 5 1016 83 0 1.79 157 09:18 23.03.2020
6012 Rain 6 1016 78 0 0.89 219 08:37 23.03.2020
6013 Clouds 6 1016 75 0 1.34 241 08:19 23.03.2020
6014 Clouds 7 1017 70 0 2.24 232 07:50 23.03.2020
6015 Clouds 7 1017 70 0 2.24 232 07:50 23.03.2020
6016 Clouds 7 1017 68 0 1.34 196 07:31 23.03.2020
6017 Clouds 7 1017 67 0 1.34 253 06:53 23.03.2020
6018 Clouds 8 1017 62 0 1.34 225 06:25 23.03.2020
6019 Clouds 8 1017 58 0 0.45 123 05:42 23.03.2020
6020 Clouds 8 1017 52 0 0.45 121 03:45 23.03.2020
6021 Clouds 10 1016 43 0 0.45 196 02:40 23.03.2020
6022 Clouds 13 1017 40 0 0.45 148 01:38 23.03.2020
6023 Clouds 13 1014 44 0 0.87 211 00:44 23.03.2020
6024 Clouds 13 1014 44 0 0.87 211 23:54 22.03.2020
6025 Clouds 13 1014 44 0 0.87 211 23:36 22.03.2020
6026 Clouds 13 1016 40 0 2.24 130 23:18 22.03.2020
6027 Clouds 9 1020 68 0 0.89 356 22:40 22.03.2020
6028 Clouds 8 1020 77 0 0.89 304 22:19 22.03.2020
6029 Clouds 8 1020 70 0 2.68 340 21:40 22.03.2020
6030 Clouds 8 1021 75 0 0.89 323 21:21 22.03.2020
6031 Clouds 8 1021 71 0 0.89 320 20:58 22.03.2020
6032 Clouds 8 1021 71 0 0.89 320 20:39 22.03.2020
6033 Clouds 9 1021 58 0 1.34 330 20:21 22.03.2020
6034 Clouds 9 1021 58 0 0.45 318 19:56 22.03.2020
6035 Clouds 9 1021 54 0 0.45 267 19:37 22.03.2020
6036 Clouds 11 1021 54 0 0.45 69 19:19 22.03.2020
6037 Clouds 11 1021 53 0 0.89 29 18:57 22.03.2020
6038 Clouds 9 1021 55 0 0.45 252 18:38 22.03.2020
6039 Clouds 8 1021 64 0 0.45 293 18:18 22.03.2020
6040 Clouds 7 1022 66 0 0.45 293 17:56 22.03.2020
6041 Clouds 7 1022 66 0 0.89 246 17:37 22.03.2020
6042 Clouds 6 1022 68 0 2.24 299 17:19 22.03.2020
6043 Clouds 6 1022 70 0 1.34 347 16:55 22.03.2020
6044 Clouds 6 1022 72 0 0.45 318 16:37 22.03.2020
6045 Clouds 5 1022 75 0 1.34 322 16:19 22.03.2020
6046 Clouds 5 1022 75 0 1.34 322 16:19 22.03.2020
6047 Clouds 4 1022 78 0 1.79 322 15:39 22.03.2020
6048 Clouds 3 1021 80 0 1.79 325 15:19 22.03.2020
6049 Clouds 3 1021 79 0 1.79 331 14:46 22.03.2020
6050 Clouds 3 1021 78 0 2.24 341 14:18 22.03.2020
6051 Clouds 3 1021 80 0 1.34 289 13:42 22.03.2020
6052 Clouds 2 1021 79 0 1.79 321 13:20 22.03.2020
6053 Clouds 2 1021 78 0 0.45 297 12:57 22.03.2020
6054 Clouds 8 1019 58 0 0.28 144 12:38 22.03.2020
6055 Clouds 2 1021 77 0 0.28 144 12:18 22.03.2020
6056 Clouds 3 1021 77 0 0.28 144 11:43 22.03.2020
6057 Clouds 3 1021 77 0 0.45 239 11:24 22.03.2020
6058 Clear 3 1021 76 0 0.45 274 10:58 22.03.2020
6059 Clear 3 1021 77 0 0.45 269 10:39 22.03.2020
6060 Clear 3 1021 77 0 1.34 324 10:21 22.03.2020
6061 Clear 3 1021 77 0 1.34 247 09:43 22.03.2020
6062 Clear 3 1021 77 0 1.34 247 09:43 22.03.2020
6063 Clear 3 1021 77 0 1.34 281 09:24 22.03.2020
6064 Clear 3 1021 80 0 1.34 268 08:48 22.03.2020
6065 Clear 3 1021 80 0 1.34 268 08:48 22.03.2020
6066 Clear 3 1021 81 0 2.24 325 08:29 22.03.2020
6067 Clouds 3 1021 82 0 3.13 349 07:54 22.03.2020
6068 Clouds 3 1021 82 0 2.68 340 07:36 22.03.2020
6069 Clouds 3 1022 78 0 3.13 333 06:41 22.03.2020
6070 Clouds 4 1022 73 0 1.34 286 05:47 22.03.2020
6071 Clouds 7 1021 61 0 2.25 240 04:39 22.03.2020
6072 Clouds 9 1019 46 0 2.68 234 01:45 22.03.2020
6073 Clouds 9 1019 46 0 1.79 231 00:50 22.03.2020
6074 Clouds 9 1019 46 0 2.24 231 00:31 22.03.2020
6075 Clouds 9 1019 49 0 0.89 235 23:46 21.03.2020
6076 Clouds 9 1019 48 0 0.45 132 23:22 21.03.2020
6077 Clouds 9 1020 46 0 1.34 259 22:59 21.03.2020
6078 Clouds 9 1020 42 0 1.79 199 22:38 21.03.2020
6079 Clouds 10 1020 41 0 0.89 206 22:20 21.03.2020
6080 Clouds 10 1020 41 0 1.38 154 21:58 21.03.2020
6081 Clouds 11 1020 39 0 1.79 228 21:38 21.03.2020
6082 Clouds 12 1018 37 0 1.38 154 21:20 21.03.2020
6083 Clouds 12 1021 39 0 1.34 98 20:43 21.03.2020
6084 Clouds 11 1021 39 0 0.89 77 20:22 21.03.2020
6085 Clouds 10 1020 46 0 0.92 46 19:55 21.03.2020
6086 Clouds 10 1020 46 0 0.92 46 19:37 21.03.2020
6087 Clouds 10 1020 46 0 0.92 46 19:18 21.03.2020
6088 Clouds 8 1022 56 0 0.89 321 18:41 21.03.2020
6089 Clouds 8 1022 59 0 0.89 268 18:21 21.03.2020
6090 Clouds 6 1022 68 0 0.89 262 17:59 21.03.2020
6091 Clouds 5 1022 71 0 0.89 283 17:41 21.03.2020
6092 Clouds 4 1022 74 0 0.89 268 17:22 21.03.2020
6093 Clouds 4 1022 75 0 0.89 270 16:43 21.03.2020
6094 Clouds 4 1022 77 0 0.89 229 16:24 21.03.2020
6095 Clouds 3 1022 79 0 0.45 284 15:59 21.03.2020
6096 Clouds 3 1022 80 0 1.34 336 15:41 21.03.2020
6097 Clouds 3 1022 81 0 0.45 310 15:23 21.03.2020
6098 Clouds 3 1022 82 0 0.89 318 14:58 21.03.2020
6099 Clouds 3 1022 83 0 0.45 318 14:40 21.03.2020
6100 Clouds 2 1022 84 0 0.45 307 14:20 21.03.2020
6101 Clouds 2 1022 84 0 0.45 314 13:59 21.03.2020
6102 Clouds 2 1022 86 0 1.33 312 13:40 21.03.2020
6103 Clouds 2 1022 85 0 0.45 293 13:21 21.03.2020
6104 Clouds 2 1022 85 0 0.45 293 13:21 21.03.2020
6105 Clouds 3 1022 83 0 0.45 299 12:59 21.03.2020
6106 Clouds 3 1022 80 0 1.32 328 12:38 21.03.2020
6107 Clouds 3 1022 77 0 0.89 292 12:19 21.03.2020
6108 Clouds 3 1022 72 0 1.32 328 11:56 21.03.2020
6109 Clouds 3 1022 70 0 1.32 328 11:38 21.03.2020
6110 Clouds 4 1022 70 0 0.45 226 11:19 21.03.2020
6111 Clouds 3 1022 71 0 0.45 210 10:56 21.03.2020
6112 Clouds 3 1022 71 0 0.81 6 10:38 21.03.2020
6113 Clouds 3 1023 71 0 0.81 6 10:19 21.03.2020
6114 Clouds 3 1023 71 0 0.81 6 09:56 21.03.2020
6115 Clouds 3 1023 72 0 0.45 218 09:37 21.03.2020
6116 Clouds 3 1023 77 0 0.81 6 09:19 21.03.2020
6117 Clouds 3 1023 76 0 0.81 6 08:43 21.03.2020
6118 Clouds 3 1023 74 0 0.61 209 08:24 21.03.2020
6119 Clouds 10 1020 47 0 0.84 70 07:45 21.03.2020
6120 Clouds 10 1020 47 0 0.84 70 07:27 21.03.2020
6121 Clouds 3 1024 68 0 0.84 70 06:48 21.03.2020
6122 Clouds 3 1024 65 0 0.84 70 06:28 21.03.2020
6123 Clouds 3 1023 66 0 0.84 70 05:48 21.03.2020
6124 Clouds 5 1023 55 0 1.59 114 04:47 21.03.2020
6125 Clouds 7 1023 41 0 0.89 123 02:55 21.03.2020
6126 Clouds 8 1023 39 0 0.89 159 02:33 21.03.2020
6127 Clouds 11 1023 40 0 0.89 83 01:38 21.03.2020
6128 Clouds 11 1023 41 0 0.89 210 01:18 21.03.2020
6129 Clouds 9 1023 44 0 1.34 173 00:38 21.03.2020
6130 Clouds 9 1024 49 0 0.45 106 23:58 20.03.2020
6131 Clouds 7 1024 57 0 0.89 231 23:40 20.03.2020
6132 Clouds 9 1024 46 0 0.45 214 23:18 20.03.2020
6133 Clouds 12 1024 36 0 0.89 40 22:42 20.03.2020
6134 Clouds 11 1021 36 0 2.31 165 22:24 20.03.2020
6135 Clouds 11 1021 36 0 2.31 165 21:57 20.03.2020
6136 Clouds 11 1021 36 0 2.31 165 21:39 20.03.2020
6137 Clouds 11 1021 36 0 2.31 165 21:18 20.03.2020
6138 Clouds 11 1021 36 0 2.31 165 20:57 20.03.2020
6139 Clouds 11 1021 36 0 2.31 165 20:39 20.03.2020
6140 Clear 8 1023 48 0 1.45 161 20:18 20.03.2020
6141 Clear 8 1023 48 0 1.45 161 19:46 20.03.2020
6142 Clear 8 1023 48 0 1.45 161 19:19 20.03.2020
6143 Clear 8 1023 48 0 1.45 161 18:56 20.03.2020
6144 Clear 8 1026 52 0 0.45 20 18:37 20.03.2020
6145 Clear 8 1026 55 0 0.89 347 18:19 20.03.2020
6146 Clear 7 1025 59 0 1.45 161 17:40 20.03.2020
6147 Clear 6 1025 65 0 0.89 333 17:21 20.03.2020
6148 Clear 5 1025 68 0 1.34 333 16:59 20.03.2020
6149 Clear 3 1025 72 0 1.34 331 16:41 20.03.2020
6150 Clear 1 1025 81 0 0.89 329 16:20 20.03.2020
6151 Clear 1 1025 81 0 0.89 329 16:20 20.03.2020
6152 Clear 5 1024 66 0 0.98 289 15:43 20.03.2020
6153 Clear 5 1024 66 0 0.98 289 15:22 20.03.2020
6154 Clear 5 1024 66 0 0.98 289 14:58 20.03.2020
6155 Clear 5 1024 66 0 0.98 289 14:40 20.03.2020
6156 Clear 4 1021 78 0 2.12 267 14:20 20.03.2020
6157 Clear 4 1021 78 0 2.12 267 13:48 20.03.2020
6158 Clear 4 1022 75 0 1.86 264 13:21 20.03.2020
6159 Clear 4 1022 75 0 1.86 264 12:57 20.03.2020
6160 Clear 4 1022 75 0 1.86 264 12:37 20.03.2020
6161 Clear 4 1022 75 0 1.86 264 12:18 20.03.2020
6162 Clear 4 1022 75 0 1.86 264 11:39 20.03.2020
6163 Rain 5 1021 73 0 2.23 251 11:20 20.03.2020
6164 Rain 5 1021 73 0 2.23 251 10:54 20.03.2020
6165 Rain 5 1021 73 0 2.23 251 10:36 20.03.2020
6166 Rain 5 1021 73 0 2.23 251 10:18 20.03.2020
6167 Rain 5 1021 73 0 2.23 251 09:44 20.03.2020
6168 Rain 0 1023 83 0 2.23 251 09:20 20.03.2020
6169 Rain 1 1022 81 0 0.45 268 08:43 20.03.2020
6170 Rain 1 1022 83 0 0.89 231 08:23 20.03.2020
6171 Rain 0 1022 86 0 3.13 339 07:57 20.03.2020
6172 Rain 0 1022 85 0 2.68 349 07:38 20.03.2020
6173 Rain 1 1022 83 0 1.79 332 07:19 20.03.2020
6174 Rain 1 1022 83 0 1.79 332 07:19 20.03.2020
6175 Rain 0 1022 84 0 0.89 312 06:42 20.03.2020
6176 Rain 6 1019 70 0 2.17 245 06:18 20.03.2020
6177 Clouds 1 1019 79 0 3.64 220 04:36 20.03.2020
6178 Clouds 2 1018 73 0 0.89 31 02:50 20.03.2020
6179 Clouds 3 1017 77 0 1.79 283 01:50 20.03.2020
6180 Clouds 6 1016 55 0 4.02 214 00:41 20.03.2020
6181 Clouds 4 1016 73 0 0.89 320 23:59 19.03.2020
6182 Clouds 4 1016 71 0 0.89 266 23:40 19.03.2020
6183 Clouds 4 1016 77 0 2.24 209 23:22 19.03.2020
6184 Clouds 10 1015 39 0 8.76 216 22:41 19.03.2020
6185 Clouds 10 1015 39 0 8.76 216 22:22 19.03.2020
6186 Clouds 7 1016 48 0 2.24 233 21:58 19.03.2020
6187 Clouds 8 1016 51 0 1.79 45 21:38 19.03.2020
6188 Clouds 8 1016 51 0 1.34 45 21:19 19.03.2020
6189 Clouds 9 1016 46 0 2.24 20 20:44 19.03.2020
6190 Clouds 10 1015 45 0 2.24 50 20:25 19.03.2020
6191 Clouds 8 1015 49 0 1.79 360 19:59 19.03.2020
6192 Clouds 8 1015 50 0 2.24 45 19:39 19.03.2020
6193 Clouds 7 1015 53 0 1.79 50 19:21 19.03.2020
6194 Clouds 8 1015 50 0 1.79 16 18:58 19.03.2020
6195 Clouds 8 1014 45 0 3.31 212 18:40 19.03.2020
6196 Clouds 8 1015 51 0 1.34 78 18:22 19.03.2020
6197 Clouds 7 1014 53 0 1.34 333 17:55 19.03.2020
6198 Clouds 7 1014 54 0 1.34 40 17:37 19.03.2020
6199 Clouds 6 1014 60 0 0.89 82 17:18 19.03.2020
6200 Clouds 3 1014 70 0 0.89 63 16:42 19.03.2020
6201 Clouds 2 1014 73 0 0.89 27 16:21 19.03.2020
6202 Clouds 4 1014 58 0 2.78 247 15:44 19.03.2020
6203 Clouds 4 1014 58 0 2.78 247 15:24 19.03.2020
6204 Clouds 4 1014 58 0 2.78 247 14:54 19.03.2020
6205 Clouds 4 1014 58 0 2.78 247 14:36 19.03.2020
6206 Clear 4 1011 59 0 3.46 253 14:18 19.03.2020
6207 Clear 4 1011 59 0 3.46 253 13:39 19.03.2020
6208 Clear 4 1011 56 0 3.21 255 13:18 19.03.2020
6209 Clear 4 1011 56 0 3.21 255 12:42 19.03.2020
6210 Clear 4 1011 56 0 3.21 255 12:24 19.03.2020
6211 Clear 4 1011 56 0 3.21 255 11:59 19.03.2020
6212 Clear 4 1011 56 0 3.21 255 11:41 19.03.2020
6213 Clear 4 1011 56 0 3.21 255 11:22 19.03.2020
6214 Clear 6 1009 47 0 2.93 253 10:44 19.03.2020
6215 Clear 6 1009 47 0 2.93 253 10:22 19.03.2020
6216 Clear 6 1009 47 0 2.93 253 09:58 19.03.2020
6217 Clear 6 1009 47 0 2.93 253 09:40 19.03.2020
6218 Clear 6 1009 47 0 2.93 253 09:20 19.03.2020
6219 Clear 6 1009 47 0 2.93 253 08:46 19.03.2020
6220 Clear 6 1009 47 0 2.93 253 08:23 19.03.2020
6221 Clouds 8 1007 36 0 0.66 175 07:48 19.03.2020
6222 Clouds 8 1007 36 0 0.66 175 07:30 19.03.2020
6223 Clouds 8 1007 36 0 0.66 175 06:55 19.03.2020
6224 Clouds 8 1007 36 0 0.66 175 06:18 19.03.2020
6225 Clouds 8 1007 36 0 0.66 175 05:23 19.03.2020
6226 Clouds 9 1006 29 0 0.61 228 04:41 19.03.2020
6227 Clouds 4 1007 42 0 0.45 220 03:44 19.03.2020
6228 Clouds 11 1006 32 0 2.24 23 01:45 19.03.2020
6229 Clouds 10 1005 26 0 1.55 197 00:39 19.03.2020
6230 Clouds 10 1005 26 0 1.55 197 00:18 19.03.2020
6231 Clouds 10 1005 26 0 1.55 197 23:41 18.03.2020
6232 Clouds 10 1005 26 0 1.55 197 23:21 18.03.2020
6233 Clouds 9 1007 29 0 2.08 136 22:42 18.03.2020
6234 Clouds 9 1007 29 0 2.08 136 22:22 18.03.2020
6235 Clouds 9 1007 29 0 2.08 136 21:55 18.03.2020
6236 Clouds 9 1007 29 0 2.08 136 21:37 18.03.2020
6237 Clouds 9 1007 29 0 2.08 136 21:19 18.03.2020
6238 Clouds 9 1007 29 0 2.08 136 20:55 18.03.2020
6239 Clouds 9 1007 29 0 2.08 136 20:37 18.03.2020
6240 Clouds 7 1009 42 0 1.99 83 20:18 18.03.2020
6241 Clouds 7 1009 42 0 1.99 83 19:40 18.03.2020
6242 Clouds 7 1009 42 0 1.99 83 19:21 18.03.2020
6243 Clouds 7 1009 42 0 1.99 83 18:56 18.03.2020
6244 Clouds 7 1009 42 0 1.99 83 18:38 18.03.2020
6245 Clouds 7 1011 43 0 0.89 75 18:19 18.03.2020
6246 Clouds 6 1011 46 0 1.34 79 17:55 18.03.2020
6247 Clouds 4 1011 44 0 0.89 292 17:37 18.03.2020
6248 Clouds 4 1011 49 0 1.34 341 17:18 18.03.2020
6249 Clouds 2 1011 57 0 1.34 309 16:42 18.03.2020
6250 Clouds -1 1011 70 0 1.34 311 16:20 18.03.2020
6251 Clouds -1 1011 70 0 1.34 311 16:20 18.03.2020
6252 Clouds -1 1011 70 0 1.34 311 16:20 18.03.2020
6253 Clouds 5 1011 51 0 1.84 329 15:57 18.03.2020
6254 Clouds 5 1011 51 0 1.84 329 15:38 18.03.2020
6255 Clouds 5 1011 51 0 1.84 329 15:19 18.03.2020
6256 Clouds 5 1011 51 0 1.84 329 14:42 18.03.2020
6257 Clouds 5 1011 51 0 1.84 329 14:21 18.03.2020
6258 Clear 4 1011 62 0 2.3 276 13:41 18.03.2020
6259 Clear 4 1011 62 0 2.3 276 13:19 18.03.2020
6260 Clouds 4 1011 61 0 1.98 278 12:55 18.03.2020
6261 Clouds 4 1011 61 0 1.98 278 12:37 18.03.2020
6262 Clouds 4 1011 61 0 1.98 278 12:18 18.03.2020
6263 Clouds 4 1011 61 0 1.98 278 11:38 18.03.2020
6264 Clear 5 1012 60 0 2.2 251 11:19 18.03.2020
6265 Clear 5 1012 60 0 2.2 251 10:57 18.03.2020
6266 Clear 5 1012 60 0 2.2 251 10:37 18.03.2020
6267 Clear 5 1012 60 0 2.2 251 10:19 18.03.2020
6268 Clear 5 1012 60 0 2.2 251 09:42 18.03.2020
6269 Clear 5 1012 60 0 2.2 251 09:23 18.03.2020
6270 Clear 5 1012 60 0 2.2 251 09:23 18.03.2020
6271 Clear 5 1012 60 0 2.2 251 08:55 18.03.2020
6272 Clear 5 1012 60 0 2.2 251 08:37 18.03.2020
6273 Clouds 6 1012 53 0 3.22 227 08:19 18.03.2020
6274 Clouds 6 1012 54 0 3.11 226 07:43 18.03.2020
6275 Clouds 6 1012 54 0 3.11 226 07:25 18.03.2020
6276 Clouds 6 1012 54 0 3.11 226 06:44 18.03.2020
6277 Clouds 6 1012 54 0 3.11 226 05:56 18.03.2020
6278 Clouds 6 1012 54 0 3.11 226 05:33 18.03.2020
6279 Clouds 7 1010 44 0 4.66 216 03:56 18.03.2020
6280 Clouds 3 1012 62 0 2.68 197 02:42 18.03.2020
6281 Clear 6 1011 51 0 3.58 200 01:47 18.03.2020
6282 Clear 7 1012 41 0 4.02 244 01:21 18.03.2020
6283 Clear 8 1012 43 0 3.13 187 00:23 18.03.2020
6284 Clear 8 1012 43 0 3.13 218 23:47 17.03.2020
6285 Clear 8 1012 43 0 3.13 218 23:47 17.03.2020
6286 Clear 7 1012 42 0 4.02 256 23:26 17.03.2020
6287 Clear 7 1012 44 0 3.58 154 22:55 17.03.2020
6288 Clear 7 1012 45 0 3.58 245 22:37 17.03.2020
6289 Clear 7 1012 43 0 3.13 241 22:18 17.03.2020
6290 Clear 7 1013 45 0 2.68 274 21:39 17.03.2020
6291 Clear 7 1013 47 0 1.79 202 21:21 17.03.2020
6292 Clear 9 1013 53 0 0.89 82 20:40 17.03.2020
6293 Clear 7 1014 44 0 1.34 150 20:21 17.03.2020
6294 Clouds 6 1014 45 0 0.89 131 19:58 17.03.2020
6295 Clouds 6 1014 48 0 1.34 213 19:39 17.03.2020
6296 Clouds 7 1014 68 0 1.34 23 19:18 17.03.2020
6297 Clouds 6 1014 73 0 1.34 92 18:55 17.03.2020
6298 Clouds 6 1014 73 0 1.79 60 18:37 17.03.2020
6299 Clouds 4 1014 74 0 0.89 54 18:19 17.03.2020
6300 Clouds 3 1014 67 0 0.89 73 17:40 17.03.2020
6301 Clouds 3 1014 65 0 2.24 100 17:21 17.03.2020
6302 Clouds 2 1013 64 0 1.79 91 16:55 17.03.2020
6303 Clouds 0 1013 72 0 1.34 95 16:36 17.03.2020
6304 Clouds -1 1013 71 0 0.89 89 16:18 17.03.2020
6305 Clouds 4 1014 48 0 3.79 226 15:41 17.03.2020
6306 Clouds 4 1014 48 0 3.79 226 15:19 17.03.2020
6307 Clouds 4 1014 48 0 3.79 226 14:42 17.03.2020
6308 Clouds 4 1014 48 0 3.79 226 14:21 17.03.2020
6309 Clouds -2 1012 86 0 0.89 204 13:44 17.03.2020
6310 Clouds -2 1012 85 0 0.45 181 13:26 17.03.2020
6311 Clouds -1 1012 84 0 0.89 189 12:58 17.03.2020
6312 Clouds -1 1011 83 0 0.45 181 12:40 17.03.2020
6313 Clouds -1 1011 83 0 1.34 141 12:21 17.03.2020
6314 Clouds -1 1011 83 0 3.46 214 11:46 17.03.2020
6315 Clouds 0 1011 83 0 4.25 235 11:27 17.03.2020
6316 Rain 1 1011 84 0 0.89 162 10:58 17.03.2020
6317 Rain 1 1011 85 0 0.45 160 10:38 17.03.2020
6318 Rain 1 1011 83 0 0.89 153 10:20 17.03.2020
6319 Rain 1 1011 84 0 0.89 149 09:55 17.03.2020
6320 Rain 1 1011 84 0 0.89 149 09:55 17.03.2020
6321 Rain 1 1011 86 0 0.89 155 09:36 17.03.2020
6322 Rain 1 1011 86 0 1.34 196 09:18 17.03.2020
6323 Rain 1 1011 88 0 1.34 131 08:42 17.03.2020
6324 Rain 1 1011 89 0 1.79 105 08:21 17.03.2020
6325 Rain 1 1011 90 0 1.79 119 07:50 17.03.2020
6326 Rain 1 1011 89 0 2.24 172 07:25 17.03.2020
6327 Rain 2 1011 89 0 2.68 207 06:56 17.03.2020
6328 Rain 2 1011 89 0 2.24 124 06:33 17.03.2020
6329 Rain 2 1011 88 0 2.24 139 05:41 17.03.2020
6330 Rain 3 1011 87 0 3.13 158 03:36 17.03.2020
6331 Rain 4 1010 83 0 1.79 258 02:45 17.03.2020
6332 Clouds 12 1008 46 0 8.15 185 01:41 17.03.2020
6333 Rain 7 1009 68 0 3.58 197 01:19 17.03.2020
6334 Rain 8 1010 52 0 3.58 245 00:25 17.03.2020
6335 Rain 9 1010 48 0 3.58 220 23:45 16.03.2020
6336 Rain 11 1010 45 0 2.68 149 23:23 16.03.2020
6337 Clouds 11 1011 41 0 4.92 190 22:40 16.03.2020
6338 Clouds 11 1012 43 0 3.58 175 22:22 16.03.2020
6339 Clouds 12 1012 42 0 3.58 248 21:55 16.03.2020
6340 Clouds 11 1013 52 0 1.79 102 21:36 16.03.2020
6341 Clouds 11 1013 54 0 0.89 91 21:18 16.03.2020
6342 Clouds 11 1013 53 0 1.79 50 20:43 16.03.2020
6343 Clouds 10 1014 49 0 2.24 99 20:24 16.03.2020
6344 Clouds 9 1014 51 0 2.24 188 19:56 16.03.2020
6345 Clouds 8 1015 56 0 3.13 203 19:37 16.03.2020
6346 Clouds 7 1015 62 0 1.79 191 19:18 16.03.2020
6347 Clouds 6 1016 66 0 3.58 264 18:41 16.03.2020
6348 Clouds 5 1016 69 0 2.24 238 18:20 16.03.2020
6349 Clouds 6 1016 66 0 1.34 185 17:47 16.03.2020
6350 Clouds 6 1016 68 0 2.24 101 17:26 16.03.2020
6351 Clouds 3 1016 73 0 1.34 180 16:59 16.03.2020
6352 Clouds 3 1016 74 0 1.34 169 16:41 16.03.2020
6353 Clouds 2 1016 74 0 2.24 237 16:22 16.03.2020
6354 Clouds 1 1016 81 0 0.89 107 15:44 16.03.2020
6355 Clouds 1 1016 79 0 0.45 247 15:25 16.03.2020
6356 Clouds 2 1016 77 0 0.89 231 14:49 16.03.2020
6357 Clouds 2 1016 76 0 2.24 213 14:27 16.03.2020
6358 Clear 2 1016 78 0 2.24 262 13:57 16.03.2020
6359 Clear 1 1016 80 0 2.68 204 13:38 16.03.2020
6360 Clear 1 1015 83 0 1.34 179 13:20 16.03.2020
6361 Clear 0 1016 84 0 0.45 169 12:44 16.03.2020
6362 Clear 0 1016 84 0 3.81 245 12:23 16.03.2020
6363 Clear 2 1016 80 0 3.81 245 11:46 16.03.2020
6364 Clear 2 1016 80 0 0.45 225 11:27 16.03.2020
6365 Clear 2 1016 80 0 1.34 243 10:56 16.03.2020
6366 Clear 2 1016 79 0 1.79 208 10:37 16.03.2020
6367 Clear 3 1016 80 0 1.34 231 10:18 16.03.2020
6368 Clear 3 1016 80 0 2.24 232 09:42 16.03.2020
6369 Clear 3 1016 80 0 2.68 226 09:21 16.03.2020
6370 Clear 3 1016 80 0 2.24 234 08:49 16.03.2020
6371 Clear 3 1016 80 0 3.13 229 08:25 16.03.2020
6372 Clear 3 1016 82 0 1.79 181 07:45 16.03.2020
6373 Clear 3 1016 81 0 1.79 212 07:21 16.03.2020
6374 Clear 3 1016 78 0 1.34 216 06:51 16.03.2020
6375 Clear 3 1016 77 0 2.24 234 06:23 16.03.2020
6376 Clear 10 1014 50 0 5.57 221 04:54 16.03.2020
6377 Clear 7 1015 63 0 3.58 180 02:41 16.03.2020
6378 Clear 12 1015 44 0 3.58 186 00:52 16.03.2020
6379 Clear 11 1015 46 0 3.13 250 00:32 16.03.2020
6380 Clear 9 1015 52 0 3.58 181 23:46 15.03.2020
6381 Clouds 9 1015 51 0 3.58 151 23:20 15.03.2020
6382 Clouds 10 1015 48 0 2.68 220 22:42 15.03.2020
6383 Clouds 9 1015 49 0 4.92 125 22:22 15.03.2020
6384 Clouds 9 1015 49 0 3.58 173 21:56 15.03.2020
6385 Clouds 11 1015 47 0 2.68 177 21:37 15.03.2020
6386 Clouds 9 1016 52 0 3.13 188 21:18 15.03.2020
6387 Clouds 8 1016 52 0 3.13 162 20:42 15.03.2020
6388 Clear 8 1016 56 0 2.68 161 20:20 15.03.2020
6389 Clear 8 1016 56 0 3.58 217 19:58 15.03.2020
6390 Clear 8 1016 56 0 4.02 168 19:38 15.03.2020
6391 Clear 8 1017 58 0 4.47 160 19:19 15.03.2020
6392 Clear 8 1017 59 0 3.58 200 18:55 15.03.2020
6393 Clear 8 1017 56 0 3.58 193 18:37 15.03.2020
6394 Clear 8 1017 59 0 3.13 210 18:18 15.03.2020
6395 Clear 7 1016 60 0 3.58 195 17:41 15.03.2020
6396 Clear 6 1016 65 0 2.68 247 17:21 15.03.2020
6397 Clear 6 1016 68 0 3.13 164 16:58 15.03.2020
6398 Clear 6 1016 68 0 3.13 164 16:58 15.03.2020
6399 Clear 5 1016 72 0 1.79 155 16:38 15.03.2020
6400 Clear 4 1016 74 0 3.58 162 16:19 15.03.2020
6401 Clear 3 1015 78 0 3.13 259 15:45 15.03.2020
6402 Clear 3 1015 79 0 3.13 239 15:27 15.03.2020
6403 Clear 2 1015 82 0 1.79 146 14:57 15.03.2020
6404 Clear 3 1015 79 0 2.68 229 14:38 15.03.2020
6405 Clouds 2 1015 80 0 2.68 189 14:18 15.03.2020
6406 Clouds 2 1015 80 0 2.68 189 14:18 15.03.2020
6407 Clouds 2 1015 80 0 3.13 223 13:54 15.03.2020
6408 Clouds 2 1015 80 0 2.24 232 13:36 15.03.2020
6409 Clouds 3 1015 80 0 1.79 167 13:18 15.03.2020
6410 Clouds 3 1015 80 0 1.79 167 13:18 15.03.2020
6411 Clouds 3 1015 81 0 2.24 101 12:39 15.03.2020
6412 Clouds 3 1015 82 0 1.34 152 12:21 15.03.2020
6413 Clouds 3 1015 83 0 1.79 146 11:43 15.03.2020
6414 Clouds 3 1015 82 0 1.34 139 11:24 15.03.2020
6415 Clouds 3 1015 82 0 2.24 81 10:57 15.03.2020
6416 Clouds 3 1016 82 0 1.34 226 10:39 15.03.2020
6417 Clouds 3 1016 80 0 0.89 235 10:21 15.03.2020
6418 Clouds 4 1016 80 0 1.79 212 09:44 15.03.2020
6419 Clouds 4 1016 79 0 1.79 220 09:25 15.03.2020
6420 Clouds 4 1016 78 0 1.79 232 08:59 15.03.2020
6421 Clouds 4 1016 78 0 1.79 175 08:40 15.03.2020
6422 Clouds 4 1016 79 0 2.24 164 08:19 15.03.2020
6423 Clouds 4 1017 78 0 1.34 149 07:44 15.03.2020
6424 Clouds 4 1016 78 0 3.13 104 07:18 15.03.2020
6425 Clouds 5 1016 78 0 2.68 76 06:36 15.03.2020
6426 Clouds 6 1016 79 0 2.24 98 05:46 15.03.2020
6427 Clouds 6 1016 79 0 0.89 137 04:55 15.03.2020
6428 Clouds 6 1016 79 0 2.24 123 04:37 15.03.2020
6429 Clouds 6 1015 78 0 3.13 99 04:18 15.03.2020
6430 Clouds 8 1014 73 0 3.13 110 02:54 15.03.2020
6431 Clouds 10 1014 65 0 1.34 217 02:21 15.03.2020
6432 Clouds 11 1014 58 0 2.68 148 00:58 15.03.2020
6433 Clouds 11 1014 60 0 1.79 260 00:40 15.03.2020
6434 Clouds 11 1014 57 0 3.13 130 00:19 15.03.2020
6435 Clouds 10 1013 61 0 4.02 157 23:39 14.03.2020
6436 Clouds 10 1014 61 0 3.58 197 23:20 14.03.2020
6437 Clouds 11 1014 61 0 3.13 233 22:56 14.03.2020
6438 Clouds 12 1014 57 0 4.02 189 22:37 14.03.2020
6439 Clouds 12 1014 58 0 4.92 239 22:19 14.03.2020
6440 Clouds 11 1014 59 0 3.58 191 21:55 14.03.2020
6441 Clouds 11 1014 59 0 3.58 191 21:55 14.03.2020
6442 Clouds 9 1015 62 0 5.36 152 21:36 14.03.2020
6443 Clouds 9 1015 63 0 4.92 259 21:18 14.03.2020
6444 Clouds 9 1015 63 0 3.58 207 20:56 14.03.2020
6445 Clouds 9 1015 63 0 3.58 207 20:56 14.03.2020
6446 Clouds 9 1015 62 0 4.02 187 20:38 14.03.2020
6447 Clouds 9 1015 64 0 3.58 157 20:18 14.03.2020
6448 Clouds 9 1014 64 0 5.81 275 19:41 14.03.2020
6449 Clouds 9 1014 65 0 6.26 233 19:20 14.03.2020
6450 Clouds 8 1014 70 0 5.36 250 18:40 14.03.2020
6451 Clouds 8 1014 73 0 4.92 200 18:21 14.03.2020
6452 Clouds 7 1014 77 0 4.92 239 17:43 14.03.2020
6453 Clouds 6 1014 78 0 4.47 191 17:24 14.03.2020
6454 Clouds 6 1014 80 0 4.47 227 16:59 14.03.2020
6455 Clouds 5 1013 83 0 3.13 240 16:39 14.03.2020
6456 Clouds 4 1013 85 0 3.58 233 16:20 14.03.2020
6457 Clouds 3 1013 86 0 3.58 185 15:51 14.03.2020
6458 Clouds 3 1013 87 0 2.24 179 15:25 14.03.2020
6459 Clouds 3 1013 88 0 1.34 227 14:45 14.03.2020
6460 Clouds 3 1012 88 0 1.79 202 14:23 14.03.2020
6461 Clouds 3 1012 88 0 1.79 130 13:57 14.03.2020
6462 Clouds 3 1012 88 0 2.24 114 13:39 14.03.2020
6463 Clouds 4 1011 86 0 3.58 121 13:20 14.03.2020
6464 Clouds 4 1011 89 0 2.24 110 12:45 14.03.2020
6465 Clouds 4 1011 89 0 2.68 148 12:26 14.03.2020
6466 Clouds 3 1011 90 0 1.34 135 11:56 14.03.2020
6467 Clouds 3 1011 90 0 1.34 135 11:56 14.03.2020
6468 Clouds 4 1012 90 0 1.79 133 11:38 14.03.2020
6469 Clouds 3 1012 93 0 4.31 230 11:19 14.03.2020
6470 Clouds 4 1012 95 0 0.45 81 10:42 14.03.2020
6471 Clouds 4 1012 95 0 0.45 50 10:23 14.03.2020
6472 Clouds 4 1012 94 0 0.89 76 09:46 14.03.2020
6473 Clouds 4 1011 94 0 0.89 50 09:24 14.03.2020
6474 Clouds 4 1011 94 0 1.34 76 08:51 14.03.2020
6475 Clouds 4 1011 93 0 1.79 55 08:29 14.03.2020
6476 Clouds 5 1011 93 0 1.34 85 07:56 14.03.2020
6477 Clouds 5 1011 93 0 1.34 29 07:38 14.03.2020
6478 Clouds 6 1011 91 0 1.34 55 07:19 14.03.2020
6479 Clouds 6 1010 91 0 1.34 90 06:40 14.03.2020
6480 Clouds 6 1010 91 0 1.34 90 06:40 14.03.2020
6481 Clouds 6 1010 84 0 0.45 123 05:43 14.03.2020
6482 Clouds 7 1008 84 0 0.89 125 03:49 14.03.2020
6483 Clouds 7 1008 86 0 0.45 107 03:24 14.03.2020
6484 Clouds 11 1007 79 0 0.89 94 02:23 14.03.2020
6485 Clouds 9 1007 83 0 2.24 108 00:49 14.03.2020
6486 Clouds 9 1007 84 0 1.79 113 23:51 13.03.2020
6487 Clouds 9 1007 82 0 1.79 205 23:30 13.03.2020
6488 Clouds 9 1006 86 0 2.24 50 22:52 13.03.2020
6489 Clouds 9 1006 86 0 2.24 50 22:52 13.03.2020
6490 Clouds 9 1006 83 0 1.34 150 22:26 13.03.2020
6491 Clouds 8 1006 92 0 1.79 71 21:44 13.03.2020
6492 Clouds 9 1006 91 0 1.34 102 21:22 13.03.2020
6493 Clouds 10 1006 90 0 1.79 60 20:59 13.03.2020
6494 Clouds 10 1006 93 0 0.89 64 20:41 13.03.2020
6495 Rain 9 1007 93 0 0.89 75 20:22 13.03.2020
6496 Rain 9 1006 93 0 1.34 69 19:49 13.03.2020
6497 Rain 9 1007 94 0 0.89 68 19:31 13.03.2020
6498 Rain 9 1007 96 0 0.45 97 18:55 13.03.2020
6499 Rain 8 1006 96 0 0.45 45 18:36 13.03.2020
6500 Rain 7 1007 96 0 0.45 50 18:18 13.03.2020
6501 Rain 7 1006 95 0 0.45 59 17:41 13.03.2020
6502 Rain 7 1006 96 0 0.45 64 17:21 13.03.2020
6503 Rain 7 1006 96 0 0.45 64 17:21 13.03.2020
6504 Rain 7 1006 96 0 0.45 80 16:56 13.03.2020
6505 Rain 7 1006 95 0 0.45 81 16:37 13.03.2020
6506 Rain 6 1006 95 0 0.45 82 16:19 13.03.2020
6507 Rain 6 1005 95 0 0.45 45 15:41 13.03.2020
6508 Rain 6 1005 95 0 0.45 50 15:21 13.03.2020
6509 Rain 6 1005 94 0 0.45 69 14:44 13.03.2020
6510 Rain 6 1005 94 0 0.45 68 14:23 13.03.2020
6511 Rain 6 1004 94 0 1.46 227 13:59 13.03.2020
6512 Rain 6 1005 94 0 0.45 27 13:40 13.03.2020
6513 Clouds 6 1004 93 0 0.96 196 13:21 13.03.2020
6514 Clouds 6 1004 93 0 0.96 196 12:56 13.03.2020
6515 Clouds 6 1004 93 0 0.96 196 12:38 13.03.2020
6516 Clouds 6 1004 92 0 0.96 196 12:19 13.03.2020
6517 Clouds 6 1005 92 0 0.89 27 11:46 13.03.2020
6518 Clouds 6 1004 92 0 0.96 196 11:26 13.03.2020
6519 Clouds 6 1005 91 0 2.1 35 10:59 13.03.2020
6520 Clouds 6 1005 90 0 2.1 35 10:41 13.03.2020
6521 Clouds 6 1005 90 0 0.45 322 10:23 13.03.2020
6522 Clouds 6 1006 89 0 1.34 339 09:45 13.03.2020
6523 Clouds 6 1006 87 0 1.34 331 09:26 13.03.2020
6524 Clouds 6 1007 88 0 1.79 25 08:56 13.03.2020
6525 Clouds 6 1007 89 0 0.89 351 08:37 13.03.2020
6526 Rain 7 1007 87 0 0.89 29 08:18 13.03.2020
6527 Rain 7 1008 86 0 0.89 354 07:43 13.03.2020
6528 Rain 7 1007 86 0 0.89 17 07:22 13.03.2020
6529 Rain 8 1008 80 0 0.89 55 06:46 13.03.2020
6530 Rain 9 1007 74 0 1.34 91 06:20 13.03.2020
6531 Rain 10 1007 60 0 1.79 229 05:43 13.03.2020
6532 Clouds 12 1005 49 0 2.68 357 04:39 13.03.2020
6533 Clouds 12 1005 43 0 3.58 333 03:50 13.03.2020
6534 Clouds 16 1005 38 0 4.07 104 02:29 13.03.2020
6535 Clouds 17 1006 36 0 5.12 110 01:20 13.03.2020
6536 Clouds 17 1006 36 0 5.12 110 00:59 13.03.2020
6537 Clouds 17 1006 36 0 5.12 110 00:39 13.03.2020
6538 Clouds 14 1008 40 0 3.58 356 00:18 13.03.2020
6539 Clouds 14 1008 39 0 2.24 334 23:38 12.03.2020
6540 Clouds 14 1009 38 0 1.34 352 23:19 12.03.2020
6541 Clouds 16 1009 35 0 2.68 62 22:44 12.03.2020
6542 Clouds 16 1010 35 0 1.79 40 22:25 12.03.2020
6543 Clouds 17 1010 32 0 2.68 50 21:56 12.03.2020
6544 Clouds 17 1011 32 0 2.24 17 21:38 12.03.2020
6545 Clouds 18 1012 29 0 1.79 77 21:20 12.03.2020
6546 Clouds 16 1012 34 0 4.02 320 20:42 12.03.2020
6547 Clear 14 1013 39 0 3.58 337 20:20 12.03.2020
6548 Clear 13 1013 42 0 4.92 345 19:42 12.03.2020
6549 Clear 13 1014 42 0 2.68 334 19:22 12.03.2020
6550 Clear 14 1014 44 0 4.02 345 18:59 12.03.2020
6551 Clear 13 1014 48 0 3.58 325 18:41 12.03.2020
6552 Clear 12 1014 51 0 4.02 344 18:22 12.03.2020
6553 Clear 13 1015 52 0 4.02 321 17:56 12.03.2020
6554 Clear 12 1015 53 0 4.92 355 17:37 12.03.2020
6555 Clear 11 1015 60 0 5.81 356 17:18 12.03.2020
6556 Clear 9 1015 65 0 4.92 335 16:41 12.03.2020
6557 Clear 8 1015 66 0 5.36 309 16:22 12.03.2020
6558 Clear 7 1015 67 0 4.47 343 15:49 12.03.2020
6559 Clear 7 1015 67 0 4.92 333 15:28 12.03.2020
6560 Clear 7 1015 67 0 4.92 333 15:28 12.03.2020
6561 Clear 7 1015 67 0 4.47 340 14:56 12.03.2020
6562 Clear 7 1015 68 0 3.58 320 14:38 12.03.2020
6563 Clear 7 1015 70 0 4.02 346 14:18 12.03.2020
6564 Clear 11 1013 61 0 2.9 357 13:40 12.03.2020
6565 Clear 11 1013 60 0 2.55 6 13:21 12.03.2020
6566 Clear 11 1013 60 0 2.55 6 12:55 12.03.2020
6567 Clear 11 1013 60 0 2.55 6 12:37 12.03.2020
6568 Clear 11 1013 60 0 2.55 6 12:18 12.03.2020
6569 Clear 11 1013 60 0 2.55 6 11:56 12.03.2020
6570 Clear 11 1013 60 0 2.55 6 11:37 12.03.2020
6571 Clear 6 1016 73 0 2.45 354 11:18 12.03.2020
6572 Clear 8 1017 70 0 1.79 350 10:43 12.03.2020
6573 Clear 8 1017 70 0 1.79 350 10:43 12.03.2020
6574 Clear 8 1016 70 0 2.68 343 10:24 12.03.2020
6575 Clear 12 1014 59 0 2.45 354 09:59 12.03.2020
6576 Clear 12 1014 59 0 2.45 354 09:41 12.03.2020
6577 Clear 6 1017 75 0 2.45 354 09:23 12.03.2020
6578 Clear 7 1017 75 0 1.79 341 08:39 12.03.2020
6579 Clear 13 1015 59 0 1.7 356 08:19 12.03.2020
6580 Clear 13 1015 59 0 1.7 356 07:48 12.03.2020
6581 Clear 13 1015 59 0 1.7 356 07:22 12.03.2020
6582 Clear 13 1015 59 0 1.7 356 06:33 12.03.2020
6583 Clear 13 1015 59 0 1.7 356 05:36 12.03.2020
6584 Clouds 9 1017 76 0 0.91 71 03:54 12.03.2020
6585 Clouds 14 1016 50 0 0.45 352 02:21 12.03.2020
6586 Rain 13 1016 52 0 0.45 227 01:29 12.03.2020
6587 Clouds 14 1016 50 0 0.89 245 00:42 12.03.2020
6588 Clouds 13 1017 53 0 1.79 226 23:59 11.03.2020
6589 Clouds 12 1017 62 0 2.24 201 23:37 11.03.2020
6590 Rain 12 1017 59 0 1.34 220 23:18 11.03.2020
6591 Rain 12 1018 56 0 1.34 220 22:42 11.03.2020
6592 Rain 13 1018 56 0 0.45 223 22:23 11.03.2020
6593 Rain 12 1018 65 0 1.79 204 21:58 11.03.2020
6594 Rain 11 1019 64 0 1.79 205 21:40 11.03.2020
6595 Rain 11 1019 72 0 1.34 177 21:22 11.03.2020
6596 Rain 10 1019 70 0 1.34 258 20:57 11.03.2020
6597 Rain 11 1019 64 0 0.89 268 20:38 11.03.2020
6598 Rain 12 1020 67 0 1.34 341 20:19 11.03.2020
6599 Clouds 11 1018 76 0 1.5 26 19:43 11.03.2020
6600 Clouds 13 1020 69 0 1.34 339 19:25 11.03.2020
6601 Clouds 9 1020 81 0 0.45 299 18:57 11.03.2020
6602 Clouds 9 1020 81 0 0.45 299 18:38 11.03.2020
6603 Clouds 8 1021 83 0 0.89 312 18:20 11.03.2020
6604 Clouds 8 1020 82 0 1.5 26 17:56 11.03.2020
6605 Clouds 8 1020 82 0 0.45 287 17:37 11.03.2020
6606 Clouds 7 1020 86 0 0.89 268 17:19 11.03.2020
6607 Clouds 6 1020 89 0 0.45 320 16:45 11.03.2020
6608 Clouds 5 1020 91 0 1.55 24 16:21 11.03.2020
6609 Clouds 4 1020 93 0 0.89 331 15:44 11.03.2020
6610 Clouds 3 1019 94 0 0.89 326 15:24 11.03.2020
6611 Clouds 3 1019 92 0 1.55 24 14:57 11.03.2020
6612 Clouds 3 1019 93 0 1.55 24 14:39 11.03.2020
6613 Clouds 3 1019 90 0 1.55 24 14:21 11.03.2020
6614 Rain 4 1019 89 0 1.56 1 13:44 11.03.2020
6615 Rain 4 1019 90 0 0.45 291 13:26 11.03.2020
6616 Rain 4 1019 90 0 1.71 28 12:58 11.03.2020
6617 Rain 4 1019 91 0 0.89 349 12:39 11.03.2020
6618 Rain 4 1019 93 0 1.79 334 12:19 11.03.2020
6619 Rain 4 1020 93 0 2.24 343 11:42 11.03.2020
6620 Rain 4 1020 93 0 0.89 293 11:24 11.03.2020
6621 Rain 4 1020 92 0 3.13 325 10:57 11.03.2020
6622 Rain 4 1020 93 0 2.24 315 10:39 11.03.2020
6623 Rain 4 1020 93 0 3.13 4 10:18 11.03.2020
6624 Rain 4 1020 93 0 3.58 318 09:42 11.03.2020
6625 Rain 4 1020 93 0 2.68 318 09:24 11.03.2020
6626 Rain 4 1020 92 0 1.34 328 08:45 11.03.2020
6627 Rain 4 1020 91 0 2.24 319 08:27 11.03.2020
6628 Rain 4 1020 90 0 2.68 344 07:56 11.03.2020
6629 Rain 4 1021 91 0 2.24 338 07:37 11.03.2020
6630 Rain 4 1020 90 0 2.68 333 07:18 11.03.2020
6631 Rain 5 1021 90 0 1.79 323 06:37 11.03.2020
6632 Rain 6 1020 88 0 2.68 316 05:34 11.03.2020
6633 Rain 6 1020 84 0 1.34 287 03:59 11.03.2020
6634 Clouds 7 1019 79 0 1.34 301 01:59 11.03.2020
6635 Clouds 7 1019 77 0 0.45 278 01:26 11.03.2020
6636 Rain 7 1020 75 0 0.89 299 00:45 11.03.2020
6637 Rain 7 1020 75 0 1.34 254 23:57 10.03.2020
6638 Rain 7 1020 76 0 0.89 284 23:39 10.03.2020
6639 Rain 8 1020 72 0 0.89 312 23:20 10.03.2020
6640 Rain 9 1020 71 0 0.45 323 22:38 10.03.2020
6641 Rain 8 1019 87 0 2.7 33 22:19 10.03.2020
6642 Rain 8 1019 87 0 2.7 33 21:56 10.03.2020
6643 Rain 8 1019 87 0 2.7 33 21:38 10.03.2020
6644 Rain 9 1021 64 0 1.34 354 21:20 10.03.2020
6645 Rain 8 1022 64 0 0.89 285 20:58 10.03.2020
6646 Rain 8 1022 69 0 0.89 316 20:40 10.03.2020
6647 Rain 7 1022 70 0 1.34 328 20:18 10.03.2020
6648 Rain 7 1022 72 0 1.79 318 19:56 10.03.2020
6649 Rain 7 1022 74 0 1.79 332 19:37 10.03.2020
6650 Rain 6 1022 74 0 2.24 317 19:18 10.03.2020
6651 Rain 6 1022 77 0 2.24 323 18:44 10.03.2020
6652 Rain 7 1022 75 0 1.34 291 18:25 10.03.2020
6653 Rain 6 1021 75 0 1.34 347 17:57 10.03.2020
6654 Rain 7 1021 74 0 0.89 264 17:38 10.03.2020
6655 Rain 8 1021 50 0 1.47 50 17:20 10.03.2020
6656 Rain 8 1021 51 0 0.89 20 16:39 10.03.2020
6657 Rain 7 1020 56 0 1.47 50 16:18 10.03.2020
6658 Rain 7 1020 52 0 1.47 50 15:55 10.03.2020
6659 Rain 7 1020 52 0 1.47 50 15:55 10.03.2020
6660 Rain 7 1020 50 0 1.47 50 15:37 10.03.2020
6661 Rain 7 1020 48 0 1.47 50 15:18 10.03.2020
6662 Rain 7 1020 48 0 0.45 13 14:41 10.03.2020
6663 Rain 6 1019 49 0 0.45 35 14:20 10.03.2020
6664 Rain 6 1019 51 0 3.03 354 13:57 10.03.2020
6665 Rain 6 1019 51 0 3.03 354 13:38 10.03.2020
6666 Clouds 6 1019 54 0 1.14 76 13:19 10.03.2020
6667 Clouds 6 1019 52 0 1.14 76 12:41 10.03.2020
6668 Clouds 6 1019 50 0 0.45 35 12:19 10.03.2020
6669 Clouds 6 1019 51 0 1.14 76 11:57 10.03.2020
6670 Clouds 6 1019 50 0 1.14 76 11:39 10.03.2020
6671 Clouds 6 1020 49 0 0.45 57 11:20 10.03.2020
6672 Clouds 5 1020 52 0 0.93 40 10:41 10.03.2020
6673 Clouds 4 1020 51 0 0.93 40 10:23 10.03.2020
6674 Clouds 5 1020 49 0 0.93 40 09:57 10.03.2020
6675 Clouds 6 1020 47 0 0.93 40 09:39 10.03.2020
6676 Clouds 6 1020 45 0 0.45 35 09:19 10.03.2020
6677 Clouds 6 1020 45 0 0.93 40 08:50 10.03.2020
6678 Clouds 6 1020 44 0 0.45 40 08:32 10.03.2020
6679 Clouds 7 1020 45 0 0.45 70 07:50 10.03.2020
6680 Clouds 7 1020 46 0 0.98 3 07:31 10.03.2020
6681 Clouds 7 1021 48 0 0.98 3 06:47 10.03.2020
6682 Clouds 7 1021 48 0 0.98 3 06:28 10.03.2020
6683 Clouds 7 1020 48 0 0.98 3 05:41 10.03.2020
6684 Clouds 8 1020 40 0 1.16 130 04:48 10.03.2020
6685 Clouds 9 1020 37 0 0.45 231 03:55 10.03.2020
6686 Clouds 10 1019 32 0 1.79 332 02:27 10.03.2020
6687 Clouds 12 1018 32 0 1.34 50 01:30 10.03.2020
6688 Clouds 12 1018 33 0 1.79 71 00:44 10.03.2020
6689 Clouds 13 1018 31 0 3.13 356 00:26 10.03.2020
6690 Clouds 13 1018 29 0 2.24 33 23:41 09.03.2020
6691 Clouds 14 1018 29 0 2.68 352 23:21 09.03.2020
6692 Clouds 13 1018 31 0 2.24 353 22:55 09.03.2020
6693 Clouds 14 1018 29 0 2.68 15 22:36 09.03.2020
6694 Clouds 13 1017 26 0 3.16 185 22:18 09.03.2020
6695 Clouds 11 1019 38 0 2.24 347 21:41 09.03.2020
6696 Clouds 12 1019 36 0 2.68 13 21:21 09.03.2020
6697 Clouds 12 1019 35 0 2.24 40 20:58 09.03.2020
6698 Clouds 13 1019 31 0 2.24 35 20:39 09.03.2020
6699 Clouds 11 1018 30 0 1.73 231 20:20 09.03.2020
6700 Clouds 11 1018 30 0 1.73 231 19:45 09.03.2020
6701 Clouds 11 1018 30 0 1.73 231 19:26 09.03.2020
6702 Clouds 11 1020 48 0 1.34 35 18:59 09.03.2020
6703 Clouds 9 1020 52 0 1.34 66 18:40 09.03.2020
6704 Clouds 9 1020 54 0 1.34 59 18:20 09.03.2020
6705 Clouds 8 1020 55 0 1.34 68 17:58 09.03.2020
6706 Clouds 8 1020 57 0 1.79 33 17:38 09.03.2020
6707 Clouds 7 1020 63 0 0.89 50 17:20 09.03.2020
6708 Clouds 5 1019 68 0 2.59 264 16:59 09.03.2020
6709 Clouds 3 1019 75 0 2.59 264 16:40 09.03.2020
6710 Clouds 8 1018 51 0 2.59 264 16:22 09.03.2020
6711 Clouds 8 1018 51 0 2.59 264 15:58 09.03.2020
6712 Clouds 8 1018 51 0 2.59 264 15:39 09.03.2020
6713 Clouds 8 1018 51 0 2.59 264 15:21 09.03.2020
6714 Clouds 8 1018 51 0 2.59 264 14:57 09.03.2020
6715 Clouds 8 1018 51 0 2.59 264 14:38 09.03.2020
6716 Clouds 8 1016 55 0 2.63 259 14:19 09.03.2020
6717 Clouds 8 1016 55 0 2.63 259 13:58 09.03.2020
6718 Clouds 8 1016 55 0 2.63 259 13:38 09.03.2020
6719 Clouds 2 1017 76 0 1.34 27 13:19 09.03.2020
6720 Clouds 2 1017 72 0 0.89 4 12:43 09.03.2020
6721 Clouds 2 1017 73 0 1.34 81 12:23 09.03.2020
6722 Clouds 3 1017 69 0 2.68 254 11:58 09.03.2020
6723 Clouds 3 1017 69 0 0.89 50 11:38 09.03.2020
6724 Clouds 4 1017 68 0 1.79 101 11:20 09.03.2020
6725 Clouds 4 1017 67 0 2.24 93 10:55 09.03.2020
6726 Clouds 4 1017 65 0 1.79 106 10:37 09.03.2020
6727 Clouds 4 1017 64 0 0.89 81 10:18 09.03.2020
6728 Clouds 4 1017 62 0 2.24 91 09:42 09.03.2020
6729 Clouds 4 1017 61 0 0.89 25 09:23 09.03.2020
6730 Clouds 5 1017 58 0 1.34 82 08:45 09.03.2020
6731 Clouds 5 1017 56 0 0.89 62 08:27 09.03.2020
6732 Clouds 7 1017 51 0 1.79 40 07:44 09.03.2020
6733 Clouds 7 1017 47 0 1.34 94 07:23 09.03.2020
6734 Clouds 7 1017 48 0 1.79 114 06:59 09.03.2020
6735 Clouds 7 1016 50 0 2.24 101 06:39 09.03.2020
6736 Clouds 6 1017 54 0 1.34 139 06:21 09.03.2020
6737 Clouds 6 1016 55 0 1.34 120 05:41 09.03.2020
6738 Clear 7 1015 55 0 2.24 148 04:56 09.03.2020
6739 Clear 7 1015 53 0 2.68 195 04:37 09.03.2020
6740 Clear 7 1015 53 0 2.68 195 04:37 09.03.2020
6741 Clear 7 1015 51 0 2.24 183 04:18 09.03.2020
6742 Clear 9 1014 39 0 0.89 169 02:51 09.03.2020
6743 Clouds 13 1013 32 0 2.24 231 00:42 09.03.2020
6744 Clouds 13 1013 31 0 1.79 202 00:24 09.03.2020
6745 Clouds 13 1011 34 0 3.28 225 23:58 08.03.2020
6746 Clouds 13 1011 34 0 3.28 225 23:58 08.03.2020
6747 Clouds 13 1011 34 0 3.28 225 23:38 08.03.2020
6748 Clouds 12 1012 42 0 1.82 180 23:18 08.03.2020
6749 Clouds 12 1012 42 0 1.82 180 22:40 08.03.2020
6750 Clouds 12 1012 42 0 1.82 180 22:22 08.03.2020
6751 Clouds 12 1012 42 0 1.82 180 21:59 08.03.2020
6752 Clouds 12 1012 42 0 1.82 180 21:40 08.03.2020
6753 Clouds 12 1012 42 0 1.82 180 21:20 08.03.2020
6754 Clouds 12 1012 42 0 1.82 180 20:57 08.03.2020
6755 Clouds 12 1012 42 0 1.82 180 20:37 08.03.2020
6756 Clear 9 1013 53 0 1.29 186 20:19 08.03.2020
6757 Clear 9 1013 53 0 1.29 186 19:40 08.03.2020
6758 Clear 9 1013 53 0 1.29 186 19:19 08.03.2020
6759 Clear 9 1013 53 0 1.29 186 18:55 08.03.2020
6760 Clear 9 1013 53 0 1.29 186 18:37 08.03.2020
6761 Clear 9 1015 53 0 0.89 130 18:18 08.03.2020
6762 Clear 7 1015 66 0 1.29 186 17:39 08.03.2020
6763 Clear 5 1015 71 0 0.45 177 17:21 08.03.2020
6764 Clear 3 1015 78 0 0.45 165 16:58 08.03.2020
6765 Clear 2 1014 87 0 2.19 268 16:40 08.03.2020
6766 Clear 1 1014 94 0 0.45 104 16:21 08.03.2020
6767 Clear 6 1014 72 0 2.19 268 15:41 08.03.2020
6768 Clear 6 1014 72 0 2.19 268 15:41 08.03.2020
6769 Clear 6 1014 72 0 2.19 268 15:22 08.03.2020
6770 Clear 6 1014 72 0 2.19 268 14:59 08.03.2020
6771 Clear 6 1014 72 0 2.19 268 14:38 08.03.2020
6772 Clear 5 1011 77 0 3.04 254 14:19 08.03.2020
6773 Clear 5 1011 77 0 3.04 254 13:42 08.03.2020
6774 Clear 5 1011 77 0 3.04 254 13:21 08.03.2020
6775 Clouds 5 1012 77 0 2.89 254 12:57 08.03.2020
6776 Clouds 5 1012 77 0 2.89 254 12:37 08.03.2020
6777 Clouds 5 1012 77 0 2.89 254 12:18 08.03.2020
6778 Clouds 5 1012 77 0 2.89 254 11:41 08.03.2020
6779 Clouds 5 1012 77 0 2.89 254 11:22 08.03.2020
6780 Clouds 7 1012 73 0 4.66 242 10:57 08.03.2020
6781 Clouds 7 1012 73 0 4.66 242 10:39 08.03.2020
6782 Clouds 7 1012 73 0 4.66 242 10:21 08.03.2020
6783 Clouds 7 1012 73 0 4.66 242 09:39 08.03.2020
6784 Clouds 7 1012 73 0 4.66 242 09:21 08.03.2020
6785 Clouds 3 1011 58 0 4.66 242 08:46 08.03.2020
6786 Clouds 3 1010 57 0 0.89 104 08:21 08.03.2020
6787 Clouds 8 1011 67 0 4.74 236 07:49 08.03.2020
6788 Clouds 8 1011 67 0 4.74 236 07:28 08.03.2020
6789 Clouds 8 1011 67 0 4.74 236 06:45 08.03.2020
6790 Clouds 4 1010 49 0 1.34 229 06:27 08.03.2020
6791 Clouds 6 1009 50 0 2.24 176 05:47 08.03.2020
6792 Clouds 8 1008 44 0 1.79 183 03:52 08.03.2020
6793 Clouds 8 1007 43 0 3.58 204 02:59 08.03.2020
6794 Clouds 12 1007 43 0 2.24 159 01:38 08.03.2020
6795 Clouds 12 1007 38 0 4.02 143 01:19 08.03.2020
6796 Clouds 13 1007 36 0 3.58 151 00:41 08.03.2020
6797 Clouds 14 1007 37 0 4.02 225 23:59 07.03.2020
6798 Clouds 13 1007 36 0 3.13 202 23:41 07.03.2020
6799 Clouds 12 1007 35 0 3.58 176 23:19 07.03.2020
6800 Clouds 12 1007 34 0 3.13 154 22:38 07.03.2020
6801 Clouds 13 1007 35 0 3.58 179 22:19 07.03.2020
6802 Clouds 13 1007 34 0 4.02 215 21:45 07.03.2020
6803 Clouds 12 1008 36 0 5.36 240 21:24 07.03.2020
6804 Clouds 12 1008 37 0 3.58 137 20:42 07.03.2020
6805 Clouds 12 1008 35 0 3.13 168 20:22 07.03.2020
6806 Clouds 11 1008 34 0 3.13 216 19:57 07.03.2020
6807 Clouds 11 1008 35 0 2.68 204 19:38 07.03.2020
6808 Clouds 10 1008 36 0 2.24 174 19:19 07.03.2020
6809 Clouds 10 1008 36 0 2.24 227 18:41 07.03.2020
6810 Clouds 9 1009 36 0 2.24 230 18:22 07.03.2020
6811 Clouds 9 1009 36 0 2.24 205 17:54 07.03.2020
6812 Clouds 8 1009 39 0 2.68 234 17:36 07.03.2020
6813 Clouds 8 1009 41 0 1.79 220 17:18 07.03.2020
6814 Clouds 7 1009 43 0 2.24 223 16:42 07.03.2020
6815 Clouds